<?xml version="1.0" encoding="UTF-8"?>
<gpx version="1.1" creator="https://www.youtrack.es" xsi:schemaLocation="http://www.topografix.com/GPX/1/1 http://www.topografix.com/GPX/1/1/gpx.xsd http://www.garmin.com/xmlschemas/GpxExtensions/v3 http://www.garmin.com/xmlschemas/GpxExtensionsv3.xsd http://www.garmin.com/xmlschemas/TrackPointExtension/v1 http://www.garmin.com/xmlschemas/TrackPointExtensionv1.xsd" xmlns:gpxtpx="http://www.garmin.com/xmlschemas/TrackPointExtension/v1" xmlns:gpxx="http://www.garmin.com/xmlschemas/GpxExtensions/v3" xmlns:xsi="http://www.w3.org/2001/XMLSchema-instance">
  <metadata>
    <link href="https://www.youtrack.es">
      <text>YouTrack.es</text>
    </link>
    <time>2026-05-07T22:07:45Z</time>
  </metadata>
  <trk>
    <src>https://www.youtrack.es</src>
    <link href="https://www.youtrack.es/ruta/2268-fonollosa">
      <text>YouTrack.es</text>
    </link>
    <trkseg>
      <trkpt lat="41.7630890" lon="1.6689800">
        <ele>519.2</ele>
        <time>2018-09-23T10:35:37Z</time>
      </trkpt>
      <trkpt lat="41.7630830" lon="1.6689760">
        <ele>519.4</ele>
        <time>2018-09-23T10:35:38Z</time>
      </trkpt>
      <trkpt lat="41.7629770" lon="1.6689870">
        <ele>520.0</ele>
        <time>2018-09-23T10:35:49Z</time>
      </trkpt>
      <trkpt lat="41.7626380" lon="1.6688240">
        <ele>518.2</ele>
        <time>2018-09-23T10:36:14Z</time>
      </trkpt>
      <trkpt lat="41.7625440" lon="1.6687670">
        <ele>517.2</ele>
        <time>2018-09-23T10:36:20Z</time>
      </trkpt>
      <trkpt lat="41.7624300" lon="1.6687010">
        <ele>516.0</ele>
        <time>2018-09-23T10:36:27Z</time>
      </trkpt>
      <trkpt lat="41.7623320" lon="1.6686500">
        <ele>515.0</ele>
        <time>2018-09-23T10:36:33Z</time>
      </trkpt>
      <trkpt lat="41.7622390" lon="1.6686020">
        <ele>513.8</ele>
        <time>2018-09-23T10:36:39Z</time>
      </trkpt>
      <trkpt lat="41.7622080" lon="1.6685730">
        <ele>512.8</ele>
        <time>2018-09-23T10:36:43Z</time>
      </trkpt>
      <trkpt lat="41.7621990" lon="1.6685690">
        <ele>512.6</ele>
        <time>2018-09-23T10:36:44Z</time>
      </trkpt>
      <trkpt lat="41.7621540" lon="1.6685100">
        <ele>511.4</ele>
        <time>2018-09-23T10:36:51Z</time>
      </trkpt>
      <trkpt lat="41.7621490" lon="1.6684740">
        <ele>511.0</ele>
        <time>2018-09-23T10:36:55Z</time>
      </trkpt>
      <trkpt lat="41.7621610" lon="1.6684450">
        <ele>510.8</ele>
        <time>2018-09-23T10:37:11Z</time>
      </trkpt>
      <trkpt lat="41.7623000" lon="1.6677440">
        <ele>511.0</ele>
        <time>2018-09-23T10:37:30Z</time>
      </trkpt>
      <trkpt lat="41.7622200" lon="1.6670350">
        <ele>511.6</ele>
        <time>2018-09-23T10:37:50Z</time>
      </trkpt>
      <trkpt lat="41.7619270" lon="1.6666260">
        <ele>511.2</ele>
        <time>2018-09-23T10:37:58Z</time>
      </trkpt>
      <trkpt lat="41.7618450" lon="1.6663290">
        <ele>510.4</ele>
        <time>2018-09-23T10:38:02Z</time>
      </trkpt>
      <trkpt lat="41.7618560" lon="1.6661600">
        <ele>510.2</ele>
        <time>2018-09-23T10:38:04Z</time>
      </trkpt>
      <trkpt lat="41.7618630" lon="1.6659830">
        <ele>510.0</ele>
        <time>2018-09-23T10:38:06Z</time>
      </trkpt>
      <trkpt lat="41.7617200" lon="1.6655660">
        <ele>509.0</ele>
        <time>2018-09-23T10:38:11Z</time>
      </trkpt>
      <trkpt lat="41.7616970" lon="1.6654660">
        <ele>508.6</ele>
        <time>2018-09-23T10:38:12Z</time>
      </trkpt>
      <trkpt lat="41.7616370" lon="1.6652610">
        <ele>507.6</ele>
        <time>2018-09-23T10:38:14Z</time>
      </trkpt>
      <trkpt lat="41.7615230" lon="1.6650830">
        <ele>506.4</ele>
        <time>2018-09-23T10:38:16Z</time>
      </trkpt>
      <trkpt lat="41.7612720" lon="1.6649100">
        <ele>505.0</ele>
        <time>2018-09-23T10:38:19Z</time>
      </trkpt>
      <trkpt lat="41.7611860" lon="1.6648710">
        <ele>504.2</ele>
        <time>2018-09-23T10:38:20Z</time>
      </trkpt>
      <trkpt lat="41.7611050" lon="1.6648300">
        <ele>503.2</ele>
        <time>2018-09-23T10:38:21Z</time>
      </trkpt>
      <trkpt lat="41.7610360" lon="1.6647800">
        <ele>502.0</ele>
        <time>2018-09-23T10:38:22Z</time>
      </trkpt>
      <trkpt lat="41.7609790" lon="1.6647170">
        <ele>500.8</ele>
        <time>2018-09-23T10:38:23Z</time>
      </trkpt>
      <trkpt lat="41.7609330" lon="1.6646530">
        <ele>499.8</ele>
        <time>2018-09-23T10:38:24Z</time>
      </trkpt>
      <trkpt lat="41.7608670" lon="1.6645320">
        <ele>497.8</ele>
        <time>2018-09-23T10:38:26Z</time>
      </trkpt>
      <trkpt lat="41.7608110" lon="1.6644280">
        <ele>497.0</ele>
        <time>2018-09-23T10:38:28Z</time>
      </trkpt>
      <trkpt lat="41.7607220" lon="1.6643050">
        <ele>496.8</ele>
        <time>2018-09-23T10:38:31Z</time>
      </trkpt>
      <trkpt lat="41.7604410" lon="1.6638140">
        <ele>496.2</ele>
        <time>2018-09-23T10:38:42Z</time>
      </trkpt>
      <trkpt lat="41.7600020" lon="1.6638430">
        <ele>495.8</ele>
        <time>2018-09-23T10:38:53Z</time>
      </trkpt>
      <trkpt lat="41.7599750" lon="1.6639970">
        <ele>495.6</ele>
        <time>2018-09-23T10:38:56Z</time>
      </trkpt>
      <trkpt lat="41.7600100" lon="1.6643560">
        <ele>497.0</ele>
        <time>2018-09-23T10:39:07Z</time>
      </trkpt>
      <trkpt lat="41.7600170" lon="1.6644390">
        <ele>498.2</ele>
        <time>2018-09-23T10:39:10Z</time>
      </trkpt>
      <trkpt lat="41.7600450" lon="1.6645860">
        <ele>499.4</ele>
        <time>2018-09-23T10:39:15Z</time>
      </trkpt>
      <trkpt lat="41.7600660" lon="1.6646850">
        <ele>500.6</ele>
        <time>2018-09-23T10:39:19Z</time>
      </trkpt>
      <trkpt lat="41.7600810" lon="1.6648220">
        <ele>501.8</ele>
        <time>2018-09-23T10:39:24Z</time>
      </trkpt>
      <trkpt lat="41.7600750" lon="1.6649690">
        <ele>503.0</ele>
        <time>2018-09-23T10:39:29Z</time>
      </trkpt>
      <trkpt lat="41.7600130" lon="1.6651340">
        <ele>504.2</ele>
        <time>2018-09-23T10:39:36Z</time>
      </trkpt>
      <trkpt lat="41.7599750" lon="1.6651970">
        <ele>505.2</ele>
        <time>2018-09-23T10:39:41Z</time>
      </trkpt>
      <trkpt lat="41.7599400" lon="1.6652350">
        <ele>506.2</ele>
        <time>2018-09-23T10:39:46Z</time>
      </trkpt>
      <trkpt lat="41.7598700" lon="1.6653050">
        <ele>507.2</ele>
        <time>2018-09-23T10:39:53Z</time>
      </trkpt>
      <trkpt lat="41.7598570" lon="1.6653140">
        <ele>507.6</ele>
        <time>2018-09-23T10:39:54Z</time>
      </trkpt>
      <trkpt lat="41.7597440" lon="1.6654030">
        <ele>508.6</ele>
        <time>2018-09-23T10:40:01Z</time>
      </trkpt>
      <trkpt lat="41.7595280" lon="1.6654200">
        <ele>509.6</ele>
        <time>2018-09-23T10:40:10Z</time>
      </trkpt>
      <trkpt lat="41.7593350" lon="1.6653020">
        <ele>510.6</ele>
        <time>2018-09-23T10:40:17Z</time>
      </trkpt>
      <trkpt lat="41.7588220" lon="1.6651540">
        <ele>511.2</ele>
        <time>2018-09-23T10:40:31Z</time>
      </trkpt>
      <trkpt lat="41.7584090" lon="1.6656160">
        <ele>511.4</ele>
        <time>2018-09-23T10:40:44Z</time>
      </trkpt>
      <trkpt lat="41.7582140" lon="1.6658820">
        <ele>512.0</ele>
        <time>2018-09-23T10:40:52Z</time>
      </trkpt>
      <trkpt lat="41.7580920" lon="1.6659590">
        <ele>513.0</ele>
        <time>2018-09-23T10:40:56Z</time>
      </trkpt>
      <trkpt lat="41.7579650" lon="1.6659900">
        <ele>514.0</ele>
        <time>2018-09-23T10:41:00Z</time>
      </trkpt>
      <trkpt lat="41.7578030" lon="1.6660100">
        <ele>515.2</ele>
        <time>2018-09-23T10:41:05Z</time>
      </trkpt>
      <trkpt lat="41.7576030" lon="1.6660460">
        <ele>516.4</ele>
        <time>2018-09-23T10:41:12Z</time>
      </trkpt>
      <trkpt lat="41.7574350" lon="1.6660890">
        <ele>517.4</ele>
        <time>2018-09-23T10:41:19Z</time>
      </trkpt>
      <trkpt lat="41.7573010" lon="1.6661610">
        <ele>518.4</ele>
        <time>2018-09-23T10:41:25Z</time>
      </trkpt>
      <trkpt lat="41.7571880" lon="1.6662210">
        <ele>519.6</ele>
        <time>2018-09-23T10:41:30Z</time>
      </trkpt>
      <trkpt lat="41.7570550" lon="1.6663110">
        <ele>520.6</ele>
        <time>2018-09-23T10:41:36Z</time>
      </trkpt>
      <trkpt lat="41.7568760" lon="1.6664270">
        <ele>521.8</ele>
        <time>2018-09-23T10:41:43Z</time>
      </trkpt>
      <trkpt lat="41.7565470" lon="1.6665620">
        <ele>523.0</ele>
        <time>2018-09-23T10:41:54Z</time>
      </trkpt>
      <trkpt lat="41.7561100" lon="1.6669760">
        <ele>523.8</ele>
        <time>2018-09-23T10:42:11Z</time>
      </trkpt>
      <trkpt lat="41.7560690" lon="1.6670440">
        <ele>524.0</ele>
        <time>2018-09-23T10:42:13Z</time>
      </trkpt>
      <trkpt lat="41.7559300" lon="1.6672310">
        <ele>525.2</ele>
        <time>2018-09-23T10:42:19Z</time>
      </trkpt>
      <trkpt lat="41.7558300" lon="1.6673280">
        <ele>526.6</ele>
        <time>2018-09-23T10:42:23Z</time>
      </trkpt>
      <trkpt lat="41.7557460" lon="1.6674160">
        <ele>527.8</ele>
        <time>2018-09-23T10:42:26Z</time>
      </trkpt>
      <trkpt lat="41.7556690" lon="1.6675140">
        <ele>528.8</ele>
        <time>2018-09-23T10:42:29Z</time>
      </trkpt>
      <trkpt lat="41.7555850" lon="1.6676500">
        <ele>530.4</ele>
        <time>2018-09-23T10:42:33Z</time>
      </trkpt>
      <trkpt lat="41.7555230" lon="1.6677280">
        <ele>531.6</ele>
        <time>2018-09-23T10:42:36Z</time>
      </trkpt>
      <trkpt lat="41.7554610" lon="1.6677860">
        <ele>532.8</ele>
        <time>2018-09-23T10:42:39Z</time>
      </trkpt>
      <trkpt lat="41.7553700" lon="1.6678870">
        <ele>533.6</ele>
        <time>2018-09-23T10:42:44Z</time>
      </trkpt>
      <trkpt lat="41.7553510" lon="1.6679080">
        <ele>533.8</ele>
        <time>2018-09-23T10:42:45Z</time>
      </trkpt>
      <trkpt lat="41.7552010" lon="1.6681070">
        <ele>534.8</ele>
        <time>2018-09-23T10:42:54Z</time>
      </trkpt>
      <trkpt lat="41.7550920" lon="1.6683660">
        <ele>535.8</ele>
        <time>2018-09-23T10:43:03Z</time>
      </trkpt>
      <trkpt lat="41.7550220" lon="1.6685460">
        <ele>537.2</ele>
        <time>2018-09-23T10:43:09Z</time>
      </trkpt>
      <trkpt lat="41.7549270" lon="1.6687330">
        <ele>538.2</ele>
        <time>2018-09-23T10:43:15Z</time>
      </trkpt>
      <trkpt lat="41.7547320" lon="1.6690690">
        <ele>539.2</ele>
        <time>2018-09-23T10:43:26Z</time>
      </trkpt>
      <trkpt lat="41.7546420" lon="1.6692310">
        <ele>540.4</ele>
        <time>2018-09-23T10:43:31Z</time>
      </trkpt>
      <trkpt lat="41.7545520" lon="1.6694010">
        <ele>541.6</ele>
        <time>2018-09-23T10:43:36Z</time>
      </trkpt>
      <trkpt lat="41.7544800" lon="1.6695330">
        <ele>542.8</ele>
        <time>2018-09-23T10:43:40Z</time>
      </trkpt>
      <trkpt lat="41.7544040" lon="1.6696610">
        <ele>544.0</ele>
        <time>2018-09-23T10:43:44Z</time>
      </trkpt>
      <trkpt lat="41.7543130" lon="1.6697560">
        <ele>545.2</ele>
        <time>2018-09-23T10:43:48Z</time>
      </trkpt>
      <trkpt lat="41.7541880" lon="1.6697970">
        <ele>546.4</ele>
        <time>2018-09-23T10:43:53Z</time>
      </trkpt>
      <trkpt lat="41.7539550" lon="1.6696780">
        <ele>547.6</ele>
        <time>2018-09-23T10:44:04Z</time>
      </trkpt>
      <trkpt lat="41.7539540" lon="1.6696620">
        <ele>548.0</ele>
        <time>2018-09-23T10:44:06Z</time>
      </trkpt>
      <trkpt lat="41.7540230" lon="1.6697070">
        <ele>548.4</ele>
        <time>2018-09-23T10:44:11Z</time>
      </trkpt>
      <trkpt lat="41.7542290" lon="1.6699970">
        <ele>547.8</ele>
        <time>2018-09-23T10:44:27Z</time>
      </trkpt>
      <trkpt lat="41.7542520" lon="1.6700460">
        <ele>547.6</ele>
        <time>2018-09-23T10:44:33Z</time>
      </trkpt>
      <trkpt lat="41.7542500" lon="1.6700740">
        <ele>547.4</ele>
        <time>2018-09-23T10:46:17Z</time>
      </trkpt>
      <trkpt lat="41.7541620" lon="1.6707880">
        <ele>548.0</ele>
        <time>2018-09-23T10:46:37Z</time>
      </trkpt>
      <trkpt lat="41.7539100" lon="1.6713680">
        <ele>548.2</ele>
        <time>2018-09-23T10:46:58Z</time>
      </trkpt>
      <trkpt lat="41.7538110" lon="1.6721300">
        <ele>546.4</ele>
        <time>2018-09-23T10:47:08Z</time>
      </trkpt>
      <trkpt lat="41.7537370" lon="1.6724890">
        <ele>545.2</ele>
        <time>2018-09-23T10:47:13Z</time>
      </trkpt>
      <trkpt lat="41.7537070" lon="1.6726770">
        <ele>544.8</ele>
        <time>2018-09-23T10:47:16Z</time>
      </trkpt>
      <trkpt lat="41.7536130" lon="1.6729210">
        <ele>544.2</ele>
        <time>2018-09-23T10:47:21Z</time>
      </trkpt>
      <trkpt lat="41.7535030" lon="1.6731170">
        <ele>544.0</ele>
        <time>2018-09-23T10:47:25Z</time>
      </trkpt>
      <trkpt lat="41.7535060" lon="1.6737160">
        <ele>543.2</ele>
        <time>2018-09-23T10:47:34Z</time>
      </trkpt>
      <trkpt lat="41.7535480" lon="1.6737940">
        <ele>542.8</ele>
        <time>2018-09-23T10:47:35Z</time>
      </trkpt>
      <trkpt lat="41.7535710" lon="1.6740080">
        <ele>541.4</ele>
        <time>2018-09-23T10:47:38Z</time>
      </trkpt>
      <trkpt lat="41.7534300" lon="1.6741320">
        <ele>540.2</ele>
        <time>2018-09-23T10:47:41Z</time>
      </trkpt>
      <trkpt lat="41.7533150" lon="1.6741920">
        <ele>539.6</ele>
        <time>2018-09-23T10:47:43Z</time>
      </trkpt>
      <trkpt lat="41.7532020" lon="1.6742420">
        <ele>538.8</ele>
        <time>2018-09-23T10:47:45Z</time>
      </trkpt>
      <trkpt lat="41.7529840" lon="1.6743290">
        <ele>537.4</ele>
        <time>2018-09-23T10:47:49Z</time>
      </trkpt>
      <trkpt lat="41.7529390" lon="1.6743360">
        <ele>536.8</ele>
        <time>2018-09-23T10:47:50Z</time>
      </trkpt>
      <trkpt lat="41.7528530" lon="1.6742910">
        <ele>536.2</ele>
        <time>2018-09-23T10:47:52Z</time>
      </trkpt>
      <trkpt lat="41.7527640" lon="1.6740470">
        <ele>534.8</ele>
        <time>2018-09-23T10:47:56Z</time>
      </trkpt>
      <trkpt lat="41.7528500" lon="1.6737590">
        <ele>533.4</ele>
        <time>2018-09-23T10:48:00Z</time>
      </trkpt>
      <trkpt lat="41.7528700" lon="1.6735910">
        <ele>532.4</ele>
        <time>2018-09-23T10:48:02Z</time>
      </trkpt>
      <trkpt lat="41.7528330" lon="1.6734290">
        <ele>531.0</ele>
        <time>2018-09-23T10:48:04Z</time>
      </trkpt>
      <trkpt lat="41.7527190" lon="1.6733270">
        <ele>529.8</ele>
        <time>2018-09-23T10:48:06Z</time>
      </trkpt>
      <trkpt lat="41.7524870" lon="1.6733670">
        <ele>528.6</ele>
        <time>2018-09-23T10:48:09Z</time>
      </trkpt>
      <trkpt lat="41.7524060" lon="1.6734090">
        <ele>528.6</ele>
        <time>2018-09-23T10:48:10Z</time>
      </trkpt>
      <trkpt lat="41.7520050" lon="1.6736670">
        <ele>527.8</ele>
        <time>2018-09-23T10:48:15Z</time>
      </trkpt>
      <trkpt lat="41.7518100" lon="1.6738940">
        <ele>526.4</ele>
        <time>2018-09-23T10:48:18Z</time>
      </trkpt>
      <trkpt lat="41.7516780" lon="1.6739410">
        <ele>525.8</ele>
        <time>2018-09-23T10:48:20Z</time>
      </trkpt>
      <trkpt lat="41.7516300" lon="1.6739510">
        <ele>525.4</ele>
        <time>2018-09-23T10:48:21Z</time>
      </trkpt>
      <trkpt lat="41.7515540" lon="1.6739880">
        <ele>524.2</ele>
        <time>2018-09-23T10:48:23Z</time>
      </trkpt>
      <trkpt lat="41.7514770" lon="1.6740780">
        <ele>523.0</ele>
        <time>2018-09-23T10:48:25Z</time>
      </trkpt>
      <trkpt lat="41.7513670" lon="1.6742270">
        <ele>521.6</ele>
        <time>2018-09-23T10:48:28Z</time>
      </trkpt>
      <trkpt lat="41.7512880" lon="1.6743150">
        <ele>520.4</ele>
        <time>2018-09-23T10:48:31Z</time>
      </trkpt>
      <trkpt lat="41.7512170" lon="1.6743880">
        <ele>519.2</ele>
        <time>2018-09-23T10:48:33Z</time>
      </trkpt>
      <trkpt lat="41.7511430" lon="1.6744590">
        <ele>518.0</ele>
        <time>2018-09-23T10:48:35Z</time>
      </trkpt>
      <trkpt lat="41.7511070" lon="1.6744790">
        <ele>517.4</ele>
        <time>2018-09-23T10:48:36Z</time>
      </trkpt>
      <trkpt lat="41.7510740" lon="1.6744800">
        <ele>516.8</ele>
        <time>2018-09-23T10:48:37Z</time>
      </trkpt>
      <trkpt lat="41.7509900" lon="1.6744330">
        <ele>515.6</ele>
        <time>2018-09-23T10:48:40Z</time>
      </trkpt>
      <trkpt lat="41.7509400" lon="1.6743830">
        <ele>514.4</ele>
        <time>2018-09-23T10:48:42Z</time>
      </trkpt>
      <trkpt lat="41.7508670" lon="1.6743130">
        <ele>513.4</ele>
        <time>2018-09-23T10:48:45Z</time>
      </trkpt>
      <trkpt lat="41.7506630" lon="1.6740830">
        <ele>512.6</ele>
        <time>2018-09-23T10:48:53Z</time>
      </trkpt>
      <trkpt lat="41.7505020" lon="1.6739910">
        <ele>512.4</ele>
        <time>2018-09-23T10:48:57Z</time>
      </trkpt>
      <trkpt lat="41.7501480" lon="1.6737250">
        <ele>512.4</ele>
        <time>2018-09-23T10:49:06Z</time>
      </trkpt>
      <trkpt lat="41.7500460" lon="1.6731810">
        <ele>512.4</ele>
        <time>2018-09-23T10:49:14Z</time>
      </trkpt>
      <trkpt lat="41.7500620" lon="1.6730850">
        <ele>512.4</ele>
        <time>2018-09-23T10:49:15Z</time>
      </trkpt>
      <trkpt lat="41.7501140" lon="1.6727000">
        <ele>512.2</ele>
        <time>2018-09-23T10:49:19Z</time>
      </trkpt>
      <trkpt lat="41.7501130" lon="1.6726040">
        <ele>512.0</ele>
        <time>2018-09-23T10:49:20Z</time>
      </trkpt>
      <trkpt lat="41.7501080" lon="1.6725090">
        <ele>512.0</ele>
        <time>2018-09-23T10:49:21Z</time>
      </trkpt>
      <trkpt lat="41.7500630" lon="1.6723440">
        <ele>511.0</ele>
        <time>2018-09-23T10:49:23Z</time>
      </trkpt>
      <trkpt lat="41.7499770" lon="1.6722260">
        <ele>509.8</ele>
        <time>2018-09-23T10:49:25Z</time>
      </trkpt>
      <trkpt lat="41.7499320" lon="1.6721790">
        <ele>509.4</ele>
        <time>2018-09-23T10:49:26Z</time>
      </trkpt>
      <trkpt lat="41.7497810" lon="1.6716550">
        <ele>509.0</ele>
        <time>2018-09-23T10:49:34Z</time>
      </trkpt>
      <trkpt lat="41.7497820" lon="1.6715910">
        <ele>509.0</ele>
        <time>2018-09-23T10:49:35Z</time>
      </trkpt>
      <trkpt lat="41.7498010" lon="1.6712920">
        <ele>509.0</ele>
        <time>2018-09-23T10:49:40Z</time>
      </trkpt>
      <trkpt lat="41.7498550" lon="1.6710420">
        <ele>510.2</ele>
        <time>2018-09-23T10:49:45Z</time>
      </trkpt>
      <trkpt lat="41.7498650" lon="1.6708710">
        <ele>511.2</ele>
        <time>2018-09-23T10:49:49Z</time>
      </trkpt>
      <trkpt lat="41.7498420" lon="1.6708480">
        <ele>511.2</ele>
        <time>2018-09-23T10:49:50Z</time>
      </trkpt>
      <trkpt lat="41.7496750" lon="1.6707400">
        <ele>512.4</ele>
        <time>2018-09-23T10:49:56Z</time>
      </trkpt>
      <trkpt lat="41.7496300" lon="1.6706180">
        <ele>513.6</ele>
        <time>2018-09-23T10:49:59Z</time>
      </trkpt>
      <trkpt lat="41.7495920" lon="1.6704950">
        <ele>514.8</ele>
        <time>2018-09-23T10:50:02Z</time>
      </trkpt>
      <trkpt lat="41.7495150" lon="1.6702150">
        <ele>516.0</ele>
        <time>2018-09-23T10:50:08Z</time>
      </trkpt>
      <trkpt lat="41.7494820" lon="1.6700960">
        <ele>516.4</ele>
        <time>2018-09-23T10:50:10Z</time>
      </trkpt>
      <trkpt lat="41.7492690" lon="1.6698720">
        <ele>517.0</ele>
        <time>2018-09-23T10:50:16Z</time>
      </trkpt>
      <trkpt lat="41.7490470" lon="1.6699970">
        <ele>517.4</ele>
        <time>2018-09-23T10:50:22Z</time>
      </trkpt>
      <trkpt lat="41.7487990" lon="1.6701060">
        <ele>518.2</ele>
        <time>2018-09-23T10:50:31Z</time>
      </trkpt>
      <trkpt lat="41.7487200" lon="1.6701320">
        <ele>519.6</ele>
        <time>2018-09-23T10:50:34Z</time>
      </trkpt>
      <trkpt lat="41.7486510" lon="1.6701560">
        <ele>521.0</ele>
        <time>2018-09-23T10:50:37Z</time>
      </trkpt>
      <trkpt lat="41.7485790" lon="1.6701880">
        <ele>522.4</ele>
        <time>2018-09-23T10:50:40Z</time>
      </trkpt>
      <trkpt lat="41.7485120" lon="1.6702280">
        <ele>523.6</ele>
        <time>2018-09-23T10:50:43Z</time>
      </trkpt>
      <trkpt lat="41.7484510" lon="1.6702760">
        <ele>525.2</ele>
        <time>2018-09-23T10:50:46Z</time>
      </trkpt>
      <trkpt lat="41.7483840" lon="1.6703170">
        <ele>526.4</ele>
        <time>2018-09-23T10:50:49Z</time>
      </trkpt>
      <trkpt lat="41.7483180" lon="1.6703620">
        <ele>527.6</ele>
        <time>2018-09-23T10:50:52Z</time>
      </trkpt>
      <trkpt lat="41.7482410" lon="1.6704050">
        <ele>528.8</ele>
        <time>2018-09-23T10:50:57Z</time>
      </trkpt>
      <trkpt lat="41.7482590" lon="1.6704030">
        <ele>529.6</ele>
        <time>2018-09-23T10:51:00Z</time>
      </trkpt>
      <trkpt lat="41.7482690" lon="1.6703910">
        <ele>530.0</ele>
        <time>2018-09-23T10:51:01Z</time>
      </trkpt>
      <trkpt lat="41.7483080" lon="1.6703720">
        <ele>530.4</ele>
        <time>2018-09-23T10:51:04Z</time>
      </trkpt>
      <trkpt lat="41.7484460" lon="1.6702900">
        <ele>530.4</ele>
        <time>2018-09-23T10:51:13Z</time>
      </trkpt>
      <trkpt lat="41.7483940" lon="1.6702840">
        <ele>529.8</ele>
        <time>2018-09-23T10:51:18Z</time>
      </trkpt>
      <trkpt lat="41.7481230" lon="1.6705890">
        <ele>531.0</ele>
        <time>2018-09-23T10:51:33Z</time>
      </trkpt>
      <trkpt lat="41.7477350" lon="1.6711220">
        <ele>531.0</ele>
        <time>2018-09-23T10:51:48Z</time>
      </trkpt>
      <trkpt lat="41.7476800" lon="1.6712100">
        <ele>530.6</ele>
        <time>2018-09-23T10:51:50Z</time>
      </trkpt>
      <trkpt lat="41.7474760" lon="1.6713430">
        <ele>530.0</ele>
        <time>2018-09-23T10:51:55Z</time>
      </trkpt>
      <trkpt lat="41.7473250" lon="1.6715950">
        <ele>529.4</ele>
        <time>2018-09-23T10:52:00Z</time>
      </trkpt>
      <trkpt lat="41.7472430" lon="1.6718290">
        <ele>528.8</ele>
        <time>2018-09-23T10:52:04Z</time>
      </trkpt>
      <trkpt lat="41.7472250" lon="1.6718900">
        <ele>528.6</ele>
        <time>2018-09-23T10:52:05Z</time>
      </trkpt>
      <trkpt lat="41.7471260" lon="1.6722270">
        <ele>528.4</ele>
        <time>2018-09-23T10:52:11Z</time>
      </trkpt>
      <trkpt lat="41.7469270" lon="1.6725240">
        <ele>528.4</ele>
        <time>2018-09-23T10:52:17Z</time>
      </trkpt>
      <trkpt lat="41.7468010" lon="1.6726110">
        <ele>528.4</ele>
        <time>2018-09-23T10:52:20Z</time>
      </trkpt>
      <trkpt lat="41.7462310" lon="1.6727920">
        <ele>528.2</ele>
        <time>2018-09-23T10:52:32Z</time>
      </trkpt>
      <trkpt lat="41.7459210" lon="1.6728090">
        <ele>528.2</ele>
        <time>2018-09-23T10:52:39Z</time>
      </trkpt>
      <trkpt lat="41.7455260" lon="1.6726990">
        <ele>529.2</ele>
        <time>2018-09-23T10:53:02Z</time>
      </trkpt>
      <trkpt lat="41.7454810" lon="1.6727010">
        <ele>528.4</ele>
        <time>2018-09-23T10:53:15Z</time>
      </trkpt>
      <trkpt lat="41.7454130" lon="1.6727180">
        <ele>528.4</ele>
        <time>2018-09-23T10:53:17Z</time>
      </trkpt>
      <trkpt lat="41.7452230" lon="1.6728920">
        <ele>528.2</ele>
        <time>2018-09-23T10:53:21Z</time>
      </trkpt>
      <trkpt lat="41.7450670" lon="1.6729720">
        <ele>527.6</ele>
        <time>2018-09-23T10:53:24Z</time>
      </trkpt>
      <trkpt lat="41.7449670" lon="1.6730080">
        <ele>526.6</ele>
        <time>2018-09-23T10:53:26Z</time>
      </trkpt>
      <trkpt lat="41.7449100" lon="1.6730350">
        <ele>526.0</ele>
        <time>2018-09-23T10:53:27Z</time>
      </trkpt>
      <trkpt lat="41.7448440" lon="1.6730700">
        <ele>525.2</ele>
        <time>2018-09-23T10:53:28Z</time>
      </trkpt>
      <trkpt lat="41.7447750" lon="1.6731070">
        <ele>524.4</ele>
        <time>2018-09-23T10:53:29Z</time>
      </trkpt>
      <trkpt lat="41.7447030" lon="1.6731350">
        <ele>523.4</ele>
        <time>2018-09-23T10:53:30Z</time>
      </trkpt>
      <trkpt lat="41.7445680" lon="1.6731820">
        <ele>522.0</ele>
        <time>2018-09-23T10:53:32Z</time>
      </trkpt>
      <trkpt lat="41.7444960" lon="1.6731930">
        <ele>521.6</ele>
        <time>2018-09-23T10:53:33Z</time>
      </trkpt>
      <trkpt lat="41.7443290" lon="1.6731830">
        <ele>520.8</ele>
        <time>2018-09-23T10:53:35Z</time>
      </trkpt>
      <trkpt lat="41.7442380" lon="1.6731550">
        <ele>519.6</ele>
        <time>2018-09-23T10:53:36Z</time>
      </trkpt>
      <trkpt lat="41.7441480" lon="1.6731160">
        <ele>518.6</ele>
        <time>2018-09-23T10:53:37Z</time>
      </trkpt>
      <trkpt lat="41.7440630" lon="1.6730770">
        <ele>517.4</ele>
        <time>2018-09-23T10:53:38Z</time>
      </trkpt>
      <trkpt lat="41.7439720" lon="1.6730550">
        <ele>516.4</ele>
        <time>2018-09-23T10:53:39Z</time>
      </trkpt>
      <trkpt lat="41.7438740" lon="1.6730580">
        <ele>515.4</ele>
        <time>2018-09-23T10:53:40Z</time>
      </trkpt>
      <trkpt lat="41.7437760" lon="1.6730640">
        <ele>514.2</ele>
        <time>2018-09-23T10:53:41Z</time>
      </trkpt>
      <trkpt lat="41.7436090" lon="1.6730940">
        <ele>511.8</ele>
        <time>2018-09-23T10:53:43Z</time>
      </trkpt>
      <trkpt lat="41.7435390" lon="1.6731200">
        <ele>510.2</ele>
        <time>2018-09-23T10:53:44Z</time>
      </trkpt>
      <trkpt lat="41.7434710" lon="1.6731560">
        <ele>507.4</ele>
        <time>2018-09-23T10:53:45Z</time>
      </trkpt>
      <trkpt lat="41.7433440" lon="1.6732610">
        <ele>505.6</ele>
        <time>2018-09-23T10:53:47Z</time>
      </trkpt>
      <trkpt lat="41.7432850" lon="1.6733280">
        <ele>504.2</ele>
        <time>2018-09-23T10:53:48Z</time>
      </trkpt>
      <trkpt lat="41.7432330" lon="1.6733960">
        <ele>503.6</ele>
        <time>2018-09-23T10:53:49Z</time>
      </trkpt>
      <trkpt lat="41.7431920" lon="1.6734680">
        <ele>502.8</ele>
        <time>2018-09-23T10:53:50Z</time>
      </trkpt>
      <trkpt lat="41.7431450" lon="1.6736710">
        <ele>501.4</ele>
        <time>2018-09-23T10:53:52Z</time>
      </trkpt>
      <trkpt lat="41.7431170" lon="1.6737930">
        <ele>500.2</ele>
        <time>2018-09-23T10:53:53Z</time>
      </trkpt>
      <trkpt lat="41.7430840" lon="1.6739230">
        <ele>498.6</ele>
        <time>2018-09-23T10:53:54Z</time>
      </trkpt>
      <trkpt lat="41.7430430" lon="1.6740480">
        <ele>497.2</ele>
        <time>2018-09-23T10:53:55Z</time>
      </trkpt>
      <trkpt lat="41.7429970" lon="1.6741580">
        <ele>496.0</ele>
        <time>2018-09-23T10:53:56Z</time>
      </trkpt>
      <trkpt lat="41.7428740" lon="1.6743050">
        <ele>494.0</ele>
        <time>2018-09-23T10:53:58Z</time>
      </trkpt>
      <trkpt lat="41.7427950" lon="1.6743630">
        <ele>493.0</ele>
        <time>2018-09-23T10:53:59Z</time>
      </trkpt>
      <trkpt lat="41.7427150" lon="1.6744270">
        <ele>492.0</ele>
        <time>2018-09-23T10:54:00Z</time>
      </trkpt>
      <trkpt lat="41.7426370" lon="1.6744990">
        <ele>490.8</ele>
        <time>2018-09-23T10:54:01Z</time>
      </trkpt>
      <trkpt lat="41.7425000" lon="1.6746830">
        <ele>489.0</ele>
        <time>2018-09-23T10:54:03Z</time>
      </trkpt>
      <trkpt lat="41.7424480" lon="1.6747890">
        <ele>487.4</ele>
        <time>2018-09-23T10:54:04Z</time>
      </trkpt>
      <trkpt lat="41.7424030" lon="1.6749050">
        <ele>486.4</ele>
        <time>2018-09-23T10:54:05Z</time>
      </trkpt>
      <trkpt lat="41.7423620" lon="1.6750220">
        <ele>485.6</ele>
        <time>2018-09-23T10:54:06Z</time>
      </trkpt>
      <trkpt lat="41.7423200" lon="1.6751360">
        <ele>484.4</ele>
        <time>2018-09-23T10:54:07Z</time>
      </trkpt>
      <trkpt lat="41.7422780" lon="1.6752470">
        <ele>483.2</ele>
        <time>2018-09-23T10:54:08Z</time>
      </trkpt>
      <trkpt lat="41.7422340" lon="1.6753530">
        <ele>481.6</ele>
        <time>2018-09-23T10:54:09Z</time>
      </trkpt>
      <trkpt lat="41.7421280" lon="1.6755430">
        <ele>480.0</ele>
        <time>2018-09-23T10:54:11Z</time>
      </trkpt>
      <trkpt lat="41.7420040" lon="1.6756840">
        <ele>478.6</ele>
        <time>2018-09-23T10:54:13Z</time>
      </trkpt>
      <trkpt lat="41.7418620" lon="1.6757440">
        <ele>477.4</ele>
        <time>2018-09-23T10:54:15Z</time>
      </trkpt>
      <trkpt lat="41.7416640" lon="1.6756520">
        <ele>476.0</ele>
        <time>2018-09-23T10:54:18Z</time>
      </trkpt>
      <trkpt lat="41.7415560" lon="1.6754840">
        <ele>474.6</ele>
        <time>2018-09-23T10:54:20Z</time>
      </trkpt>
      <trkpt lat="41.7415140" lon="1.6753970">
        <ele>473.6</ele>
        <time>2018-09-23T10:54:21Z</time>
      </trkpt>
      <trkpt lat="41.7414780" lon="1.6753310">
        <ele>472.6</ele>
        <time>2018-09-23T10:54:22Z</time>
      </trkpt>
      <trkpt lat="41.7414480" lon="1.6753000">
        <ele>471.8</ele>
        <time>2018-09-23T10:54:23Z</time>
      </trkpt>
      <trkpt lat="41.7414210" lon="1.6753550">
        <ele>470.0</ele>
        <time>2018-09-23T10:54:25Z</time>
      </trkpt>
      <trkpt lat="41.7414390" lon="1.6754740">
        <ele>468.6</ele>
        <time>2018-09-23T10:54:27Z</time>
      </trkpt>
      <trkpt lat="41.7414560" lon="1.6755340">
        <ele>468.0</ele>
        <time>2018-09-23T10:54:28Z</time>
      </trkpt>
      <trkpt lat="41.7414760" lon="1.6755990">
        <ele>467.0</ele>
        <time>2018-09-23T10:54:29Z</time>
      </trkpt>
      <trkpt lat="41.7414930" lon="1.6756680">
        <ele>465.8</ele>
        <time>2018-09-23T10:54:30Z</time>
      </trkpt>
      <trkpt lat="41.7415240" lon="1.6758150">
        <ele>464.4</ele>
        <time>2018-09-23T10:54:32Z</time>
      </trkpt>
      <trkpt lat="41.7415770" lon="1.6760410">
        <ele>463.2</ele>
        <time>2018-09-23T10:54:35Z</time>
      </trkpt>
      <trkpt lat="41.7416680" lon="1.6762700">
        <ele>462.6</ele>
        <time>2018-09-23T10:54:38Z</time>
      </trkpt>
      <trkpt lat="41.7416220" lon="1.6766820">
        <ele>462.2</ele>
        <time>2018-09-23T10:54:42Z</time>
      </trkpt>
      <trkpt lat="41.7415620" lon="1.6768850">
        <ele>462.2</ele>
        <time>2018-09-23T10:54:44Z</time>
      </trkpt>
      <trkpt lat="41.7414300" lon="1.6772670">
        <ele>460.6</ele>
        <time>2018-09-23T10:54:48Z</time>
      </trkpt>
      <trkpt lat="41.7413060" lon="1.6775320">
        <ele>459.6</ele>
        <time>2018-09-23T10:54:51Z</time>
      </trkpt>
      <trkpt lat="41.7412250" lon="1.6777110">
        <ele>459.0</ele>
        <time>2018-09-23T10:54:53Z</time>
      </trkpt>
      <trkpt lat="41.7410210" lon="1.6783970">
        <ele>458.6</ele>
        <time>2018-09-23T10:55:00Z</time>
      </trkpt>
      <trkpt lat="41.7409990" lon="1.6784940">
        <ele>458.6</ele>
        <time>2018-09-23T10:55:01Z</time>
      </trkpt>
      <trkpt lat="41.7410010" lon="1.6789770">
        <ele>458.8</ele>
        <time>2018-09-23T10:55:06Z</time>
      </trkpt>
      <trkpt lat="41.7410280" lon="1.6797810">
        <ele>459.8</ele>
        <time>2018-09-23T10:55:15Z</time>
      </trkpt>
      <trkpt lat="41.7410300" lon="1.6805660">
        <ele>460.6</ele>
        <time>2018-09-23T10:55:23Z</time>
      </trkpt>
      <trkpt lat="41.7410320" lon="1.6807650">
        <ele>460.6</ele>
        <time>2018-09-23T10:55:25Z</time>
      </trkpt>
      <trkpt lat="41.7406800" lon="1.6810160">
        <ele>458.4</ele>
        <time>2018-09-23T10:55:32Z</time>
      </trkpt>
      <trkpt lat="41.7404720" lon="1.6810160">
        <ele>456.8</ele>
        <time>2018-09-23T10:55:35Z</time>
      </trkpt>
      <trkpt lat="41.7402680" lon="1.6810430">
        <ele>455.6</ele>
        <time>2018-09-23T10:55:38Z</time>
      </trkpt>
      <trkpt lat="41.7400850" lon="1.6811400">
        <ele>454.2</ele>
        <time>2018-09-23T10:55:41Z</time>
      </trkpt>
      <trkpt lat="41.7398650" lon="1.6813110">
        <ele>453.2</ele>
        <time>2018-09-23T10:55:45Z</time>
      </trkpt>
      <trkpt lat="41.7395180" lon="1.6815400">
        <ele>452.0</ele>
        <time>2018-09-23T10:55:51Z</time>
      </trkpt>
      <trkpt lat="41.7392520" lon="1.6817600">
        <ele>451.8</ele>
        <time>2018-09-23T10:55:56Z</time>
      </trkpt>
      <trkpt lat="41.7390840" lon="1.6816970">
        <ele>451.2</ele>
        <time>2018-09-23T10:56:00Z</time>
      </trkpt>
      <trkpt lat="41.7390550" lon="1.6816440">
        <ele>451.0</ele>
        <time>2018-09-23T10:56:01Z</time>
      </trkpt>
      <trkpt lat="41.7390170" lon="1.6815990">
        <ele>450.8</ele>
        <time>2018-09-23T10:56:02Z</time>
      </trkpt>
      <trkpt lat="41.7389070" lon="1.6816330">
        <ele>450.0</ele>
        <time>2018-09-23T10:56:05Z</time>
      </trkpt>
      <trkpt lat="41.7388680" lon="1.6818790">
        <ele>449.4</ele>
        <time>2018-09-23T10:56:08Z</time>
      </trkpt>
      <trkpt lat="41.7388650" lon="1.6819800">
        <ele>449.2</ele>
        <time>2018-09-23T10:56:09Z</time>
      </trkpt>
      <trkpt lat="41.7388740" lon="1.6820850">
        <ele>448.8</ele>
        <time>2018-09-23T10:56:10Z</time>
      </trkpt>
      <trkpt lat="41.7388880" lon="1.6822880">
        <ele>447.6</ele>
        <time>2018-09-23T10:56:12Z</time>
      </trkpt>
      <trkpt lat="41.7388530" lon="1.6824370">
        <ele>446.2</ele>
        <time>2018-09-23T10:56:14Z</time>
      </trkpt>
      <trkpt lat="41.7387650" lon="1.6825030">
        <ele>444.8</ele>
        <time>2018-09-23T10:56:16Z</time>
      </trkpt>
      <trkpt lat="41.7386610" lon="1.6824380">
        <ele>443.2</ele>
        <time>2018-09-23T10:56:18Z</time>
      </trkpt>
      <trkpt lat="41.7385680" lon="1.6822840">
        <ele>442.0</ele>
        <time>2018-09-23T10:56:20Z</time>
      </trkpt>
      <trkpt lat="41.7385220" lon="1.6821950">
        <ele>441.2</ele>
        <time>2018-09-23T10:56:21Z</time>
      </trkpt>
      <trkpt lat="41.7384830" lon="1.6821000">
        <ele>440.4</ele>
        <time>2018-09-23T10:56:22Z</time>
      </trkpt>
      <trkpt lat="41.7384310" lon="1.6818760">
        <ele>438.8</ele>
        <time>2018-09-23T10:56:24Z</time>
      </trkpt>
      <trkpt lat="41.7384180" lon="1.6816170">
        <ele>437.2</ele>
        <time>2018-09-23T10:56:26Z</time>
      </trkpt>
      <trkpt lat="41.7384100" lon="1.6814890">
        <ele>436.4</ele>
        <time>2018-09-23T10:56:27Z</time>
      </trkpt>
      <trkpt lat="41.7383920" lon="1.6813670">
        <ele>435.6</ele>
        <time>2018-09-23T10:56:28Z</time>
      </trkpt>
      <trkpt lat="41.7383150" lon="1.6811430">
        <ele>434.2</ele>
        <time>2018-09-23T10:56:30Z</time>
      </trkpt>
      <trkpt lat="41.7381990" lon="1.6809760">
        <ele>432.8</ele>
        <time>2018-09-23T10:56:32Z</time>
      </trkpt>
      <trkpt lat="41.7380650" lon="1.6808780">
        <ele>431.2</ele>
        <time>2018-09-23T10:56:34Z</time>
      </trkpt>
      <trkpt lat="41.7379230" lon="1.6808560">
        <ele>429.8</ele>
        <time>2018-09-23T10:56:36Z</time>
      </trkpt>
      <trkpt lat="41.7377680" lon="1.6808870">
        <ele>429.0</ele>
        <time>2018-09-23T10:56:38Z</time>
      </trkpt>
      <trkpt lat="41.7376120" lon="1.6809100">
        <ele>428.6</ele>
        <time>2018-09-23T10:56:40Z</time>
      </trkpt>
      <trkpt lat="41.7374800" lon="1.6809100">
        <ele>428.2</ele>
        <time>2018-09-23T10:56:42Z</time>
      </trkpt>
      <trkpt lat="41.7374160" lon="1.6808770">
        <ele>427.2</ele>
        <time>2018-09-23T10:56:44Z</time>
      </trkpt>
      <trkpt lat="41.7374060" lon="1.6808660">
        <ele>426.2</ele>
        <time>2018-09-23T10:56:46Z</time>
      </trkpt>
      <trkpt lat="41.7374020" lon="1.6808700">
        <ele>424.6</ele>
        <time>2018-09-23T10:56:49Z</time>
      </trkpt>
      <trkpt lat="41.7373670" lon="1.6808990">
        <ele>421.4</ele>
        <time>2018-09-23T10:57:35Z</time>
      </trkpt>
      <trkpt lat="41.7369950" lon="1.6810210">
        <ele>421.4</ele>
        <time>2018-09-23T10:57:42Z</time>
      </trkpt>
      <trkpt lat="41.7367160" lon="1.6811570">
        <ele>421.4</ele>
        <time>2018-09-23T10:57:45Z</time>
      </trkpt>
      <trkpt lat="41.7362900" lon="1.6812480">
        <ele>420.2</ele>
        <time>2018-09-23T10:57:49Z</time>
      </trkpt>
      <trkpt lat="41.7360960" lon="1.6813420">
        <ele>418.4</ele>
        <time>2018-09-23T10:57:51Z</time>
      </trkpt>
      <trkpt lat="41.7360150" lon="1.6813930">
        <ele>416.4</ele>
        <time>2018-09-23T10:57:52Z</time>
      </trkpt>
      <trkpt lat="41.7359410" lon="1.6814240">
        <ele>415.2</ele>
        <time>2018-09-23T10:57:53Z</time>
      </trkpt>
      <trkpt lat="41.7357910" lon="1.6813800">
        <ele>413.2</ele>
        <time>2018-09-23T10:57:55Z</time>
      </trkpt>
      <trkpt lat="41.7357130" lon="1.6813250">
        <ele>412.0</ele>
        <time>2018-09-23T10:57:56Z</time>
      </trkpt>
      <trkpt lat="41.7356320" lon="1.6812770">
        <ele>410.8</ele>
        <time>2018-09-23T10:57:57Z</time>
      </trkpt>
      <trkpt lat="41.7355470" lon="1.6812450">
        <ele>409.4</ele>
        <time>2018-09-23T10:57:58Z</time>
      </trkpt>
      <trkpt lat="41.7353620" lon="1.6812490">
        <ele>407.4</ele>
        <time>2018-09-23T10:58:00Z</time>
      </trkpt>
      <trkpt lat="41.7352720" lon="1.6812520">
        <ele>406.2</ele>
        <time>2018-09-23T10:58:01Z</time>
      </trkpt>
      <trkpt lat="41.7351850" lon="1.6812320">
        <ele>404.8</ele>
        <time>2018-09-23T10:58:02Z</time>
      </trkpt>
      <trkpt lat="41.7351020" lon="1.6811830">
        <ele>403.8</ele>
        <time>2018-09-23T10:58:03Z</time>
      </trkpt>
      <trkpt lat="41.7350280" lon="1.6811130">
        <ele>402.8</ele>
        <time>2018-09-23T10:58:04Z</time>
      </trkpt>
      <trkpt lat="41.7349670" lon="1.6810460">
        <ele>402.2</ele>
        <time>2018-09-23T10:58:05Z</time>
      </trkpt>
      <trkpt lat="41.7349150" lon="1.6809990">
        <ele>401.4</ele>
        <time>2018-09-23T10:58:06Z</time>
      </trkpt>
      <trkpt lat="41.7348260" lon="1.6809800">
        <ele>400.0</ele>
        <time>2018-09-23T10:58:08Z</time>
      </trkpt>
      <trkpt lat="41.7348400" lon="1.6811800">
        <ele>398.6</ele>
        <time>2018-09-23T10:58:11Z</time>
      </trkpt>
      <trkpt lat="41.7348770" lon="1.6812640">
        <ele>397.8</ele>
        <time>2018-09-23T10:58:12Z</time>
      </trkpt>
      <trkpt lat="41.7348980" lon="1.6813320">
        <ele>396.4</ele>
        <time>2018-09-23T10:58:13Z</time>
      </trkpt>
      <trkpt lat="41.7348990" lon="1.6813870">
        <ele>395.2</ele>
        <time>2018-09-23T10:58:14Z</time>
      </trkpt>
      <trkpt lat="41.7348740" lon="1.6814190">
        <ele>393.8</ele>
        <time>2018-09-23T10:58:15Z</time>
      </trkpt>
      <trkpt lat="41.7348320" lon="1.6814210">
        <ele>392.6</ele>
        <time>2018-09-23T10:58:16Z</time>
      </trkpt>
      <trkpt lat="41.7347280" lon="1.6813530">
        <ele>391.0</ele>
        <time>2018-09-23T10:58:18Z</time>
      </trkpt>
      <trkpt lat="41.7346290" lon="1.6811850">
        <ele>389.2</ele>
        <time>2018-09-23T10:58:20Z</time>
      </trkpt>
      <trkpt lat="41.7345470" lon="1.6809490">
        <ele>387.2</ele>
        <time>2018-09-23T10:58:22Z</time>
      </trkpt>
      <trkpt lat="41.7344710" lon="1.6806620">
        <ele>385.6</ele>
        <time>2018-09-23T10:58:24Z</time>
      </trkpt>
      <trkpt lat="41.7344440" lon="1.6805050">
        <ele>384.8</ele>
        <time>2018-09-23T10:58:25Z</time>
      </trkpt>
      <trkpt lat="41.7344270" lon="1.6803490">
        <ele>384.2</ele>
        <time>2018-09-23T10:58:26Z</time>
      </trkpt>
      <trkpt lat="41.7344110" lon="1.6800780">
        <ele>381.2</ele>
        <time>2018-09-23T10:58:28Z</time>
      </trkpt>
      <trkpt lat="41.7344020" lon="1.6799750">
        <ele>380.4</ele>
        <time>2018-09-23T10:58:29Z</time>
      </trkpt>
      <trkpt lat="41.7343740" lon="1.6798880">
        <ele>379.4</ele>
        <time>2018-09-23T10:58:30Z</time>
      </trkpt>
      <trkpt lat="41.7342800" lon="1.6797470">
        <ele>377.6</ele>
        <time>2018-09-23T10:58:32Z</time>
      </trkpt>
      <trkpt lat="41.7342210" lon="1.6796950">
        <ele>376.2</ele>
        <time>2018-09-23T10:58:33Z</time>
      </trkpt>
      <trkpt lat="41.7341430" lon="1.6796600">
        <ele>374.8</ele>
        <time>2018-09-23T10:58:34Z</time>
      </trkpt>
      <trkpt lat="41.7339710" lon="1.6796490">
        <ele>373.0</ele>
        <time>2018-09-23T10:58:36Z</time>
      </trkpt>
      <trkpt lat="41.7338800" lon="1.6796510">
        <ele>372.2</ele>
        <time>2018-09-23T10:58:37Z</time>
      </trkpt>
      <trkpt lat="41.7337930" lon="1.6796490">
        <ele>371.4</ele>
        <time>2018-09-23T10:58:38Z</time>
      </trkpt>
      <trkpt lat="41.7336180" lon="1.6796530">
        <ele>370.0</ele>
        <time>2018-09-23T10:58:40Z</time>
      </trkpt>
      <trkpt lat="41.7333150" lon="1.6797060">
        <ele>369.0</ele>
        <time>2018-09-23T10:58:44Z</time>
      </trkpt>
      <trkpt lat="41.7331370" lon="1.6797420">
        <ele>369.0</ele>
        <time>2018-09-23T10:58:56Z</time>
      </trkpt>
      <trkpt lat="41.7331310" lon="1.6796740">
        <ele>368.8</ele>
        <time>2018-09-23T11:00:03Z</time>
      </trkpt>
      <trkpt lat="41.7331700" lon="1.6795570">
        <ele>368.8</ele>
        <time>2018-09-23T11:00:07Z</time>
      </trkpt>
      <trkpt lat="41.7332970" lon="1.6788550">
        <ele>369.4</ele>
        <time>2018-09-23T11:00:23Z</time>
      </trkpt>
      <trkpt lat="41.7333790" lon="1.6785360">
        <ele>371.0</ele>
        <time>2018-09-23T11:00:32Z</time>
      </trkpt>
      <trkpt lat="41.7334020" lon="1.6783930">
        <ele>372.6</ele>
        <time>2018-09-23T11:00:36Z</time>
      </trkpt>
      <trkpt lat="41.7334090" lon="1.6782730">
        <ele>373.2</ele>
        <time>2018-09-23T11:00:39Z</time>
      </trkpt>
      <trkpt lat="41.7334110" lon="1.6782320">
        <ele>373.8</ele>
        <time>2018-09-23T11:00:40Z</time>
      </trkpt>
      <trkpt lat="41.7334170" lon="1.6780690">
        <ele>374.6</ele>
        <time>2018-09-23T11:00:44Z</time>
      </trkpt>
      <trkpt lat="41.7334080" lon="1.6779080">
        <ele>376.2</ele>
        <time>2018-09-23T11:00:48Z</time>
      </trkpt>
      <trkpt lat="41.7333800" lon="1.6777450">
        <ele>377.6</ele>
        <time>2018-09-23T11:00:52Z</time>
      </trkpt>
      <trkpt lat="41.7333460" lon="1.6776270">
        <ele>378.6</ele>
        <time>2018-09-23T11:00:55Z</time>
      </trkpt>
      <trkpt lat="41.7333010" lon="1.6774680">
        <ele>379.8</ele>
        <time>2018-09-23T11:00:59Z</time>
      </trkpt>
      <trkpt lat="41.7332430" lon="1.6773120">
        <ele>381.0</ele>
        <time>2018-09-23T11:01:03Z</time>
      </trkpt>
      <trkpt lat="41.7331940" lon="1.6771520">
        <ele>382.0</ele>
        <time>2018-09-23T11:01:07Z</time>
      </trkpt>
      <trkpt lat="41.7331090" lon="1.6769300">
        <ele>383.2</ele>
        <time>2018-09-23T11:01:13Z</time>
      </trkpt>
      <trkpt lat="41.7329850" lon="1.6766220">
        <ele>384.4</ele>
        <time>2018-09-23T11:01:21Z</time>
      </trkpt>
      <trkpt lat="41.7328220" lon="1.6762650">
        <ele>385.4</ele>
        <time>2018-09-23T11:01:31Z</time>
      </trkpt>
      <trkpt lat="41.7325400" lon="1.6756320">
        <ele>386.6</ele>
        <time>2018-09-23T11:01:48Z</time>
      </trkpt>
      <trkpt lat="41.7323500" lon="1.6751400">
        <ele>387.6</ele>
        <time>2018-09-23T11:02:01Z</time>
      </trkpt>
      <trkpt lat="41.7321210" lon="1.6744780">
        <ele>388.6</ele>
        <time>2018-09-23T11:02:15Z</time>
      </trkpt>
      <trkpt lat="41.7320870" lon="1.6743700">
        <ele>388.8</ele>
        <time>2018-09-23T11:02:17Z</time>
      </trkpt>
      <trkpt lat="41.7320700" lon="1.6743100">
        <ele>388.8</ele>
        <time>2018-09-23T11:02:18Z</time>
      </trkpt>
      <trkpt lat="41.7319180" lon="1.6735990">
        <ele>389.6</ele>
        <time>2018-09-23T11:02:29Z</time>
      </trkpt>
      <trkpt lat="41.7318930" lon="1.6734660">
        <ele>390.0</ele>
        <time>2018-09-23T11:02:31Z</time>
      </trkpt>
      <trkpt lat="41.7317580" lon="1.6727460">
        <ele>390.4</ele>
        <time>2018-09-23T11:02:41Z</time>
      </trkpt>
      <trkpt lat="41.7316860" lon="1.6722800">
        <ele>391.0</ele>
        <time>2018-09-23T11:02:47Z</time>
      </trkpt>
      <trkpt lat="41.7315650" lon="1.6715690">
        <ele>391.8</ele>
        <time>2018-09-23T11:02:56Z</time>
      </trkpt>
      <trkpt lat="41.7315380" lon="1.6714110">
        <ele>392.4</ele>
        <time>2018-09-23T11:02:58Z</time>
      </trkpt>
      <trkpt lat="41.7314620" lon="1.6708790">
        <ele>393.2</ele>
        <time>2018-09-23T11:03:05Z</time>
      </trkpt>
      <trkpt lat="41.7314290" lon="1.6707360">
        <ele>393.6</ele>
        <time>2018-09-23T11:03:07Z</time>
      </trkpt>
      <trkpt lat="41.7312650" lon="1.6700020">
        <ele>394.2</ele>
        <time>2018-09-23T11:03:17Z</time>
      </trkpt>
      <trkpt lat="41.7310990" lon="1.6692700">
        <ele>394.6</ele>
        <time>2018-09-23T11:03:27Z</time>
      </trkpt>
      <trkpt lat="41.7310520" lon="1.6690640">
        <ele>394.6</ele>
        <time>2018-09-23T11:03:30Z</time>
      </trkpt>
      <trkpt lat="41.7309950" lon="1.6685890">
        <ele>394.8</ele>
        <time>2018-09-23T11:03:37Z</time>
      </trkpt>
      <trkpt lat="41.7311520" lon="1.6679550">
        <ele>394.8</ele>
        <time>2018-09-23T11:03:49Z</time>
      </trkpt>
      <trkpt lat="41.7311210" lon="1.6677540">
        <ele>394.6</ele>
        <time>2018-09-23T11:03:53Z</time>
      </trkpt>
      <trkpt lat="41.7312210" lon="1.6674890">
        <ele>394.6</ele>
        <time>2018-09-23T11:03:58Z</time>
      </trkpt>
      <trkpt lat="41.7315410" lon="1.6668410">
        <ele>395.8</ele>
        <time>2018-09-23T11:04:09Z</time>
      </trkpt>
      <trkpt lat="41.7317700" lon="1.6661600">
        <ele>396.0</ele>
        <time>2018-09-23T11:04:18Z</time>
      </trkpt>
      <trkpt lat="41.7317730" lon="1.6656460">
        <ele>396.2</ele>
        <time>2018-09-23T11:04:23Z</time>
      </trkpt>
      <trkpt lat="41.7315440" lon="1.6648940">
        <ele>396.4</ele>
        <time>2018-09-23T11:04:31Z</time>
      </trkpt>
      <trkpt lat="41.7312510" lon="1.6641840">
        <ele>396.8</ele>
        <time>2018-09-23T11:04:39Z</time>
      </trkpt>
      <trkpt lat="41.7311750" lon="1.6640090">
        <ele>397.0</ele>
        <time>2018-09-23T11:04:41Z</time>
      </trkpt>
      <trkpt lat="41.7308880" lon="1.6633260">
        <ele>397.2</ele>
        <time>2018-09-23T11:04:49Z</time>
      </trkpt>
      <trkpt lat="41.7306630" lon="1.6627820">
        <ele>398.0</ele>
        <time>2018-09-23T11:04:56Z</time>
      </trkpt>
      <trkpt lat="41.7304830" lon="1.6622840">
        <ele>399.2</ele>
        <time>2018-09-23T11:05:03Z</time>
      </trkpt>
      <trkpt lat="41.7303110" lon="1.6615220">
        <ele>400.2</ele>
        <time>2018-09-23T11:05:13Z</time>
      </trkpt>
      <trkpt lat="41.7302930" lon="1.6613620">
        <ele>400.4</ele>
        <time>2018-09-23T11:05:15Z</time>
      </trkpt>
      <trkpt lat="41.7302720" lon="1.6605710">
        <ele>401.6</ele>
        <time>2018-09-23T11:05:25Z</time>
      </trkpt>
      <trkpt lat="41.7302790" lon="1.6598120">
        <ele>402.4</ele>
        <time>2018-09-23T11:05:34Z</time>
      </trkpt>
      <trkpt lat="41.7302790" lon="1.6596480">
        <ele>402.8</ele>
        <time>2018-09-23T11:05:36Z</time>
      </trkpt>
      <trkpt lat="41.7302470" lon="1.6588900">
        <ele>403.8</ele>
        <time>2018-09-23T11:05:47Z</time>
      </trkpt>
      <trkpt lat="41.7302380" lon="1.6588200">
        <ele>403.8</ele>
        <time>2018-09-23T11:05:48Z</time>
      </trkpt>
      <trkpt lat="41.7301400" lon="1.6580260">
        <ele>404.0</ele>
        <time>2018-09-23T11:05:58Z</time>
      </trkpt>
      <trkpt lat="41.7300160" lon="1.6572380">
        <ele>404.2</ele>
        <time>2018-09-23T11:06:07Z</time>
      </trkpt>
      <trkpt lat="41.7298150" lon="1.6564780">
        <ele>404.8</ele>
        <time>2018-09-23T11:06:16Z</time>
      </trkpt>
      <trkpt lat="41.7297390" lon="1.6562310">
        <ele>404.8</ele>
        <time>2018-09-23T11:06:19Z</time>
      </trkpt>
      <trkpt lat="41.7295420" lon="1.6555290">
        <ele>405.2</ele>
        <time>2018-09-23T11:06:28Z</time>
      </trkpt>
      <trkpt lat="41.7295310" lon="1.6554650">
        <ele>405.2</ele>
        <time>2018-09-23T11:06:29Z</time>
      </trkpt>
      <trkpt lat="41.7295050" lon="1.6551820">
        <ele>405.8</ele>
        <time>2018-09-23T11:06:34Z</time>
      </trkpt>
      <trkpt lat="41.7294910" lon="1.6548820">
        <ele>406.8</ele>
        <time>2018-09-23T11:06:40Z</time>
      </trkpt>
      <trkpt lat="41.7294810" lon="1.6545440">
        <ele>407.2</ele>
        <time>2018-09-23T11:06:46Z</time>
      </trkpt>
      <trkpt lat="41.7294600" lon="1.6542540">
        <ele>407.2</ele>
        <time>2018-09-23T11:06:51Z</time>
      </trkpt>
      <trkpt lat="41.7293990" lon="1.6538480">
        <ele>407.6</ele>
        <time>2018-09-23T11:06:59Z</time>
      </trkpt>
      <trkpt lat="41.7293100" lon="1.6538740">
        <ele>407.6</ele>
        <time>2018-09-23T11:07:03Z</time>
      </trkpt>
      <trkpt lat="41.7290190" lon="1.6540510">
        <ele>406.0</ele>
        <time>2018-09-23T11:07:16Z</time>
      </trkpt>
      <trkpt lat="41.7289060" lon="1.6541400">
        <ele>404.8</ele>
        <time>2018-09-23T11:07:21Z</time>
      </trkpt>
      <trkpt lat="41.7287630" lon="1.6542220">
        <ele>404.0</ele>
        <time>2018-09-23T11:07:28Z</time>
      </trkpt>
      <trkpt lat="41.7287270" lon="1.6542970">
        <ele>404.0</ele>
        <time>2018-09-23T11:07:38Z</time>
      </trkpt>
      <trkpt lat="41.7287530" lon="1.6542680">
        <ele>404.0</ele>
        <time>2018-09-23T11:07:40Z</time>
      </trkpt>
      <trkpt lat="41.7287660" lon="1.6542340">
        <ele>403.8</ele>
        <time>2018-09-23T11:07:42Z</time>
      </trkpt>
      <trkpt lat="41.7287860" lon="1.6541790">
        <ele>403.8</ele>
        <time>2018-09-23T11:07:47Z</time>
      </trkpt>
      <trkpt lat="41.7288070" lon="1.6542030">
        <ele>403.8</ele>
        <time>2018-09-23T11:07:54Z</time>
      </trkpt>
      <trkpt lat="41.7287770" lon="1.6542230">
        <ele>403.8</ele>
        <time>2018-09-23T11:07:58Z</time>
      </trkpt>
      <trkpt lat="41.7287630" lon="1.6541960">
        <ele>403.8</ele>
        <time>2018-09-23T11:08:04Z</time>
      </trkpt>
      <trkpt lat="41.7287330" lon="1.6542210">
        <ele>403.8</ele>
        <time>2018-09-23T11:08:21Z</time>
      </trkpt>
      <trkpt lat="41.7282180" lon="1.6543890">
        <ele>403.0</ele>
        <time>2018-09-23T11:08:38Z</time>
      </trkpt>
      <trkpt lat="41.7280590" lon="1.6543580">
        <ele>402.4</ele>
        <time>2018-09-23T11:08:42Z</time>
      </trkpt>
      <trkpt lat="41.7279930" lon="1.6541970">
        <ele>402.2</ele>
        <time>2018-09-23T11:08:46Z</time>
      </trkpt>
      <trkpt lat="41.7277410" lon="1.6535450">
        <ele>403.2</ele>
        <time>2018-09-23T11:09:01Z</time>
      </trkpt>
      <trkpt lat="41.7275970" lon="1.6532970">
        <ele>404.4</ele>
        <time>2018-09-23T11:09:08Z</time>
      </trkpt>
      <trkpt lat="41.7274700" lon="1.6531320">
        <ele>405.8</ele>
        <time>2018-09-23T11:09:13Z</time>
      </trkpt>
      <trkpt lat="41.7273560" lon="1.6530230">
        <ele>407.0</ele>
        <time>2018-09-23T11:09:17Z</time>
      </trkpt>
      <trkpt lat="41.7272200" lon="1.6528930">
        <ele>408.2</ele>
        <time>2018-09-23T11:09:22Z</time>
      </trkpt>
      <trkpt lat="41.7271070" lon="1.6527760">
        <ele>409.2</ele>
        <time>2018-09-23T11:09:26Z</time>
      </trkpt>
      <trkpt lat="41.7269950" lon="1.6526630">
        <ele>410.2</ele>
        <time>2018-09-23T11:09:30Z</time>
      </trkpt>
      <trkpt lat="41.7269150" lon="1.6525780">
        <ele>411.4</ele>
        <time>2018-09-23T11:09:33Z</time>
      </trkpt>
      <trkpt lat="41.7268140" lon="1.6524500">
        <ele>412.6</ele>
        <time>2018-09-23T11:09:37Z</time>
      </trkpt>
      <trkpt lat="41.7267280" lon="1.6523030">
        <ele>413.8</ele>
        <time>2018-09-23T11:09:41Z</time>
      </trkpt>
      <trkpt lat="41.7266140" lon="1.6520640">
        <ele>414.8</ele>
        <time>2018-09-23T11:09:47Z</time>
      </trkpt>
      <trkpt lat="41.7264280" lon="1.6517100">
        <ele>416.2</ele>
        <time>2018-09-23T11:09:56Z</time>
      </trkpt>
      <trkpt lat="41.7262880" lon="1.6514280">
        <ele>417.2</ele>
        <time>2018-09-23T11:10:03Z</time>
      </trkpt>
      <trkpt lat="41.7261540" lon="1.6509330">
        <ele>418.2</ele>
        <time>2018-09-23T11:10:14Z</time>
      </trkpt>
      <trkpt lat="41.7260930" lon="1.6504530">
        <ele>419.4</ele>
        <time>2018-09-23T11:10:23Z</time>
      </trkpt>
      <trkpt lat="41.7260120" lon="1.6502550">
        <ele>419.4</ele>
        <time>2018-09-23T11:10:26Z</time>
      </trkpt>
      <trkpt lat="41.7256260" lon="1.6496620">
        <ele>418.6</ele>
        <time>2018-09-23T11:10:35Z</time>
      </trkpt>
      <trkpt lat="41.7255760" lon="1.6496090">
        <ele>418.2</ele>
        <time>2018-09-23T11:10:36Z</time>
      </trkpt>
      <trkpt lat="41.7252590" lon="1.6492840">
        <ele>417.6</ele>
        <time>2018-09-23T11:10:44Z</time>
      </trkpt>
      <trkpt lat="41.7249780" lon="1.6489210">
        <ele>419.4</ele>
        <time>2018-09-23T11:10:54Z</time>
      </trkpt>
      <trkpt lat="41.7248540" lon="1.6488350">
        <ele>420.4</ele>
        <time>2018-09-23T11:10:58Z</time>
      </trkpt>
      <trkpt lat="41.7247450" lon="1.6487530">
        <ele>421.4</ele>
        <time>2018-09-23T11:11:02Z</time>
      </trkpt>
      <trkpt lat="41.7246090" lon="1.6485860">
        <ele>422.6</ele>
        <time>2018-09-23T11:11:07Z</time>
      </trkpt>
      <trkpt lat="41.7245060" lon="1.6484450">
        <ele>423.6</ele>
        <time>2018-09-23T11:11:11Z</time>
      </trkpt>
      <trkpt lat="41.7243830" lon="1.6483650">
        <ele>424.8</ele>
        <time>2018-09-23T11:11:15Z</time>
      </trkpt>
      <trkpt lat="41.7242690" lon="1.6482740">
        <ele>425.8</ele>
        <time>2018-09-23T11:11:19Z</time>
      </trkpt>
      <trkpt lat="41.7241860" lon="1.6481890">
        <ele>426.8</ele>
        <time>2018-09-23T11:11:22Z</time>
      </trkpt>
      <trkpt lat="41.7240800" lon="1.6480590">
        <ele>427.8</ele>
        <time>2018-09-23T11:11:26Z</time>
      </trkpt>
      <trkpt lat="41.7239110" lon="1.6478370">
        <ele>428.8</ele>
        <time>2018-09-23T11:11:33Z</time>
      </trkpt>
      <trkpt lat="41.7238890" lon="1.6478060">
        <ele>429.0</ele>
        <time>2018-09-23T11:11:34Z</time>
      </trkpt>
      <trkpt lat="41.7238090" lon="1.6476960">
        <ele>429.8</ele>
        <time>2018-09-23T11:11:38Z</time>
      </trkpt>
      <trkpt lat="41.7237150" lon="1.6475440">
        <ele>431.0</ele>
        <time>2018-09-23T11:11:43Z</time>
      </trkpt>
      <trkpt lat="41.7236230" lon="1.6474290">
        <ele>432.2</ele>
        <time>2018-09-23T11:11:47Z</time>
      </trkpt>
      <trkpt lat="41.7235350" lon="1.6473270">
        <ele>433.2</ele>
        <time>2018-09-23T11:11:51Z</time>
      </trkpt>
      <trkpt lat="41.7234200" lon="1.6471970">
        <ele>434.2</ele>
        <time>2018-09-23T11:11:56Z</time>
      </trkpt>
      <trkpt lat="41.7233070" lon="1.6471210">
        <ele>435.2</ele>
        <time>2018-09-23T11:12:00Z</time>
      </trkpt>
      <trkpt lat="41.7231850" lon="1.6470560">
        <ele>436.2</ele>
        <time>2018-09-23T11:12:04Z</time>
      </trkpt>
      <trkpt lat="41.7230820" lon="1.6470290">
        <ele>437.4</ele>
        <time>2018-09-23T11:12:07Z</time>
      </trkpt>
      <trkpt lat="41.7229680" lon="1.6470270">
        <ele>438.6</ele>
        <time>2018-09-23T11:12:10Z</time>
      </trkpt>
      <trkpt lat="41.7228150" lon="1.6470560">
        <ele>439.8</ele>
        <time>2018-09-23T11:12:14Z</time>
      </trkpt>
      <trkpt lat="41.7226180" lon="1.6471120">
        <ele>441.2</ele>
        <time>2018-09-23T11:12:19Z</time>
      </trkpt>
      <trkpt lat="41.7224220" lon="1.6472250">
        <ele>442.4</ele>
        <time>2018-09-23T11:12:24Z</time>
      </trkpt>
      <trkpt lat="41.7223060" lon="1.6473050">
        <ele>443.4</ele>
        <time>2018-09-23T11:12:27Z</time>
      </trkpt>
      <trkpt lat="41.7221520" lon="1.6474340">
        <ele>444.6</ele>
        <time>2018-09-23T11:12:31Z</time>
      </trkpt>
      <trkpt lat="41.7220830" lon="1.6475080">
        <ele>445.0</ele>
        <time>2018-09-23T11:12:33Z</time>
      </trkpt>
      <trkpt lat="41.7220290" lon="1.6475950">
        <ele>445.6</ele>
        <time>2018-09-23T11:12:35Z</time>
      </trkpt>
      <trkpt lat="41.7219590" lon="1.6477250">
        <ele>446.0</ele>
        <time>2018-09-23T11:12:38Z</time>
      </trkpt>
      <trkpt lat="41.7218670" lon="1.6478240">
        <ele>446.2</ele>
        <time>2018-09-23T11:12:41Z</time>
      </trkpt>
      <trkpt lat="41.7217000" lon="1.6478390">
        <ele>446.6</ele>
        <time>2018-09-23T11:12:45Z</time>
      </trkpt>
      <trkpt lat="41.7216550" lon="1.6478250">
        <ele>446.6</ele>
        <time>2018-09-23T11:12:46Z</time>
      </trkpt>
      <trkpt lat="41.7216100" lon="1.6478050">
        <ele>446.8</ele>
        <time>2018-09-23T11:12:47Z</time>
      </trkpt>
      <trkpt lat="41.7213550" lon="1.6475420">
        <ele>447.6</ele>
        <time>2018-09-23T11:12:53Z</time>
      </trkpt>
      <trkpt lat="41.7209580" lon="1.6470420">
        <ele>448.2</ele>
        <time>2018-09-23T11:13:03Z</time>
      </trkpt>
      <trkpt lat="41.7205480" lon="1.6464730">
        <ele>447.8</ele>
        <time>2018-09-23T11:13:13Z</time>
      </trkpt>
      <trkpt lat="41.7202760" lon="1.6457720">
        <ele>447.8</ele>
        <time>2018-09-23T11:13:23Z</time>
      </trkpt>
      <trkpt lat="41.7202420" lon="1.6457140">
        <ele>447.8</ele>
        <time>2018-09-23T11:13:24Z</time>
      </trkpt>
      <trkpt lat="41.7200280" lon="1.6454800">
        <ele>448.8</ele>
        <time>2018-09-23T11:13:29Z</time>
      </trkpt>
      <trkpt lat="41.7198040" lon="1.6453070">
        <ele>450.0</ele>
        <time>2018-09-23T11:13:34Z</time>
      </trkpt>
      <trkpt lat="41.7196740" lon="1.6452020">
        <ele>451.0</ele>
        <time>2018-09-23T11:13:37Z</time>
      </trkpt>
      <trkpt lat="41.7196350" lon="1.6451610">
        <ele>451.4</ele>
        <time>2018-09-23T11:13:38Z</time>
      </trkpt>
      <trkpt lat="41.7195680" lon="1.6450700">
        <ele>451.8</ele>
        <time>2018-09-23T11:13:40Z</time>
      </trkpt>
      <trkpt lat="41.7195170" lon="1.6449640">
        <ele>452.4</ele>
        <time>2018-09-23T11:13:42Z</time>
      </trkpt>
      <trkpt lat="41.7194690" lon="1.6448590">
        <ele>452.8</ele>
        <time>2018-09-23T11:13:44Z</time>
      </trkpt>
      <trkpt lat="41.7193920" lon="1.6447110">
        <ele>453.6</ele>
        <time>2018-09-23T11:13:47Z</time>
      </trkpt>
      <trkpt lat="41.7193400" lon="1.6446120">
        <ele>454.0</ele>
        <time>2018-09-23T11:13:49Z</time>
      </trkpt>
      <trkpt lat="41.7192770" lon="1.6445230">
        <ele>454.6</ele>
        <time>2018-09-23T11:13:51Z</time>
      </trkpt>
      <trkpt lat="41.7191920" lon="1.6443910">
        <ele>455.8</ele>
        <time>2018-09-23T11:13:54Z</time>
      </trkpt>
      <trkpt lat="41.7191100" lon="1.6442680">
        <ele>456.8</ele>
        <time>2018-09-23T11:13:57Z</time>
      </trkpt>
      <trkpt lat="41.7189990" lon="1.6440750">
        <ele>458.2</ele>
        <time>2018-09-23T11:14:01Z</time>
      </trkpt>
      <trkpt lat="41.7189750" lon="1.6440210">
        <ele>458.6</ele>
        <time>2018-09-23T11:14:02Z</time>
      </trkpt>
      <trkpt lat="41.7189380" lon="1.6439100">
        <ele>459.4</ele>
        <time>2018-09-23T11:14:04Z</time>
      </trkpt>
      <trkpt lat="41.7188860" lon="1.6437430">
        <ele>460.2</ele>
        <time>2018-09-23T11:14:07Z</time>
      </trkpt>
      <trkpt lat="41.7188230" lon="1.6436450">
        <ele>460.6</ele>
        <time>2018-09-23T11:14:09Z</time>
      </trkpt>
      <trkpt lat="41.7186420" lon="1.6435950">
        <ele>461.8</ele>
        <time>2018-09-23T11:14:13Z</time>
      </trkpt>
      <trkpt lat="41.7185970" lon="1.6436050">
        <ele>462.0</ele>
        <time>2018-09-23T11:14:14Z</time>
      </trkpt>
      <trkpt lat="41.7184270" lon="1.6437010">
        <ele>463.0</ele>
        <time>2018-09-23T11:14:18Z</time>
      </trkpt>
      <trkpt lat="41.7183870" lon="1.6437340">
        <ele>463.2</ele>
        <time>2018-09-23T11:14:19Z</time>
      </trkpt>
      <trkpt lat="41.7183090" lon="1.6437980">
        <ele>464.0</ele>
        <time>2018-09-23T11:14:21Z</time>
      </trkpt>
      <trkpt lat="41.7182310" lon="1.6438570">
        <ele>464.6</ele>
        <time>2018-09-23T11:14:23Z</time>
      </trkpt>
      <trkpt lat="41.7181480" lon="1.6438950">
        <ele>465.2</ele>
        <time>2018-09-23T11:14:25Z</time>
      </trkpt>
      <trkpt lat="41.7179610" lon="1.6439000">
        <ele>466.2</ele>
        <time>2018-09-23T11:14:29Z</time>
      </trkpt>
      <trkpt lat="41.7177650" lon="1.6439040">
        <ele>467.4</ele>
        <time>2018-09-23T11:14:33Z</time>
      </trkpt>
      <trkpt lat="41.7175150" lon="1.6439610">
        <ele>468.6</ele>
        <time>2018-09-23T11:14:39Z</time>
      </trkpt>
      <trkpt lat="41.7174740" lon="1.6439770">
        <ele>468.8</ele>
        <time>2018-09-23T11:14:40Z</time>
      </trkpt>
      <trkpt lat="41.7171920" lon="1.6441860">
        <ele>469.6</ele>
        <time>2018-09-23T11:14:47Z</time>
      </trkpt>
      <trkpt lat="41.7169780" lon="1.6443830">
        <ele>470.4</ele>
        <time>2018-09-23T11:14:53Z</time>
      </trkpt>
      <trkpt lat="41.7169190" lon="1.6444530">
        <ele>470.8</ele>
        <time>2018-09-23T11:14:55Z</time>
      </trkpt>
      <trkpt lat="41.7167600" lon="1.6445880">
        <ele>471.8</ele>
        <time>2018-09-23T11:15:00Z</time>
      </trkpt>
      <trkpt lat="41.7166600" lon="1.6446750">
        <ele>472.8</ele>
        <time>2018-09-23T11:15:03Z</time>
      </trkpt>
      <trkpt lat="41.7165390" lon="1.6448080">
        <ele>474.0</ele>
        <time>2018-09-23T11:15:07Z</time>
      </trkpt>
      <trkpt lat="41.7164250" lon="1.6449450">
        <ele>475.2</ele>
        <time>2018-09-23T11:15:11Z</time>
      </trkpt>
      <trkpt lat="41.7162920" lon="1.6450230">
        <ele>476.4</ele>
        <time>2018-09-23T11:15:15Z</time>
      </trkpt>
      <trkpt lat="41.7161350" lon="1.6450430">
        <ele>477.6</ele>
        <time>2018-09-23T11:15:19Z</time>
      </trkpt>
      <trkpt lat="41.7159730" lon="1.6450670">
        <ele>479.0</ele>
        <time>2018-09-23T11:15:23Z</time>
      </trkpt>
      <trkpt lat="41.7158180" lon="1.6451270">
        <ele>480.0</ele>
        <time>2018-09-23T11:15:27Z</time>
      </trkpt>
      <trkpt lat="41.7157420" lon="1.6451710">
        <ele>480.4</ele>
        <time>2018-09-23T11:15:29Z</time>
      </trkpt>
      <trkpt lat="41.7156460" lon="1.6452620">
        <ele>481.2</ele>
        <time>2018-09-23T11:15:32Z</time>
      </trkpt>
      <trkpt lat="41.7155920" lon="1.6453170">
        <ele>481.8</ele>
        <time>2018-09-23T11:15:34Z</time>
      </trkpt>
      <trkpt lat="41.7155180" lon="1.6453760">
        <ele>482.2</ele>
        <time>2018-09-23T11:15:37Z</time>
      </trkpt>
      <trkpt lat="41.7154100" lon="1.6454570">
        <ele>483.4</ele>
        <time>2018-09-23T11:15:43Z</time>
      </trkpt>
      <trkpt lat="41.7153910" lon="1.6454620">
        <ele>483.6</ele>
        <time>2018-09-23T11:15:44Z</time>
      </trkpt>
      <trkpt lat="41.7152350" lon="1.6455660">
        <ele>484.2</ele>
        <time>2018-09-23T11:15:52Z</time>
      </trkpt>
      <trkpt lat="41.7150990" lon="1.6456180">
        <ele>484.6</ele>
        <time>2018-09-23T11:15:57Z</time>
      </trkpt>
      <trkpt lat="41.7148420" lon="1.6458020">
        <ele>485.6</ele>
        <time>2018-09-23T11:16:08Z</time>
      </trkpt>
      <trkpt lat="41.7145920" lon="1.6459150">
        <ele>486.6</ele>
        <time>2018-09-23T11:16:18Z</time>
      </trkpt>
      <trkpt lat="41.7141870" lon="1.6459330">
        <ele>487.8</ele>
        <time>2018-09-23T11:16:34Z</time>
      </trkpt>
      <trkpt lat="41.7139490" lon="1.6459500">
        <ele>488.8</ele>
        <time>2018-09-23T11:16:43Z</time>
      </trkpt>
      <trkpt lat="41.7137480" lon="1.6459010">
        <ele>490.0</ele>
        <time>2018-09-23T11:16:50Z</time>
      </trkpt>
      <trkpt lat="41.7133120" lon="1.6457250">
        <ele>490.4</ele>
        <time>2018-09-23T11:17:06Z</time>
      </trkpt>
      <trkpt lat="41.7131000" lon="1.6455690">
        <ele>490.2</ele>
        <time>2018-09-23T11:17:11Z</time>
      </trkpt>
      <trkpt lat="41.7125330" lon="1.6455480">
        <ele>489.0</ele>
        <time>2018-09-23T11:17:22Z</time>
      </trkpt>
      <trkpt lat="41.7120110" lon="1.6452980">
        <ele>488.2</ele>
        <time>2018-09-23T11:17:34Z</time>
      </trkpt>
      <trkpt lat="41.7118290" lon="1.6451700">
        <ele>488.4</ele>
        <time>2018-09-23T11:17:39Z</time>
      </trkpt>
      <trkpt lat="41.7116290" lon="1.6451360">
        <ele>489.0</ele>
        <time>2018-09-23T11:17:44Z</time>
      </trkpt>
      <trkpt lat="41.7114660" lon="1.6451180">
        <ele>489.6</ele>
        <time>2018-09-23T11:17:48Z</time>
      </trkpt>
      <trkpt lat="41.7108900" lon="1.6449220">
        <ele>489.2</ele>
        <time>2018-09-23T11:17:59Z</time>
      </trkpt>
      <trkpt lat="41.7105260" lon="1.6449140">
        <ele>488.2</ele>
        <time>2018-09-23T11:18:05Z</time>
      </trkpt>
      <trkpt lat="41.7104040" lon="1.6448800">
        <ele>488.0</ele>
        <time>2018-09-23T11:18:07Z</time>
      </trkpt>
      <trkpt lat="41.7102830" lon="1.6448160">
        <ele>487.6</ele>
        <time>2018-09-23T11:18:09Z</time>
      </trkpt>
      <trkpt lat="41.7101560" lon="1.6447560">
        <ele>487.4</ele>
        <time>2018-09-23T11:18:11Z</time>
      </trkpt>
      <trkpt lat="41.7100250" lon="1.6447400">
        <ele>487.0</ele>
        <time>2018-09-23T11:18:13Z</time>
      </trkpt>
      <trkpt lat="41.7098930" lon="1.6447270">
        <ele>486.6</ele>
        <time>2018-09-23T11:18:15Z</time>
      </trkpt>
      <trkpt lat="41.7096640" lon="1.6445500">
        <ele>486.0</ele>
        <time>2018-09-23T11:18:19Z</time>
      </trkpt>
      <trkpt lat="41.7093980" lon="1.6446070">
        <ele>485.2</ele>
        <time>2018-09-23T11:18:24Z</time>
      </trkpt>
      <trkpt lat="41.7091870" lon="1.6447020">
        <ele>485.2</ele>
        <time>2018-09-23T11:18:29Z</time>
      </trkpt>
      <trkpt lat="41.7086420" lon="1.6449630">
        <ele>485.8</ele>
        <time>2018-09-23T11:18:42Z</time>
      </trkpt>
      <trkpt lat="41.7081030" lon="1.6452030">
        <ele>485.8</ele>
        <time>2018-09-23T11:18:53Z</time>
      </trkpt>
      <trkpt lat="41.7075790" lon="1.6453220">
        <ele>484.8</ele>
        <time>2018-09-23T11:19:02Z</time>
      </trkpt>
      <trkpt lat="41.7071350" lon="1.6451850">
        <ele>484.4</ele>
        <time>2018-09-23T11:19:09Z</time>
      </trkpt>
      <trkpt lat="41.7068760" lon="1.6450820">
        <ele>484.2</ele>
        <time>2018-09-23T11:19:13Z</time>
      </trkpt>
      <trkpt lat="41.7063100" lon="1.6449860">
        <ele>484.2</ele>
        <time>2018-09-23T11:19:22Z</time>
      </trkpt>
      <trkpt lat="41.7060290" lon="1.6450030">
        <ele>484.2</ele>
        <time>2018-09-23T11:19:27Z</time>
      </trkpt>
      <trkpt lat="41.7055090" lon="1.6452780">
        <ele>485.4</ele>
        <time>2018-09-23T11:19:37Z</time>
      </trkpt>
      <trkpt lat="41.7053720" lon="1.6453580">
        <ele>485.8</ele>
        <time>2018-09-23T11:19:40Z</time>
      </trkpt>
      <trkpt lat="41.7051030" lon="1.6455010">
        <ele>487.0</ele>
        <time>2018-09-23T11:19:46Z</time>
      </trkpt>
      <trkpt lat="41.7048890" lon="1.6455880">
        <ele>488.2</ele>
        <time>2018-09-23T11:19:51Z</time>
      </trkpt>
      <trkpt lat="41.7046320" lon="1.6456840">
        <ele>489.2</ele>
        <time>2018-09-23T11:19:57Z</time>
      </trkpt>
      <trkpt lat="41.7043710" lon="1.6457760">
        <ele>490.4</ele>
        <time>2018-09-23T11:20:03Z</time>
      </trkpt>
      <trkpt lat="41.7042040" lon="1.6458510">
        <ele>491.6</ele>
        <time>2018-09-23T11:20:07Z</time>
      </trkpt>
      <trkpt lat="41.7040310" lon="1.6459270">
        <ele>492.6</ele>
        <time>2018-09-23T11:20:11Z</time>
      </trkpt>
      <trkpt lat="41.7038040" lon="1.6460270">
        <ele>493.8</ele>
        <time>2018-09-23T11:20:16Z</time>
      </trkpt>
      <trkpt lat="41.7036650" lon="1.6460520">
        <ele>494.6</ele>
        <time>2018-09-23T11:20:19Z</time>
      </trkpt>
      <trkpt lat="41.7036140" lon="1.6460490">
        <ele>495.0</ele>
        <time>2018-09-23T11:20:20Z</time>
      </trkpt>
      <trkpt lat="41.7034010" lon="1.6459820">
        <ele>496.2</ele>
        <time>2018-09-23T11:20:24Z</time>
      </trkpt>
      <trkpt lat="41.7029080" lon="1.6456670">
        <ele>497.0</ele>
        <time>2018-09-23T11:20:34Z</time>
      </trkpt>
      <trkpt lat="41.7027550" lon="1.6455830">
        <ele>497.2</ele>
        <time>2018-09-23T11:20:37Z</time>
      </trkpt>
      <trkpt lat="41.7027030" lon="1.6455650">
        <ele>497.4</ele>
        <time>2018-09-23T11:20:38Z</time>
      </trkpt>
      <trkpt lat="41.7025950" lon="1.6455410">
        <ele>497.6</ele>
        <time>2018-09-23T11:20:40Z</time>
      </trkpt>
      <trkpt lat="41.7023160" lon="1.6455110">
        <ele>498.4</ele>
        <time>2018-09-23T11:20:45Z</time>
      </trkpt>
      <trkpt lat="41.7017430" lon="1.6455360">
        <ele>499.0</ele>
        <time>2018-09-23T11:20:56Z</time>
      </trkpt>
      <trkpt lat="41.7017000" lon="1.6455360">
        <ele>499.2</ele>
        <time>2018-09-23T11:20:57Z</time>
      </trkpt>
      <trkpt lat="41.7015740" lon="1.6455160">
        <ele>499.2</ele>
        <time>2018-09-23T11:21:00Z</time>
      </trkpt>
      <trkpt lat="41.7015310" lon="1.6455010">
        <ele>499.6</ele>
        <time>2018-09-23T11:21:01Z</time>
      </trkpt>
      <trkpt lat="41.7009960" lon="1.6452760">
        <ele>499.6</ele>
        <time>2018-09-23T11:21:12Z</time>
      </trkpt>
      <trkpt lat="41.7004750" lon="1.6450730">
        <ele>498.8</ele>
        <time>2018-09-23T11:21:22Z</time>
      </trkpt>
      <trkpt lat="41.7002610" lon="1.6450530">
        <ele>498.8</ele>
        <time>2018-09-23T11:21:26Z</time>
      </trkpt>
      <trkpt lat="41.6997350" lon="1.6449890">
        <ele>499.0</ele>
        <time>2018-09-23T11:21:38Z</time>
      </trkpt>
      <trkpt lat="41.6996630" lon="1.6449210">
        <ele>499.4</ele>
        <time>2018-09-23T11:21:40Z</time>
      </trkpt>
      <trkpt lat="41.6995200" lon="1.6447300">
        <ele>500.2</ele>
        <time>2018-09-23T11:21:44Z</time>
      </trkpt>
      <trkpt lat="41.6990960" lon="1.6442270">
        <ele>500.0</ele>
        <time>2018-09-23T11:21:53Z</time>
      </trkpt>
      <trkpt lat="41.6988520" lon="1.6439230">
        <ele>499.6</ele>
        <time>2018-09-23T11:21:58Z</time>
      </trkpt>
      <trkpt lat="41.6986090" lon="1.6433330">
        <ele>499.4</ele>
        <time>2018-09-23T11:22:05Z</time>
      </trkpt>
      <trkpt lat="41.6981530" lon="1.6430430">
        <ele>498.2</ele>
        <time>2018-09-23T11:22:12Z</time>
      </trkpt>
      <trkpt lat="41.6978980" lon="1.6430180">
        <ele>497.0</ele>
        <time>2018-09-23T11:22:16Z</time>
      </trkpt>
      <trkpt lat="41.6973530" lon="1.6430560">
        <ele>496.6</ele>
        <time>2018-09-23T11:22:25Z</time>
      </trkpt>
      <trkpt lat="41.6968670" lon="1.6431090">
        <ele>498.0</ele>
        <time>2018-09-23T11:22:35Z</time>
      </trkpt>
      <trkpt lat="41.6967100" lon="1.6431810">
        <ele>498.8</ele>
        <time>2018-09-23T11:22:39Z</time>
      </trkpt>
      <trkpt lat="41.6966310" lon="1.6432230">
        <ele>499.4</ele>
        <time>2018-09-23T11:22:41Z</time>
      </trkpt>
      <trkpt lat="41.6964660" lon="1.6432450">
        <ele>500.0</ele>
        <time>2018-09-23T11:22:45Z</time>
      </trkpt>
      <trkpt lat="41.6963280" lon="1.6432020">
        <ele>500.4</ele>
        <time>2018-09-23T11:22:49Z</time>
      </trkpt>
      <trkpt lat="41.6961250" lon="1.6431120">
        <ele>501.8</ele>
        <time>2018-09-23T11:22:56Z</time>
      </trkpt>
      <trkpt lat="41.6960360" lon="1.6430590">
        <ele>503.0</ele>
        <time>2018-09-23T11:22:59Z</time>
      </trkpt>
      <trkpt lat="41.6959140" lon="1.6429710">
        <ele>504.4</ele>
        <time>2018-09-23T11:23:03Z</time>
      </trkpt>
      <trkpt lat="41.6957950" lon="1.6428630">
        <ele>505.6</ele>
        <time>2018-09-23T11:23:07Z</time>
      </trkpt>
      <trkpt lat="41.6956460" lon="1.6427470">
        <ele>506.6</ele>
        <time>2018-09-23T11:23:12Z</time>
      </trkpt>
      <trkpt lat="41.6953880" lon="1.6427630">
        <ele>507.6</ele>
        <time>2018-09-23T11:23:21Z</time>
      </trkpt>
      <trkpt lat="41.6950150" lon="1.6427500">
        <ele>508.6</ele>
        <time>2018-09-23T11:23:36Z</time>
      </trkpt>
      <trkpt lat="41.6948730" lon="1.6429070">
        <ele>509.8</ele>
        <time>2018-09-23T11:23:47Z</time>
      </trkpt>
      <trkpt lat="41.6947330" lon="1.6430410">
        <ele>510.8</ele>
        <time>2018-09-23T11:23:57Z</time>
      </trkpt>
      <trkpt lat="41.6946110" lon="1.6431530">
        <ele>511.8</ele>
        <time>2018-09-23T11:24:04Z</time>
      </trkpt>
      <trkpt lat="41.6944840" lon="1.6432640">
        <ele>513.0</ele>
        <time>2018-09-23T11:24:11Z</time>
      </trkpt>
      <trkpt lat="41.6944090" lon="1.6433360">
        <ele>514.2</ele>
        <time>2018-09-23T11:24:15Z</time>
      </trkpt>
      <trkpt lat="41.6943140" lon="1.6434310">
        <ele>515.2</ele>
        <time>2018-09-23T11:24:20Z</time>
      </trkpt>
      <trkpt lat="41.6942170" lon="1.6435450">
        <ele>516.4</ele>
        <time>2018-09-23T11:24:25Z</time>
      </trkpt>
      <trkpt lat="41.6941140" lon="1.6436510">
        <ele>517.4</ele>
        <time>2018-09-23T11:24:30Z</time>
      </trkpt>
      <trkpt lat="41.6940240" lon="1.6437280">
        <ele>518.4</ele>
        <time>2018-09-23T11:24:34Z</time>
      </trkpt>
      <trkpt lat="41.6939310" lon="1.6438130">
        <ele>519.6</ele>
        <time>2018-09-23T11:24:38Z</time>
      </trkpt>
      <trkpt lat="41.6937990" lon="1.6439720">
        <ele>520.8</ele>
        <time>2018-09-23T11:24:44Z</time>
      </trkpt>
      <trkpt lat="41.6936990" lon="1.6441700">
        <ele>522.0</ele>
        <time>2018-09-23T11:24:50Z</time>
      </trkpt>
      <trkpt lat="41.6936480" lon="1.6443020">
        <ele>523.0</ele>
        <time>2018-09-23T11:24:54Z</time>
      </trkpt>
      <trkpt lat="41.6935790" lon="1.6445380">
        <ele>524.2</ele>
        <time>2018-09-23T11:25:01Z</time>
      </trkpt>
      <trkpt lat="41.6935040" lon="1.6447810">
        <ele>525.0</ele>
        <time>2018-09-23T11:25:08Z</time>
      </trkpt>
      <trkpt lat="41.6934430" lon="1.6449580">
        <ele>526.0</ele>
        <time>2018-09-23T11:25:13Z</time>
      </trkpt>
      <trkpt lat="41.6933830" lon="1.6450970">
        <ele>527.2</ele>
        <time>2018-09-23T11:25:17Z</time>
      </trkpt>
      <trkpt lat="41.6933020" lon="1.6452630">
        <ele>528.4</ele>
        <time>2018-09-23T11:25:22Z</time>
      </trkpt>
      <trkpt lat="41.6932540" lon="1.6453620">
        <ele>529.4</ele>
        <time>2018-09-23T11:25:25Z</time>
      </trkpt>
      <trkpt lat="41.6931540" lon="1.6455350">
        <ele>530.6</ele>
        <time>2018-09-23T11:25:31Z</time>
      </trkpt>
      <trkpt lat="41.6930320" lon="1.6456790">
        <ele>531.6</ele>
        <time>2018-09-23T11:25:37Z</time>
      </trkpt>
      <trkpt lat="41.6927760" lon="1.6460110">
        <ele>532.6</ele>
        <time>2018-09-23T11:25:50Z</time>
      </trkpt>
      <trkpt lat="41.6923170" lon="1.6463550">
        <ele>533.6</ele>
        <time>2018-09-23T11:26:08Z</time>
      </trkpt>
      <trkpt lat="41.6918970" lon="1.6465980">
        <ele>534.8</ele>
        <time>2018-09-23T11:26:21Z</time>
      </trkpt>
      <trkpt lat="41.6914430" lon="1.6470150">
        <ele>535.6</ele>
        <time>2018-09-23T11:26:33Z</time>
      </trkpt>
      <trkpt lat="41.6913680" lon="1.6470920">
        <ele>535.6</ele>
        <time>2018-09-23T11:26:35Z</time>
      </trkpt>
      <trkpt lat="41.6908530" lon="1.6470260">
        <ele>535.4</ele>
        <time>2018-09-23T11:26:46Z</time>
      </trkpt>
      <trkpt lat="41.6903640" lon="1.6466800">
        <ele>535.2</ele>
        <time>2018-09-23T11:26:56Z</time>
      </trkpt>
      <trkpt lat="41.6899280" lon="1.6464640">
        <ele>534.6</ele>
        <time>2018-09-23T11:27:04Z</time>
      </trkpt>
      <trkpt lat="41.6895740" lon="1.6465730">
        <ele>534.2</ele>
        <time>2018-09-23T11:27:11Z</time>
      </trkpt>
      <trkpt lat="41.6894430" lon="1.6466560">
        <ele>534.4</ele>
        <time>2018-09-23T11:27:14Z</time>
      </trkpt>
      <trkpt lat="41.6890850" lon="1.6467180">
        <ele>535.6</ele>
        <time>2018-09-23T11:27:21Z</time>
      </trkpt>
      <trkpt lat="41.6888940" lon="1.6466160">
        <ele>536.6</ele>
        <time>2018-09-23T11:27:25Z</time>
      </trkpt>
      <trkpt lat="41.6887710" lon="1.6464940">
        <ele>537.2</ele>
        <time>2018-09-23T11:27:28Z</time>
      </trkpt>
      <trkpt lat="41.6886730" lon="1.6463360">
        <ele>537.8</ele>
        <time>2018-09-23T11:27:31Z</time>
      </trkpt>
      <trkpt lat="41.6885450" lon="1.6460440">
        <ele>538.8</ele>
        <time>2018-09-23T11:27:36Z</time>
      </trkpt>
      <trkpt lat="41.6884710" lon="1.6459300">
        <ele>539.8</ele>
        <time>2018-09-23T11:27:38Z</time>
      </trkpt>
      <trkpt lat="41.6884210" lon="1.6458990">
        <ele>540.2</ele>
        <time>2018-09-23T11:27:39Z</time>
      </trkpt>
      <trkpt lat="41.6883060" lon="1.6460060">
        <ele>541.4</ele>
        <time>2018-09-23T11:27:42Z</time>
      </trkpt>
      <trkpt lat="41.6883270" lon="1.6462570">
        <ele>542.0</ele>
        <time>2018-09-23T11:27:45Z</time>
      </trkpt>
      <trkpt lat="41.6883710" lon="1.6464950">
        <ele>542.6</ele>
        <time>2018-09-23T11:27:48Z</time>
      </trkpt>
      <trkpt lat="41.6884560" lon="1.6469700">
        <ele>543.8</ele>
        <time>2018-09-23T11:27:54Z</time>
      </trkpt>
      <trkpt lat="41.6885250" lon="1.6471960">
        <ele>545.0</ele>
        <time>2018-09-23T11:27:57Z</time>
      </trkpt>
      <trkpt lat="41.6886100" lon="1.6474120">
        <ele>546.0</ele>
        <time>2018-09-23T11:28:00Z</time>
      </trkpt>
      <trkpt lat="41.6886480" lon="1.6475620">
        <ele>546.6</ele>
        <time>2018-09-23T11:28:02Z</time>
      </trkpt>
      <trkpt lat="41.6886680" lon="1.6477100">
        <ele>547.2</ele>
        <time>2018-09-23T11:28:04Z</time>
      </trkpt>
      <trkpt lat="41.6886760" lon="1.6477820">
        <ele>547.4</ele>
        <time>2018-09-23T11:28:05Z</time>
      </trkpt>
      <trkpt lat="41.6886830" lon="1.6480560">
        <ele>548.4</ele>
        <time>2018-09-23T11:28:09Z</time>
      </trkpt>
      <trkpt lat="41.6886110" lon="1.6485170">
        <ele>549.4</ele>
        <time>2018-09-23T11:28:17Z</time>
      </trkpt>
      <trkpt lat="41.6885470" lon="1.6486890">
        <ele>550.6</ele>
        <time>2018-09-23T11:28:22Z</time>
      </trkpt>
      <trkpt lat="41.6884430" lon="1.6487910">
        <ele>551.6</ele>
        <time>2018-09-23T11:28:27Z</time>
      </trkpt>
      <trkpt lat="41.6879440" lon="1.6486240">
        <ele>552.4</ele>
        <time>2018-09-23T11:28:47Z</time>
      </trkpt>
      <trkpt lat="41.6878520" lon="1.6485360">
        <ele>552.4</ele>
        <time>2018-09-23T11:28:51Z</time>
      </trkpt>
      <trkpt lat="41.6874780" lon="1.6480090">
        <ele>553.2</ele>
        <time>2018-09-23T11:29:10Z</time>
      </trkpt>
      <trkpt lat="41.6872340" lon="1.6477120">
        <ele>553.4</ele>
        <time>2018-09-23T11:29:21Z</time>
      </trkpt>
      <trkpt lat="41.6872190" lon="1.6476840">
        <ele>553.6</ele>
        <time>2018-09-23T11:29:22Z</time>
      </trkpt>
      <trkpt lat="41.6871370" lon="1.6475920">
        <ele>553.8</ele>
        <time>2018-09-23T11:29:26Z</time>
      </trkpt>
      <trkpt lat="41.6869310" lon="1.6474720">
        <ele>554.6</ele>
        <time>2018-09-23T11:29:34Z</time>
      </trkpt>
      <trkpt lat="41.6865900" lon="1.6475060">
        <ele>555.6</ele>
        <time>2018-09-23T11:29:49Z</time>
      </trkpt>
      <trkpt lat="41.6864520" lon="1.6476170">
        <ele>556.6</ele>
        <time>2018-09-23T11:29:58Z</time>
      </trkpt>
      <trkpt lat="41.6862610" lon="1.6477370">
        <ele>558.0</ele>
        <time>2018-09-23T11:30:09Z</time>
      </trkpt>
      <trkpt lat="41.6860460" lon="1.6479670">
        <ele>559.0</ele>
        <time>2018-09-23T11:30:23Z</time>
      </trkpt>
      <trkpt lat="41.6858660" lon="1.6482520">
        <ele>560.0</ele>
        <time>2018-09-23T11:30:37Z</time>
      </trkpt>
      <trkpt lat="41.6858080" lon="1.6483060">
        <ele>560.6</ele>
        <time>2018-09-23T11:30:42Z</time>
      </trkpt>
      <trkpt lat="41.6857680" lon="1.6483010">
        <ele>561.0</ele>
        <time>2018-09-23T11:30:45Z</time>
      </trkpt>
      <trkpt lat="41.6856680" lon="1.6482380">
        <ele>561.8</ele>
        <time>2018-09-23T11:30:51Z</time>
      </trkpt>
      <trkpt lat="41.6851410" lon="1.6479920">
        <ele>560.8</ele>
        <time>2018-09-23T11:31:12Z</time>
      </trkpt>
      <trkpt lat="41.6850440" lon="1.6479890">
        <ele>560.4</ele>
        <time>2018-09-23T11:31:16Z</time>
      </trkpt>
      <trkpt lat="41.6849370" lon="1.6479540">
        <ele>560.0</ele>
        <time>2018-09-23T11:31:20Z</time>
      </trkpt>
      <trkpt lat="41.6844330" lon="1.6480460">
        <ele>559.2</ele>
        <time>2018-09-23T11:31:36Z</time>
      </trkpt>
      <trkpt lat="41.6842290" lon="1.6483240">
        <ele>561.2</ele>
        <time>2018-09-23T11:31:47Z</time>
      </trkpt>
      <trkpt lat="41.6840980" lon="1.6485020">
        <ele>562.2</ele>
        <time>2018-09-23T11:31:54Z</time>
      </trkpt>
      <trkpt lat="41.6839820" lon="1.6486640">
        <ele>563.4</ele>
        <time>2018-09-23T11:32:01Z</time>
      </trkpt>
      <trkpt lat="41.6838900" lon="1.6488700">
        <ele>564.4</ele>
        <time>2018-09-23T11:32:08Z</time>
      </trkpt>
      <trkpt lat="41.6838040" lon="1.6490790">
        <ele>565.4</ele>
        <time>2018-09-23T11:32:16Z</time>
      </trkpt>
      <trkpt lat="41.6836550" lon="1.6492610">
        <ele>566.6</ele>
        <time>2018-09-23T11:32:27Z</time>
      </trkpt>
      <trkpt lat="41.6834100" lon="1.6492970">
        <ele>567.4</ele>
        <time>2018-09-23T11:32:38Z</time>
      </trkpt>
      <trkpt lat="41.6828580" lon="1.6493550">
        <ele>568.0</ele>
        <time>2018-09-23T11:32:54Z</time>
      </trkpt>
      <trkpt lat="41.6827360" lon="1.6494270">
        <ele>568.2</ele>
        <time>2018-09-23T11:32:57Z</time>
      </trkpt>
      <trkpt lat="41.6825990" lon="1.6495620">
        <ele>568.2</ele>
        <time>2018-09-23T11:33:01Z</time>
      </trkpt>
      <trkpt lat="41.6824550" lon="1.6497380">
        <ele>568.2</ele>
        <time>2018-09-23T11:33:06Z</time>
      </trkpt>
      <trkpt lat="41.6823870" lon="1.6498030">
        <ele>568.4</ele>
        <time>2018-09-23T11:33:08Z</time>
      </trkpt>
      <trkpt lat="41.6823230" lon="1.6498810">
        <ele>568.8</ele>
        <time>2018-09-23T11:33:10Z</time>
      </trkpt>
      <trkpt lat="41.6822380" lon="1.6501190">
        <ele>569.6</ele>
        <time>2018-09-23T11:33:15Z</time>
      </trkpt>
      <trkpt lat="41.6822330" lon="1.6501730">
        <ele>569.8</ele>
        <time>2018-09-23T11:33:16Z</time>
      </trkpt>
      <trkpt lat="41.6822090" lon="1.6504570">
        <ele>570.8</ele>
        <time>2018-09-23T11:33:22Z</time>
      </trkpt>
      <trkpt lat="41.6822110" lon="1.6507060">
        <ele>572.0</ele>
        <time>2018-09-23T11:33:28Z</time>
      </trkpt>
      <trkpt lat="41.6821600" lon="1.6508780">
        <ele>573.2</ele>
        <time>2018-09-23T11:33:33Z</time>
      </trkpt>
      <trkpt lat="41.6820910" lon="1.6509480">
        <ele>574.2</ele>
        <time>2018-09-23T11:33:36Z</time>
      </trkpt>
      <trkpt lat="41.6819700" lon="1.6509260">
        <ele>575.6</ele>
        <time>2018-09-23T11:33:40Z</time>
      </trkpt>
      <trkpt lat="41.6816120" lon="1.6506390">
        <ele>576.6</ele>
        <time>2018-09-23T11:33:54Z</time>
      </trkpt>
      <trkpt lat="41.6814820" lon="1.6505470">
        <ele>577.6</ele>
        <time>2018-09-23T11:33:59Z</time>
      </trkpt>
      <trkpt lat="41.6812220" lon="1.6508410">
        <ele>578.6</ele>
        <time>2018-09-23T11:34:10Z</time>
      </trkpt>
      <trkpt lat="41.6812230" lon="1.6509800">
        <ele>578.6</ele>
        <time>2018-09-23T11:34:16Z</time>
      </trkpt>
      <trkpt lat="41.6812740" lon="1.6511090">
        <ele>579.0</ele>
        <time>2018-09-23T11:34:24Z</time>
      </trkpt>
      <trkpt lat="41.6814110" lon="1.6512760">
        <ele>579.6</ele>
        <time>2018-09-23T11:34:34Z</time>
      </trkpt>
      <trkpt lat="41.6813350" lon="1.6518420">
        <ele>579.2</ele>
        <time>2018-09-23T11:34:48Z</time>
      </trkpt>
      <trkpt lat="41.6810570" lon="1.6522550">
        <ele>578.2</ele>
        <time>2018-09-23T11:34:55Z</time>
      </trkpt>
      <trkpt lat="41.6808720" lon="1.6526510">
        <ele>577.2</ele>
        <time>2018-09-23T11:35:00Z</time>
      </trkpt>
      <trkpt lat="41.6807980" lon="1.6529430">
        <ele>576.4</ele>
        <time>2018-09-23T11:35:03Z</time>
      </trkpt>
      <trkpt lat="41.6807900" lon="1.6530420">
        <ele>576.2</ele>
        <time>2018-09-23T11:35:04Z</time>
      </trkpt>
      <trkpt lat="41.6808130" lon="1.6533160">
        <ele>575.2</ele>
        <time>2018-09-23T11:35:07Z</time>
      </trkpt>
      <trkpt lat="41.6808090" lon="1.6533990">
        <ele>574.8</ele>
        <time>2018-09-23T11:35:08Z</time>
      </trkpt>
      <trkpt lat="41.6807210" lon="1.6535820">
        <ele>573.6</ele>
        <time>2018-09-23T11:35:11Z</time>
      </trkpt>
      <trkpt lat="41.6805790" lon="1.6536350">
        <ele>573.2</ele>
        <time>2018-09-23T11:35:14Z</time>
      </trkpt>
      <trkpt lat="41.6803310" lon="1.6536840">
        <ele>573.0</ele>
        <time>2018-09-23T11:35:19Z</time>
      </trkpt>
      <trkpt lat="41.6801150" lon="1.6538470">
        <ele>572.6</ele>
        <time>2018-09-23T11:35:24Z</time>
      </trkpt>
      <trkpt lat="41.6800440" lon="1.6539220">
        <ele>572.6</ele>
        <time>2018-09-23T11:35:26Z</time>
      </trkpt>
      <trkpt lat="41.6799750" lon="1.6539870">
        <ele>572.6</ele>
        <time>2018-09-23T11:35:28Z</time>
      </trkpt>
      <trkpt lat="41.6797670" lon="1.6541570">
        <ele>572.6</ele>
        <time>2018-09-23T11:35:34Z</time>
      </trkpt>
      <trkpt lat="41.6796780" lon="1.6544310">
        <ele>573.0</ele>
        <time>2018-09-23T11:35:40Z</time>
      </trkpt>
      <trkpt lat="41.6796770" lon="1.6548190">
        <ele>573.8</ele>
        <time>2018-09-23T11:35:47Z</time>
      </trkpt>
      <trkpt lat="41.6795520" lon="1.6550900">
        <ele>574.8</ele>
        <time>2018-09-23T11:35:54Z</time>
      </trkpt>
      <trkpt lat="41.6793490" lon="1.6550710">
        <ele>576.2</ele>
        <time>2018-09-23T11:36:00Z</time>
      </trkpt>
      <trkpt lat="41.6791210" lon="1.6550140">
        <ele>577.4</ele>
        <time>2018-09-23T11:36:06Z</time>
      </trkpt>
      <trkpt lat="41.6788730" lon="1.6549830">
        <ele>578.4</ele>
        <time>2018-09-23T11:36:12Z</time>
      </trkpt>
      <trkpt lat="41.6786990" lon="1.6550940">
        <ele>578.6</ele>
        <time>2018-09-23T11:36:16Z</time>
      </trkpt>
      <trkpt lat="41.6786160" lon="1.6551880">
        <ele>578.6</ele>
        <time>2018-09-23T11:36:18Z</time>
      </trkpt>
      <trkpt lat="41.6783980" lon="1.6555330">
        <ele>578.2</ele>
        <time>2018-09-23T11:36:24Z</time>
      </trkpt>
      <trkpt lat="41.6783510" lon="1.6556600">
        <ele>578.0</ele>
        <time>2018-09-23T11:36:26Z</time>
      </trkpt>
      <trkpt lat="41.6783090" lon="1.6564010">
        <ele>577.8</ele>
        <time>2018-09-23T11:36:37Z</time>
      </trkpt>
      <trkpt lat="41.6782720" lon="1.6567260">
        <ele>577.8</ele>
        <time>2018-09-23T11:36:41Z</time>
      </trkpt>
      <trkpt lat="41.6782200" lon="1.6571510">
        <ele>577.4</ele>
        <time>2018-09-23T11:36:46Z</time>
      </trkpt>
      <trkpt lat="41.6781850" lon="1.6572030">
        <ele>577.0</ele>
        <time>2018-09-23T11:36:47Z</time>
      </trkpt>
      <trkpt lat="41.6780570" lon="1.6572480">
        <ele>576.4</ele>
        <time>2018-09-23T11:36:50Z</time>
      </trkpt>
      <trkpt lat="41.6779460" lon="1.6572320">
        <ele>576.0</ele>
        <time>2018-09-23T11:36:53Z</time>
      </trkpt>
      <trkpt lat="41.6775110" lon="1.6573190">
        <ele>577.4</ele>
        <time>2018-09-23T11:37:06Z</time>
      </trkpt>
      <trkpt lat="41.6774000" lon="1.6574410">
        <ele>578.6</ele>
        <time>2018-09-23T11:37:10Z</time>
      </trkpt>
      <trkpt lat="41.6772460" lon="1.6576470">
        <ele>579.6</ele>
        <time>2018-09-23T11:37:16Z</time>
      </trkpt>
      <trkpt lat="41.6771540" lon="1.6577800">
        <ele>580.8</ele>
        <time>2018-09-23T11:37:23Z</time>
      </trkpt>
      <trkpt lat="41.6769920" lon="1.6580870">
        <ele>581.6</ele>
        <time>2018-09-23T11:37:33Z</time>
      </trkpt>
      <trkpt lat="41.6769040" lon="1.6585230">
        <ele>582.8</ele>
        <time>2018-09-23T11:37:44Z</time>
      </trkpt>
      <trkpt lat="41.6768550" lon="1.6588340">
        <ele>583.8</ele>
        <time>2018-09-23T11:37:51Z</time>
      </trkpt>
      <trkpt lat="41.6765830" lon="1.6593610">
        <ele>585.0</ele>
        <time>2018-09-23T11:38:04Z</time>
      </trkpt>
      <trkpt lat="41.6761500" lon="1.6598300">
        <ele>586.0</ele>
        <time>2018-09-23T11:38:19Z</time>
      </trkpt>
      <trkpt lat="41.6758730" lon="1.6596770">
        <ele>587.0</ele>
        <time>2018-09-23T11:38:27Z</time>
      </trkpt>
      <trkpt lat="41.6755440" lon="1.6594480">
        <ele>588.2</ele>
        <time>2018-09-23T11:38:37Z</time>
      </trkpt>
      <trkpt lat="41.6753210" lon="1.6593820">
        <ele>588.8</ele>
        <time>2018-09-23T11:38:43Z</time>
      </trkpt>
      <trkpt lat="41.6751490" lon="1.6594280">
        <ele>589.0</ele>
        <time>2018-09-23T11:38:47Z</time>
      </trkpt>
      <trkpt lat="41.6748420" lon="1.6596370">
        <ele>589.2</ele>
        <time>2018-09-23T11:38:55Z</time>
      </trkpt>
      <trkpt lat="41.6746280" lon="1.6598640">
        <ele>589.4</ele>
        <time>2018-09-23T11:39:01Z</time>
      </trkpt>
      <trkpt lat="41.6741780" lon="1.6602930">
        <ele>590.0</ele>
        <time>2018-09-23T11:39:15Z</time>
      </trkpt>
      <trkpt lat="41.6739530" lon="1.6605170">
        <ele>591.2</ele>
        <time>2018-09-23T11:39:33Z</time>
      </trkpt>
      <trkpt lat="41.6739450" lon="1.6605160">
        <ele>591.2</ele>
        <time>2018-09-23T11:39:34Z</time>
      </trkpt>
      <trkpt lat="41.6739250" lon="1.6605270">
        <ele>591.4</ele>
        <time>2018-09-23T11:39:37Z</time>
      </trkpt>
      <trkpt lat="41.6739190" lon="1.6605570">
        <ele>591.6</ele>
        <time>2018-09-23T11:39:40Z</time>
      </trkpt>
      <trkpt lat="41.6739540" lon="1.6605160">
        <ele>591.6</ele>
        <time>2018-09-23T11:39:47Z</time>
      </trkpt>
      <trkpt lat="41.6739020" lon="1.6605900">
        <ele>592.0</ele>
        <time>2018-09-23T11:42:13Z</time>
      </trkpt>
      <trkpt lat="41.6738580" lon="1.6606450">
        <ele>592.0</ele>
        <time>2018-09-23T11:42:17Z</time>
      </trkpt>
      <trkpt lat="41.6737700" lon="1.6611230">
        <ele>593.0</ele>
        <time>2018-09-23T11:42:31Z</time>
      </trkpt>
      <trkpt lat="41.6738430" lon="1.6615140">
        <ele>594.0</ele>
        <time>2018-09-23T11:42:40Z</time>
      </trkpt>
      <trkpt lat="41.6738980" lon="1.6619230">
        <ele>595.0</ele>
        <time>2018-09-23T11:42:49Z</time>
      </trkpt>
      <trkpt lat="41.6737840" lon="1.6626710">
        <ele>596.2</ele>
        <time>2018-09-23T11:43:04Z</time>
      </trkpt>
      <trkpt lat="41.6737160" lon="1.6629740">
        <ele>597.2</ele>
        <time>2018-09-23T11:43:10Z</time>
      </trkpt>
      <trkpt lat="41.6733330" lon="1.6634230">
        <ele>598.2</ele>
        <time>2018-09-23T11:43:23Z</time>
      </trkpt>
      <trkpt lat="41.6730900" lon="1.6638270">
        <ele>598.8</ele>
        <time>2018-09-23T11:43:30Z</time>
      </trkpt>
      <trkpt lat="41.6726820" lon="1.6643190">
        <ele>598.6</ele>
        <time>2018-09-23T11:43:42Z</time>
      </trkpt>
      <trkpt lat="41.6725810" lon="1.6645880">
        <ele>599.4</ele>
        <time>2018-09-23T11:43:48Z</time>
      </trkpt>
      <trkpt lat="41.6724970" lon="1.6649430">
        <ele>600.4</ele>
        <time>2018-09-23T11:43:59Z</time>
      </trkpt>
      <trkpt lat="41.6724620" lon="1.6651220">
        <ele>601.4</ele>
        <time>2018-09-23T11:44:05Z</time>
      </trkpt>
      <trkpt lat="41.6724610" lon="1.6654040">
        <ele>602.6</ele>
        <time>2018-09-23T11:44:14Z</time>
      </trkpt>
      <trkpt lat="41.6724770" lon="1.6655810">
        <ele>603.4</ele>
        <time>2018-09-23T11:44:20Z</time>
      </trkpt>
      <trkpt lat="41.6724720" lon="1.6657680">
        <ele>604.6</ele>
        <time>2018-09-23T11:44:26Z</time>
      </trkpt>
      <trkpt lat="41.6724430" lon="1.6660010">
        <ele>605.6</ele>
        <time>2018-09-23T11:44:33Z</time>
      </trkpt>
      <trkpt lat="41.6723690" lon="1.6662540">
        <ele>606.6</ele>
        <time>2018-09-23T11:44:41Z</time>
      </trkpt>
      <trkpt lat="41.6722920" lon="1.6664290">
        <ele>607.6</ele>
        <time>2018-09-23T11:44:47Z</time>
      </trkpt>
      <trkpt lat="41.6722150" lon="1.6665290">
        <ele>608.8</ele>
        <time>2018-09-23T11:44:51Z</time>
      </trkpt>
      <trkpt lat="41.6721250" lon="1.6666560">
        <ele>609.6</ele>
        <time>2018-09-23T11:44:56Z</time>
      </trkpt>
      <trkpt lat="41.6720260" lon="1.6668440">
        <ele>610.8</ele>
        <time>2018-09-23T11:45:03Z</time>
      </trkpt>
      <trkpt lat="41.6719150" lon="1.6670180">
        <ele>612.0</ele>
        <time>2018-09-23T11:45:10Z</time>
      </trkpt>
      <trkpt lat="41.6718310" lon="1.6671870">
        <ele>612.8</ele>
        <time>2018-09-23T11:45:16Z</time>
      </trkpt>
      <trkpt lat="41.6717490" lon="1.6673210">
        <ele>613.8</ele>
        <time>2018-09-23T11:45:21Z</time>
      </trkpt>
      <trkpt lat="41.6716660" lon="1.6674570">
        <ele>615.0</ele>
        <time>2018-09-23T11:45:26Z</time>
      </trkpt>
      <trkpt lat="41.6715290" lon="1.6676320">
        <ele>616.2</ele>
        <time>2018-09-23T11:45:33Z</time>
      </trkpt>
      <trkpt lat="41.6714120" lon="1.6677770">
        <ele>617.2</ele>
        <time>2018-09-23T11:45:39Z</time>
      </trkpt>
      <trkpt lat="41.6713320" lon="1.6679860">
        <ele>618.4</ele>
        <time>2018-09-23T11:45:46Z</time>
      </trkpt>
      <trkpt lat="41.6713110" lon="1.6682020">
        <ele>619.4</ele>
        <time>2018-09-23T11:45:52Z</time>
      </trkpt>
      <trkpt lat="41.6712840" lon="1.6684650">
        <ele>620.4</ele>
        <time>2018-09-23T11:45:59Z</time>
      </trkpt>
      <trkpt lat="41.6712840" lon="1.6688840">
        <ele>621.2</ele>
        <time>2018-09-23T11:46:09Z</time>
      </trkpt>
      <trkpt lat="41.6712240" lon="1.6691030">
        <ele>621.6</ele>
        <time>2018-09-23T11:46:14Z</time>
      </trkpt>
      <trkpt lat="41.6709780" lon="1.6691860">
        <ele>621.6</ele>
        <time>2018-09-23T11:46:19Z</time>
      </trkpt>
      <trkpt lat="41.6708350" lon="1.6691950">
        <ele>621.6</ele>
        <time>2018-09-23T11:46:21Z</time>
      </trkpt>
      <trkpt lat="41.6706310" lon="1.6696380">
        <ele>620.6</ele>
        <time>2018-09-23T11:46:27Z</time>
      </trkpt>
      <trkpt lat="41.6706280" lon="1.6697120">
        <ele>620.2</ele>
        <time>2018-09-23T11:46:28Z</time>
      </trkpt>
      <trkpt lat="41.6706200" lon="1.6698490">
        <ele>619.2</ele>
        <time>2018-09-23T11:46:30Z</time>
      </trkpt>
      <trkpt lat="41.6706130" lon="1.6699830">
        <ele>618.8</ele>
        <time>2018-09-23T11:46:32Z</time>
      </trkpt>
      <trkpt lat="41.6706050" lon="1.6706990">
        <ele>619.8</ele>
        <time>2018-09-23T11:46:45Z</time>
      </trkpt>
      <trkpt lat="41.6705750" lon="1.6707760">
        <ele>620.2</ele>
        <time>2018-09-23T11:46:47Z</time>
      </trkpt>
      <trkpt lat="41.6705120" lon="1.6709930">
        <ele>621.2</ele>
        <time>2018-09-23T11:46:52Z</time>
      </trkpt>
      <trkpt lat="41.6704440" lon="1.6712640">
        <ele>622.4</ele>
        <time>2018-09-23T11:46:58Z</time>
      </trkpt>
      <trkpt lat="41.6703720" lon="1.6715710">
        <ele>623.6</ele>
        <time>2018-09-23T11:47:05Z</time>
      </trkpt>
      <trkpt lat="41.6703040" lon="1.6718010">
        <ele>625.0</ele>
        <time>2018-09-23T11:47:10Z</time>
      </trkpt>
      <trkpt lat="41.6701970" lon="1.6721240">
        <ele>626.0</ele>
        <time>2018-09-23T11:47:17Z</time>
      </trkpt>
      <trkpt lat="41.6700180" lon="1.6724870">
        <ele>626.8</ele>
        <time>2018-09-23T11:47:26Z</time>
      </trkpt>
      <trkpt lat="41.6697160" lon="1.6730850">
        <ele>627.6</ele>
        <time>2018-09-23T11:47:40Z</time>
      </trkpt>
      <trkpt lat="41.6696570" lon="1.6732570">
        <ele>627.8</ele>
        <time>2018-09-23T11:47:44Z</time>
      </trkpt>
      <trkpt lat="41.6695970" lon="1.6735220">
        <ele>629.0</ele>
        <time>2018-09-23T11:47:50Z</time>
      </trkpt>
      <trkpt lat="41.6694920" lon="1.6737420">
        <ele>630.0</ele>
        <time>2018-09-23T11:47:56Z</time>
      </trkpt>
      <trkpt lat="41.6693090" lon="1.6738970">
        <ele>631.2</ele>
        <time>2018-09-23T11:48:02Z</time>
      </trkpt>
      <trkpt lat="41.6691620" lon="1.6740340">
        <ele>632.4</ele>
        <time>2018-09-23T11:48:07Z</time>
      </trkpt>
      <trkpt lat="41.6690260" lon="1.6741400">
        <ele>632.6</ele>
        <time>2018-09-23T11:48:11Z</time>
      </trkpt>
      <trkpt lat="41.6687750" lon="1.6741950">
        <ele>632.8</ele>
        <time>2018-09-23T11:48:17Z</time>
      </trkpt>
      <trkpt lat="41.6685590" lon="1.6741790">
        <ele>633.2</ele>
        <time>2018-09-23T11:48:22Z</time>
      </trkpt>
      <trkpt lat="41.6685150" lon="1.6741840">
        <ele>633.4</ele>
        <time>2018-09-23T11:48:23Z</time>
      </trkpt>
      <trkpt lat="41.6682090" lon="1.6746300">
        <ele>633.6</ele>
        <time>2018-09-23T11:48:34Z</time>
      </trkpt>
      <trkpt lat="41.6682190" lon="1.6747730">
        <ele>633.4</ele>
        <time>2018-09-23T11:48:36Z</time>
      </trkpt>
      <trkpt lat="41.6683540" lon="1.6755310">
        <ele>632.6</ele>
        <time>2018-09-23T11:48:47Z</time>
      </trkpt>
      <trkpt lat="41.6683710" lon="1.6757460">
        <ele>632.4</ele>
        <time>2018-09-23T11:48:50Z</time>
      </trkpt>
      <trkpt lat="41.6681710" lon="1.6761490">
        <ele>632.2</ele>
        <time>2018-09-23T11:48:56Z</time>
      </trkpt>
      <trkpt lat="41.6681160" lon="1.6761990">
        <ele>632.0</ele>
        <time>2018-09-23T11:48:57Z</time>
      </trkpt>
      <trkpt lat="41.6679630" lon="1.6763610">
        <ele>631.4</ele>
        <time>2018-09-23T11:49:00Z</time>
      </trkpt>
      <trkpt lat="41.6678700" lon="1.6764810">
        <ele>630.8</ele>
        <time>2018-09-23T11:49:02Z</time>
      </trkpt>
      <trkpt lat="41.6675520" lon="1.6769200">
        <ele>630.2</ele>
        <time>2018-09-23T11:49:10Z</time>
      </trkpt>
      <trkpt lat="41.6673590" lon="1.6770080">
        <ele>630.4</ele>
        <time>2018-09-23T11:49:14Z</time>
      </trkpt>
      <trkpt lat="41.6673070" lon="1.6770150">
        <ele>630.8</ele>
        <time>2018-09-23T11:49:15Z</time>
      </trkpt>
      <trkpt lat="41.6671470" lon="1.6770190">
        <ele>631.8</ele>
        <time>2018-09-23T11:49:18Z</time>
      </trkpt>
      <trkpt lat="41.6669900" lon="1.6770360">
        <ele>633.2</ele>
        <time>2018-09-23T11:49:21Z</time>
      </trkpt>
      <trkpt lat="41.6668330" lon="1.6770770">
        <ele>634.2</ele>
        <time>2018-09-23T11:49:24Z</time>
      </trkpt>
      <trkpt lat="41.6666360" lon="1.6771750">
        <ele>635.4</ele>
        <time>2018-09-23T11:49:28Z</time>
      </trkpt>
      <trkpt lat="41.6665900" lon="1.6772060">
        <ele>635.8</ele>
        <time>2018-09-23T11:49:29Z</time>
      </trkpt>
      <trkpt lat="41.6664600" lon="1.6773110">
        <ele>636.4</ele>
        <time>2018-09-23T11:49:32Z</time>
      </trkpt>
      <trkpt lat="41.6662810" lon="1.6774330">
        <ele>637.6</ele>
        <time>2018-09-23T11:49:36Z</time>
      </trkpt>
      <trkpt lat="41.6660910" lon="1.6775420">
        <ele>638.8</ele>
        <time>2018-09-23T11:49:40Z</time>
      </trkpt>
      <trkpt lat="41.6659100" lon="1.6776560">
        <ele>640.0</ele>
        <time>2018-09-23T11:49:44Z</time>
      </trkpt>
      <trkpt lat="41.6656820" lon="1.6778020">
        <ele>641.0</ele>
        <time>2018-09-23T11:49:49Z</time>
      </trkpt>
      <trkpt lat="41.6654510" lon="1.6779440">
        <ele>642.2</ele>
        <time>2018-09-23T11:49:54Z</time>
      </trkpt>
      <trkpt lat="41.6651780" lon="1.6781150">
        <ele>643.2</ele>
        <time>2018-09-23T11:50:00Z</time>
      </trkpt>
      <trkpt lat="41.6649410" lon="1.6782320">
        <ele>644.6</ele>
        <time>2018-09-23T11:50:05Z</time>
      </trkpt>
      <trkpt lat="41.6646960" lon="1.6783160">
        <ele>645.6</ele>
        <time>2018-09-23T11:50:10Z</time>
      </trkpt>
      <trkpt lat="41.6645440" lon="1.6783590">
        <ele>646.4</ele>
        <time>2018-09-23T11:50:13Z</time>
      </trkpt>
      <trkpt lat="41.6644930" lon="1.6783650">
        <ele>646.8</ele>
        <time>2018-09-23T11:50:14Z</time>
      </trkpt>
      <trkpt lat="41.6642890" lon="1.6783790">
        <ele>647.8</ele>
        <time>2018-09-23T11:50:18Z</time>
      </trkpt>
      <trkpt lat="41.6642380" lon="1.6783850">
        <ele>648.2</ele>
        <time>2018-09-23T11:50:19Z</time>
      </trkpt>
      <trkpt lat="41.6640720" lon="1.6785340">
        <ele>649.0</ele>
        <time>2018-09-23T11:50:23Z</time>
      </trkpt>
      <trkpt lat="41.6641090" lon="1.6790310">
        <ele>650.0</ele>
        <time>2018-09-23T11:50:31Z</time>
      </trkpt>
      <trkpt lat="41.6641330" lon="1.6790820">
        <ele>650.0</ele>
        <time>2018-09-23T11:50:32Z</time>
      </trkpt>
      <trkpt lat="41.6642920" lon="1.6793810">
        <ele>651.2</ele>
        <time>2018-09-23T11:50:38Z</time>
      </trkpt>
      <trkpt lat="41.6643540" lon="1.6795440">
        <ele>652.4</ele>
        <time>2018-09-23T11:50:41Z</time>
      </trkpt>
      <trkpt lat="41.6644270" lon="1.6798340">
        <ele>653.4</ele>
        <time>2018-09-23T11:50:46Z</time>
      </trkpt>
      <trkpt lat="41.6645390" lon="1.6803980">
        <ele>654.0</ele>
        <time>2018-09-23T11:50:55Z</time>
      </trkpt>
      <trkpt lat="41.6647690" lon="1.6810050">
        <ele>654.6</ele>
        <time>2018-09-23T11:51:07Z</time>
      </trkpt>
      <trkpt lat="41.6647920" lon="1.6811860">
        <ele>655.6</ele>
        <time>2018-09-23T11:51:11Z</time>
      </trkpt>
      <trkpt lat="41.6647890" lon="1.6813220">
        <ele>656.8</ele>
        <time>2018-09-23T11:51:14Z</time>
      </trkpt>
      <trkpt lat="41.6647730" lon="1.6814100">
        <ele>658.0</ele>
        <time>2018-09-23T11:51:16Z</time>
      </trkpt>
      <trkpt lat="41.6647370" lon="1.6815330">
        <ele>659.0</ele>
        <time>2018-09-23T11:51:19Z</time>
      </trkpt>
      <trkpt lat="41.6646980" lon="1.6816570">
        <ele>660.4</ele>
        <time>2018-09-23T11:51:22Z</time>
      </trkpt>
      <trkpt lat="41.6646720" lon="1.6817830">
        <ele>661.6</ele>
        <time>2018-09-23T11:51:25Z</time>
      </trkpt>
      <trkpt lat="41.6646530" lon="1.6819590">
        <ele>662.8</ele>
        <time>2018-09-23T11:51:29Z</time>
      </trkpt>
      <trkpt lat="41.6646520" lon="1.6821470">
        <ele>664.0</ele>
        <time>2018-09-23T11:51:33Z</time>
      </trkpt>
      <trkpt lat="41.6646510" lon="1.6823870">
        <ele>665.2</ele>
        <time>2018-09-23T11:51:38Z</time>
      </trkpt>
      <trkpt lat="41.6646390" lon="1.6826240">
        <ele>666.2</ele>
        <time>2018-09-23T11:51:43Z</time>
      </trkpt>
      <trkpt lat="41.6645870" lon="1.6829570">
        <ele>667.6</ele>
        <time>2018-09-23T11:51:50Z</time>
      </trkpt>
      <trkpt lat="41.6646090" lon="1.6831850">
        <ele>668.6</ele>
        <time>2018-09-23T11:51:55Z</time>
      </trkpt>
      <trkpt lat="41.6646910" lon="1.6833380">
        <ele>669.8</ele>
        <time>2018-09-23T11:51:59Z</time>
      </trkpt>
      <trkpt lat="41.6647880" lon="1.6834720">
        <ele>670.8</ele>
        <time>2018-09-23T11:52:03Z</time>
      </trkpt>
      <trkpt lat="41.6649440" lon="1.6836440">
        <ele>672.0</ele>
        <time>2018-09-23T11:52:09Z</time>
      </trkpt>
      <trkpt lat="41.6650260" lon="1.6837790">
        <ele>673.0</ele>
        <time>2018-09-23T11:52:13Z</time>
      </trkpt>
      <trkpt lat="41.6650910" lon="1.6839760">
        <ele>674.2</ele>
        <time>2018-09-23T11:52:18Z</time>
      </trkpt>
      <trkpt lat="41.6651250" lon="1.6841790">
        <ele>675.4</ele>
        <time>2018-09-23T11:52:23Z</time>
      </trkpt>
      <trkpt lat="41.6651240" lon="1.6843070">
        <ele>676.6</ele>
        <time>2018-09-23T11:52:26Z</time>
      </trkpt>
      <trkpt lat="41.6650720" lon="1.6844710">
        <ele>677.8</ele>
        <time>2018-09-23T11:52:30Z</time>
      </trkpt>
      <trkpt lat="41.6649360" lon="1.6846030">
        <ele>679.0</ele>
        <time>2018-09-23T11:52:35Z</time>
      </trkpt>
      <trkpt lat="41.6648260" lon="1.6847070">
        <ele>680.2</ele>
        <time>2018-09-23T11:52:39Z</time>
      </trkpt>
      <trkpt lat="41.6647480" lon="1.6848270">
        <ele>681.4</ele>
        <time>2018-09-23T11:52:43Z</time>
      </trkpt>
      <trkpt lat="41.6647030" lon="1.6849280">
        <ele>682.4</ele>
        <time>2018-09-23T11:52:46Z</time>
      </trkpt>
      <trkpt lat="41.6646430" lon="1.6850610">
        <ele>683.6</ele>
        <time>2018-09-23T11:52:50Z</time>
      </trkpt>
      <trkpt lat="41.6645810" lon="1.6851770">
        <ele>684.8</ele>
        <time>2018-09-23T11:52:54Z</time>
      </trkpt>
      <trkpt lat="41.6645150" lon="1.6852840">
        <ele>686.0</ele>
        <time>2018-09-23T11:52:58Z</time>
      </trkpt>
      <trkpt lat="41.6644180" lon="1.6854090">
        <ele>687.2</ele>
        <time>2018-09-23T11:53:03Z</time>
      </trkpt>
      <trkpt lat="41.6643030" lon="1.6855390">
        <ele>688.4</ele>
        <time>2018-09-23T11:53:08Z</time>
      </trkpt>
      <trkpt lat="41.6641950" lon="1.6856170">
        <ele>689.4</ele>
        <time>2018-09-23T11:53:12Z</time>
      </trkpt>
      <trkpt lat="41.6640550" lon="1.6856900">
        <ele>690.6</ele>
        <time>2018-09-23T11:53:17Z</time>
      </trkpt>
      <trkpt lat="41.6640260" lon="1.6857000">
        <ele>690.8</ele>
        <time>2018-09-23T11:53:18Z</time>
      </trkpt>
      <trkpt lat="41.6638830" lon="1.6857670">
        <ele>691.8</ele>
        <time>2018-09-23T11:53:23Z</time>
      </trkpt>
      <trkpt lat="41.6637760" lon="1.6858210">
        <ele>693.2</ele>
        <time>2018-09-23T11:53:27Z</time>
      </trkpt>
      <trkpt lat="41.6636660" lon="1.6858800">
        <ele>694.2</ele>
        <time>2018-09-23T11:53:31Z</time>
      </trkpt>
      <trkpt lat="41.6635800" lon="1.6859320">
        <ele>695.4</ele>
        <time>2018-09-23T11:53:34Z</time>
      </trkpt>
      <trkpt lat="41.6633880" lon="1.6860330">
        <ele>696.4</ele>
        <time>2018-09-23T11:53:42Z</time>
      </trkpt>
      <trkpt lat="41.6632530" lon="1.6861010">
        <ele>696.6</ele>
        <time>2018-09-23T11:53:50Z</time>
      </trkpt>
      <trkpt lat="41.6633080" lon="1.6861510">
        <ele>697.2</ele>
        <time>2018-09-23T11:53:58Z</time>
      </trkpt>
      <trkpt lat="41.6633250" lon="1.6861470">
        <ele>697.2</ele>
        <time>2018-09-23T11:53:59Z</time>
      </trkpt>
      <trkpt lat="41.6634890" lon="1.6861280">
        <ele>697.2</ele>
        <time>2018-09-23T11:54:09Z</time>
      </trkpt>
      <trkpt lat="41.6634830" lon="1.6861130">
        <ele>697.2</ele>
        <time>2018-09-23T11:54:16Z</time>
      </trkpt>
      <trkpt lat="41.6633740" lon="1.6861070">
        <ele>697.2</ele>
        <time>2018-09-23T11:54:23Z</time>
      </trkpt>
      <trkpt lat="41.6633260" lon="1.6857880">
        <ele>696.6</ele>
        <time>2018-09-23T11:54:43Z</time>
      </trkpt>
      <trkpt lat="41.6633580" lon="1.6857770">
        <ele>696.0</ele>
        <time>2018-09-23T11:54:46Z</time>
      </trkpt>
      <trkpt lat="41.6633790" lon="1.6857990">
        <ele>695.8</ele>
        <time>2018-09-23T11:54:48Z</time>
      </trkpt>
      <trkpt lat="41.6634010" lon="1.6858360">
        <ele>695.6</ele>
        <time>2018-09-23T11:54:51Z</time>
      </trkpt>
      <trkpt lat="41.6634710" lon="1.6858530">
        <ele>695.2</ele>
        <time>2018-09-23T11:54:56Z</time>
      </trkpt>
      <trkpt lat="41.6633930" lon="1.6858580">
        <ele>695.2</ele>
        <time>2018-09-23T11:55:03Z</time>
      </trkpt>
      <trkpt lat="41.6633810" lon="1.6858720">
        <ele>695.2</ele>
        <time>2018-09-23T11:55:04Z</time>
      </trkpt>
      <trkpt lat="41.6633380" lon="1.6859100">
        <ele>695.2</ele>
        <time>2018-09-23T11:55:08Z</time>
      </trkpt>
      <trkpt lat="41.6632600" lon="1.6859990">
        <ele>695.8</ele>
        <time>2018-09-23T11:55:15Z</time>
      </trkpt>
      <trkpt lat="41.6632530" lon="1.6860980">
        <ele>696.6</ele>
        <time>2018-09-23T11:55:22Z</time>
      </trkpt>
      <trkpt lat="41.6632490" lon="1.6861140">
        <ele>696.8</ele>
        <time>2018-09-23T11:55:24Z</time>
      </trkpt>
      <trkpt lat="41.6632410" lon="1.6861160">
        <ele>696.8</ele>
        <time>2018-09-23T11:55:25Z</time>
      </trkpt>
      <trkpt lat="41.6632350" lon="1.6861100">
        <ele>697.0</ele>
        <time>2018-09-23T11:55:28Z</time>
      </trkpt>
      <trkpt lat="41.6632610" lon="1.6860510">
        <ele>697.4</ele>
        <time>2018-09-23T11:57:55Z</time>
      </trkpt>
      <trkpt lat="41.6632580" lon="1.6860160">
        <ele>697.4</ele>
        <time>2018-09-23T11:57:59Z</time>
      </trkpt>
      <trkpt lat="41.6632360" lon="1.6860950">
        <ele>697.8</ele>
        <time>2018-09-23T11:58:55Z</time>
      </trkpt>
      <trkpt lat="41.6632150" lon="1.6861340">
        <ele>697.8</ele>
        <time>2018-09-23T11:58:57Z</time>
      </trkpt>
      <trkpt lat="41.6631370" lon="1.6861740">
        <ele>697.8</ele>
        <time>2018-09-23T11:59:01Z</time>
      </trkpt>
      <trkpt lat="41.6627790" lon="1.6860630">
        <ele>698.8</ele>
        <time>2018-09-23T11:59:16Z</time>
      </trkpt>
      <trkpt lat="41.6625900" lon="1.6858990">
        <ele>700.0</ele>
        <time>2018-09-23T11:59:25Z</time>
      </trkpt>
      <trkpt lat="41.6624570" lon="1.6857730">
        <ele>701.0</ele>
        <time>2018-09-23T11:59:33Z</time>
      </trkpt>
      <trkpt lat="41.6624030" lon="1.6857140">
        <ele>701.6</ele>
        <time>2018-09-23T11:59:37Z</time>
      </trkpt>
      <trkpt lat="41.6623100" lon="1.6856300">
        <ele>702.0</ele>
        <time>2018-09-23T11:59:43Z</time>
      </trkpt>
      <trkpt lat="41.6622940" lon="1.6856140">
        <ele>702.2</ele>
        <time>2018-09-23T11:59:44Z</time>
      </trkpt>
      <trkpt lat="41.6621450" lon="1.6854850">
        <ele>703.4</ele>
        <time>2018-09-23T11:59:53Z</time>
      </trkpt>
      <trkpt lat="41.6621270" lon="1.6854710">
        <ele>703.4</ele>
        <time>2018-09-23T11:59:54Z</time>
      </trkpt>
      <trkpt lat="41.6620010" lon="1.6853600">
        <ele>704.4</ele>
        <time>2018-09-23T12:00:01Z</time>
      </trkpt>
      <trkpt lat="41.6617540" lon="1.6852430">
        <ele>705.4</ele>
        <time>2018-09-23T12:00:12Z</time>
      </trkpt>
      <trkpt lat="41.6611980" lon="1.6851470">
        <ele>706.0</ele>
        <time>2018-09-23T12:00:32Z</time>
      </trkpt>
      <trkpt lat="41.6606430" lon="1.6850870">
        <ele>706.0</ele>
        <time>2018-09-23T12:00:50Z</time>
      </trkpt>
      <trkpt lat="41.6604040" lon="1.6850480">
        <ele>706.4</ele>
        <time>2018-09-23T12:00:58Z</time>
      </trkpt>
      <trkpt lat="41.6601520" lon="1.6849680">
        <ele>707.4</ele>
        <time>2018-09-23T12:01:07Z</time>
      </trkpt>
      <trkpt lat="41.6600460" lon="1.6849140">
        <ele>708.4</ele>
        <time>2018-09-23T12:01:11Z</time>
      </trkpt>
      <trkpt lat="41.6598710" lon="1.6847980">
        <ele>709.4</ele>
        <time>2018-09-23T12:01:18Z</time>
      </trkpt>
      <trkpt lat="41.6597280" lon="1.6846910">
        <ele>710.8</ele>
        <time>2018-09-23T12:01:24Z</time>
      </trkpt>
      <trkpt lat="41.6595330" lon="1.6845950">
        <ele>711.8</ele>
        <time>2018-09-23T12:01:32Z</time>
      </trkpt>
      <trkpt lat="41.6593760" lon="1.6845840">
        <ele>713.0</ele>
        <time>2018-09-23T12:01:38Z</time>
      </trkpt>
      <trkpt lat="41.6591920" lon="1.6846240">
        <ele>714.2</ele>
        <time>2018-09-23T12:01:45Z</time>
      </trkpt>
      <trkpt lat="41.6590120" lon="1.6847310">
        <ele>715.2</ele>
        <time>2018-09-23T12:01:52Z</time>
      </trkpt>
      <trkpt lat="41.6587100" lon="1.6849050">
        <ele>716.2</ele>
        <time>2018-09-23T12:02:03Z</time>
      </trkpt>
      <trkpt lat="41.6584430" lon="1.6850610">
        <ele>717.2</ele>
        <time>2018-09-23T12:02:12Z</time>
      </trkpt>
      <trkpt lat="41.6581180" lon="1.6852420">
        <ele>718.2</ele>
        <time>2018-09-23T12:02:22Z</time>
      </trkpt>
      <trkpt lat="41.6576240" lon="1.6855130">
        <ele>719.2</ele>
        <time>2018-09-23T12:02:36Z</time>
      </trkpt>
      <trkpt lat="41.6571070" lon="1.6855020">
        <ele>720.2</ele>
        <time>2018-09-23T12:02:49Z</time>
      </trkpt>
      <trkpt lat="41.6569940" lon="1.6854360">
        <ele>720.4</ele>
        <time>2018-09-23T12:02:52Z</time>
      </trkpt>
      <trkpt lat="41.6565080" lon="1.6850490">
        <ele>721.2</ele>
        <time>2018-09-23T12:03:05Z</time>
      </trkpt>
      <trkpt lat="41.6561660" lon="1.6848120">
        <ele>721.0</ele>
        <time>2018-09-23T12:03:12Z</time>
      </trkpt>
      <trkpt lat="41.6556070" lon="1.6845920">
        <ele>719.8</ele>
        <time>2018-09-23T12:03:21Z</time>
      </trkpt>
      <trkpt lat="41.6554030" lon="1.6845180">
        <ele>719.0</ele>
        <time>2018-09-23T12:03:24Z</time>
      </trkpt>
      <trkpt lat="41.6551180" lon="1.6844140">
        <ele>718.0</ele>
        <time>2018-09-23T12:03:28Z</time>
      </trkpt>
      <trkpt lat="41.6549030" lon="1.6843170">
        <ele>716.6</ele>
        <time>2018-09-23T12:03:31Z</time>
      </trkpt>
      <trkpt lat="41.6548350" lon="1.6842720">
        <ele>716.4</ele>
        <time>2018-09-23T12:03:32Z</time>
      </trkpt>
      <trkpt lat="41.6547130" lon="1.6841580">
        <ele>715.6</ele>
        <time>2018-09-23T12:03:34Z</time>
      </trkpt>
      <trkpt lat="41.6546150" lon="1.6840240">
        <ele>715.0</ele>
        <time>2018-09-23T12:03:36Z</time>
      </trkpt>
      <trkpt lat="41.6545290" lon="1.6838930">
        <ele>714.4</ele>
        <time>2018-09-23T12:03:38Z</time>
      </trkpt>
      <trkpt lat="41.6544200" lon="1.6837190">
        <ele>713.2</ele>
        <time>2018-09-23T12:03:41Z</time>
      </trkpt>
      <trkpt lat="41.6543400" lon="1.6835980">
        <ele>712.0</ele>
        <time>2018-09-23T12:03:44Z</time>
      </trkpt>
      <trkpt lat="41.6542980" lon="1.6835280">
        <ele>711.0</ele>
        <time>2018-09-23T12:03:47Z</time>
      </trkpt>
      <trkpt lat="41.6542630" lon="1.6834610">
        <ele>709.8</ele>
        <time>2018-09-23T12:03:51Z</time>
      </trkpt>
      <trkpt lat="41.6539710" lon="1.6830290">
        <ele>708.6</ele>
        <time>2018-09-23T12:04:07Z</time>
      </trkpt>
      <trkpt lat="41.6537110" lon="1.6826990">
        <ele>707.6</ele>
        <time>2018-09-23T12:04:18Z</time>
      </trkpt>
      <trkpt lat="41.6536430" lon="1.6826520">
        <ele>707.2</ele>
        <time>2018-09-23T12:04:20Z</time>
      </trkpt>
      <trkpt lat="41.6535010" lon="1.6826060">
        <ele>706.8</ele>
        <time>2018-09-23T12:04:23Z</time>
      </trkpt>
      <trkpt lat="41.6533870" lon="1.6826000">
        <ele>706.6</ele>
        <time>2018-09-23T12:04:25Z</time>
      </trkpt>
      <trkpt lat="41.6533260" lon="1.6826060">
        <ele>706.4</ele>
        <time>2018-09-23T12:04:26Z</time>
      </trkpt>
      <trkpt lat="41.6530770" lon="1.6827200">
        <ele>705.2</ele>
        <time>2018-09-23T12:04:30Z</time>
      </trkpt>
      <trkpt lat="41.6529600" lon="1.6828030">
        <ele>704.6</ele>
        <time>2018-09-23T12:04:32Z</time>
      </trkpt>
      <trkpt lat="41.6529050" lon="1.6828590">
        <ele>704.2</ele>
        <time>2018-09-23T12:04:33Z</time>
      </trkpt>
      <trkpt lat="41.6527430" lon="1.6830540">
        <ele>702.8</ele>
        <time>2018-09-23T12:04:36Z</time>
      </trkpt>
      <trkpt lat="41.6524240" lon="1.6831180">
        <ele>701.8</ele>
        <time>2018-09-23T12:04:40Z</time>
      </trkpt>
      <trkpt lat="41.6522070" lon="1.6829500">
        <ele>700.6</ele>
        <time>2018-09-23T12:04:43Z</time>
      </trkpt>
      <trkpt lat="41.6519980" lon="1.6827750">
        <ele>699.2</ele>
        <time>2018-09-23T12:04:46Z</time>
      </trkpt>
      <trkpt lat="41.6518540" lon="1.6826870">
        <ele>698.4</ele>
        <time>2018-09-23T12:04:48Z</time>
      </trkpt>
      <trkpt lat="41.6516940" lon="1.6826440">
        <ele>698.0</ele>
        <time>2018-09-23T12:04:50Z</time>
      </trkpt>
      <trkpt lat="41.6512430" lon="1.6828910">
        <ele>696.8</ele>
        <time>2018-09-23T12:04:56Z</time>
      </trkpt>
      <trkpt lat="41.6511450" lon="1.6831950">
        <ele>695.8</ele>
        <time>2018-09-23T12:04:59Z</time>
      </trkpt>
      <trkpt lat="41.6511460" lon="1.6835500">
        <ele>694.8</ele>
        <time>2018-09-23T12:05:02Z</time>
      </trkpt>
      <trkpt lat="41.6511530" lon="1.6836750">
        <ele>694.6</ele>
        <time>2018-09-23T12:05:03Z</time>
      </trkpt>
      <trkpt lat="41.6511730" lon="1.6841870">
        <ele>693.6</ele>
        <time>2018-09-23T12:05:07Z</time>
      </trkpt>
      <trkpt lat="41.6511680" lon="1.6843150">
        <ele>693.4</ele>
        <time>2018-09-23T12:05:08Z</time>
      </trkpt>
      <trkpt lat="41.6511010" lon="1.6846880">
        <ele>692.4</ele>
        <time>2018-09-23T12:05:11Z</time>
      </trkpt>
      <trkpt lat="41.6510220" lon="1.6850790">
        <ele>691.0</ele>
        <time>2018-09-23T12:05:14Z</time>
      </trkpt>
      <trkpt lat="41.6509720" lon="1.6853480">
        <ele>690.0</ele>
        <time>2018-09-23T12:05:16Z</time>
      </trkpt>
      <trkpt lat="41.6509240" lon="1.6856210">
        <ele>688.8</ele>
        <time>2018-09-23T12:05:18Z</time>
      </trkpt>
      <trkpt lat="41.6508720" lon="1.6858950">
        <ele>687.4</ele>
        <time>2018-09-23T12:05:20Z</time>
      </trkpt>
      <trkpt lat="41.6507690" lon="1.6861420">
        <ele>686.0</ele>
        <time>2018-09-23T12:05:22Z</time>
      </trkpt>
      <trkpt lat="41.6506020" lon="1.6863180">
        <ele>685.0</ele>
        <time>2018-09-23T12:05:24Z</time>
      </trkpt>
      <trkpt lat="41.6504070" lon="1.6864460">
        <ele>683.8</ele>
        <time>2018-09-23T12:05:26Z</time>
      </trkpt>
      <trkpt lat="41.6502020" lon="1.6865720">
        <ele>682.6</ele>
        <time>2018-09-23T12:05:28Z</time>
      </trkpt>
      <trkpt lat="41.6499910" lon="1.6867020">
        <ele>681.6</ele>
        <time>2018-09-23T12:05:30Z</time>
      </trkpt>
      <trkpt lat="41.6498810" lon="1.6867600">
        <ele>681.0</ele>
        <time>2018-09-23T12:05:31Z</time>
      </trkpt>
      <trkpt lat="41.6497650" lon="1.6867900">
        <ele>680.4</ele>
        <time>2018-09-23T12:05:32Z</time>
      </trkpt>
      <trkpt lat="41.6495280" lon="1.6867660">
        <ele>679.0</ele>
        <time>2018-09-23T12:05:34Z</time>
      </trkpt>
      <trkpt lat="41.6492890" lon="1.6867150">
        <ele>677.6</ele>
        <time>2018-09-23T12:05:36Z</time>
      </trkpt>
      <trkpt lat="41.6490440" lon="1.6866840">
        <ele>676.2</ele>
        <time>2018-09-23T12:05:38Z</time>
      </trkpt>
      <trkpt lat="41.6489200" lon="1.6866860">
        <ele>675.2</ele>
        <time>2018-09-23T12:05:39Z</time>
      </trkpt>
      <trkpt lat="41.6487940" lon="1.6867020">
        <ele>674.4</ele>
        <time>2018-09-23T12:05:40Z</time>
      </trkpt>
      <trkpt lat="41.6485420" lon="1.6867500">
        <ele>672.8</ele>
        <time>2018-09-23T12:05:42Z</time>
      </trkpt>
      <trkpt lat="41.6484200" lon="1.6867930">
        <ele>672.0</ele>
        <time>2018-09-23T12:05:43Z</time>
      </trkpt>
      <trkpt lat="41.6483070" lon="1.6868690">
        <ele>671.0</ele>
        <time>2018-09-23T12:05:44Z</time>
      </trkpt>
      <trkpt lat="41.6481070" lon="1.6870970">
        <ele>669.2</ele>
        <time>2018-09-23T12:05:46Z</time>
      </trkpt>
      <trkpt lat="41.6479120" lon="1.6873450">
        <ele>667.2</ele>
        <time>2018-09-23T12:05:48Z</time>
      </trkpt>
      <trkpt lat="41.6478130" lon="1.6874640">
        <ele>666.2</ele>
        <time>2018-09-23T12:05:49Z</time>
      </trkpt>
      <trkpt lat="41.6477140" lon="1.6875860">
        <ele>665.2</ele>
        <time>2018-09-23T12:05:50Z</time>
      </trkpt>
      <trkpt lat="41.6475120" lon="1.6878280">
        <ele>663.6</ele>
        <time>2018-09-23T12:05:52Z</time>
      </trkpt>
      <trkpt lat="41.6474100" lon="1.6879500">
        <ele>661.8</ele>
        <time>2018-09-23T12:05:53Z</time>
      </trkpt>
      <trkpt lat="41.6473070" lon="1.6880730">
        <ele>660.6</ele>
        <time>2018-09-23T12:05:54Z</time>
      </trkpt>
      <trkpt lat="41.6472050" lon="1.6881970">
        <ele>659.4</ele>
        <time>2018-09-23T12:05:55Z</time>
      </trkpt>
      <trkpt lat="41.6471000" lon="1.6883200">
        <ele>658.2</ele>
        <time>2018-09-23T12:05:56Z</time>
      </trkpt>
      <trkpt lat="41.6469960" lon="1.6884420">
        <ele>657.0</ele>
        <time>2018-09-23T12:05:57Z</time>
      </trkpt>
      <trkpt lat="41.6469030" lon="1.6885760">
        <ele>656.0</ele>
        <time>2018-09-23T12:05:58Z</time>
      </trkpt>
      <trkpt lat="41.6467890" lon="1.6889080">
        <ele>654.2</ele>
        <time>2018-09-23T12:06:00Z</time>
      </trkpt>
      <trkpt lat="41.6467320" lon="1.6892830">
        <ele>652.2</ele>
        <time>2018-09-23T12:06:02Z</time>
      </trkpt>
      <trkpt lat="41.6466840" lon="1.6894630">
        <ele>651.0</ele>
        <time>2018-09-23T12:06:03Z</time>
      </trkpt>
      <trkpt lat="41.6465160" lon="1.6897670">
        <ele>649.0</ele>
        <time>2018-09-23T12:06:05Z</time>
      </trkpt>
      <trkpt lat="41.6463360" lon="1.6900550">
        <ele>647.2</ele>
        <time>2018-09-23T12:06:07Z</time>
      </trkpt>
      <trkpt lat="41.6462600" lon="1.6902120">
        <ele>646.2</ele>
        <time>2018-09-23T12:06:08Z</time>
      </trkpt>
      <trkpt lat="41.6461870" lon="1.6903730">
        <ele>645.0</ele>
        <time>2018-09-23T12:06:09Z</time>
      </trkpt>
      <trkpt lat="41.6461110" lon="1.6905330">
        <ele>643.8</ele>
        <time>2018-09-23T12:06:10Z</time>
      </trkpt>
      <trkpt lat="41.6460260" lon="1.6906860">
        <ele>642.8</ele>
        <time>2018-09-23T12:06:11Z</time>
      </trkpt>
      <trkpt lat="41.6459310" lon="1.6908310">
        <ele>641.4</ele>
        <time>2018-09-23T12:06:12Z</time>
      </trkpt>
      <trkpt lat="41.6458280" lon="1.6909660">
        <ele>640.2</ele>
        <time>2018-09-23T12:06:13Z</time>
      </trkpt>
      <trkpt lat="41.6457260" lon="1.6910990">
        <ele>639.0</ele>
        <time>2018-09-23T12:06:14Z</time>
      </trkpt>
      <trkpt lat="41.6456250" lon="1.6912240">
        <ele>637.8</ele>
        <time>2018-09-23T12:06:15Z</time>
      </trkpt>
      <trkpt lat="41.6455140" lon="1.6913220">
        <ele>637.0</ele>
        <time>2018-09-23T12:06:16Z</time>
      </trkpt>
      <trkpt lat="41.6453900" lon="1.6913800">
        <ele>636.0</ele>
        <time>2018-09-23T12:06:17Z</time>
      </trkpt>
      <trkpt lat="41.6452620" lon="1.6913890">
        <ele>635.0</ele>
        <time>2018-09-23T12:06:18Z</time>
      </trkpt>
      <trkpt lat="41.6451390" lon="1.6913450">
        <ele>633.8</ele>
        <time>2018-09-23T12:06:19Z</time>
      </trkpt>
      <trkpt lat="41.6450260" lon="1.6912660">
        <ele>632.4</ele>
        <time>2018-09-23T12:06:20Z</time>
      </trkpt>
      <trkpt lat="41.6449170" lon="1.6911760">
        <ele>631.2</ele>
        <time>2018-09-23T12:06:21Z</time>
      </trkpt>
      <trkpt lat="41.6448090" lon="1.6910890">
        <ele>630.2</ele>
        <time>2018-09-23T12:06:22Z</time>
      </trkpt>
      <trkpt lat="41.6446950" lon="1.6910150">
        <ele>629.2</ele>
        <time>2018-09-23T12:06:23Z</time>
      </trkpt>
      <trkpt lat="41.6445740" lon="1.6909740">
        <ele>628.0</ele>
        <time>2018-09-23T12:06:24Z</time>
      </trkpt>
      <trkpt lat="41.6444480" lon="1.6909790">
        <ele>626.8</ele>
        <time>2018-09-23T12:06:25Z</time>
      </trkpt>
      <trkpt lat="41.6443270" lon="1.6910190">
        <ele>625.8</ele>
        <time>2018-09-23T12:06:26Z</time>
      </trkpt>
      <trkpt lat="41.6442110" lon="1.6910750">
        <ele>624.8</ele>
        <time>2018-09-23T12:06:27Z</time>
      </trkpt>
      <trkpt lat="41.6440950" lon="1.6911400">
        <ele>622.6</ele>
        <time>2018-09-23T12:06:28Z</time>
      </trkpt>
      <trkpt lat="41.6438630" lon="1.6912690">
        <ele>620.6</ele>
        <time>2018-09-23T12:06:30Z</time>
      </trkpt>
      <trkpt lat="41.6437410" lon="1.6913190">
        <ele>619.6</ele>
        <time>2018-09-23T12:06:31Z</time>
      </trkpt>
      <trkpt lat="41.6436170" lon="1.6913570">
        <ele>618.6</ele>
        <time>2018-09-23T12:06:32Z</time>
      </trkpt>
      <trkpt lat="41.6434970" lon="1.6914080">
        <ele>617.8</ele>
        <time>2018-09-23T12:06:33Z</time>
      </trkpt>
      <trkpt lat="41.6433870" lon="1.6914910">
        <ele>617.0</ele>
        <time>2018-09-23T12:06:34Z</time>
      </trkpt>
      <trkpt lat="41.6432080" lon="1.6917240">
        <ele>615.4</ele>
        <time>2018-09-23T12:06:36Z</time>
      </trkpt>
      <trkpt lat="41.6430330" lon="1.6919520">
        <ele>613.8</ele>
        <time>2018-09-23T12:06:38Z</time>
      </trkpt>
      <trkpt lat="41.6428030" lon="1.6920430">
        <ele>612.0</ele>
        <time>2018-09-23T12:06:40Z</time>
      </trkpt>
      <trkpt lat="41.6425700" lon="1.6919800">
        <ele>610.2</ele>
        <time>2018-09-23T12:06:42Z</time>
      </trkpt>
      <trkpt lat="41.6424540" lon="1.6919360">
        <ele>609.0</ele>
        <time>2018-09-23T12:06:43Z</time>
      </trkpt>
      <trkpt lat="41.6422140" lon="1.6919040">
        <ele>607.2</ele>
        <time>2018-09-23T12:06:45Z</time>
      </trkpt>
      <trkpt lat="41.6419720" lon="1.6919500">
        <ele>605.4</ele>
        <time>2018-09-23T12:06:47Z</time>
      </trkpt>
      <trkpt lat="41.6417280" lon="1.6920150">
        <ele>603.6</ele>
        <time>2018-09-23T12:06:49Z</time>
      </trkpt>
      <trkpt lat="41.6414790" lon="1.6920650">
        <ele>601.8</ele>
        <time>2018-09-23T12:06:51Z</time>
      </trkpt>
      <trkpt lat="41.6412280" lon="1.6920940">
        <ele>600.2</ele>
        <time>2018-09-23T12:06:53Z</time>
      </trkpt>
      <trkpt lat="41.6409790" lon="1.6921170">
        <ele>598.4</ele>
        <time>2018-09-23T12:06:55Z</time>
      </trkpt>
      <trkpt lat="41.6407330" lon="1.6921400">
        <ele>596.6</ele>
        <time>2018-09-23T12:06:57Z</time>
      </trkpt>
      <trkpt lat="41.6404940" lon="1.6921690">
        <ele>594.8</ele>
        <time>2018-09-23T12:06:59Z</time>
      </trkpt>
      <trkpt lat="41.6402700" lon="1.6921800">
        <ele>593.0</ele>
        <time>2018-09-23T12:07:01Z</time>
      </trkpt>
      <trkpt lat="41.6400630" lon="1.6921710">
        <ele>590.6</ele>
        <time>2018-09-23T12:07:03Z</time>
      </trkpt>
      <trkpt lat="41.6398730" lon="1.6921570">
        <ele>589.2</ele>
        <time>2018-09-23T12:07:05Z</time>
      </trkpt>
      <trkpt lat="41.6395280" lon="1.6921480">
        <ele>588.6</ele>
        <time>2018-09-23T12:07:09Z</time>
      </trkpt>
      <trkpt lat="41.6392390" lon="1.6922610">
        <ele>588.4</ele>
        <time>2018-09-23T12:07:13Z</time>
      </trkpt>
      <trkpt lat="41.6389720" lon="1.6923950">
        <ele>588.6</ele>
        <time>2018-09-23T12:07:17Z</time>
      </trkpt>
      <trkpt lat="41.6384960" lon="1.6920570">
        <ele>588.8</ele>
        <time>2018-09-23T12:07:25Z</time>
      </trkpt>
      <trkpt lat="41.6384540" lon="1.6919720">
        <ele>588.4</ele>
        <time>2018-09-23T12:07:26Z</time>
      </trkpt>
      <trkpt lat="41.6384120" lon="1.6918870">
        <ele>588.0</ele>
        <time>2018-09-23T12:07:27Z</time>
      </trkpt>
      <trkpt lat="41.6383640" lon="1.6918080">
        <ele>587.6</ele>
        <time>2018-09-23T12:07:28Z</time>
      </trkpt>
      <trkpt lat="41.6382430" lon="1.6916930">
        <ele>586.8</ele>
        <time>2018-09-23T12:07:30Z</time>
      </trkpt>
      <trkpt lat="41.6378740" lon="1.6916500">
        <ele>586.0</ele>
        <time>2018-09-23T12:07:35Z</time>
      </trkpt>
      <trkpt lat="41.6377940" lon="1.6916570">
        <ele>585.8</ele>
        <time>2018-09-23T12:07:36Z</time>
      </trkpt>
      <trkpt lat="41.6371860" lon="1.6916920">
        <ele>585.2</ele>
        <time>2018-09-23T12:07:43Z</time>
      </trkpt>
      <trkpt lat="41.6371010" lon="1.6916960">
        <ele>584.8</ele>
        <time>2018-09-23T12:07:44Z</time>
      </trkpt>
      <trkpt lat="41.6368520" lon="1.6916960">
        <ele>583.4</ele>
        <time>2018-09-23T12:07:47Z</time>
      </trkpt>
      <trkpt lat="41.6366950" lon="1.6916460">
        <ele>582.2</ele>
        <time>2018-09-23T12:07:49Z</time>
      </trkpt>
      <trkpt lat="41.6364860" lon="1.6915630">
        <ele>581.4</ele>
        <time>2018-09-23T12:07:52Z</time>
      </trkpt>
      <trkpt lat="41.6363520" lon="1.6915600">
        <ele>581.2</ele>
        <time>2018-09-23T12:07:54Z</time>
      </trkpt>
      <trkpt lat="41.6362190" lon="1.6915840">
        <ele>581.2</ele>
        <time>2018-09-23T12:07:56Z</time>
      </trkpt>
      <trkpt lat="41.6358800" lon="1.6916560">
        <ele>581.0</ele>
        <time>2018-09-23T12:08:01Z</time>
      </trkpt>
      <trkpt lat="41.6355260" lon="1.6915040">
        <ele>580.6</ele>
        <time>2018-09-23T12:08:06Z</time>
      </trkpt>
      <trkpt lat="41.6352320" lon="1.6912880">
        <ele>580.0</ele>
        <time>2018-09-23T12:08:10Z</time>
      </trkpt>
      <trkpt lat="41.6351580" lon="1.6912210">
        <ele>579.6</ele>
        <time>2018-09-23T12:08:11Z</time>
      </trkpt>
      <trkpt lat="41.6350190" lon="1.6910640">
        <ele>578.8</ele>
        <time>2018-09-23T12:08:13Z</time>
      </trkpt>
      <trkpt lat="41.6346940" lon="1.6905910">
        <ele>577.8</ele>
        <time>2018-09-23T12:08:18Z</time>
      </trkpt>
      <trkpt lat="41.6344060" lon="1.6902210">
        <ele>576.6</ele>
        <time>2018-09-23T12:08:22Z</time>
      </trkpt>
      <trkpt lat="41.6341360" lon="1.6900320">
        <ele>575.2</ele>
        <time>2018-09-23T12:08:25Z</time>
      </trkpt>
      <trkpt lat="41.6340380" lon="1.6899850">
        <ele>574.6</ele>
        <time>2018-09-23T12:08:26Z</time>
      </trkpt>
      <trkpt lat="41.6339370" lon="1.6899460">
        <ele>574.0</ele>
        <time>2018-09-23T12:08:27Z</time>
      </trkpt>
      <trkpt lat="41.6337300" lon="1.6898940">
        <ele>573.0</ele>
        <time>2018-09-23T12:08:29Z</time>
      </trkpt>
      <trkpt lat="41.6336340" lon="1.6898540">
        <ele>572.4</ele>
        <time>2018-09-23T12:08:30Z</time>
      </trkpt>
      <trkpt lat="41.6335530" lon="1.6897870">
        <ele>572.0</ele>
        <time>2018-09-23T12:08:31Z</time>
      </trkpt>
      <trkpt lat="41.6334240" lon="1.6896140">
        <ele>570.6</ele>
        <time>2018-09-23T12:08:33Z</time>
      </trkpt>
      <trkpt lat="41.6333460" lon="1.6895570">
        <ele>569.6</ele>
        <time>2018-09-23T12:08:34Z</time>
      </trkpt>
      <trkpt lat="41.6332590" lon="1.6895280">
        <ele>568.4</ele>
        <time>2018-09-23T12:08:35Z</time>
      </trkpt>
      <trkpt lat="41.6331700" lon="1.6895090">
        <ele>567.6</ele>
        <time>2018-09-23T12:08:36Z</time>
      </trkpt>
      <trkpt lat="41.6330820" lon="1.6894840">
        <ele>566.8</ele>
        <time>2018-09-23T12:08:37Z</time>
      </trkpt>
      <trkpt lat="41.6329120" lon="1.6894300">
        <ele>565.4</ele>
        <time>2018-09-23T12:08:39Z</time>
      </trkpt>
      <trkpt lat="41.6326750" lon="1.6894820">
        <ele>564.2</ele>
        <time>2018-09-23T12:08:42Z</time>
      </trkpt>
      <trkpt lat="41.6325410" lon="1.6895730">
        <ele>564.0</ele>
        <time>2018-09-23T12:08:44Z</time>
      </trkpt>
      <trkpt lat="41.6321650" lon="1.6898370">
        <ele>564.2</ele>
        <time>2018-09-23T12:08:50Z</time>
      </trkpt>
      <trkpt lat="41.6319050" lon="1.6898570">
        <ele>564.6</ele>
        <time>2018-09-23T12:08:54Z</time>
      </trkpt>
      <trkpt lat="41.6315940" lon="1.6897740">
        <ele>565.4</ele>
        <time>2018-09-23T12:08:59Z</time>
      </trkpt>
      <trkpt lat="41.6311540" lon="1.6897500">
        <ele>566.6</ele>
        <time>2018-09-23T12:09:06Z</time>
      </trkpt>
      <trkpt lat="41.6307080" lon="1.6897980">
        <ele>567.6</ele>
        <time>2018-09-23T12:09:13Z</time>
      </trkpt>
      <trkpt lat="41.6302520" lon="1.6898430">
        <ele>568.8</ele>
        <time>2018-09-23T12:09:20Z</time>
      </trkpt>
      <trkpt lat="41.6299270" lon="1.6898310">
        <ele>569.8</ele>
        <time>2018-09-23T12:09:25Z</time>
      </trkpt>
      <trkpt lat="41.6296040" lon="1.6897340">
        <ele>570.8</ele>
        <time>2018-09-23T12:09:30Z</time>
      </trkpt>
      <trkpt lat="41.6291370" lon="1.6893550">
        <ele>571.0</ele>
        <time>2018-09-23T12:09:38Z</time>
      </trkpt>
      <trkpt lat="41.6286960" lon="1.6888710">
        <ele>570.2</ele>
        <time>2018-09-23T12:09:46Z</time>
      </trkpt>
      <trkpt lat="41.6285870" lon="1.6887480">
        <ele>569.8</ele>
        <time>2018-09-23T12:09:48Z</time>
      </trkpt>
      <trkpt lat="41.6284860" lon="1.6886160">
        <ele>569.4</ele>
        <time>2018-09-23T12:09:50Z</time>
      </trkpt>
      <trkpt lat="41.6282720" lon="1.6881290">
        <ele>568.8</ele>
        <time>2018-09-23T12:09:56Z</time>
      </trkpt>
      <trkpt lat="41.6282320" lon="1.6880490">
        <ele>568.8</ele>
        <time>2018-09-23T12:09:57Z</time>
      </trkpt>
      <trkpt lat="41.6276660" lon="1.6878220">
        <ele>567.8</ele>
        <time>2018-09-23T12:10:05Z</time>
      </trkpt>
      <trkpt lat="41.6275940" lon="1.6877780">
        <ele>567.6</ele>
        <time>2018-09-23T12:10:06Z</time>
      </trkpt>
      <trkpt lat="41.6273660" lon="1.6875200">
        <ele>566.8</ele>
        <time>2018-09-23T12:10:10Z</time>
      </trkpt>
      <trkpt lat="41.6273170" lon="1.6874530">
        <ele>566.6</ele>
        <time>2018-09-23T12:10:11Z</time>
      </trkpt>
      <trkpt lat="41.6269060" lon="1.6868840">
        <ele>566.2</ele>
        <time>2018-09-23T12:10:20Z</time>
      </trkpt>
      <trkpt lat="41.6267580" lon="1.6866280">
        <ele>566.8</ele>
        <time>2018-09-23T12:10:24Z</time>
      </trkpt>
      <trkpt lat="41.6267210" lon="1.6862300">
        <ele>567.6</ele>
        <time>2018-09-23T12:10:29Z</time>
      </trkpt>
      <trkpt lat="41.6266870" lon="1.6857950">
        <ele>568.2</ele>
        <time>2018-09-23T12:10:34Z</time>
      </trkpt>
      <trkpt lat="41.6264460" lon="1.6850540">
        <ele>568.0</ele>
        <time>2018-09-23T12:10:43Z</time>
      </trkpt>
      <trkpt lat="41.6261770" lon="1.6843420">
        <ele>567.4</ele>
        <time>2018-09-23T12:10:52Z</time>
      </trkpt>
      <trkpt lat="41.6260160" lon="1.6839590">
        <ele>566.8</ele>
        <time>2018-09-23T12:10:57Z</time>
      </trkpt>
      <trkpt lat="41.6257270" lon="1.6835470">
        <ele>566.0</ele>
        <time>2018-09-23T12:11:03Z</time>
      </trkpt>
      <trkpt lat="41.6256820" lon="1.6830950">
        <ele>565.6</ele>
        <time>2018-09-23T12:11:07Z</time>
      </trkpt>
      <trkpt lat="41.6257160" lon="1.6828380">
        <ele>564.8</ele>
        <time>2018-09-23T12:11:09Z</time>
      </trkpt>
      <trkpt lat="41.6257280" lon="1.6827040">
        <ele>564.6</ele>
        <time>2018-09-23T12:11:10Z</time>
      </trkpt>
      <trkpt lat="41.6256030" lon="1.6823450">
        <ele>563.4</ele>
        <time>2018-09-23T12:11:13Z</time>
      </trkpt>
      <trkpt lat="41.6254160" lon="1.6820090">
        <ele>562.0</ele>
        <time>2018-09-23T12:11:16Z</time>
      </trkpt>
      <trkpt lat="41.6254100" lon="1.6817140">
        <ele>561.0</ele>
        <time>2018-09-23T12:11:18Z</time>
      </trkpt>
      <trkpt lat="41.6254250" lon="1.6815660">
        <ele>560.4</ele>
        <time>2018-09-23T12:11:19Z</time>
      </trkpt>
      <trkpt lat="41.6254420" lon="1.6814190">
        <ele>559.8</ele>
        <time>2018-09-23T12:11:20Z</time>
      </trkpt>
      <trkpt lat="41.6254760" lon="1.6811360">
        <ele>558.8</ele>
        <time>2018-09-23T12:11:22Z</time>
      </trkpt>
      <trkpt lat="41.6255100" lon="1.6808610">
        <ele>557.4</ele>
        <time>2018-09-23T12:11:24Z</time>
      </trkpt>
      <trkpt lat="41.6255380" lon="1.6805910">
        <ele>556.0</ele>
        <time>2018-09-23T12:11:26Z</time>
      </trkpt>
      <trkpt lat="41.6255790" lon="1.6801990">
        <ele>554.4</ele>
        <time>2018-09-23T12:11:29Z</time>
      </trkpt>
      <trkpt lat="41.6256180" lon="1.6799450">
        <ele>553.2</ele>
        <time>2018-09-23T12:11:31Z</time>
      </trkpt>
      <trkpt lat="41.6256490" lon="1.6798200">
        <ele>552.8</ele>
        <time>2018-09-23T12:11:32Z</time>
      </trkpt>
      <trkpt lat="41.6256950" lon="1.6797030">
        <ele>552.2</ele>
        <time>2018-09-23T12:11:33Z</time>
      </trkpt>
      <trkpt lat="41.6258950" lon="1.6794070">
        <ele>550.6</ele>
        <time>2018-09-23T12:11:36Z</time>
      </trkpt>
      <trkpt lat="41.6260450" lon="1.6792290">
        <ele>549.4</ele>
        <time>2018-09-23T12:11:38Z</time>
      </trkpt>
      <trkpt lat="41.6262680" lon="1.6789610">
        <ele>548.2</ele>
        <time>2018-09-23T12:11:41Z</time>
      </trkpt>
      <trkpt lat="41.6264880" lon="1.6786880">
        <ele>547.2</ele>
        <time>2018-09-23T12:11:44Z</time>
      </trkpt>
      <trkpt lat="41.6267740" lon="1.6781560">
        <ele>546.2</ele>
        <time>2018-09-23T12:11:49Z</time>
      </trkpt>
      <trkpt lat="41.6269000" lon="1.6777990">
        <ele>545.6</ele>
        <time>2018-09-23T12:11:52Z</time>
      </trkpt>
      <trkpt lat="41.6269130" lon="1.6775430">
        <ele>545.0</ele>
        <time>2018-09-23T12:11:54Z</time>
      </trkpt>
      <trkpt lat="41.6268780" lon="1.6772890">
        <ele>544.2</ele>
        <time>2018-09-23T12:11:56Z</time>
      </trkpt>
      <trkpt lat="41.6268580" lon="1.6771610">
        <ele>543.8</ele>
        <time>2018-09-23T12:11:57Z</time>
      </trkpt>
      <trkpt lat="41.6268400" lon="1.6769010">
        <ele>543.2</ele>
        <time>2018-09-23T12:11:59Z</time>
      </trkpt>
      <trkpt lat="41.6268690" lon="1.6766320">
        <ele>542.2</ele>
        <time>2018-09-23T12:12:01Z</time>
      </trkpt>
      <trkpt lat="41.6269250" lon="1.6763700">
        <ele>541.4</ele>
        <time>2018-09-23T12:12:03Z</time>
      </trkpt>
      <trkpt lat="41.6269530" lon="1.6762390">
        <ele>541.2</ele>
        <time>2018-09-23T12:12:04Z</time>
      </trkpt>
      <trkpt lat="41.6270180" lon="1.6758500">
        <ele>539.8</ele>
        <time>2018-09-23T12:12:07Z</time>
      </trkpt>
      <trkpt lat="41.6268960" lon="1.6755040">
        <ele>538.6</ele>
        <time>2018-09-23T12:12:10Z</time>
      </trkpt>
      <trkpt lat="41.6268220" lon="1.6754110">
        <ele>538.2</ele>
        <time>2018-09-23T12:12:11Z</time>
      </trkpt>
      <trkpt lat="41.6267590" lon="1.6753040">
        <ele>537.8</ele>
        <time>2018-09-23T12:12:12Z</time>
      </trkpt>
      <trkpt lat="41.6267210" lon="1.6751760">
        <ele>537.4</ele>
        <time>2018-09-23T12:12:13Z</time>
      </trkpt>
      <trkpt lat="41.6267720" lon="1.6747760">
        <ele>536.4</ele>
        <time>2018-09-23T12:12:16Z</time>
      </trkpt>
      <trkpt lat="41.6269590" lon="1.6744420">
        <ele>534.6</ele>
        <time>2018-09-23T12:12:19Z</time>
      </trkpt>
      <trkpt lat="41.6271330" lon="1.6742720">
        <ele>533.6</ele>
        <time>2018-09-23T12:12:21Z</time>
      </trkpt>
      <trkpt lat="41.6273120" lon="1.6739350">
        <ele>532.4</ele>
        <time>2018-09-23T12:12:24Z</time>
      </trkpt>
      <trkpt lat="41.6273770" lon="1.6735330">
        <ele>531.0</ele>
        <time>2018-09-23T12:12:27Z</time>
      </trkpt>
      <trkpt lat="41.6272500" lon="1.6731590">
        <ele>530.0</ele>
        <time>2018-09-23T12:12:30Z</time>
      </trkpt>
      <trkpt lat="41.6271320" lon="1.6727650">
        <ele>528.6</ele>
        <time>2018-09-23T12:12:33Z</time>
      </trkpt>
      <trkpt lat="41.6271350" lon="1.6724780">
        <ele>527.8</ele>
        <time>2018-09-23T12:12:35Z</time>
      </trkpt>
      <trkpt lat="41.6271390" lon="1.6723350">
        <ele>527.2</ele>
        <time>2018-09-23T12:12:36Z</time>
      </trkpt>
      <trkpt lat="41.6271330" lon="1.6721930">
        <ele>526.8</ele>
        <time>2018-09-23T12:12:37Z</time>
      </trkpt>
      <trkpt lat="41.6270830" lon="1.6719160">
        <ele>525.8</ele>
        <time>2018-09-23T12:12:39Z</time>
      </trkpt>
      <trkpt lat="41.6269990" lon="1.6716540">
        <ele>524.6</ele>
        <time>2018-09-23T12:12:41Z</time>
      </trkpt>
      <trkpt lat="41.6268910" lon="1.6712650">
        <ele>523.4</ele>
        <time>2018-09-23T12:12:44Z</time>
      </trkpt>
      <trkpt lat="41.6268670" lon="1.6708740">
        <ele>522.0</ele>
        <time>2018-09-23T12:12:47Z</time>
      </trkpt>
      <trkpt lat="41.6268720" lon="1.6704990">
        <ele>520.6</ele>
        <time>2018-09-23T12:12:50Z</time>
      </trkpt>
      <trkpt lat="41.6268540" lon="1.6701480">
        <ele>519.6</ele>
        <time>2018-09-23T12:12:53Z</time>
      </trkpt>
      <trkpt lat="41.6266910" lon="1.6694020">
        <ele>519.0</ele>
        <time>2018-09-23T12:13:00Z</time>
      </trkpt>
      <trkpt lat="41.6265560" lon="1.6687000">
        <ele>519.0</ele>
        <time>2018-09-23T12:13:06Z</time>
      </trkpt>
      <trkpt lat="41.6264890" lon="1.6683260">
        <ele>518.6</ele>
        <time>2018-09-23T12:13:09Z</time>
      </trkpt>
      <trkpt lat="41.6264240" lon="1.6678120">
        <ele>517.2</ele>
        <time>2018-09-23T12:13:13Z</time>
      </trkpt>
      <trkpt lat="41.6264970" lon="1.6674380">
        <ele>516.2</ele>
        <time>2018-09-23T12:13:16Z</time>
      </trkpt>
      <trkpt lat="41.6265990" lon="1.6672070">
        <ele>515.0</ele>
        <time>2018-09-23T12:13:18Z</time>
      </trkpt>
      <trkpt lat="41.6267100" lon="1.6669800">
        <ele>514.0</ele>
        <time>2018-09-23T12:13:20Z</time>
      </trkpt>
      <trkpt lat="41.6268690" lon="1.6666270">
        <ele>512.6</ele>
        <time>2018-09-23T12:13:23Z</time>
      </trkpt>
      <trkpt lat="41.6269640" lon="1.6663900">
        <ele>511.8</ele>
        <time>2018-09-23T12:13:25Z</time>
      </trkpt>
      <trkpt lat="41.6269880" lon="1.6662610">
        <ele>511.4</ele>
        <time>2018-09-23T12:13:26Z</time>
      </trkpt>
      <trkpt lat="41.6269270" lon="1.6658730">
        <ele>509.8</ele>
        <time>2018-09-23T12:13:29Z</time>
      </trkpt>
      <trkpt lat="41.6268120" lon="1.6656400">
        <ele>509.0</ele>
        <time>2018-09-23T12:13:31Z</time>
      </trkpt>
      <trkpt lat="41.6265740" lon="1.6653450">
        <ele>507.6</ele>
        <time>2018-09-23T12:13:34Z</time>
      </trkpt>
      <trkpt lat="41.6264980" lon="1.6652400">
        <ele>507.2</ele>
        <time>2018-09-23T12:13:35Z</time>
      </trkpt>
      <trkpt lat="41.6264000" lon="1.6649890">
        <ele>506.4</ele>
        <time>2018-09-23T12:13:37Z</time>
      </trkpt>
      <trkpt lat="41.6263510" lon="1.6647190">
        <ele>505.6</ele>
        <time>2018-09-23T12:13:39Z</time>
      </trkpt>
      <trkpt lat="41.6263310" lon="1.6645840">
        <ele>505.0</ele>
        <time>2018-09-23T12:13:40Z</time>
      </trkpt>
      <trkpt lat="41.6262920" lon="1.6643160">
        <ele>503.8</ele>
        <time>2018-09-23T12:13:42Z</time>
      </trkpt>
      <trkpt lat="41.6262520" lon="1.6640480">
        <ele>502.6</ele>
        <time>2018-09-23T12:13:44Z</time>
      </trkpt>
      <trkpt lat="41.6261910" lon="1.6636490">
        <ele>501.0</ele>
        <time>2018-09-23T12:13:47Z</time>
      </trkpt>
      <trkpt lat="41.6261310" lon="1.6632570">
        <ele>499.6</ele>
        <time>2018-09-23T12:13:50Z</time>
      </trkpt>
      <trkpt lat="41.6260440" lon="1.6628660">
        <ele>498.4</ele>
        <time>2018-09-23T12:13:53Z</time>
      </trkpt>
      <trkpt lat="41.6259230" lon="1.6626540">
        <ele>497.2</ele>
        <time>2018-09-23T12:13:55Z</time>
      </trkpt>
      <trkpt lat="41.6257420" lon="1.6625210">
        <ele>496.0</ele>
        <time>2018-09-23T12:13:57Z</time>
      </trkpt>
      <trkpt lat="41.6256430" lon="1.6624730">
        <ele>495.6</ele>
        <time>2018-09-23T12:13:58Z</time>
      </trkpt>
      <trkpt lat="41.6254600" lon="1.6623540">
        <ele>495.0</ele>
        <time>2018-09-23T12:14:00Z</time>
      </trkpt>
      <trkpt lat="41.6253490" lon="1.6620050">
        <ele>493.6</ele>
        <time>2018-09-23T12:14:03Z</time>
      </trkpt>
      <trkpt lat="41.6254190" lon="1.6617520">
        <ele>492.4</ele>
        <time>2018-09-23T12:14:05Z</time>
      </trkpt>
      <trkpt lat="41.6254680" lon="1.6616310">
        <ele>491.8</ele>
        <time>2018-09-23T12:14:06Z</time>
      </trkpt>
      <trkpt lat="41.6255150" lon="1.6615060">
        <ele>491.2</ele>
        <time>2018-09-23T12:14:07Z</time>
      </trkpt>
      <trkpt lat="41.6255950" lon="1.6612420">
        <ele>490.0</ele>
        <time>2018-09-23T12:14:09Z</time>
      </trkpt>
      <trkpt lat="41.6256510" lon="1.6609750">
        <ele>489.0</ele>
        <time>2018-09-23T12:14:11Z</time>
      </trkpt>
      <trkpt lat="41.6255040" lon="1.6604830">
        <ele>487.8</ele>
        <time>2018-09-23T12:14:15Z</time>
      </trkpt>
      <trkpt lat="41.6254250" lon="1.6603880">
        <ele>487.2</ele>
        <time>2018-09-23T12:14:16Z</time>
      </trkpt>
      <trkpt lat="41.6252670" lon="1.6601790">
        <ele>486.4</ele>
        <time>2018-09-23T12:14:18Z</time>
      </trkpt>
      <trkpt lat="41.6250550" lon="1.6598430">
        <ele>485.0</ele>
        <time>2018-09-23T12:14:21Z</time>
      </trkpt>
      <trkpt lat="41.6249020" lon="1.6596370">
        <ele>484.0</ele>
        <time>2018-09-23T12:14:23Z</time>
      </trkpt>
      <trkpt lat="41.6247570" lon="1.6594200">
        <ele>482.8</ele>
        <time>2018-09-23T12:14:25Z</time>
      </trkpt>
      <trkpt lat="41.6246250" lon="1.6591880">
        <ele>481.6</ele>
        <time>2018-09-23T12:14:27Z</time>
      </trkpt>
      <trkpt lat="41.6245020" lon="1.6589430">
        <ele>480.4</ele>
        <time>2018-09-23T12:14:29Z</time>
      </trkpt>
      <trkpt lat="41.6243700" lon="1.6586950">
        <ele>479.4</ele>
        <time>2018-09-23T12:14:31Z</time>
      </trkpt>
      <trkpt lat="41.6242270" lon="1.6584580">
        <ele>478.4</ele>
        <time>2018-09-23T12:14:33Z</time>
      </trkpt>
      <trkpt lat="41.6240790" lon="1.6582380">
        <ele>477.2</ele>
        <time>2018-09-23T12:14:35Z</time>
      </trkpt>
      <trkpt lat="41.6238560" lon="1.6579370">
        <ele>475.8</ele>
        <time>2018-09-23T12:14:38Z</time>
      </trkpt>
      <trkpt lat="41.6237050" lon="1.6577470">
        <ele>474.8</ele>
        <time>2018-09-23T12:14:40Z</time>
      </trkpt>
      <trkpt lat="41.6234750" lon="1.6574570">
        <ele>473.2</ele>
        <time>2018-09-23T12:14:43Z</time>
      </trkpt>
      <trkpt lat="41.6233200" lon="1.6572700">
        <ele>472.0</ele>
        <time>2018-09-23T12:14:45Z</time>
      </trkpt>
      <trkpt lat="41.6230050" lon="1.6569700">
        <ele>471.0</ele>
        <time>2018-09-23T12:14:49Z</time>
      </trkpt>
      <trkpt lat="41.6226920" lon="1.6567290">
        <ele>470.0</ele>
        <time>2018-09-23T12:14:53Z</time>
      </trkpt>
      <trkpt lat="41.6223870" lon="1.6564820">
        <ele>468.4</ele>
        <time>2018-09-23T12:14:57Z</time>
      </trkpt>
      <trkpt lat="41.6220950" lon="1.6561940">
        <ele>467.4</ele>
        <time>2018-09-23T12:15:01Z</time>
      </trkpt>
      <trkpt lat="41.6218890" lon="1.6556540">
        <ele>466.2</ele>
        <time>2018-09-23T12:15:06Z</time>
      </trkpt>
      <trkpt lat="41.6218550" lon="1.6555390">
        <ele>466.0</ele>
        <time>2018-09-23T12:15:07Z</time>
      </trkpt>
      <trkpt lat="41.6217520" lon="1.6553390">
        <ele>465.2</ele>
        <time>2018-09-23T12:15:09Z</time>
      </trkpt>
      <trkpt lat="41.6215340" lon="1.6551070">
        <ele>464.2</ele>
        <time>2018-09-23T12:15:12Z</time>
      </trkpt>
      <trkpt lat="41.6212960" lon="1.6549100">
        <ele>463.0</ele>
        <time>2018-09-23T12:15:15Z</time>
      </trkpt>
      <trkpt lat="41.6209750" lon="1.6546510">
        <ele>462.0</ele>
        <time>2018-09-23T12:15:19Z</time>
      </trkpt>
      <trkpt lat="41.6208900" lon="1.6546000">
        <ele>461.8</ele>
        <time>2018-09-23T12:15:20Z</time>
      </trkpt>
      <trkpt lat="41.6205270" lon="1.6545030">
        <ele>460.8</ele>
        <time>2018-09-23T12:15:24Z</time>
      </trkpt>
      <trkpt lat="41.6204320" lon="1.6545030">
        <ele>460.4</ele>
        <time>2018-09-23T12:15:25Z</time>
      </trkpt>
      <trkpt lat="41.6202450" lon="1.6545030">
        <ele>459.6</ele>
        <time>2018-09-23T12:15:27Z</time>
      </trkpt>
      <trkpt lat="41.6198880" lon="1.6544930">
        <ele>458.4</ele>
        <time>2018-09-23T12:15:31Z</time>
      </trkpt>
      <trkpt lat="41.6195260" lon="1.6544890">
        <ele>457.4</ele>
        <time>2018-09-23T12:15:35Z</time>
      </trkpt>
      <trkpt lat="41.6194360" lon="1.6544680">
        <ele>457.0</ele>
        <time>2018-09-23T12:15:36Z</time>
      </trkpt>
      <trkpt lat="41.6191470" lon="1.6541710">
        <ele>456.2</ele>
        <time>2018-09-23T12:15:40Z</time>
      </trkpt>
      <trkpt lat="41.6190900" lon="1.6540720">
        <ele>456.0</ele>
        <time>2018-09-23T12:15:41Z</time>
      </trkpt>
      <trkpt lat="41.6189690" lon="1.6538840">
        <ele>455.8</ele>
        <time>2018-09-23T12:15:43Z</time>
      </trkpt>
      <trkpt lat="41.6188090" lon="1.6537760">
        <ele>455.4</ele>
        <time>2018-09-23T12:15:45Z</time>
      </trkpt>
      <trkpt lat="41.6183360" lon="1.6538140">
        <ele>454.0</ele>
        <time>2018-09-23T12:15:50Z</time>
      </trkpt>
      <trkpt lat="41.6178750" lon="1.6534960">
        <ele>452.8</ele>
        <time>2018-09-23T12:15:56Z</time>
      </trkpt>
      <trkpt lat="41.6178270" lon="1.6532560">
        <ele>452.4</ele>
        <time>2018-09-23T12:15:58Z</time>
      </trkpt>
      <trkpt lat="41.6177910" lon="1.6530090">
        <ele>451.8</ele>
        <time>2018-09-23T12:16:00Z</time>
      </trkpt>
      <trkpt lat="41.6177380" lon="1.6526280">
        <ele>450.6</ele>
        <time>2018-09-23T12:16:03Z</time>
      </trkpt>
      <trkpt lat="41.6176620" lon="1.6521110">
        <ele>449.4</ele>
        <time>2018-09-23T12:16:07Z</time>
      </trkpt>
      <trkpt lat="41.6176080" lon="1.6517150">
        <ele>448.4</ele>
        <time>2018-09-23T12:16:10Z</time>
      </trkpt>
      <trkpt lat="41.6175060" lon="1.6512000">
        <ele>447.2</ele>
        <time>2018-09-23T12:16:14Z</time>
      </trkpt>
      <trkpt lat="41.6170920" lon="1.6508810">
        <ele>446.0</ele>
        <time>2018-09-23T12:16:19Z</time>
      </trkpt>
      <trkpt lat="41.6169920" lon="1.6508650">
        <ele>445.6</ele>
        <time>2018-09-23T12:16:20Z</time>
      </trkpt>
      <trkpt lat="41.6167940" lon="1.6508230">
        <ele>444.6</ele>
        <time>2018-09-23T12:16:22Z</time>
      </trkpt>
      <trkpt lat="41.6165040" lon="1.6507590">
        <ele>443.4</ele>
        <time>2018-09-23T12:16:25Z</time>
      </trkpt>
      <trkpt lat="41.6164130" lon="1.6507200">
        <ele>443.4</ele>
        <time>2018-09-23T12:16:26Z</time>
      </trkpt>
      <trkpt lat="41.6161840" lon="1.6504800">
        <ele>442.4</ele>
        <time>2018-09-23T12:16:29Z</time>
      </trkpt>
      <trkpt lat="41.6160660" lon="1.6502550">
        <ele>441.6</ele>
        <time>2018-09-23T12:16:31Z</time>
      </trkpt>
      <trkpt lat="41.6160100" lon="1.6501390">
        <ele>441.2</ele>
        <time>2018-09-23T12:16:32Z</time>
      </trkpt>
      <trkpt lat="41.6157850" lon="1.6496690">
        <ele>439.8</ele>
        <time>2018-09-23T12:16:36Z</time>
      </trkpt>
      <trkpt lat="41.6155500" lon="1.6492040">
        <ele>438.6</ele>
        <time>2018-09-23T12:16:40Z</time>
      </trkpt>
      <trkpt lat="41.6153740" lon="1.6488660">
        <ele>437.4</ele>
        <time>2018-09-23T12:16:43Z</time>
      </trkpt>
      <trkpt lat="41.6152120" lon="1.6485200">
        <ele>436.2</ele>
        <time>2018-09-23T12:16:46Z</time>
      </trkpt>
      <trkpt lat="41.6150330" lon="1.6481830">
        <ele>434.8</ele>
        <time>2018-09-23T12:16:49Z</time>
      </trkpt>
      <trkpt lat="41.6149610" lon="1.6480890">
        <ele>434.4</ele>
        <time>2018-09-23T12:16:50Z</time>
      </trkpt>
      <trkpt lat="41.6147810" lon="1.6479680">
        <ele>433.8</ele>
        <time>2018-09-23T12:16:52Z</time>
      </trkpt>
      <trkpt lat="41.6145850" lon="1.6479140">
        <ele>433.0</ele>
        <time>2018-09-23T12:16:54Z</time>
      </trkpt>
      <trkpt lat="41.6144870" lon="1.6478910">
        <ele>432.8</ele>
        <time>2018-09-23T12:16:55Z</time>
      </trkpt>
      <trkpt lat="41.6141950" lon="1.6478350">
        <ele>431.6</ele>
        <time>2018-09-23T12:16:58Z</time>
      </trkpt>
      <trkpt lat="41.6139030" lon="1.6477810">
        <ele>430.0</ele>
        <time>2018-09-23T12:17:01Z</time>
      </trkpt>
      <trkpt lat="41.6136230" lon="1.6477180">
        <ele>428.8</ele>
        <time>2018-09-23T12:17:04Z</time>
      </trkpt>
      <trkpt lat="41.6133570" lon="1.6476480">
        <ele>427.6</ele>
        <time>2018-09-23T12:17:07Z</time>
      </trkpt>
      <trkpt lat="41.6130880" lon="1.6475900">
        <ele>426.4</ele>
        <time>2018-09-23T12:17:10Z</time>
      </trkpt>
      <trkpt lat="41.6127190" lon="1.6474950">
        <ele>425.2</ele>
        <time>2018-09-23T12:17:14Z</time>
      </trkpt>
      <trkpt lat="41.6126300" lon="1.6474490">
        <ele>424.8</ele>
        <time>2018-09-23T12:17:15Z</time>
      </trkpt>
      <trkpt lat="41.6124710" lon="1.6473090">
        <ele>424.0</ele>
        <time>2018-09-23T12:17:17Z</time>
      </trkpt>
      <trkpt lat="41.6123320" lon="1.6471300">
        <ele>423.2</ele>
        <time>2018-09-23T12:17:19Z</time>
      </trkpt>
      <trkpt lat="41.6122640" lon="1.6470360">
        <ele>423.0</ele>
        <time>2018-09-23T12:17:20Z</time>
      </trkpt>
      <trkpt lat="41.6120590" lon="1.6467530">
        <ele>422.0</ele>
        <time>2018-09-23T12:17:23Z</time>
      </trkpt>
      <trkpt lat="41.6118550" lon="1.6464750">
        <ele>421.0</ele>
        <time>2018-09-23T12:17:26Z</time>
      </trkpt>
      <trkpt lat="41.6116290" lon="1.6462400">
        <ele>419.8</ele>
        <time>2018-09-23T12:17:29Z</time>
      </trkpt>
      <trkpt lat="41.6114570" lon="1.6461260">
        <ele>419.0</ele>
        <time>2018-09-23T12:17:31Z</time>
      </trkpt>
      <trkpt lat="41.6113650" lon="1.6460800">
        <ele>418.6</ele>
        <time>2018-09-23T12:17:32Z</time>
      </trkpt>
      <trkpt lat="41.6111810" lon="1.6459760">
        <ele>418.0</ele>
        <time>2018-09-23T12:17:34Z</time>
      </trkpt>
      <trkpt lat="41.6110970" lon="1.6459080">
        <ele>417.6</ele>
        <time>2018-09-23T12:17:35Z</time>
      </trkpt>
      <trkpt lat="41.6109470" lon="1.6457410">
        <ele>416.6</ele>
        <time>2018-09-23T12:17:37Z</time>
      </trkpt>
      <trkpt lat="41.6108770" lon="1.6456500">
        <ele>416.0</ele>
        <time>2018-09-23T12:17:38Z</time>
      </trkpt>
      <trkpt lat="41.6107320" lon="1.6454730">
        <ele>415.2</ele>
        <time>2018-09-23T12:17:40Z</time>
      </trkpt>
      <trkpt lat="41.6106520" lon="1.6453970">
        <ele>414.6</ele>
        <time>2018-09-23T12:17:41Z</time>
      </trkpt>
      <trkpt lat="41.6104850" lon="1.6452620">
        <ele>413.8</ele>
        <time>2018-09-23T12:17:43Z</time>
      </trkpt>
      <trkpt lat="41.6102270" lon="1.6450800">
        <ele>413.0</ele>
        <time>2018-09-23T12:17:46Z</time>
      </trkpt>
      <trkpt lat="41.6099700" lon="1.6449010">
        <ele>411.6</ele>
        <time>2018-09-23T12:17:49Z</time>
      </trkpt>
      <trkpt lat="41.6097150" lon="1.6447280">
        <ele>410.4</ele>
        <time>2018-09-23T12:17:52Z</time>
      </trkpt>
      <trkpt lat="41.6094630" lon="1.6445510">
        <ele>409.4</ele>
        <time>2018-09-23T12:17:55Z</time>
      </trkpt>
      <trkpt lat="41.6092100" lon="1.6443790">
        <ele>408.2</ele>
        <time>2018-09-23T12:17:58Z</time>
      </trkpt>
      <trkpt lat="41.6089610" lon="1.6442230">
        <ele>407.0</ele>
        <time>2018-09-23T12:18:01Z</time>
      </trkpt>
      <trkpt lat="41.6087080" lon="1.6441080">
        <ele>405.8</ele>
        <time>2018-09-23T12:18:04Z</time>
      </trkpt>
      <trkpt lat="41.6084440" lon="1.6440740">
        <ele>404.8</ele>
        <time>2018-09-23T12:18:07Z</time>
      </trkpt>
      <trkpt lat="41.6081810" lon="1.6440830">
        <ele>403.6</ele>
        <time>2018-09-23T12:18:10Z</time>
      </trkpt>
      <trkpt lat="41.6078390" lon="1.6440990">
        <ele>402.4</ele>
        <time>2018-09-23T12:18:14Z</time>
      </trkpt>
      <trkpt lat="41.6072710" lon="1.6440720">
        <ele>401.6</ele>
        <time>2018-09-23T12:18:21Z</time>
      </trkpt>
      <trkpt lat="41.6068970" lon="1.6438570">
        <ele>400.6</ele>
        <time>2018-09-23T12:18:27Z</time>
      </trkpt>
      <trkpt lat="41.6064110" lon="1.6435760">
        <ele>399.2</ele>
        <time>2018-09-23T12:18:36Z</time>
      </trkpt>
      <trkpt lat="41.6063580" lon="1.6435710">
        <ele>399.2</ele>
        <time>2018-09-23T12:18:37Z</time>
      </trkpt>
      <trkpt lat="41.6058990" lon="1.6436570">
        <ele>398.4</ele>
        <time>2018-09-23T12:18:45Z</time>
      </trkpt>
      <trkpt lat="41.6057820" lon="1.6436720">
        <ele>398.0</ele>
        <time>2018-09-23T12:18:47Z</time>
      </trkpt>
      <trkpt lat="41.6054600" lon="1.6434400">
        <ele>397.4</ele>
        <time>2018-09-23T12:18:54Z</time>
      </trkpt>
      <trkpt lat="41.6053900" lon="1.6433070">
        <ele>397.0</ele>
        <time>2018-09-23T12:18:56Z</time>
      </trkpt>
      <trkpt lat="41.6053260" lon="1.6431530">
        <ele>397.0</ele>
        <time>2018-09-23T12:18:58Z</time>
      </trkpt>
      <trkpt lat="41.6053030" lon="1.6426910">
        <ele>396.4</ele>
        <time>2018-09-23T12:19:03Z</time>
      </trkpt>
      <trkpt lat="41.6053140" lon="1.6425920">
        <ele>396.2</ele>
        <time>2018-09-23T12:19:04Z</time>
      </trkpt>
      <trkpt lat="41.6053180" lon="1.6424880">
        <ele>396.0</ele>
        <time>2018-09-23T12:19:05Z</time>
      </trkpt>
      <trkpt lat="41.6052460" lon="1.6421810">
        <ele>395.2</ele>
        <time>2018-09-23T12:19:08Z</time>
      </trkpt>
      <trkpt lat="41.6050760" lon="1.6419450">
        <ele>394.0</ele>
        <time>2018-09-23T12:19:11Z</time>
      </trkpt>
      <trkpt lat="41.6050170" lon="1.6418720">
        <ele>394.0</ele>
        <time>2018-09-23T12:19:12Z</time>
      </trkpt>
      <trkpt lat="41.6048510" lon="1.6416380">
        <ele>392.8</ele>
        <time>2018-09-23T12:19:15Z</time>
      </trkpt>
      <trkpt lat="41.6047430" lon="1.6413480">
        <ele>392.0</ele>
        <time>2018-09-23T12:19:18Z</time>
      </trkpt>
      <trkpt lat="41.6046550" lon="1.6410480">
        <ele>390.6</ele>
        <time>2018-09-23T12:19:21Z</time>
      </trkpt>
      <trkpt lat="41.6045870" lon="1.6408610">
        <ele>390.0</ele>
        <time>2018-09-23T12:19:23Z</time>
      </trkpt>
      <trkpt lat="41.6044900" lon="1.6406980">
        <ele>389.4</ele>
        <time>2018-09-23T12:19:25Z</time>
      </trkpt>
      <trkpt lat="41.6042880" lon="1.6405420">
        <ele>388.0</ele>
        <time>2018-09-23T12:19:28Z</time>
      </trkpt>
      <trkpt lat="41.6042140" lon="1.6405070">
        <ele>387.8</ele>
        <time>2018-09-23T12:19:29Z</time>
      </trkpt>
      <trkpt lat="41.6040630" lon="1.6404430">
        <ele>387.0</ele>
        <time>2018-09-23T12:19:31Z</time>
      </trkpt>
      <trkpt lat="41.6038350" lon="1.6403480">
        <ele>386.0</ele>
        <time>2018-09-23T12:19:34Z</time>
      </trkpt>
      <trkpt lat="41.6037600" lon="1.6403040">
        <ele>385.8</ele>
        <time>2018-09-23T12:19:35Z</time>
      </trkpt>
      <trkpt lat="41.6035670" lon="1.6400960">
        <ele>384.8</ele>
        <time>2018-09-23T12:19:38Z</time>
      </trkpt>
      <trkpt lat="41.6034570" lon="1.6399200">
        <ele>384.2</ele>
        <time>2018-09-23T12:19:40Z</time>
      </trkpt>
      <trkpt lat="41.6033530" lon="1.6397320">
        <ele>383.8</ele>
        <time>2018-09-23T12:19:42Z</time>
      </trkpt>
      <trkpt lat="41.6032030" lon="1.6394470">
        <ele>382.8</ele>
        <time>2018-09-23T12:19:45Z</time>
      </trkpt>
      <trkpt lat="41.6031050" lon="1.6392600">
        <ele>381.8</ele>
        <time>2018-09-23T12:19:47Z</time>
      </trkpt>
      <trkpt lat="41.6029700" lon="1.6389730">
        <ele>380.4</ele>
        <time>2018-09-23T12:19:50Z</time>
      </trkpt>
      <trkpt lat="41.6028740" lon="1.6386590">
        <ele>379.0</ele>
        <time>2018-09-23T12:19:53Z</time>
      </trkpt>
      <trkpt lat="41.6028290" lon="1.6384380">
        <ele>378.0</ele>
        <time>2018-09-23T12:19:55Z</time>
      </trkpt>
      <trkpt lat="41.6027980" lon="1.6382150">
        <ele>376.8</ele>
        <time>2018-09-23T12:19:57Z</time>
      </trkpt>
      <trkpt lat="41.6027360" lon="1.6377690">
        <ele>375.4</ele>
        <time>2018-09-23T12:20:01Z</time>
      </trkpt>
      <trkpt lat="41.6026810" lon="1.6374370">
        <ele>374.4</ele>
        <time>2018-09-23T12:20:04Z</time>
      </trkpt>
      <trkpt lat="41.6026050" lon="1.6371110">
        <ele>373.2</ele>
        <time>2018-09-23T12:20:07Z</time>
      </trkpt>
      <trkpt lat="41.6024940" lon="1.6367980">
        <ele>372.2</ele>
        <time>2018-09-23T12:20:10Z</time>
      </trkpt>
      <trkpt lat="41.6023430" lon="1.6365150">
        <ele>371.2</ele>
        <time>2018-09-23T12:20:13Z</time>
      </trkpt>
      <trkpt lat="41.6020830" lon="1.6361920">
        <ele>369.8</ele>
        <time>2018-09-23T12:20:17Z</time>
      </trkpt>
      <trkpt lat="41.6018500" lon="1.6359970">
        <ele>368.6</ele>
        <time>2018-09-23T12:20:20Z</time>
      </trkpt>
      <trkpt lat="41.6015890" lon="1.6358550">
        <ele>367.4</ele>
        <time>2018-09-23T12:20:23Z</time>
      </trkpt>
      <trkpt lat="41.6014970" lon="1.6358180">
        <ele>366.8</ele>
        <time>2018-09-23T12:20:24Z</time>
      </trkpt>
      <trkpt lat="41.6014020" lon="1.6357910">
        <ele>366.2</ele>
        <time>2018-09-23T12:20:25Z</time>
      </trkpt>
      <trkpt lat="41.6012040" lon="1.6357540">
        <ele>365.0</ele>
        <time>2018-09-23T12:20:27Z</time>
      </trkpt>
      <trkpt lat="41.6010030" lon="1.6357200">
        <ele>363.6</ele>
        <time>2018-09-23T12:20:29Z</time>
      </trkpt>
      <trkpt lat="41.6009030" lon="1.6357010">
        <ele>362.2</ele>
        <time>2018-09-23T12:20:30Z</time>
      </trkpt>
      <trkpt lat="41.6006990" lon="1.6356710">
        <ele>361.0</ele>
        <time>2018-09-23T12:20:32Z</time>
      </trkpt>
      <trkpt lat="41.6004910" lon="1.6356380">
        <ele>359.8</ele>
        <time>2018-09-23T12:20:34Z</time>
      </trkpt>
      <trkpt lat="41.6002770" lon="1.6355960">
        <ele>358.2</ele>
        <time>2018-09-23T12:20:36Z</time>
      </trkpt>
      <trkpt lat="41.6000600" lon="1.6355600">
        <ele>357.0</ele>
        <time>2018-09-23T12:20:38Z</time>
      </trkpt>
      <trkpt lat="41.5998420" lon="1.6355310">
        <ele>355.4</ele>
        <time>2018-09-23T12:20:40Z</time>
      </trkpt>
      <trkpt lat="41.5996360" lon="1.6354860">
        <ele>353.6</ele>
        <time>2018-09-23T12:20:42Z</time>
      </trkpt>
      <trkpt lat="41.5994390" lon="1.6354310">
        <ele>352.0</ele>
        <time>2018-09-23T12:20:44Z</time>
      </trkpt>
      <trkpt lat="41.5993450" lon="1.6354010">
        <ele>351.0</ele>
        <time>2018-09-23T12:20:45Z</time>
      </trkpt>
      <trkpt lat="41.5991740" lon="1.6353210">
        <ele>349.0</ele>
        <time>2018-09-23T12:20:47Z</time>
      </trkpt>
      <trkpt lat="41.5990180" lon="1.6352290">
        <ele>347.8</ele>
        <time>2018-09-23T12:20:49Z</time>
      </trkpt>
      <trkpt lat="41.5988790" lon="1.6351320">
        <ele>346.6</ele>
        <time>2018-09-23T12:20:51Z</time>
      </trkpt>
      <trkpt lat="41.5984010" lon="1.6346940">
        <ele>346.0</ele>
        <time>2018-09-23T12:21:01Z</time>
      </trkpt>
      <trkpt lat="41.5982480" lon="1.6345140">
        <ele>347.6</ele>
        <time>2018-09-23T12:21:06Z</time>
      </trkpt>
      <trkpt lat="41.5981320" lon="1.6343850">
        <ele>348.8</ele>
        <time>2018-09-23T12:21:10Z</time>
      </trkpt>
      <trkpt lat="41.5980450" lon="1.6342890">
        <ele>349.8</ele>
        <time>2018-09-23T12:21:13Z</time>
      </trkpt>
      <trkpt lat="41.5979600" lon="1.6341890">
        <ele>350.8</ele>
        <time>2018-09-23T12:21:16Z</time>
      </trkpt>
      <trkpt lat="41.5978500" lon="1.6340540">
        <ele>352.2</ele>
        <time>2018-09-23T12:21:20Z</time>
      </trkpt>
      <trkpt lat="41.5977360" lon="1.6339130">
        <ele>353.2</ele>
        <time>2018-09-23T12:21:24Z</time>
      </trkpt>
      <trkpt lat="41.5976230" lon="1.6337710">
        <ele>354.2</ele>
        <time>2018-09-23T12:21:28Z</time>
      </trkpt>
      <trkpt lat="41.5974790" lon="1.6335850">
        <ele>355.4</ele>
        <time>2018-09-23T12:21:33Z</time>
      </trkpt>
      <trkpt lat="41.5973640" lon="1.6334360">
        <ele>356.6</ele>
        <time>2018-09-23T12:21:37Z</time>
      </trkpt>
      <trkpt lat="41.5973360" lon="1.6333970">
        <ele>356.6</ele>
        <time>2018-09-23T12:21:38Z</time>
      </trkpt>
      <trkpt lat="41.5972210" lon="1.6332420">
        <ele>357.8</ele>
        <time>2018-09-23T12:21:42Z</time>
      </trkpt>
      <trkpt lat="41.5970550" lon="1.6330010">
        <ele>358.8</ele>
        <time>2018-09-23T12:21:48Z</time>
      </trkpt>
      <trkpt lat="41.5968600" lon="1.6327060">
        <ele>359.8</ele>
        <time>2018-09-23T12:21:56Z</time>
      </trkpt>
      <trkpt lat="41.5964820" lon="1.6321320">
        <ele>360.2</ele>
        <time>2018-09-23T12:22:11Z</time>
      </trkpt>
      <trkpt lat="41.5961100" lon="1.6315890">
        <ele>359.6</ele>
        <time>2018-09-23T12:22:26Z</time>
      </trkpt>
      <trkpt lat="41.5959500" lon="1.6313320">
        <ele>359.2</ele>
        <time>2018-09-23T12:22:33Z</time>
      </trkpt>
      <trkpt lat="41.5955820" lon="1.6307710">
        <ele>358.6</ele>
        <time>2018-09-23T12:22:49Z</time>
      </trkpt>
      <trkpt lat="41.5954220" lon="1.6304920">
        <ele>358.2</ele>
        <time>2018-09-23T12:22:56Z</time>
      </trkpt>
      <trkpt lat="41.5950380" lon="1.6299240">
        <ele>358.0</ele>
        <time>2018-09-23T12:23:12Z</time>
      </trkpt>
      <trkpt lat="41.5946490" lon="1.6293620">
        <ele>358.0</ele>
        <time>2018-09-23T12:23:28Z</time>
      </trkpt>
      <trkpt lat="41.5944830" lon="1.6291000">
        <ele>357.6</ele>
        <time>2018-09-23T12:23:35Z</time>
      </trkpt>
      <trkpt lat="41.5941790" lon="1.6285000">
        <ele>357.0</ele>
        <time>2018-09-23T12:23:50Z</time>
      </trkpt>
      <trkpt lat="41.5939970" lon="1.6283040">
        <ele>356.6</ele>
        <time>2018-09-23T12:23:56Z</time>
      </trkpt>
      <trkpt lat="41.5937220" lon="1.6279350">
        <ele>355.4</ele>
        <time>2018-09-23T12:24:04Z</time>
      </trkpt>
      <trkpt lat="41.5935220" lon="1.6276140">
        <ele>354.6</ele>
        <time>2018-09-23T12:24:10Z</time>
      </trkpt>
      <trkpt lat="41.5932820" lon="1.6272090">
        <ele>353.2</ele>
        <time>2018-09-23T12:24:17Z</time>
      </trkpt>
      <trkpt lat="41.5930320" lon="1.6267510">
        <ele>352.2</ele>
        <time>2018-09-23T12:24:25Z</time>
      </trkpt>
      <trkpt lat="41.5928560" lon="1.6264190">
        <ele>352.0</ele>
        <time>2018-09-23T12:24:31Z</time>
      </trkpt>
      <trkpt lat="41.5925510" lon="1.6257830">
        <ele>351.6</ele>
        <time>2018-09-23T12:24:42Z</time>
      </trkpt>
      <trkpt lat="41.5922870" lon="1.6251460">
        <ele>351.6</ele>
        <time>2018-09-23T12:24:53Z</time>
      </trkpt>
      <trkpt lat="41.5920730" lon="1.6244420">
        <ele>351.6</ele>
        <time>2018-09-23T12:25:06Z</time>
      </trkpt>
      <trkpt lat="41.5919000" lon="1.6237670">
        <ele>352.0</ele>
        <time>2018-09-23T12:25:21Z</time>
      </trkpt>
      <trkpt lat="41.5917170" lon="1.6230720">
        <ele>352.6</ele>
        <time>2018-09-23T12:25:36Z</time>
      </trkpt>
      <trkpt lat="41.5916110" lon="1.6223500">
        <ele>353.4</ele>
        <time>2018-09-23T12:25:54Z</time>
      </trkpt>
      <trkpt lat="41.5916190" lon="1.6221360">
        <ele>353.6</ele>
        <time>2018-09-23T12:26:00Z</time>
      </trkpt>
      <trkpt lat="41.5915430" lon="1.6218540">
        <ele>353.8</ele>
        <time>2018-09-23T12:26:09Z</time>
      </trkpt>
      <trkpt lat="41.5915720" lon="1.6218310">
        <ele>354.0</ele>
        <time>2018-09-23T12:26:14Z</time>
      </trkpt>
      <trkpt lat="41.5915390" lon="1.6217740">
        <ele>354.4</ele>
        <time>2018-09-23T12:28:10Z</time>
      </trkpt>
      <trkpt lat="41.5914400" lon="1.6210260">
        <ele>354.6</ele>
        <time>2018-09-23T12:28:23Z</time>
      </trkpt>
      <trkpt lat="41.5913590" lon="1.6204970">
        <ele>354.8</ele>
        <time>2018-09-23T12:28:32Z</time>
      </trkpt>
      <trkpt lat="41.5913410" lon="1.6202760">
        <ele>355.4</ele>
        <time>2018-09-23T12:28:36Z</time>
      </trkpt>
      <trkpt lat="41.5912920" lon="1.6199210">
        <ele>356.4</ele>
        <time>2018-09-23T12:28:43Z</time>
      </trkpt>
      <trkpt lat="41.5912110" lon="1.6194260">
        <ele>357.6</ele>
        <time>2018-09-23T12:28:53Z</time>
      </trkpt>
      <trkpt lat="41.5911620" lon="1.6189720">
        <ele>358.6</ele>
        <time>2018-09-23T12:29:02Z</time>
      </trkpt>
      <trkpt lat="41.5911500" lon="1.6184060">
        <ele>359.6</ele>
        <time>2018-09-23T12:29:13Z</time>
      </trkpt>
      <trkpt lat="41.5911470" lon="1.6180160">
        <ele>360.8</ele>
        <time>2018-09-23T12:29:21Z</time>
      </trkpt>
      <trkpt lat="41.5911830" lon="1.6176080">
        <ele>361.8</ele>
        <time>2018-09-23T12:29:29Z</time>
      </trkpt>
      <trkpt lat="41.5912250" lon="1.6171300">
        <ele>363.2</ele>
        <time>2018-09-23T12:29:38Z</time>
      </trkpt>
      <trkpt lat="41.5912570" lon="1.6167410">
        <ele>364.2</ele>
        <time>2018-09-23T12:29:45Z</time>
      </trkpt>
      <trkpt lat="41.5912980" lon="1.6162810">
        <ele>364.8</ele>
        <time>2018-09-23T12:29:53Z</time>
      </trkpt>
      <trkpt lat="41.5913800" lon="1.6157530">
        <ele>365.2</ele>
        <time>2018-09-23T12:30:03Z</time>
      </trkpt>
      <trkpt lat="41.5914440" lon="1.6154200">
        <ele>366.4</ele>
        <time>2018-09-23T12:30:10Z</time>
      </trkpt>
      <trkpt lat="41.5914990" lon="1.6151210">
        <ele>367.4</ele>
        <time>2018-09-23T12:30:16Z</time>
      </trkpt>
      <trkpt lat="41.5915550" lon="1.6147660">
        <ele>368.4</ele>
        <time>2018-09-23T12:30:24Z</time>
      </trkpt>
      <trkpt lat="41.5917080" lon="1.6140330">
        <ele>369.6</ele>
        <time>2018-09-23T12:30:40Z</time>
      </trkpt>
      <trkpt lat="41.5917590" lon="1.6138160">
        <ele>369.8</ele>
        <time>2018-09-23T12:30:46Z</time>
      </trkpt>
      <trkpt lat="41.5918580" lon="1.6137060">
        <ele>370.2</ele>
        <time>2018-09-23T12:30:58Z</time>
      </trkpt>
      <trkpt lat="41.5917810" lon="1.6131410">
        <ele>336.6</ele>
        <time>2018-09-23T05:57:21Z</time>
      </trkpt>
      <trkpt lat="41.5917810" lon="1.6131410">
        <ele>336.6</ele>
        <time>2018-09-23T05:57:40Z</time>
      </trkpt>
      <trkpt lat="41.5917550" lon="1.6131320">
        <ele>336.6</ele>
        <time>2018-09-23T05:57:41Z</time>
      </trkpt>
      <trkpt lat="41.5912110" lon="1.6129600">
        <ele>336.2</ele>
        <time>2018-09-23T05:57:58Z</time>
      </trkpt>
      <trkpt lat="41.5910510" lon="1.6129310">
        <ele>334.8</ele>
        <time>2018-09-23T05:58:06Z</time>
      </trkpt>
      <trkpt lat="41.5905640" lon="1.6127070">
        <ele>334.0</ele>
        <time>2018-09-23T05:58:23Z</time>
      </trkpt>
      <trkpt lat="41.5905320" lon="1.6127110">
        <ele>334.0</ele>
        <time>2018-09-23T05:58:24Z</time>
      </trkpt>
      <trkpt lat="41.5904340" lon="1.6129050">
        <ele>334.0</ele>
        <time>2018-09-23T05:58:29Z</time>
      </trkpt>
      <trkpt lat="41.5902380" lon="1.6135790">
        <ele>334.2</ele>
        <time>2018-09-23T05:58:42Z</time>
      </trkpt>
      <trkpt lat="41.5900570" lon="1.6140750">
        <ele>334.6</ele>
        <time>2018-09-23T05:58:51Z</time>
      </trkpt>
      <trkpt lat="41.5897880" lon="1.6147520">
        <ele>335.0</ele>
        <time>2018-09-23T05:59:03Z</time>
      </trkpt>
      <trkpt lat="41.5895340" lon="1.6153080">
        <ele>335.0</ele>
        <time>2018-09-23T05:59:13Z</time>
      </trkpt>
      <trkpt lat="41.5894170" lon="1.6154080">
        <ele>335.0</ele>
        <time>2018-09-23T05:59:16Z</time>
      </trkpt>
      <trkpt lat="41.5893780" lon="1.6156300">
        <ele>335.0</ele>
        <time>2018-09-23T05:59:20Z</time>
      </trkpt>
      <trkpt lat="41.5893780" lon="1.6157590">
        <ele>335.0</ele>
        <time>2018-09-23T05:59:22Z</time>
      </trkpt>
      <trkpt lat="41.5891450" lon="1.6164230">
        <ele>335.0</ele>
        <time>2018-09-23T05:59:33Z</time>
      </trkpt>
      <trkpt lat="41.5889090" lon="1.6170870">
        <ele>335.0</ele>
        <time>2018-09-23T05:59:43Z</time>
      </trkpt>
      <trkpt lat="41.5886580" lon="1.6177500">
        <ele>335.0</ele>
        <time>2018-09-23T05:59:53Z</time>
      </trkpt>
      <trkpt lat="41.5886000" lon="1.6178740">
        <ele>335.0</ele>
        <time>2018-09-23T05:59:55Z</time>
      </trkpt>
      <trkpt lat="41.5884870" lon="1.6181240">
        <ele>334.8</ele>
        <time>2018-09-23T05:59:59Z</time>
      </trkpt>
      <trkpt lat="41.5882340" lon="1.6185790">
        <ele>334.2</ele>
        <time>2018-09-23T06:00:06Z</time>
      </trkpt>
      <trkpt lat="41.5880330" lon="1.6191180">
        <ele>333.4</ele>
        <time>2018-09-23T06:00:13Z</time>
      </trkpt>
      <trkpt lat="41.5878820" lon="1.6195180">
        <ele>332.4</ele>
        <time>2018-09-23T06:00:18Z</time>
      </trkpt>
      <trkpt lat="41.5877390" lon="1.6199080">
        <ele>331.0</ele>
        <time>2018-09-23T06:00:23Z</time>
      </trkpt>
      <trkpt lat="41.5876190" lon="1.6202250">
        <ele>330.0</ele>
        <time>2018-09-23T06:00:27Z</time>
      </trkpt>
      <trkpt lat="41.5874780" lon="1.6205940">
        <ele>329.0</ele>
        <time>2018-09-23T06:00:32Z</time>
      </trkpt>
      <trkpt lat="41.5873060" lon="1.6206580">
        <ele>327.8</ele>
        <time>2018-09-23T06:00:36Z</time>
      </trkpt>
      <trkpt lat="41.5872630" lon="1.6206350">
        <ele>327.6</ele>
        <time>2018-09-23T06:00:37Z</time>
      </trkpt>
      <trkpt lat="41.5872220" lon="1.6206210">
        <ele>327.2</ele>
        <time>2018-09-23T06:00:38Z</time>
      </trkpt>
      <trkpt lat="41.5871530" lon="1.6206850">
        <ele>326.8</ele>
        <time>2018-09-23T06:00:41Z</time>
      </trkpt>
      <trkpt lat="41.5871590" lon="1.6207270">
        <ele>326.6</ele>
        <time>2018-09-23T06:00:42Z</time>
      </trkpt>
      <trkpt lat="41.5872010" lon="1.6207920">
        <ele>326.2</ele>
        <time>2018-09-23T06:00:44Z</time>
      </trkpt>
      <trkpt lat="41.5872400" lon="1.6208860">
        <ele>325.4</ele>
        <time>2018-09-23T06:00:47Z</time>
      </trkpt>
      <trkpt lat="41.5872480" lon="1.6211890">
        <ele>325.2</ele>
        <time>2018-09-23T06:00:57Z</time>
      </trkpt>
      <trkpt lat="41.5871710" lon="1.6213110">
        <ele>324.8</ele>
        <time>2018-09-23T06:01:21Z</time>
      </trkpt>
      <trkpt lat="41.5871470" lon="1.6212540">
        <ele>324.8</ele>
        <time>2018-09-23T06:01:27Z</time>
      </trkpt>
      <trkpt lat="41.5871340" lon="1.6212530">
        <ele>324.8</ele>
        <time>2018-09-23T06:01:28Z</time>
      </trkpt>
      <trkpt lat="41.5871090" lon="1.6212850">
        <ele>324.8</ele>
        <time>2018-09-23T06:01:34Z</time>
      </trkpt>
      <trkpt lat="41.5871090" lon="1.6212850">
        <ele>323.4</ele>
        <time>2018-09-23T06:12:07Z</time>
      </trkpt>
      <trkpt lat="41.5873170" lon="1.6211270">
        <ele>323.6</ele>
        <time>2018-09-23T06:12:09Z</time>
      </trkpt>
      <trkpt lat="41.5873760" lon="1.6211570">
        <ele>324.0</ele>
        <time>2018-09-23T06:12:13Z</time>
      </trkpt>
      <trkpt lat="41.5873960" lon="1.6212070">
        <ele>324.0</ele>
        <time>2018-09-23T06:12:15Z</time>
      </trkpt>
      <trkpt lat="41.5874380" lon="1.6211990">
        <ele>324.0</ele>
        <time>2018-09-23T06:12:17Z</time>
      </trkpt>
      <trkpt lat="41.5874820" lon="1.6211610">
        <ele>321.8</ele>
        <time>2018-09-23T06:12:19Z</time>
      </trkpt>
      <trkpt lat="41.5874990" lon="1.6211400">
        <ele>323.8</ele>
        <time>2018-09-23T06:12:20Z</time>
      </trkpt>
      <trkpt lat="41.5875150" lon="1.6211170">
        <ele>324.4</ele>
        <time>2018-09-23T06:12:21Z</time>
      </trkpt>
      <trkpt lat="41.5877580" lon="1.6210470">
        <ele>324.8</ele>
        <time>2018-09-23T06:12:32Z</time>
      </trkpt>
      <trkpt lat="41.5879500" lon="1.6211720">
        <ele>325.8</ele>
        <time>2018-09-23T06:12:42Z</time>
      </trkpt>
      <trkpt lat="41.5880470" lon="1.6212450">
        <ele>326.6</ele>
        <time>2018-09-23T06:12:47Z</time>
      </trkpt>
      <trkpt lat="41.5882930" lon="1.6214050">
        <ele>327.6</ele>
        <time>2018-09-23T06:13:00Z</time>
      </trkpt>
      <trkpt lat="41.5885020" lon="1.6215630">
        <ele>328.6</ele>
        <time>2018-09-23T06:13:11Z</time>
      </trkpt>
      <trkpt lat="41.5889900" lon="1.6219330">
        <ele>329.2</ele>
        <time>2018-09-23T06:13:34Z</time>
      </trkpt>
      <trkpt lat="41.5893630" lon="1.6224150">
        <ele>329.0</ele>
        <time>2018-09-23T06:13:56Z</time>
      </trkpt>
      <trkpt lat="41.5894590" lon="1.6227290">
        <ele>329.4</ele>
        <time>2018-09-23T06:14:06Z</time>
      </trkpt>
      <trkpt lat="41.5900030" lon="1.6225920">
        <ele>330.0</ele>
        <time>2018-09-23T06:14:21Z</time>
      </trkpt>
      <trkpt lat="41.5905330" lon="1.6224460">
        <ele>327.8</ele>
        <time>2018-09-23T06:14:30Z</time>
      </trkpt>
      <trkpt lat="41.5908120" lon="1.6223730">
        <ele>326.4</ele>
        <time>2018-09-23T06:14:34Z</time>
      </trkpt>
      <trkpt lat="41.5910340" lon="1.6223090">
        <ele>325.2</ele>
        <time>2018-09-23T06:14:37Z</time>
      </trkpt>
      <trkpt lat="41.5912670" lon="1.6222580">
        <ele>324.0</ele>
        <time>2018-09-23T06:14:40Z</time>
      </trkpt>
      <trkpt lat="41.5913430" lon="1.6222610">
        <ele>323.4</ele>
        <time>2018-09-23T06:14:41Z</time>
      </trkpt>
      <trkpt lat="41.5914120" lon="1.6222840">
        <ele>323.0</ele>
        <time>2018-09-23T06:14:42Z</time>
      </trkpt>
      <trkpt lat="41.5915420" lon="1.6224680">
        <ele>321.6</ele>
        <time>2018-09-23T06:14:45Z</time>
      </trkpt>
      <trkpt lat="41.5915990" lon="1.6227070">
        <ele>320.6</ele>
        <time>2018-09-23T06:14:48Z</time>
      </trkpt>
      <trkpt lat="41.5916670" lon="1.6230090">
        <ele>319.2</ele>
        <time>2018-09-23T06:14:52Z</time>
      </trkpt>
      <trkpt lat="41.5918160" lon="1.6237190">
        <ele>318.6</ele>
        <time>2018-09-23T06:15:03Z</time>
      </trkpt>
      <trkpt lat="41.5918400" lon="1.6238450">
        <ele>318.4</ele>
        <time>2018-09-23T06:15:05Z</time>
      </trkpt>
      <trkpt lat="41.5918440" lon="1.6241190">
        <ele>318.2</ele>
        <time>2018-09-23T06:15:09Z</time>
      </trkpt>
      <trkpt lat="41.5919810" lon="1.6243980">
        <ele>318.2</ele>
        <time>2018-09-23T06:15:14Z</time>
      </trkpt>
      <trkpt lat="41.5920140" lon="1.6244510">
        <ele>318.0</ele>
        <time>2018-09-23T06:15:15Z</time>
      </trkpt>
      <trkpt lat="41.5922420" lon="1.6251050">
        <ele>317.4</ele>
        <time>2018-09-23T06:15:26Z</time>
      </trkpt>
      <trkpt lat="41.5925000" lon="1.6257810">
        <ele>317.0</ele>
        <time>2018-09-23T06:15:38Z</time>
      </trkpt>
      <trkpt lat="41.5927890" lon="1.6264160">
        <ele>317.0</ele>
        <time>2018-09-23T06:15:50Z</time>
      </trkpt>
      <trkpt lat="41.5930910" lon="1.6270220">
        <ele>317.2</ele>
        <time>2018-09-23T06:16:02Z</time>
      </trkpt>
      <trkpt lat="41.5934430" lon="1.6276250">
        <ele>317.6</ele>
        <time>2018-09-23T06:16:15Z</time>
      </trkpt>
      <trkpt lat="41.5937850" lon="1.6281330">
        <ele>318.4</ele>
        <time>2018-09-23T06:16:27Z</time>
      </trkpt>
      <trkpt lat="41.5938640" lon="1.6282700">
        <ele>318.8</ele>
        <time>2018-09-23T06:16:30Z</time>
      </trkpt>
      <trkpt lat="41.5939290" lon="1.6284210">
        <ele>319.2</ele>
        <time>2018-09-23T06:16:33Z</time>
      </trkpt>
      <trkpt lat="41.5939560" lon="1.6285360">
        <ele>319.6</ele>
        <time>2018-09-23T06:16:35Z</time>
      </trkpt>
      <trkpt lat="41.5939720" lon="1.6285930">
        <ele>319.8</ele>
        <time>2018-09-23T06:16:36Z</time>
      </trkpt>
      <trkpt lat="41.5940980" lon="1.6287410">
        <ele>320.4</ele>
        <time>2018-09-23T06:16:40Z</time>
      </trkpt>
      <trkpt lat="41.5941360" lon="1.6287670">
        <ele>320.6</ele>
        <time>2018-09-23T06:16:41Z</time>
      </trkpt>
      <trkpt lat="41.5943490" lon="1.6289800">
        <ele>321.2</ele>
        <time>2018-09-23T06:16:47Z</time>
      </trkpt>
      <trkpt lat="41.5944090" lon="1.6290700">
        <ele>321.6</ele>
        <time>2018-09-23T06:16:49Z</time>
      </trkpt>
      <trkpt lat="41.5947090" lon="1.6295420">
        <ele>322.6</ele>
        <time>2018-09-23T06:16:59Z</time>
      </trkpt>
      <trkpt lat="41.5950890" lon="1.6301360">
        <ele>322.8</ele>
        <time>2018-09-23T06:17:11Z</time>
      </trkpt>
      <trkpt lat="41.5954200" lon="1.6306100">
        <ele>323.4</ele>
        <time>2018-09-23T06:17:21Z</time>
      </trkpt>
      <trkpt lat="41.5957960" lon="1.6311910">
        <ele>323.6</ele>
        <time>2018-09-23T06:17:32Z</time>
      </trkpt>
      <trkpt lat="41.5961760" lon="1.6317700">
        <ele>324.0</ele>
        <time>2018-09-23T06:17:43Z</time>
      </trkpt>
      <trkpt lat="41.5963010" lon="1.6319700">
        <ele>324.2</ele>
        <time>2018-09-23T06:17:47Z</time>
      </trkpt>
      <trkpt lat="41.5966690" lon="1.6325160">
        <ele>325.0</ele>
        <time>2018-09-23T06:17:59Z</time>
      </trkpt>
      <trkpt lat="41.5968200" lon="1.6327090">
        <ele>325.4</ele>
        <time>2018-09-23T06:18:04Z</time>
      </trkpt>
      <trkpt lat="41.5971210" lon="1.6328270">
        <ele>325.8</ele>
        <time>2018-09-23T06:18:11Z</time>
      </trkpt>
      <trkpt lat="41.5971650" lon="1.6328190">
        <ele>325.8</ele>
        <time>2018-09-23T06:18:12Z</time>
      </trkpt>
      <trkpt lat="41.5976570" lon="1.6327280">
        <ele>326.8</ele>
        <time>2018-09-23T06:18:24Z</time>
      </trkpt>
      <trkpt lat="41.5978200" lon="1.6326990">
        <ele>327.2</ele>
        <time>2018-09-23T06:18:28Z</time>
      </trkpt>
      <trkpt lat="41.5979740" lon="1.6326300">
        <ele>327.6</ele>
        <time>2018-09-23T06:18:32Z</time>
      </trkpt>
      <trkpt lat="41.5980790" lon="1.6325500">
        <ele>327.6</ele>
        <time>2018-09-23T06:18:35Z</time>
      </trkpt>
      <trkpt lat="41.5982170" lon="1.6325140">
        <ele>327.8</ele>
        <time>2018-09-23T06:18:38Z</time>
      </trkpt>
      <trkpt lat="41.5983930" lon="1.6324930">
        <ele>328.2</ele>
        <time>2018-09-23T06:18:42Z</time>
      </trkpt>
      <trkpt lat="41.5986310" lon="1.6324430">
        <ele>329.0</ele>
        <time>2018-09-23T06:18:49Z</time>
      </trkpt>
      <trkpt lat="41.5988170" lon="1.6324040">
        <ele>329.8</ele>
        <time>2018-09-23T06:18:55Z</time>
      </trkpt>
      <trkpt lat="41.5990970" lon="1.6323420">
        <ele>331.0</ele>
        <time>2018-09-23T06:19:03Z</time>
      </trkpt>
      <trkpt lat="41.5996370" lon="1.6322090">
        <ele>331.8</ele>
        <time>2018-09-23T06:19:18Z</time>
      </trkpt>
      <trkpt lat="41.5998930" lon="1.6321330">
        <ele>331.8</ele>
        <time>2018-09-23T06:19:25Z</time>
      </trkpt>
      <trkpt lat="41.6004270" lon="1.6319940">
        <ele>332.4</ele>
        <time>2018-09-23T06:19:41Z</time>
      </trkpt>
      <trkpt lat="41.6007010" lon="1.6319610">
        <ele>332.6</ele>
        <time>2018-09-23T06:19:49Z</time>
      </trkpt>
      <trkpt lat="41.6012500" lon="1.6318870">
        <ele>333.2</ele>
        <time>2018-09-23T06:20:05Z</time>
      </trkpt>
      <trkpt lat="41.6015220" lon="1.6318480">
        <ele>333.6</ele>
        <time>2018-09-23T06:20:13Z</time>
      </trkpt>
      <trkpt lat="41.6020640" lon="1.6317680">
        <ele>334.2</ele>
        <time>2018-09-23T06:20:28Z</time>
      </trkpt>
      <trkpt lat="41.6026050" lon="1.6316720">
        <ele>334.0</ele>
        <time>2018-09-23T06:20:40Z</time>
      </trkpt>
      <trkpt lat="41.6031680" lon="1.6315190">
        <ele>333.2</ele>
        <time>2018-09-23T06:20:55Z</time>
      </trkpt>
      <trkpt lat="41.6033580" lon="1.6314610">
        <ele>334.2</ele>
        <time>2018-09-23T06:21:00Z</time>
      </trkpt>
      <trkpt lat="41.6035160" lon="1.6313610">
        <ele>335.4</ele>
        <time>2018-09-23T06:21:05Z</time>
      </trkpt>
      <trkpt lat="41.6037330" lon="1.6310270">
        <ele>336.4</ele>
        <time>2018-09-23T06:21:14Z</time>
      </trkpt>
      <trkpt lat="41.6038990" lon="1.6308180">
        <ele>336.6</ele>
        <time>2018-09-23T06:21:19Z</time>
      </trkpt>
      <trkpt lat="41.6043740" lon="1.6304570">
        <ele>335.8</ele>
        <time>2018-09-23T06:21:29Z</time>
      </trkpt>
      <trkpt lat="41.6044670" lon="1.6303620">
        <ele>335.2</ele>
        <time>2018-09-23T06:21:31Z</time>
      </trkpt>
      <trkpt lat="41.6046950" lon="1.6301250">
        <ele>334.0</ele>
        <time>2018-09-23T06:21:37Z</time>
      </trkpt>
      <trkpt lat="41.6048460" lon="1.6299860">
        <ele>333.2</ele>
        <time>2018-09-23T06:21:41Z</time>
      </trkpt>
      <trkpt lat="41.6049370" lon="1.6299360">
        <ele>332.8</ele>
        <time>2018-09-23T06:21:43Z</time>
      </trkpt>
      <trkpt lat="41.6050320" lon="1.6299180">
        <ele>332.4</ele>
        <time>2018-09-23T06:21:45Z</time>
      </trkpt>
      <trkpt lat="41.6050780" lon="1.6299160">
        <ele>332.4</ele>
        <time>2018-09-23T06:21:46Z</time>
      </trkpt>
      <trkpt lat="41.6052530" lon="1.6300710">
        <ele>331.6</ele>
        <time>2018-09-23T06:21:51Z</time>
      </trkpt>
      <trkpt lat="41.6051820" lon="1.6302740">
        <ele>331.2</ele>
        <time>2018-09-23T06:21:55Z</time>
      </trkpt>
      <trkpt lat="41.6050800" lon="1.6309310">
        <ele>332.6</ele>
        <time>2018-09-23T06:22:10Z</time>
      </trkpt>
      <trkpt lat="41.6050850" lon="1.6311310">
        <ele>333.6</ele>
        <time>2018-09-23T06:22:15Z</time>
      </trkpt>
      <trkpt lat="41.6051110" lon="1.6313220">
        <ele>334.8</ele>
        <time>2018-09-23T06:22:20Z</time>
      </trkpt>
      <trkpt lat="41.6051470" lon="1.6315200">
        <ele>336.2</ele>
        <time>2018-09-23T06:22:25Z</time>
      </trkpt>
      <trkpt lat="41.6052760" lon="1.6316770">
        <ele>337.4</ele>
        <time>2018-09-23T06:22:30Z</time>
      </trkpt>
      <trkpt lat="41.6053350" lon="1.6318120">
        <ele>338.4</ele>
        <time>2018-09-23T06:22:34Z</time>
      </trkpt>
      <trkpt lat="41.6054110" lon="1.6318960">
        <ele>339.8</ele>
        <time>2018-09-23T06:22:37Z</time>
      </trkpt>
      <trkpt lat="41.6055100" lon="1.6319000">
        <ele>341.0</ele>
        <time>2018-09-23T06:22:40Z</time>
      </trkpt>
      <trkpt lat="41.6055960" lon="1.6318520">
        <ele>342.4</ele>
        <time>2018-09-23T06:22:43Z</time>
      </trkpt>
      <trkpt lat="41.6057440" lon="1.6317810">
        <ele>343.6</ele>
        <time>2018-09-23T06:22:48Z</time>
      </trkpt>
      <trkpt lat="41.6059330" lon="1.6316970">
        <ele>344.4</ele>
        <time>2018-09-23T06:22:55Z</time>
      </trkpt>
      <trkpt lat="41.6060860" lon="1.6316270">
        <ele>345.6</ele>
        <time>2018-09-23T06:23:01Z</time>
      </trkpt>
      <trkpt lat="41.6062140" lon="1.6315930">
        <ele>346.8</ele>
        <time>2018-09-23T06:23:06Z</time>
      </trkpt>
      <trkpt lat="41.6063310" lon="1.6315750">
        <ele>348.0</ele>
        <time>2018-09-23T06:23:11Z</time>
      </trkpt>
      <trkpt lat="41.6065420" lon="1.6315960">
        <ele>348.8</ele>
        <time>2018-09-23T06:23:20Z</time>
      </trkpt>
      <trkpt lat="41.6066570" lon="1.6316330">
        <ele>349.4</ele>
        <time>2018-09-23T06:23:25Z</time>
      </trkpt>
      <trkpt lat="41.6067030" lon="1.6316540">
        <ele>349.8</ele>
        <time>2018-09-23T06:23:27Z</time>
      </trkpt>
      <trkpt lat="41.6068330" lon="1.6317380">
        <ele>351.0</ele>
        <time>2018-09-23T06:23:33Z</time>
      </trkpt>
      <trkpt lat="41.6069850" lon="1.6318440">
        <ele>352.0</ele>
        <time>2018-09-23T06:23:40Z</time>
      </trkpt>
      <trkpt lat="41.6071270" lon="1.6319620">
        <ele>353.0</ele>
        <time>2018-09-23T06:23:47Z</time>
      </trkpt>
      <trkpt lat="41.6072400" lon="1.6321270">
        <ele>354.0</ele>
        <time>2018-09-23T06:23:54Z</time>
      </trkpt>
      <trkpt lat="41.6073770" lon="1.6323840">
        <ele>354.8</ele>
        <time>2018-09-23T06:24:03Z</time>
      </trkpt>
      <trkpt lat="41.6075680" lon="1.6326270">
        <ele>356.0</ele>
        <time>2018-09-23T06:24:12Z</time>
      </trkpt>
      <trkpt lat="41.6079690" lon="1.6331300">
        <ele>356.6</ele>
        <time>2018-09-23T06:24:30Z</time>
      </trkpt>
      <trkpt lat="41.6082750" lon="1.6337290">
        <ele>356.6</ele>
        <time>2018-09-23T06:24:46Z</time>
      </trkpt>
      <trkpt lat="41.6085240" lon="1.6338850">
        <ele>356.8</ele>
        <time>2018-09-23T06:24:55Z</time>
      </trkpt>
      <trkpt lat="41.6088340" lon="1.6339430">
        <ele>357.8</ele>
        <time>2018-09-23T06:25:05Z</time>
      </trkpt>
      <trkpt lat="41.6090260" lon="1.6339610">
        <ele>358.6</ele>
        <time>2018-09-23T06:25:11Z</time>
      </trkpt>
      <trkpt lat="41.6092440" lon="1.6339730">
        <ele>359.6</ele>
        <time>2018-09-23T06:25:18Z</time>
      </trkpt>
      <trkpt lat="41.6094820" lon="1.6339220">
        <ele>360.6</ele>
        <time>2018-09-23T06:25:26Z</time>
      </trkpt>
      <trkpt lat="41.6096530" lon="1.6338550">
        <ele>362.0</ele>
        <time>2018-09-23T06:25:32Z</time>
      </trkpt>
      <trkpt lat="41.6101900" lon="1.6336810">
        <ele>362.4</ele>
        <time>2018-09-23T06:25:49Z</time>
      </trkpt>
      <trkpt lat="41.6107370" lon="1.6335450">
        <ele>362.8</ele>
        <time>2018-09-23T06:26:06Z</time>
      </trkpt>
      <trkpt lat="41.6107690" lon="1.6335390">
        <ele>362.8</ele>
        <time>2018-09-23T06:26:07Z</time>
      </trkpt>
      <trkpt lat="41.6113150" lon="1.6334290">
        <ele>363.6</ele>
        <time>2018-09-23T06:26:25Z</time>
      </trkpt>
      <trkpt lat="41.6114440" lon="1.6333650">
        <ele>363.8</ele>
        <time>2018-09-23T06:26:29Z</time>
      </trkpt>
      <trkpt lat="41.6117610" lon="1.6327920">
        <ele>363.0</ele>
        <time>2018-09-23T06:26:45Z</time>
      </trkpt>
      <trkpt lat="41.6118670" lon="1.6326800">
        <ele>362.8</ele>
        <time>2018-09-23T06:26:49Z</time>
      </trkpt>
      <trkpt lat="41.6119780" lon="1.6328460">
        <ele>362.6</ele>
        <time>2018-09-23T06:26:54Z</time>
      </trkpt>
      <trkpt lat="41.6123020" lon="1.6334100">
        <ele>363.6</ele>
        <time>2018-09-23T06:27:12Z</time>
      </trkpt>
      <trkpt lat="41.6127620" lon="1.6333490">
        <ele>364.4</ele>
        <time>2018-09-23T06:27:26Z</time>
      </trkpt>
      <trkpt lat="41.6132240" lon="1.6331640">
        <ele>364.8</ele>
        <time>2018-09-23T06:27:40Z</time>
      </trkpt>
      <trkpt lat="41.6134300" lon="1.6333850">
        <ele>364.6</ele>
        <time>2018-09-23T06:27:47Z</time>
      </trkpt>
      <trkpt lat="41.6137080" lon="1.6340370">
        <ele>364.6</ele>
        <time>2018-09-23T06:28:01Z</time>
      </trkpt>
      <trkpt lat="41.6138190" lon="1.6341180">
        <ele>364.8</ele>
        <time>2018-09-23T06:28:04Z</time>
      </trkpt>
      <trkpt lat="41.6141600" lon="1.6340140">
        <ele>365.0</ele>
        <time>2018-09-23T06:28:13Z</time>
      </trkpt>
      <trkpt lat="41.6145890" lon="1.6335130">
        <ele>364.8</ele>
        <time>2018-09-23T06:28:27Z</time>
      </trkpt>
      <trkpt lat="41.6149440" lon="1.6331180">
        <ele>364.6</ele>
        <time>2018-09-23T06:28:37Z</time>
      </trkpt>
      <trkpt lat="41.6151760" lon="1.6327790">
        <ele>363.6</ele>
        <time>2018-09-23T06:28:44Z</time>
      </trkpt>
      <trkpt lat="41.6154270" lon="1.6325850">
        <ele>363.0</ele>
        <time>2018-09-23T06:28:50Z</time>
      </trkpt>
      <trkpt lat="41.6156470" lon="1.6325770">
        <ele>362.4</ele>
        <time>2018-09-23T06:28:55Z</time>
      </trkpt>
      <trkpt lat="41.6157370" lon="1.6325900">
        <ele>362.0</ele>
        <time>2018-09-23T06:28:57Z</time>
      </trkpt>
      <trkpt lat="41.6159720" lon="1.6324300">
        <ele>362.0</ele>
        <time>2018-09-23T06:29:04Z</time>
      </trkpt>
      <trkpt lat="41.6163610" lon="1.6322920">
        <ele>363.8</ele>
        <time>2018-09-23T06:29:16Z</time>
      </trkpt>
      <trkpt lat="41.6164600" lon="1.6324110">
        <ele>364.8</ele>
        <time>2018-09-23T06:29:20Z</time>
      </trkpt>
      <trkpt lat="41.6164670" lon="1.6324540">
        <ele>364.8</ele>
        <time>2018-09-23T06:29:21Z</time>
      </trkpt>
      <trkpt lat="41.6165550" lon="1.6325900">
        <ele>366.0</ele>
        <time>2018-09-23T06:29:26Z</time>
      </trkpt>
      <trkpt lat="41.6166550" lon="1.6326210">
        <ele>367.0</ele>
        <time>2018-09-23T06:29:30Z</time>
      </trkpt>
      <trkpt lat="41.6166740" lon="1.6326290">
        <ele>367.2</ele>
        <time>2018-09-23T06:29:31Z</time>
      </trkpt>
      <trkpt lat="41.6167190" lon="1.6326440">
        <ele>368.0</ele>
        <time>2018-09-23T06:29:33Z</time>
      </trkpt>
      <trkpt lat="41.6167890" lon="1.6326490">
        <ele>369.2</ele>
        <time>2018-09-23T06:29:36Z</time>
      </trkpt>
      <trkpt lat="41.6168560" lon="1.6326320">
        <ele>370.4</ele>
        <time>2018-09-23T06:29:39Z</time>
      </trkpt>
      <trkpt lat="41.6169120" lon="1.6326060">
        <ele>371.4</ele>
        <time>2018-09-23T06:29:42Z</time>
      </trkpt>
      <trkpt lat="41.6169780" lon="1.6325550">
        <ele>372.6</ele>
        <time>2018-09-23T06:29:45Z</time>
      </trkpt>
      <trkpt lat="41.6170380" lon="1.6325090">
        <ele>373.6</ele>
        <time>2018-09-23T06:29:48Z</time>
      </trkpt>
      <trkpt lat="41.6171030" lon="1.6325310">
        <ele>375.0</ele>
        <time>2018-09-23T06:29:51Z</time>
      </trkpt>
      <trkpt lat="41.6171650" lon="1.6325810">
        <ele>376.4</ele>
        <time>2018-09-23T06:29:54Z</time>
      </trkpt>
      <trkpt lat="41.6172120" lon="1.6326660">
        <ele>377.6</ele>
        <time>2018-09-23T06:29:58Z</time>
      </trkpt>
      <trkpt lat="41.6171960" lon="1.6327450">
        <ele>379.0</ele>
        <time>2018-09-23T06:30:02Z</time>
      </trkpt>
      <trkpt lat="41.6171620" lon="1.6328330">
        <ele>380.0</ele>
        <time>2018-09-23T06:30:07Z</time>
      </trkpt>
      <trkpt lat="41.6171020" lon="1.6329870">
        <ele>381.0</ele>
        <time>2018-09-23T06:30:15Z</time>
      </trkpt>
      <trkpt lat="41.6170210" lon="1.6332540">
        <ele>382.0</ele>
        <time>2018-09-23T06:30:27Z</time>
      </trkpt>
      <trkpt lat="41.6169360" lon="1.6334910">
        <ele>383.0</ele>
        <time>2018-09-23T06:30:37Z</time>
      </trkpt>
      <trkpt lat="41.6167630" lon="1.6336850">
        <ele>383.8</ele>
        <time>2018-09-23T06:30:47Z</time>
      </trkpt>
      <trkpt lat="41.6166340" lon="1.6338670">
        <ele>385.0</ele>
        <time>2018-09-23T06:30:55Z</time>
      </trkpt>
      <trkpt lat="41.6165500" lon="1.6341300">
        <ele>386.2</ele>
        <time>2018-09-23T06:31:03Z</time>
      </trkpt>
      <trkpt lat="41.6165670" lon="1.6343440">
        <ele>387.0</ele>
        <time>2018-09-23T06:31:08Z</time>
      </trkpt>
      <trkpt lat="41.6165880" lon="1.6344790">
        <ele>388.2</ele>
        <time>2018-09-23T06:31:11Z</time>
      </trkpt>
      <trkpt lat="41.6166290" lon="1.6346510">
        <ele>389.4</ele>
        <time>2018-09-23T06:31:15Z</time>
      </trkpt>
      <trkpt lat="41.6166860" lon="1.6347770">
        <ele>390.4</ele>
        <time>2018-09-23T06:31:18Z</time>
      </trkpt>
      <trkpt lat="41.6168120" lon="1.6348860">
        <ele>391.4</ele>
        <time>2018-09-23T06:31:22Z</time>
      </trkpt>
      <trkpt lat="41.6169570" lon="1.6348800">
        <ele>392.6</ele>
        <time>2018-09-23T06:31:26Z</time>
      </trkpt>
      <trkpt lat="41.6171300" lon="1.6347890">
        <ele>393.8</ele>
        <time>2018-09-23T06:31:31Z</time>
      </trkpt>
      <trkpt lat="41.6172460" lon="1.6346840">
        <ele>395.0</ele>
        <time>2018-09-23T06:31:35Z</time>
      </trkpt>
      <trkpt lat="41.6173670" lon="1.6345110">
        <ele>396.2</ele>
        <time>2018-09-23T06:31:40Z</time>
      </trkpt>
      <trkpt lat="41.6174880" lon="1.6342600">
        <ele>397.2</ele>
        <time>2018-09-23T06:31:46Z</time>
      </trkpt>
      <trkpt lat="41.6175980" lon="1.6340190">
        <ele>398.0</ele>
        <time>2018-09-23T06:31:52Z</time>
      </trkpt>
      <trkpt lat="41.6177660" lon="1.6336360">
        <ele>399.2</ele>
        <time>2018-09-23T06:32:02Z</time>
      </trkpt>
      <trkpt lat="41.6179720" lon="1.6332220">
        <ele>400.2</ele>
        <time>2018-09-23T06:32:14Z</time>
      </trkpt>
      <trkpt lat="41.6181990" lon="1.6328670">
        <ele>400.8</ele>
        <time>2018-09-23T06:32:28Z</time>
      </trkpt>
      <trkpt lat="41.6183170" lon="1.6326890">
        <ele>401.0</ele>
        <time>2018-09-23T06:32:36Z</time>
      </trkpt>
      <trkpt lat="41.6184740" lon="1.6324640">
        <ele>401.4</ele>
        <time>2018-09-23T06:32:49Z</time>
      </trkpt>
      <trkpt lat="41.6185140" lon="1.6324940">
        <ele>401.0</ele>
        <time>2018-09-23T06:36:27Z</time>
      </trkpt>
      <trkpt lat="41.6189510" lon="1.6325860">
        <ele>400.8</ele>
        <time>2018-09-23T06:36:36Z</time>
      </trkpt>
      <trkpt lat="41.6191450" lon="1.6326050">
        <ele>400.0</ele>
        <time>2018-09-23T06:36:39Z</time>
      </trkpt>
      <trkpt lat="41.6193190" lon="1.6326460">
        <ele>398.8</ele>
        <time>2018-09-23T06:36:42Z</time>
      </trkpt>
      <trkpt lat="41.6195710" lon="1.6327290">
        <ele>397.8</ele>
        <time>2018-09-23T06:36:47Z</time>
      </trkpt>
      <trkpt lat="41.6197060" lon="1.6327770">
        <ele>397.8</ele>
        <time>2018-09-23T06:36:50Z</time>
      </trkpt>
      <trkpt lat="41.6199290" lon="1.6327770">
        <ele>397.8</ele>
        <time>2018-09-23T06:36:55Z</time>
      </trkpt>
      <trkpt lat="41.6201470" lon="1.6327380">
        <ele>398.8</ele>
        <time>2018-09-23T06:37:01Z</time>
      </trkpt>
      <trkpt lat="41.6202740" lon="1.6327110">
        <ele>400.0</ele>
        <time>2018-09-23T06:37:05Z</time>
      </trkpt>
      <trkpt lat="41.6203510" lon="1.6326800">
        <ele>400.6</ele>
        <time>2018-09-23T06:37:07Z</time>
      </trkpt>
      <trkpt lat="41.6203950" lon="1.6326550">
        <ele>401.4</ele>
        <time>2018-09-23T06:37:08Z</time>
      </trkpt>
      <trkpt lat="41.6205680" lon="1.6325460">
        <ele>401.4</ele>
        <time>2018-09-23T06:37:12Z</time>
      </trkpt>
      <trkpt lat="41.6208230" lon="1.6324600">
        <ele>401.4</ele>
        <time>2018-09-23T06:37:16Z</time>
      </trkpt>
      <trkpt lat="41.6212170" lon="1.6323970">
        <ele>400.0</ele>
        <time>2018-09-23T06:37:21Z</time>
      </trkpt>
      <trkpt lat="41.6212860" lon="1.6323670">
        <ele>399.6</ele>
        <time>2018-09-23T06:37:22Z</time>
      </trkpt>
      <trkpt lat="41.6214040" lon="1.6322900">
        <ele>398.6</ele>
        <time>2018-09-23T06:37:24Z</time>
      </trkpt>
      <trkpt lat="41.6214620" lon="1.6322570">
        <ele>398.0</ele>
        <time>2018-09-23T06:37:25Z</time>
      </trkpt>
      <trkpt lat="41.6215220" lon="1.6322270">
        <ele>397.4</ele>
        <time>2018-09-23T06:37:26Z</time>
      </trkpt>
      <trkpt lat="41.6216990" lon="1.6321500">
        <ele>396.0</ele>
        <time>2018-09-23T06:37:29Z</time>
      </trkpt>
      <trkpt lat="41.6218610" lon="1.6320900">
        <ele>395.4</ele>
        <time>2018-09-23T06:37:32Z</time>
      </trkpt>
      <trkpt lat="41.6220220" lon="1.6320870">
        <ele>394.8</ele>
        <time>2018-09-23T06:37:35Z</time>
      </trkpt>
      <trkpt lat="41.6224980" lon="1.6324110">
        <ele>393.8</ele>
        <time>2018-09-23T06:37:47Z</time>
      </trkpt>
      <trkpt lat="41.6225270" lon="1.6324480">
        <ele>393.6</ele>
        <time>2018-09-23T06:37:48Z</time>
      </trkpt>
      <trkpt lat="41.6229430" lon="1.6329210">
        <ele>392.8</ele>
        <time>2018-09-23T06:38:02Z</time>
      </trkpt>
      <trkpt lat="41.6229750" lon="1.6329490">
        <ele>392.8</ele>
        <time>2018-09-23T06:38:03Z</time>
      </trkpt>
      <trkpt lat="41.6231310" lon="1.6330030">
        <ele>392.6</ele>
        <time>2018-09-23T06:38:07Z</time>
      </trkpt>
      <trkpt lat="41.6231700" lon="1.6330050">
        <ele>392.4</ele>
        <time>2018-09-23T06:38:08Z</time>
      </trkpt>
      <trkpt lat="41.6237180" lon="1.6330470">
        <ele>392.0</ele>
        <time>2018-09-23T06:38:23Z</time>
      </trkpt>
      <trkpt lat="41.6240510" lon="1.6336070">
        <ele>393.4</ele>
        <time>2018-09-23T06:38:43Z</time>
      </trkpt>
      <trkpt lat="41.6240650" lon="1.6336290">
        <ele>393.6</ele>
        <time>2018-09-23T06:38:44Z</time>
      </trkpt>
      <trkpt lat="41.6241190" lon="1.6337230">
        <ele>394.8</ele>
        <time>2018-09-23T06:38:48Z</time>
      </trkpt>
      <trkpt lat="41.6241630" lon="1.6338570">
        <ele>395.8</ele>
        <time>2018-09-23T06:38:52Z</time>
      </trkpt>
      <trkpt lat="41.6241430" lon="1.6342810">
        <ele>396.4</ele>
        <time>2018-09-23T06:39:00Z</time>
      </trkpt>
      <trkpt lat="41.6239000" lon="1.6348010">
        <ele>397.0</ele>
        <time>2018-09-23T06:39:15Z</time>
      </trkpt>
      <trkpt lat="41.6237830" lon="1.6349020">
        <ele>398.0</ele>
        <time>2018-09-23T06:39:20Z</time>
      </trkpt>
      <trkpt lat="41.6236460" lon="1.6349360">
        <ele>399.2</ele>
        <time>2018-09-23T06:39:25Z</time>
      </trkpt>
      <trkpt lat="41.6235410" lon="1.6348940">
        <ele>400.2</ele>
        <time>2018-09-23T06:39:29Z</time>
      </trkpt>
      <trkpt lat="41.6234100" lon="1.6348610">
        <ele>401.2</ele>
        <time>2018-09-23T06:39:34Z</time>
      </trkpt>
      <trkpt lat="41.6232300" lon="1.6349580">
        <ele>402.4</ele>
        <time>2018-09-23T06:39:41Z</time>
      </trkpt>
      <trkpt lat="41.6230890" lon="1.6350930">
        <ele>403.6</ele>
        <time>2018-09-23T06:39:47Z</time>
      </trkpt>
      <trkpt lat="41.6229620" lon="1.6352440">
        <ele>404.6</ele>
        <time>2018-09-23T06:39:52Z</time>
      </trkpt>
      <trkpt lat="41.6228960" lon="1.6354630">
        <ele>405.8</ele>
        <time>2018-09-23T06:39:58Z</time>
      </trkpt>
      <trkpt lat="41.6229260" lon="1.6355260">
        <ele>405.8</ele>
        <time>2018-09-23T06:40:00Z</time>
      </trkpt>
      <trkpt lat="41.6230570" lon="1.6355230">
        <ele>406.6</ele>
        <time>2018-09-23T06:40:04Z</time>
      </trkpt>
      <trkpt lat="41.6231210" lon="1.6355090">
        <ele>406.8</ele>
        <time>2018-09-23T06:40:06Z</time>
      </trkpt>
      <trkpt lat="41.6232680" lon="1.6354660">
        <ele>408.2</ele>
        <time>2018-09-23T06:40:11Z</time>
      </trkpt>
      <trkpt lat="41.6233770" lon="1.6354120">
        <ele>409.4</ele>
        <time>2018-09-23T06:40:15Z</time>
      </trkpt>
      <trkpt lat="41.6234880" lon="1.6353680">
        <ele>410.4</ele>
        <time>2018-09-23T06:40:19Z</time>
      </trkpt>
      <trkpt lat="41.6236320" lon="1.6353490">
        <ele>411.4</ele>
        <time>2018-09-23T06:40:24Z</time>
      </trkpt>
      <trkpt lat="41.6237570" lon="1.6353630">
        <ele>412.8</ele>
        <time>2018-09-23T06:40:28Z</time>
      </trkpt>
      <trkpt lat="41.6239190" lon="1.6353870">
        <ele>413.8</ele>
        <time>2018-09-23T06:40:33Z</time>
      </trkpt>
      <trkpt lat="41.6241250" lon="1.6354150">
        <ele>415.0</ele>
        <time>2018-09-23T06:40:39Z</time>
      </trkpt>
      <trkpt lat="41.6246650" lon="1.6353210">
        <ele>416.0</ele>
        <time>2018-09-23T06:40:53Z</time>
      </trkpt>
      <trkpt lat="41.6247020" lon="1.6353140">
        <ele>416.0</ele>
        <time>2018-09-23T06:40:54Z</time>
      </trkpt>
      <trkpt lat="41.6251930" lon="1.6352730">
        <ele>417.0</ele>
        <time>2018-09-23T06:41:07Z</time>
      </trkpt>
      <trkpt lat="41.6254250" lon="1.6352750">
        <ele>418.2</ele>
        <time>2018-09-23T06:41:13Z</time>
      </trkpt>
      <trkpt lat="41.6256590" lon="1.6352820">
        <ele>419.2</ele>
        <time>2018-09-23T06:41:18Z</time>
      </trkpt>
      <trkpt lat="41.6261840" lon="1.6350430">
        <ele>419.4</ele>
        <time>2018-09-23T06:41:31Z</time>
      </trkpt>
      <trkpt lat="41.6262080" lon="1.6350260">
        <ele>419.6</ele>
        <time>2018-09-23T06:41:33Z</time>
      </trkpt>
      <trkpt lat="41.6262110" lon="1.6350250">
        <ele>419.8</ele>
        <time>2018-09-23T06:41:35Z</time>
      </trkpt>
      <trkpt lat="41.6262350" lon="1.6350210">
        <ele>420.0</ele>
        <time>2018-09-23T06:42:10Z</time>
      </trkpt>
      <trkpt lat="41.6263930" lon="1.6350390">
        <ele>420.0</ele>
        <time>2018-09-23T06:42:15Z</time>
      </trkpt>
      <trkpt lat="41.6265280" lon="1.6352190">
        <ele>420.0</ele>
        <time>2018-09-23T06:42:19Z</time>
      </trkpt>
      <trkpt lat="41.6266200" lon="1.6353960">
        <ele>419.8</ele>
        <time>2018-09-23T06:42:22Z</time>
      </trkpt>
      <trkpt lat="41.6268300" lon="1.6354920">
        <ele>419.0</ele>
        <time>2018-09-23T06:42:27Z</time>
      </trkpt>
      <trkpt lat="41.6270300" lon="1.6355040">
        <ele>418.6</ele>
        <time>2018-09-23T06:42:31Z</time>
      </trkpt>
      <trkpt lat="41.6273440" lon="1.6355680">
        <ele>417.6</ele>
        <time>2018-09-23T06:42:39Z</time>
      </trkpt>
      <trkpt lat="41.6275430" lon="1.6354710">
        <ele>417.4</ele>
        <time>2018-09-23T06:42:44Z</time>
      </trkpt>
      <trkpt lat="41.6277770" lon="1.6354190">
        <ele>417.2</ele>
        <time>2018-09-23T06:42:49Z</time>
      </trkpt>
      <trkpt lat="41.6280140" lon="1.6353370">
        <ele>416.6</ele>
        <time>2018-09-23T06:42:54Z</time>
      </trkpt>
      <trkpt lat="41.6284010" lon="1.6352440">
        <ele>415.4</ele>
        <time>2018-09-23T06:43:02Z</time>
      </trkpt>
      <trkpt lat="41.6285440" lon="1.6352630">
        <ele>415.2</ele>
        <time>2018-09-23T06:43:05Z</time>
      </trkpt>
      <trkpt lat="41.6287270" lon="1.6354180">
        <ele>414.4</ele>
        <time>2018-09-23T06:43:10Z</time>
      </trkpt>
      <trkpt lat="41.6288070" lon="1.6355420">
        <ele>414.4</ele>
        <time>2018-09-23T06:43:13Z</time>
      </trkpt>
      <trkpt lat="41.6288290" lon="1.6355880">
        <ele>414.4</ele>
        <time>2018-09-23T06:43:14Z</time>
      </trkpt>
      <trkpt lat="41.6288680" lon="1.6357980">
        <ele>414.2</ele>
        <time>2018-09-23T06:43:18Z</time>
      </trkpt>
      <trkpt lat="41.6287700" lon="1.6365440">
        <ele>414.2</ele>
        <time>2018-09-23T06:43:33Z</time>
      </trkpt>
      <trkpt lat="41.6288080" lon="1.6367470">
        <ele>414.4</ele>
        <time>2018-09-23T06:43:37Z</time>
      </trkpt>
      <trkpt lat="41.6290580" lon="1.6368010">
        <ele>414.4</ele>
        <time>2018-09-23T06:43:44Z</time>
      </trkpt>
      <trkpt lat="41.6295910" lon="1.6365570">
        <ele>414.6</ele>
        <time>2018-09-23T06:43:58Z</time>
      </trkpt>
      <trkpt lat="41.6297840" lon="1.6365030">
        <ele>414.6</ele>
        <time>2018-09-23T06:44:02Z</time>
      </trkpt>
      <trkpt lat="41.6298840" lon="1.6364520">
        <ele>414.6</ele>
        <time>2018-09-23T06:44:04Z</time>
      </trkpt>
      <trkpt lat="41.6302170" lon="1.6362150">
        <ele>413.8</ele>
        <time>2018-09-23T06:44:11Z</time>
      </trkpt>
      <trkpt lat="41.6303620" lon="1.6361530">
        <ele>413.0</ele>
        <time>2018-09-23T06:44:14Z</time>
      </trkpt>
      <trkpt lat="41.6308300" lon="1.6360530">
        <ele>412.0</ele>
        <time>2018-09-23T06:44:23Z</time>
      </trkpt>
      <trkpt lat="41.6309790" lon="1.6359960">
        <ele>411.8</ele>
        <time>2018-09-23T06:44:26Z</time>
      </trkpt>
      <trkpt lat="41.6312370" lon="1.6360420">
        <ele>411.0</ele>
        <time>2018-09-23T06:44:32Z</time>
      </trkpt>
      <trkpt lat="41.6313190" lon="1.6361780">
        <ele>410.6</ele>
        <time>2018-09-23T06:44:35Z</time>
      </trkpt>
      <trkpt lat="41.6313470" lon="1.6362240">
        <ele>410.6</ele>
        <time>2018-09-23T06:44:36Z</time>
      </trkpt>
      <trkpt lat="41.6315340" lon="1.6363820">
        <ele>410.4</ele>
        <time>2018-09-23T06:44:41Z</time>
      </trkpt>
      <trkpt lat="41.6316250" lon="1.6364380">
        <ele>410.4</ele>
        <time>2018-09-23T06:44:43Z</time>
      </trkpt>
      <trkpt lat="41.6317430" lon="1.6367540">
        <ele>410.0</ele>
        <time>2018-09-23T06:44:49Z</time>
      </trkpt>
      <trkpt lat="41.6317550" lon="1.6368120">
        <ele>409.8</ele>
        <time>2018-09-23T06:44:50Z</time>
      </trkpt>
      <trkpt lat="41.6319460" lon="1.6370030">
        <ele>409.0</ele>
        <time>2018-09-23T06:44:55Z</time>
      </trkpt>
      <trkpt lat="41.6322290" lon="1.6371630">
        <ele>408.6</ele>
        <time>2018-09-23T06:45:00Z</time>
      </trkpt>
      <trkpt lat="41.6322870" lon="1.6371950">
        <ele>408.4</ele>
        <time>2018-09-23T06:45:01Z</time>
      </trkpt>
      <trkpt lat="41.6324690" lon="1.6372000">
        <ele>407.4</ele>
        <time>2018-09-23T06:45:04Z</time>
      </trkpt>
      <trkpt lat="41.6325320" lon="1.6371810">
        <ele>406.8</ele>
        <time>2018-09-23T06:45:05Z</time>
      </trkpt>
      <trkpt lat="41.6326750" lon="1.6371500">
        <ele>406.0</ele>
        <time>2018-09-23T06:45:07Z</time>
      </trkpt>
      <trkpt lat="41.6327490" lon="1.6371310">
        <ele>405.8</ele>
        <time>2018-09-23T06:45:08Z</time>
      </trkpt>
      <trkpt lat="41.6329510" lon="1.6369990">
        <ele>405.0</ele>
        <time>2018-09-23T06:45:11Z</time>
      </trkpt>
      <trkpt lat="41.6331920" lon="1.6368830">
        <ele>403.6</ele>
        <time>2018-09-23T06:45:15Z</time>
      </trkpt>
      <trkpt lat="41.6332830" lon="1.6369810">
        <ele>402.4</ele>
        <time>2018-09-23T06:45:17Z</time>
      </trkpt>
      <trkpt lat="41.6333210" lon="1.6370450">
        <ele>402.0</ele>
        <time>2018-09-23T06:45:18Z</time>
      </trkpt>
      <trkpt lat="41.6333590" lon="1.6371100">
        <ele>401.4</ele>
        <time>2018-09-23T06:45:19Z</time>
      </trkpt>
      <trkpt lat="41.6334430" lon="1.6372280">
        <ele>401.0</ele>
        <time>2018-09-23T06:45:21Z</time>
      </trkpt>
      <trkpt lat="41.6334440" lon="1.6374930">
        <ele>400.2</ele>
        <time>2018-09-23T06:45:26Z</time>
      </trkpt>
      <trkpt lat="41.6334150" lon="1.6375460">
        <ele>399.6</ele>
        <time>2018-09-23T06:45:27Z</time>
      </trkpt>
      <trkpt lat="41.6333510" lon="1.6376430">
        <ele>398.8</ele>
        <time>2018-09-23T06:45:29Z</time>
      </trkpt>
      <trkpt lat="41.6329420" lon="1.6381090">
        <ele>399.8</ele>
        <time>2018-09-23T06:45:43Z</time>
      </trkpt>
      <trkpt lat="41.6328760" lon="1.6382020">
        <ele>400.8</ele>
        <time>2018-09-23T06:45:46Z</time>
      </trkpt>
      <trkpt lat="41.6328180" lon="1.6382960">
        <ele>402.0</ele>
        <time>2018-09-23T06:45:49Z</time>
      </trkpt>
      <trkpt lat="41.6327750" lon="1.6384020">
        <ele>403.2</ele>
        <time>2018-09-23T06:45:52Z</time>
      </trkpt>
      <trkpt lat="41.6327560" lon="1.6384820">
        <ele>404.2</ele>
        <time>2018-09-23T06:45:54Z</time>
      </trkpt>
      <trkpt lat="41.6327480" lon="1.6386070">
        <ele>405.4</ele>
        <time>2018-09-23T06:45:57Z</time>
      </trkpt>
      <trkpt lat="41.6327690" lon="1.6387280">
        <ele>406.4</ele>
        <time>2018-09-23T06:46:00Z</time>
      </trkpt>
      <trkpt lat="41.6328170" lon="1.6388330">
        <ele>407.2</ele>
        <time>2018-09-23T06:46:03Z</time>
      </trkpt>
      <trkpt lat="41.6328880" lon="1.6389100">
        <ele>408.6</ele>
        <time>2018-09-23T06:46:06Z</time>
      </trkpt>
      <trkpt lat="41.6329430" lon="1.6389510">
        <ele>409.6</ele>
        <time>2018-09-23T06:46:08Z</time>
      </trkpt>
      <trkpt lat="41.6330180" lon="1.6390300">
        <ele>410.8</ele>
        <time>2018-09-23T06:46:11Z</time>
      </trkpt>
      <trkpt lat="41.6330860" lon="1.6391040">
        <ele>412.0</ele>
        <time>2018-09-23T06:46:14Z</time>
      </trkpt>
      <trkpt lat="41.6331330" lon="1.6391590">
        <ele>413.0</ele>
        <time>2018-09-23T06:46:16Z</time>
      </trkpt>
      <trkpt lat="41.6332030" lon="1.6392420">
        <ele>414.4</ele>
        <time>2018-09-23T06:46:19Z</time>
      </trkpt>
      <trkpt lat="41.6332530" lon="1.6393380">
        <ele>415.8</ele>
        <time>2018-09-23T06:46:22Z</time>
      </trkpt>
      <trkpt lat="41.6332900" lon="1.6395280">
        <ele>417.0</ele>
        <time>2018-09-23T06:46:27Z</time>
      </trkpt>
      <trkpt lat="41.6332740" lon="1.6396870">
        <ele>418.0</ele>
        <time>2018-09-23T06:46:31Z</time>
      </trkpt>
      <trkpt lat="41.6332470" lon="1.6398370">
        <ele>419.0</ele>
        <time>2018-09-23T06:46:35Z</time>
      </trkpt>
      <trkpt lat="41.6332270" lon="1.6400570">
        <ele>420.2</ele>
        <time>2018-09-23T06:46:41Z</time>
      </trkpt>
      <trkpt lat="41.6332400" lon="1.6401160">
        <ele>421.0</ele>
        <time>2018-09-23T06:46:43Z</time>
      </trkpt>
      <trkpt lat="41.6332770" lon="1.6401440">
        <ele>421.4</ele>
        <time>2018-09-23T06:46:45Z</time>
      </trkpt>
      <trkpt lat="41.6333680" lon="1.6401400">
        <ele>422.4</ele>
        <time>2018-09-23T06:46:50Z</time>
      </trkpt>
      <trkpt lat="41.6334620" lon="1.6401050">
        <ele>423.6</ele>
        <time>2018-09-23T06:46:56Z</time>
      </trkpt>
      <trkpt lat="41.6336550" lon="1.6399590">
        <ele>424.6</ele>
        <time>2018-09-23T06:47:10Z</time>
      </trkpt>
      <trkpt lat="41.6339240" lon="1.6397730">
        <ele>425.6</ele>
        <time>2018-09-23T06:47:27Z</time>
      </trkpt>
      <trkpt lat="41.6341380" lon="1.6397700">
        <ele>426.8</ele>
        <time>2018-09-23T06:47:36Z</time>
      </trkpt>
      <trkpt lat="41.6343060" lon="1.6398650">
        <ele>427.8</ele>
        <time>2018-09-23T06:47:43Z</time>
      </trkpt>
      <trkpt lat="41.6344770" lon="1.6400140">
        <ele>429.0</ele>
        <time>2018-09-23T06:47:51Z</time>
      </trkpt>
      <trkpt lat="41.6345590" lon="1.6401600">
        <ele>430.0</ele>
        <time>2018-09-23T06:47:56Z</time>
      </trkpt>
      <trkpt lat="41.6346390" lon="1.6402980">
        <ele>431.4</ele>
        <time>2018-09-23T06:48:01Z</time>
      </trkpt>
      <trkpt lat="41.6347380" lon="1.6402920">
        <ele>432.6</ele>
        <time>2018-09-23T06:48:05Z</time>
      </trkpt>
      <trkpt lat="41.6350080" lon="1.6401880">
        <ele>433.6</ele>
        <time>2018-09-23T06:48:14Z</time>
      </trkpt>
      <trkpt lat="41.6352380" lon="1.6403160">
        <ele>434.6</ele>
        <time>2018-09-23T06:48:22Z</time>
      </trkpt>
      <trkpt lat="41.6353340" lon="1.6405730">
        <ele>435.8</ele>
        <time>2018-09-23T06:48:29Z</time>
      </trkpt>
      <trkpt lat="41.6353320" lon="1.6407450">
        <ele>437.0</ele>
        <time>2018-09-23T06:48:33Z</time>
      </trkpt>
      <trkpt lat="41.6353570" lon="1.6408570">
        <ele>438.0</ele>
        <time>2018-09-23T06:48:36Z</time>
      </trkpt>
      <trkpt lat="41.6354240" lon="1.6409310">
        <ele>439.0</ele>
        <time>2018-09-23T06:48:39Z</time>
      </trkpt>
      <trkpt lat="41.6355430" lon="1.6410010">
        <ele>440.0</ele>
        <time>2018-09-23T06:48:43Z</time>
      </trkpt>
      <trkpt lat="41.6357300" lon="1.6410630">
        <ele>441.2</ele>
        <time>2018-09-23T06:48:49Z</time>
      </trkpt>
      <trkpt lat="41.6358890" lon="1.6411060">
        <ele>442.0</ele>
        <time>2018-09-23T06:48:54Z</time>
      </trkpt>
      <trkpt lat="41.6360860" lon="1.6411630">
        <ele>443.2</ele>
        <time>2018-09-23T06:49:00Z</time>
      </trkpt>
      <trkpt lat="41.6362350" lon="1.6412310">
        <ele>444.2</ele>
        <time>2018-09-23T06:49:05Z</time>
      </trkpt>
      <trkpt lat="41.6363690" lon="1.6413610">
        <ele>445.4</ele>
        <time>2018-09-23T06:49:10Z</time>
      </trkpt>
      <trkpt lat="41.6364930" lon="1.6415870">
        <ele>446.4</ele>
        <time>2018-09-23T06:49:16Z</time>
      </trkpt>
      <trkpt lat="41.6365700" lon="1.6417470">
        <ele>447.6</ele>
        <time>2018-09-23T06:49:20Z</time>
      </trkpt>
      <trkpt lat="41.6366770" lon="1.6418680">
        <ele>448.8</ele>
        <time>2018-09-23T06:49:24Z</time>
      </trkpt>
      <trkpt lat="41.6368310" lon="1.6419970">
        <ele>450.0</ele>
        <time>2018-09-23T06:49:29Z</time>
      </trkpt>
      <trkpt lat="41.6369310" lon="1.6420480">
        <ele>450.2</ele>
        <time>2018-09-23T06:49:32Z</time>
      </trkpt>
      <trkpt lat="41.6371480" lon="1.6420700">
        <ele>450.2</ele>
        <time>2018-09-23T06:49:37Z</time>
      </trkpt>
      <trkpt lat="41.6373810" lon="1.6424260">
        <ele>450.2</ele>
        <time>2018-09-23T06:49:45Z</time>
      </trkpt>
      <trkpt lat="41.6373910" lon="1.6424860">
        <ele>450.2</ele>
        <time>2018-09-23T06:49:46Z</time>
      </trkpt>
      <trkpt lat="41.6372930" lon="1.6429130">
        <ele>451.0</ele>
        <time>2018-09-23T06:49:54Z</time>
      </trkpt>
      <trkpt lat="41.6373410" lon="1.6431140">
        <ele>452.0</ele>
        <time>2018-09-23T06:49:58Z</time>
      </trkpt>
      <trkpt lat="41.6374410" lon="1.6432080">
        <ele>452.8</ele>
        <time>2018-09-23T06:50:01Z</time>
      </trkpt>
      <trkpt lat="41.6374770" lon="1.6432280">
        <ele>453.2</ele>
        <time>2018-09-23T06:50:02Z</time>
      </trkpt>
      <trkpt lat="41.6375990" lon="1.6432790">
        <ele>454.2</ele>
        <time>2018-09-23T06:50:05Z</time>
      </trkpt>
      <trkpt lat="41.6376400" lon="1.6432930">
        <ele>454.6</ele>
        <time>2018-09-23T06:50:06Z</time>
      </trkpt>
      <trkpt lat="41.6376800" lon="1.6433120">
        <ele>455.0</ele>
        <time>2018-09-23T06:50:07Z</time>
      </trkpt>
      <trkpt lat="41.6377930" lon="1.6434610">
        <ele>455.6</ele>
        <time>2018-09-23T06:50:11Z</time>
      </trkpt>
      <trkpt lat="41.6378270" lon="1.6438000">
        <ele>456.6</ele>
        <time>2018-09-23T06:50:17Z</time>
      </trkpt>
      <trkpt lat="41.6377520" lon="1.6440280">
        <ele>457.0</ele>
        <time>2018-09-23T06:50:21Z</time>
      </trkpt>
      <trkpt lat="41.6376360" lon="1.6443080">
        <ele>457.0</ele>
        <time>2018-09-23T06:50:26Z</time>
      </trkpt>
      <trkpt lat="41.6373640" lon="1.6449800">
        <ele>457.0</ele>
        <time>2018-09-23T06:50:39Z</time>
      </trkpt>
      <trkpt lat="41.6369840" lon="1.6455350">
        <ele>457.0</ele>
        <time>2018-09-23T06:50:49Z</time>
      </trkpt>
      <trkpt lat="41.6369250" lon="1.6456640">
        <ele>456.6</ele>
        <time>2018-09-23T06:50:51Z</time>
      </trkpt>
      <trkpt lat="41.6369170" lon="1.6460270">
        <ele>455.6</ele>
        <time>2018-09-23T06:50:56Z</time>
      </trkpt>
      <trkpt lat="41.6369520" lon="1.6461870">
        <ele>455.4</ele>
        <time>2018-09-23T06:50:58Z</time>
      </trkpt>
      <trkpt lat="41.6370550" lon="1.6465770">
        <ele>455.4</ele>
        <time>2018-09-23T06:51:03Z</time>
      </trkpt>
      <trkpt lat="41.6374520" lon="1.6471580">
        <ele>456.2</ele>
        <time>2018-09-23T06:51:13Z</time>
      </trkpt>
      <trkpt lat="41.6374930" lon="1.6472190">
        <ele>456.6</ele>
        <time>2018-09-23T06:51:14Z</time>
      </trkpt>
      <trkpt lat="41.6377470" lon="1.6475620">
        <ele>457.6</ele>
        <time>2018-09-23T06:51:26Z</time>
      </trkpt>
      <trkpt lat="41.6377470" lon="1.6475610">
        <ele>457.6</ele>
        <time>2018-09-23T06:51:27Z</time>
      </trkpt>
      <trkpt lat="41.6378090" lon="1.6474240">
        <ele>460.4</ele>
        <time>2018-09-23T06:54:24Z</time>
      </trkpt>
      <trkpt lat="41.6379680" lon="1.6471850">
        <ele>461.4</ele>
        <time>2018-09-23T06:54:37Z</time>
      </trkpt>
      <trkpt lat="41.6380840" lon="1.6470300">
        <ele>462.8</ele>
        <time>2018-09-23T06:54:43Z</time>
      </trkpt>
      <trkpt lat="41.6381580" lon="1.6468760">
        <ele>464.0</ele>
        <time>2018-09-23T06:54:48Z</time>
      </trkpt>
      <trkpt lat="41.6381990" lon="1.6467450">
        <ele>465.0</ele>
        <time>2018-09-23T06:54:52Z</time>
      </trkpt>
      <trkpt lat="41.6382120" lon="1.6466080">
        <ele>466.2</ele>
        <time>2018-09-23T06:54:56Z</time>
      </trkpt>
      <trkpt lat="41.6382280" lon="1.6465100">
        <ele>467.2</ele>
        <time>2018-09-23T06:54:59Z</time>
      </trkpt>
      <trkpt lat="41.6382530" lon="1.6464100">
        <ele>468.2</ele>
        <time>2018-09-23T06:55:02Z</time>
      </trkpt>
      <trkpt lat="41.6382950" lon="1.6462920">
        <ele>469.6</ele>
        <time>2018-09-23T06:55:06Z</time>
      </trkpt>
      <trkpt lat="41.6383220" lon="1.6461010">
        <ele>470.8</ele>
        <time>2018-09-23T06:55:11Z</time>
      </trkpt>
      <trkpt lat="41.6383420" lon="1.6459440">
        <ele>471.8</ele>
        <time>2018-09-23T06:55:15Z</time>
      </trkpt>
      <trkpt lat="41.6383970" lon="1.6455270">
        <ele>473.0</ele>
        <time>2018-09-23T06:55:26Z</time>
      </trkpt>
      <trkpt lat="41.6384100" lon="1.6452930">
        <ele>474.2</ele>
        <time>2018-09-23T06:55:32Z</time>
      </trkpt>
      <trkpt lat="41.6384260" lon="1.6451430">
        <ele>475.2</ele>
        <time>2018-09-23T06:55:36Z</time>
      </trkpt>
      <trkpt lat="41.6384440" lon="1.6449910">
        <ele>476.4</ele>
        <time>2018-09-23T06:55:40Z</time>
      </trkpt>
      <trkpt lat="41.6384840" lon="1.6448430">
        <ele>477.4</ele>
        <time>2018-09-23T06:55:44Z</time>
      </trkpt>
      <trkpt lat="41.6385330" lon="1.6446980">
        <ele>478.8</ele>
        <time>2018-09-23T06:55:48Z</time>
      </trkpt>
      <trkpt lat="41.6385730" lon="1.6445980">
        <ele>480.2</ele>
        <time>2018-09-23T06:55:51Z</time>
      </trkpt>
      <trkpt lat="41.6385930" lon="1.6444690">
        <ele>481.4</ele>
        <time>2018-09-23T06:55:55Z</time>
      </trkpt>
      <trkpt lat="41.6385890" lon="1.6443490">
        <ele>482.4</ele>
        <time>2018-09-23T06:55:59Z</time>
      </trkpt>
      <trkpt lat="41.6385730" lon="1.6442410">
        <ele>483.6</ele>
        <time>2018-09-23T06:56:03Z</time>
      </trkpt>
      <trkpt lat="41.6385980" lon="1.6440530">
        <ele>484.8</ele>
        <time>2018-09-23T06:56:10Z</time>
      </trkpt>
      <trkpt lat="41.6387650" lon="1.6439810">
        <ele>485.8</ele>
        <time>2018-09-23T06:56:18Z</time>
      </trkpt>
      <trkpt lat="41.6389120" lon="1.6438440">
        <ele>487.0</ele>
        <time>2018-09-23T06:56:25Z</time>
      </trkpt>
      <trkpt lat="41.6390260" lon="1.6435670">
        <ele>488.2</ele>
        <time>2018-09-23T06:56:35Z</time>
      </trkpt>
      <trkpt lat="41.6390660" lon="1.6434250">
        <ele>489.4</ele>
        <time>2018-09-23T06:56:40Z</time>
      </trkpt>
      <trkpt lat="41.6390880" lon="1.6433450">
        <ele>490.4</ele>
        <time>2018-09-23T06:56:43Z</time>
      </trkpt>
      <trkpt lat="41.6392000" lon="1.6432110">
        <ele>491.4</ele>
        <time>2018-09-23T06:56:50Z</time>
      </trkpt>
      <trkpt lat="41.6393840" lon="1.6432720">
        <ele>492.4</ele>
        <time>2018-09-23T06:56:58Z</time>
      </trkpt>
      <trkpt lat="41.6394670" lon="1.6433580">
        <ele>494.2</ele>
        <time>2018-09-23T06:57:02Z</time>
      </trkpt>
      <trkpt lat="41.6395590" lon="1.6434290">
        <ele>495.2</ele>
        <time>2018-09-23T06:57:06Z</time>
      </trkpt>
      <trkpt lat="41.6396750" lon="1.6435040">
        <ele>496.4</ele>
        <time>2018-09-23T06:57:11Z</time>
      </trkpt>
      <trkpt lat="41.6397750" lon="1.6435230">
        <ele>497.6</ele>
        <time>2018-09-23T06:57:15Z</time>
      </trkpt>
      <trkpt lat="41.6397830" lon="1.6435240">
        <ele>498.0</ele>
        <time>2018-09-23T06:57:17Z</time>
      </trkpt>
      <trkpt lat="41.6398030" lon="1.6435290">
        <ele>499.2</ele>
        <time>2018-09-23T06:57:23Z</time>
      </trkpt>
      <trkpt lat="41.6400670" lon="1.6435910">
        <ele>500.4</ele>
        <time>2018-09-23T06:57:33Z</time>
      </trkpt>
      <trkpt lat="41.6401500" lon="1.6435750">
        <ele>501.4</ele>
        <time>2018-09-23T06:57:36Z</time>
      </trkpt>
      <trkpt lat="41.6402040" lon="1.6435500">
        <ele>502.8</ele>
        <time>2018-09-23T06:57:38Z</time>
      </trkpt>
      <trkpt lat="41.6402750" lon="1.6434860">
        <ele>504.0</ele>
        <time>2018-09-23T06:57:41Z</time>
      </trkpt>
      <trkpt lat="41.6403320" lon="1.6433990">
        <ele>505.2</ele>
        <time>2018-09-23T06:57:44Z</time>
      </trkpt>
      <trkpt lat="41.6404120" lon="1.6432900">
        <ele>506.4</ele>
        <time>2018-09-23T06:57:48Z</time>
      </trkpt>
      <trkpt lat="41.6405240" lon="1.6432060">
        <ele>507.8</ele>
        <time>2018-09-23T06:57:53Z</time>
      </trkpt>
      <trkpt lat="41.6406210" lon="1.6431610">
        <ele>509.0</ele>
        <time>2018-09-23T06:57:57Z</time>
      </trkpt>
      <trkpt lat="41.6406530" lon="1.6431130">
        <ele>509.6</ele>
        <time>2018-09-23T06:57:59Z</time>
      </trkpt>
      <trkpt lat="41.6406430" lon="1.6430560">
        <ele>510.0</ele>
        <time>2018-09-23T06:58:01Z</time>
      </trkpt>
      <trkpt lat="41.6405210" lon="1.6430330">
        <ele>511.2</ele>
        <time>2018-09-23T06:58:06Z</time>
      </trkpt>
      <trkpt lat="41.6404950" lon="1.6430430">
        <ele>511.4</ele>
        <time>2018-09-23T06:58:07Z</time>
      </trkpt>
      <trkpt lat="41.6404440" lon="1.6430640">
        <ele>512.2</ele>
        <time>2018-09-23T06:58:09Z</time>
      </trkpt>
      <trkpt lat="41.6403470" lon="1.6431110">
        <ele>513.4</ele>
        <time>2018-09-23T06:58:13Z</time>
      </trkpt>
      <trkpt lat="41.6402270" lon="1.6431380">
        <ele>514.6</ele>
        <time>2018-09-23T06:58:18Z</time>
      </trkpt>
      <trkpt lat="41.6401310" lon="1.6431420">
        <ele>515.8</ele>
        <time>2018-09-23T06:58:22Z</time>
      </trkpt>
      <trkpt lat="41.6400420" lon="1.6430770">
        <ele>516.8</ele>
        <time>2018-09-23T06:58:26Z</time>
      </trkpt>
      <trkpt lat="41.6399620" lon="1.6429900">
        <ele>518.0</ele>
        <time>2018-09-23T06:58:30Z</time>
      </trkpt>
      <trkpt lat="41.6398590" lon="1.6428470">
        <ele>519.2</ele>
        <time>2018-09-23T06:58:36Z</time>
      </trkpt>
      <trkpt lat="41.6398600" lon="1.6428160">
        <ele>519.4</ele>
        <time>2018-09-23T06:58:37Z</time>
      </trkpt>
      <trkpt lat="41.6398950" lon="1.6427320">
        <ele>520.4</ele>
        <time>2018-09-23T06:58:40Z</time>
      </trkpt>
      <trkpt lat="41.6399120" lon="1.6427110">
        <ele>520.6</ele>
        <time>2018-09-23T06:58:41Z</time>
      </trkpt>
      <trkpt lat="41.6399720" lon="1.6426630">
        <ele>521.6</ele>
        <time>2018-09-23T06:58:44Z</time>
      </trkpt>
      <trkpt lat="41.6400650" lon="1.6426290">
        <ele>522.4</ele>
        <time>2018-09-23T06:58:48Z</time>
      </trkpt>
      <trkpt lat="41.6402100" lon="1.6426020">
        <ele>523.4</ele>
        <time>2018-09-23T06:58:54Z</time>
      </trkpt>
      <trkpt lat="41.6403610" lon="1.6426150">
        <ele>524.6</ele>
        <time>2018-09-23T06:59:00Z</time>
      </trkpt>
      <trkpt lat="41.6404850" lon="1.6426230">
        <ele>525.6</ele>
        <time>2018-09-23T06:59:05Z</time>
      </trkpt>
      <trkpt lat="41.6405740" lon="1.6426260">
        <ele>526.6</ele>
        <time>2018-09-23T06:59:09Z</time>
      </trkpt>
      <trkpt lat="41.6406920" lon="1.6426370">
        <ele>527.8</ele>
        <time>2018-09-23T06:59:14Z</time>
      </trkpt>
      <trkpt lat="41.6408600" lon="1.6426720">
        <ele>528.8</ele>
        <time>2018-09-23T06:59:22Z</time>
      </trkpt>
      <trkpt lat="41.6409660" lon="1.6427230">
        <ele>529.8</ele>
        <time>2018-09-23T06:59:27Z</time>
      </trkpt>
      <trkpt lat="41.6410630" lon="1.6428010">
        <ele>531.0</ele>
        <time>2018-09-23T06:59:32Z</time>
      </trkpt>
      <trkpt lat="41.6411670" lon="1.6428660">
        <ele>532.2</ele>
        <time>2018-09-23T06:59:37Z</time>
      </trkpt>
      <trkpt lat="41.6412310" lon="1.6429010">
        <ele>533.4</ele>
        <time>2018-09-23T06:59:40Z</time>
      </trkpt>
      <trkpt lat="41.6412880" lon="1.6429380">
        <ele>534.4</ele>
        <time>2018-09-23T06:59:43Z</time>
      </trkpt>
      <trkpt lat="41.6413870" lon="1.6429570">
        <ele>535.6</ele>
        <time>2018-09-23T06:59:48Z</time>
      </trkpt>
      <trkpt lat="41.6414630" lon="1.6429510">
        <ele>536.8</ele>
        <time>2018-09-23T06:59:52Z</time>
      </trkpt>
      <trkpt lat="41.6415390" lon="1.6429340">
        <ele>538.2</ele>
        <time>2018-09-23T06:59:56Z</time>
      </trkpt>
      <trkpt lat="41.6415860" lon="1.6429120">
        <ele>539.2</ele>
        <time>2018-09-23T06:59:59Z</time>
      </trkpt>
      <trkpt lat="41.6416340" lon="1.6428730">
        <ele>540.2</ele>
        <time>2018-09-23T07:00:03Z</time>
      </trkpt>
      <trkpt lat="41.6416340" lon="1.6428750">
        <ele>540.8</ele>
        <time>2018-09-23T07:00:05Z</time>
      </trkpt>
      <trkpt lat="41.6416650" lon="1.6429170">
        <ele>542.6</ele>
        <time>2018-09-23T07:01:00Z</time>
      </trkpt>
      <trkpt lat="41.6417140" lon="1.6429660">
        <ele>542.8</ele>
        <time>2018-09-23T07:01:04Z</time>
      </trkpt>
      <trkpt lat="41.6418160" lon="1.6431590">
        <ele>543.6</ele>
        <time>2018-09-23T07:01:13Z</time>
      </trkpt>
      <trkpt lat="41.6418710" lon="1.6432390">
        <ele>544.6</ele>
        <time>2018-09-23T07:01:17Z</time>
      </trkpt>
      <trkpt lat="41.6419380" lon="1.6433010">
        <ele>545.8</ele>
        <time>2018-09-23T07:01:21Z</time>
      </trkpt>
      <trkpt lat="41.6420080" lon="1.6433430">
        <ele>547.0</ele>
        <time>2018-09-23T07:01:25Z</time>
      </trkpt>
      <trkpt lat="41.6421230" lon="1.6433320">
        <ele>548.0</ele>
        <time>2018-09-23T07:01:30Z</time>
      </trkpt>
      <trkpt lat="41.6422470" lon="1.6432760">
        <ele>549.2</ele>
        <time>2018-09-23T07:01:35Z</time>
      </trkpt>
      <trkpt lat="41.6423740" lon="1.6432280">
        <ele>550.2</ele>
        <time>2018-09-23T07:01:40Z</time>
      </trkpt>
      <trkpt lat="41.6424680" lon="1.6431880">
        <ele>551.4</ele>
        <time>2018-09-23T07:01:44Z</time>
      </trkpt>
      <trkpt lat="41.6425630" lon="1.6431390">
        <ele>552.6</ele>
        <time>2018-09-23T07:01:48Z</time>
      </trkpt>
      <trkpt lat="41.6426580" lon="1.6430860">
        <ele>553.6</ele>
        <time>2018-09-23T07:01:52Z</time>
      </trkpt>
      <trkpt lat="41.6427560" lon="1.6430280">
        <ele>554.8</ele>
        <time>2018-09-23T07:01:56Z</time>
      </trkpt>
      <trkpt lat="41.6428750" lon="1.6429560">
        <ele>555.8</ele>
        <time>2018-09-23T07:02:01Z</time>
      </trkpt>
      <trkpt lat="41.6430080" lon="1.6428770">
        <ele>557.2</ele>
        <time>2018-09-23T07:02:07Z</time>
      </trkpt>
      <trkpt lat="41.6431010" lon="1.6428380">
        <ele>558.4</ele>
        <time>2018-09-23T07:02:11Z</time>
      </trkpt>
      <trkpt lat="41.6431700" lon="1.6428160">
        <ele>559.6</ele>
        <time>2018-09-23T07:02:14Z</time>
      </trkpt>
      <trkpt lat="41.6432410" lon="1.6428070">
        <ele>560.8</ele>
        <time>2018-09-23T07:02:17Z</time>
      </trkpt>
      <trkpt lat="41.6432920" lon="1.6428050">
        <ele>562.0</ele>
        <time>2018-09-23T07:02:19Z</time>
      </trkpt>
      <trkpt lat="41.6433900" lon="1.6428100">
        <ele>563.2</ele>
        <time>2018-09-23T07:02:23Z</time>
      </trkpt>
      <trkpt lat="41.6434590" lon="1.6428270">
        <ele>564.2</ele>
        <time>2018-09-23T07:02:26Z</time>
      </trkpt>
      <trkpt lat="41.6435490" lon="1.6428580">
        <ele>565.4</ele>
        <time>2018-09-23T07:02:30Z</time>
      </trkpt>
      <trkpt lat="41.6436400" lon="1.6428950">
        <ele>566.8</ele>
        <time>2018-09-23T07:02:34Z</time>
      </trkpt>
      <trkpt lat="41.6437110" lon="1.6429160">
        <ele>568.0</ele>
        <time>2018-09-23T07:02:37Z</time>
      </trkpt>
      <trkpt lat="41.6438290" lon="1.6429590">
        <ele>568.8</ele>
        <time>2018-09-23T07:02:42Z</time>
      </trkpt>
      <trkpt lat="41.6438920" lon="1.6429930">
        <ele>570.0</ele>
        <time>2018-09-23T07:02:45Z</time>
      </trkpt>
      <trkpt lat="41.6439750" lon="1.6430330">
        <ele>571.0</ele>
        <time>2018-09-23T07:02:49Z</time>
      </trkpt>
      <trkpt lat="41.6440760" lon="1.6430620">
        <ele>572.4</ele>
        <time>2018-09-23T07:02:54Z</time>
      </trkpt>
      <trkpt lat="41.6441370" lon="1.6430840">
        <ele>573.6</ele>
        <time>2018-09-23T07:02:57Z</time>
      </trkpt>
      <trkpt lat="41.6442140" lon="1.6431090">
        <ele>574.6</ele>
        <time>2018-09-23T07:03:01Z</time>
      </trkpt>
      <trkpt lat="41.6443110" lon="1.6431210">
        <ele>575.6</ele>
        <time>2018-09-23T07:03:06Z</time>
      </trkpt>
      <trkpt lat="41.6443880" lon="1.6431160">
        <ele>577.0</ele>
        <time>2018-09-23T07:03:10Z</time>
      </trkpt>
      <trkpt lat="41.6444820" lon="1.6430910">
        <ele>578.2</ele>
        <time>2018-09-23T07:03:15Z</time>
      </trkpt>
      <trkpt lat="41.6445500" lon="1.6430610">
        <ele>579.0</ele>
        <time>2018-09-23T07:03:19Z</time>
      </trkpt>
      <trkpt lat="41.6446140" lon="1.6430090">
        <ele>580.0</ele>
        <time>2018-09-23T07:03:23Z</time>
      </trkpt>
      <trkpt lat="41.6446820" lon="1.6429430">
        <ele>581.2</ele>
        <time>2018-09-23T07:03:27Z</time>
      </trkpt>
      <trkpt lat="41.6447320" lon="1.6428930">
        <ele>582.2</ele>
        <time>2018-09-23T07:03:30Z</time>
      </trkpt>
      <trkpt lat="41.6448070" lon="1.6428070">
        <ele>583.2</ele>
        <time>2018-09-23T07:03:35Z</time>
      </trkpt>
      <trkpt lat="41.6448870" lon="1.6427180">
        <ele>584.4</ele>
        <time>2018-09-23T07:03:40Z</time>
      </trkpt>
      <trkpt lat="41.6449720" lon="1.6426170">
        <ele>585.4</ele>
        <time>2018-09-23T07:03:46Z</time>
      </trkpt>
      <trkpt lat="41.6450310" lon="1.6425240">
        <ele>586.4</ele>
        <time>2018-09-23T07:03:51Z</time>
      </trkpt>
      <trkpt lat="41.6450900" lon="1.6424250">
        <ele>587.6</ele>
        <time>2018-09-23T07:03:56Z</time>
      </trkpt>
      <trkpt lat="41.6451730" lon="1.6422530">
        <ele>588.6</ele>
        <time>2018-09-23T07:04:06Z</time>
      </trkpt>
      <trkpt lat="41.6451790" lon="1.6422270">
        <ele>588.8</ele>
        <time>2018-09-23T07:04:08Z</time>
      </trkpt>
      <trkpt lat="41.6451510" lon="1.6422770">
        <ele>589.2</ele>
        <time>2018-09-23T07:04:13Z</time>
      </trkpt>
      <trkpt lat="41.6449420" lon="1.6426790">
        <ele>587.4</ele>
        <time>2018-09-23T07:04:46Z</time>
      </trkpt>
      <trkpt lat="41.6449810" lon="1.6426140">
        <ele>587.4</ele>
        <time>2018-09-23T07:04:49Z</time>
      </trkpt>
      <trkpt lat="41.6451890" lon="1.6421830">
        <ele>588.2</ele>
        <time>2018-09-23T07:05:07Z</time>
      </trkpt>
      <trkpt lat="41.6453310" lon="1.6421220">
        <ele>589.4</ele>
        <time>2018-09-23T07:05:14Z</time>
      </trkpt>
      <trkpt lat="41.6454510" lon="1.6421060">
        <ele>590.6</ele>
        <time>2018-09-23T07:05:19Z</time>
      </trkpt>
      <trkpt lat="41.6457000" lon="1.6419650">
        <ele>591.6</ele>
        <time>2018-09-23T07:05:30Z</time>
      </trkpt>
      <trkpt lat="41.6458820" lon="1.6417560">
        <ele>592.6</ele>
        <time>2018-09-23T07:05:40Z</time>
      </trkpt>
      <trkpt lat="41.6460160" lon="1.6415520">
        <ele>593.6</ele>
        <time>2018-09-23T07:05:49Z</time>
      </trkpt>
      <trkpt lat="41.6461490" lon="1.6414570">
        <ele>594.6</ele>
        <time>2018-09-23T07:05:55Z</time>
      </trkpt>
      <trkpt lat="41.6462590" lon="1.6413780">
        <ele>595.6</ele>
        <time>2018-09-23T07:06:00Z</time>
      </trkpt>
      <trkpt lat="41.6463940" lon="1.6412270">
        <ele>596.8</ele>
        <time>2018-09-23T07:06:07Z</time>
      </trkpt>
      <trkpt lat="41.6465400" lon="1.6411200">
        <ele>597.6</ele>
        <time>2018-09-23T07:06:14Z</time>
      </trkpt>
      <trkpt lat="41.6466960" lon="1.6410790">
        <ele>598.6</ele>
        <time>2018-09-23T07:06:21Z</time>
      </trkpt>
      <trkpt lat="41.6468100" lon="1.6410560">
        <ele>599.6</ele>
        <time>2018-09-23T07:06:26Z</time>
      </trkpt>
      <trkpt lat="41.6469920" lon="1.6410210">
        <ele>600.8</ele>
        <time>2018-09-23T07:06:33Z</time>
      </trkpt>
      <trkpt lat="41.6472980" lon="1.6409730">
        <ele>601.8</ele>
        <time>2018-09-23T07:06:45Z</time>
      </trkpt>
      <trkpt lat="41.6474530" lon="1.6409370">
        <ele>602.8</ele>
        <time>2018-09-23T07:06:51Z</time>
      </trkpt>
      <trkpt lat="41.6476290" lon="1.6409670">
        <ele>604.0</ele>
        <time>2018-09-23T07:06:57Z</time>
      </trkpt>
      <trkpt lat="41.6477230" lon="1.6410400">
        <ele>605.2</ele>
        <time>2018-09-23T07:07:01Z</time>
      </trkpt>
      <trkpt lat="41.6478290" lon="1.6410850">
        <ele>606.4</ele>
        <time>2018-09-23T07:07:06Z</time>
      </trkpt>
      <trkpt lat="41.6479250" lon="1.6410930">
        <ele>607.6</ele>
        <time>2018-09-23T07:07:11Z</time>
      </trkpt>
      <trkpt lat="41.6479950" lon="1.6411150">
        <ele>607.8</ele>
        <time>2018-09-23T07:07:15Z</time>
      </trkpt>
      <trkpt lat="41.6480090" lon="1.6411140">
        <ele>607.8</ele>
        <time>2018-09-23T07:07:18Z</time>
      </trkpt>
      <trkpt lat="41.6480620" lon="1.6411070">
        <ele>607.8</ele>
        <time>2018-09-23T07:19:29Z</time>
      </trkpt>
      <trkpt lat="41.6485890" lon="1.6409340">
        <ele>607.4</ele>
        <time>2018-09-23T07:19:43Z</time>
      </trkpt>
      <trkpt lat="41.6487170" lon="1.6409150">
        <ele>606.6</ele>
        <time>2018-09-23T07:19:47Z</time>
      </trkpt>
      <trkpt lat="41.6492120" lon="1.6405770">
        <ele>606.6</ele>
        <time>2018-09-23T07:20:04Z</time>
      </trkpt>
      <trkpt lat="41.6495240" lon="1.6400710">
        <ele>606.4</ele>
        <time>2018-09-23T07:20:14Z</time>
      </trkpt>
      <trkpt lat="41.6496480" lon="1.6396440">
        <ele>606.2</ele>
        <time>2018-09-23T07:20:20Z</time>
      </trkpt>
      <trkpt lat="41.6496520" lon="1.6393640">
        <ele>605.6</ele>
        <time>2018-09-23T07:20:24Z</time>
      </trkpt>
      <trkpt lat="41.6496600" lon="1.6392910">
        <ele>605.4</ele>
        <time>2018-09-23T07:20:25Z</time>
      </trkpt>
      <trkpt lat="41.6499230" lon="1.6388700">
        <ele>604.4</ele>
        <time>2018-09-23T07:20:32Z</time>
      </trkpt>
      <trkpt lat="41.6499670" lon="1.6388280">
        <ele>604.4</ele>
        <time>2018-09-23T07:20:33Z</time>
      </trkpt>
      <trkpt lat="41.6502420" lon="1.6385690">
        <ele>603.4</ele>
        <time>2018-09-23T07:20:40Z</time>
      </trkpt>
      <trkpt lat="41.6504090" lon="1.6385600">
        <ele>603.4</ele>
        <time>2018-09-23T07:20:44Z</time>
      </trkpt>
      <trkpt lat="41.6505820" lon="1.6385820">
        <ele>603.8</ele>
        <time>2018-09-23T07:20:48Z</time>
      </trkpt>
      <trkpt lat="41.6510080" lon="1.6384120">
        <ele>605.4</ele>
        <time>2018-09-23T07:20:58Z</time>
      </trkpt>
      <trkpt lat="41.6511210" lon="1.6383550">
        <ele>605.4</ele>
        <time>2018-09-23T07:21:01Z</time>
      </trkpt>
      <trkpt lat="41.6513660" lon="1.6381860">
        <ele>606.4</ele>
        <time>2018-09-23T07:21:09Z</time>
      </trkpt>
      <trkpt lat="41.6519110" lon="1.6381660">
        <ele>606.6</ele>
        <time>2018-09-23T07:21:24Z</time>
      </trkpt>
      <trkpt lat="41.6520710" lon="1.6381570">
        <ele>606.6</ele>
        <time>2018-09-23T07:21:28Z</time>
      </trkpt>
      <trkpt lat="41.6522220" lon="1.6380670">
        <ele>606.6</ele>
        <time>2018-09-23T07:21:32Z</time>
      </trkpt>
      <trkpt lat="41.6525920" lon="1.6377840">
        <ele>607.0</ele>
        <time>2018-09-23T07:21:42Z</time>
      </trkpt>
      <trkpt lat="41.6528050" lon="1.6377820">
        <ele>607.2</ele>
        <time>2018-09-23T07:21:47Z</time>
      </trkpt>
      <trkpt lat="41.6529470" lon="1.6377910">
        <ele>607.2</ele>
        <time>2018-09-23T07:21:51Z</time>
      </trkpt>
      <trkpt lat="41.6530800" lon="1.6377690">
        <ele>608.4</ele>
        <time>2018-09-23T07:21:55Z</time>
      </trkpt>
      <trkpt lat="41.6532340" lon="1.6377230">
        <ele>609.6</ele>
        <time>2018-09-23T07:22:00Z</time>
      </trkpt>
      <trkpt lat="41.6534780" lon="1.6376800">
        <ele>610.6</ele>
        <time>2018-09-23T07:22:08Z</time>
      </trkpt>
      <trkpt lat="41.6536730" lon="1.6377230">
        <ele>611.6</ele>
        <time>2018-09-23T07:22:15Z</time>
      </trkpt>
      <trkpt lat="41.6537640" lon="1.6377450">
        <ele>612.8</ele>
        <time>2018-09-23T07:22:18Z</time>
      </trkpt>
      <trkpt lat="41.6539950" lon="1.6377260">
        <ele>613.6</ele>
        <time>2018-09-23T07:22:26Z</time>
      </trkpt>
      <trkpt lat="41.6542340" lon="1.6375860">
        <ele>614.8</ele>
        <time>2018-09-23T07:22:36Z</time>
      </trkpt>
      <trkpt lat="41.6543570" lon="1.6374860">
        <ele>616.0</ele>
        <time>2018-09-23T07:22:41Z</time>
      </trkpt>
      <trkpt lat="41.6545620" lon="1.6373910">
        <ele>617.0</ele>
        <time>2018-09-23T07:22:48Z</time>
      </trkpt>
      <trkpt lat="41.6546780" lon="1.6373290">
        <ele>618.2</ele>
        <time>2018-09-23T07:22:52Z</time>
      </trkpt>
      <trkpt lat="41.6551830" lon="1.6370120">
        <ele>618.8</ele>
        <time>2018-09-23T07:23:09Z</time>
      </trkpt>
      <trkpt lat="41.6557140" lon="1.6369170">
        <ele>618.6</ele>
        <time>2018-09-23T07:23:23Z</time>
      </trkpt>
      <trkpt lat="41.6558870" lon="1.6368970">
        <ele>618.4</ele>
        <time>2018-09-23T07:23:27Z</time>
      </trkpt>
      <trkpt lat="41.6562540" lon="1.6369660">
        <ele>617.6</ele>
        <time>2018-09-23T07:23:35Z</time>
      </trkpt>
      <trkpt lat="41.6564320" lon="1.6369110">
        <ele>617.0</ele>
        <time>2018-09-23T07:23:39Z</time>
      </trkpt>
      <trkpt lat="41.6564800" lon="1.6368880">
        <ele>616.8</ele>
        <time>2018-09-23T07:23:40Z</time>
      </trkpt>
      <trkpt lat="41.6568790" lon="1.6365630">
        <ele>615.8</ele>
        <time>2018-09-23T07:23:49Z</time>
      </trkpt>
      <trkpt lat="41.6571210" lon="1.6363180">
        <ele>614.6</ele>
        <time>2018-09-23T07:23:54Z</time>
      </trkpt>
      <trkpt lat="41.6572140" lon="1.6362410">
        <ele>614.0</ele>
        <time>2018-09-23T07:23:56Z</time>
      </trkpt>
      <trkpt lat="41.6573040" lon="1.6361880">
        <ele>613.4</ele>
        <time>2018-09-23T07:23:58Z</time>
      </trkpt>
      <trkpt lat="41.6575170" lon="1.6360890">
        <ele>612.4</ele>
        <time>2018-09-23T07:24:03Z</time>
      </trkpt>
      <trkpt lat="41.6577150" lon="1.6360190">
        <ele>611.2</ele>
        <time>2018-09-23T07:24:08Z</time>
      </trkpt>
      <trkpt lat="41.6578420" lon="1.6359980">
        <ele>610.8</ele>
        <time>2018-09-23T07:24:11Z</time>
      </trkpt>
      <trkpt lat="41.6579730" lon="1.6360100">
        <ele>610.6</ele>
        <time>2018-09-23T07:24:14Z</time>
      </trkpt>
      <trkpt lat="41.6582440" lon="1.6361380">
        <ele>610.2</ele>
        <time>2018-09-23T07:24:20Z</time>
      </trkpt>
      <trkpt lat="41.6583230" lon="1.6362090">
        <ele>610.0</ele>
        <time>2018-09-23T07:24:22Z</time>
      </trkpt>
      <trkpt lat="41.6586060" lon="1.6365960">
        <ele>609.8</ele>
        <time>2018-09-23T07:24:31Z</time>
      </trkpt>
      <trkpt lat="41.6587130" lon="1.6369590">
        <ele>609.8</ele>
        <time>2018-09-23T07:24:37Z</time>
      </trkpt>
      <trkpt lat="41.6588200" lon="1.6374990">
        <ele>609.8</ele>
        <time>2018-09-23T07:24:47Z</time>
      </trkpt>
      <trkpt lat="41.6589640" lon="1.6376070">
        <ele>609.8</ele>
        <time>2018-09-23T07:24:51Z</time>
      </trkpt>
      <trkpt lat="41.6590400" lon="1.6376520">
        <ele>610.0</ele>
        <time>2018-09-23T07:24:53Z</time>
      </trkpt>
      <trkpt lat="41.6591160" lon="1.6379700">
        <ele>610.0</ele>
        <time>2018-09-23T07:24:59Z</time>
      </trkpt>
      <trkpt lat="41.6590510" lon="1.6386970">
        <ele>609.8</ele>
        <time>2018-09-23T07:25:11Z</time>
      </trkpt>
      <trkpt lat="41.6590540" lon="1.6394520">
        <ele>610.0</ele>
        <time>2018-09-23T07:25:24Z</time>
      </trkpt>
      <trkpt lat="41.6591070" lon="1.6398020">
        <ele>611.0</ele>
        <time>2018-09-23T07:25:30Z</time>
      </trkpt>
      <trkpt lat="41.6593030" lon="1.6400500">
        <ele>612.0</ele>
        <time>2018-09-23T07:25:35Z</time>
      </trkpt>
      <trkpt lat="41.6594260" lon="1.6401070">
        <ele>612.0</ele>
        <time>2018-09-23T07:25:37Z</time>
      </trkpt>
      <trkpt lat="41.6599600" lon="1.6404080">
        <ele>611.4</ele>
        <time>2018-09-23T07:25:45Z</time>
      </trkpt>
      <trkpt lat="41.6602180" lon="1.6406380">
        <ele>610.6</ele>
        <time>2018-09-23T07:25:49Z</time>
      </trkpt>
      <trkpt lat="41.6605820" lon="1.6411290">
        <ele>610.0</ele>
        <time>2018-09-23T07:25:57Z</time>
      </trkpt>
      <trkpt lat="41.6607430" lon="1.6414090">
        <ele>610.2</ele>
        <time>2018-09-23T07:26:02Z</time>
      </trkpt>
      <trkpt lat="41.6609870" lon="1.6415280">
        <ele>611.8</ele>
        <time>2018-09-23T07:26:07Z</time>
      </trkpt>
      <trkpt lat="41.6610930" lon="1.6415210">
        <ele>611.8</ele>
        <time>2018-09-23T07:26:09Z</time>
      </trkpt>
      <trkpt lat="41.6614220" lon="1.6415050">
        <ele>612.4</ele>
        <time>2018-09-23T07:26:16Z</time>
      </trkpt>
      <trkpt lat="41.6615500" lon="1.6414370">
        <ele>612.8</ele>
        <time>2018-09-23T07:26:19Z</time>
      </trkpt>
      <trkpt lat="41.6616660" lon="1.6412400">
        <ele>613.4</ele>
        <time>2018-09-23T07:26:23Z</time>
      </trkpt>
      <trkpt lat="41.6617480" lon="1.6410240">
        <ele>613.8</ele>
        <time>2018-09-23T07:26:27Z</time>
      </trkpt>
      <trkpt lat="41.6618400" lon="1.6408920">
        <ele>613.8</ele>
        <time>2018-09-23T07:26:30Z</time>
      </trkpt>
      <trkpt lat="41.6622280" lon="1.6412110">
        <ele>614.4</ele>
        <time>2018-09-23T07:26:40Z</time>
      </trkpt>
      <trkpt lat="41.6623140" lon="1.6415000">
        <ele>614.8</ele>
        <time>2018-09-23T07:26:46Z</time>
      </trkpt>
      <trkpt lat="41.6623950" lon="1.6416720">
        <ele>616.0</ele>
        <time>2018-09-23T07:26:50Z</time>
      </trkpt>
      <trkpt lat="41.6624860" lon="1.6418860">
        <ele>617.2</ele>
        <time>2018-09-23T07:26:55Z</time>
      </trkpt>
      <trkpt lat="41.6626170" lon="1.6420270">
        <ele>618.0</ele>
        <time>2018-09-23T07:27:00Z</time>
      </trkpt>
      <trkpt lat="41.6627380" lon="1.6420010">
        <ele>619.2</ele>
        <time>2018-09-23T07:27:03Z</time>
      </trkpt>
      <trkpt lat="41.6628100" lon="1.6419580">
        <ele>620.0</ele>
        <time>2018-09-23T07:27:05Z</time>
      </trkpt>
      <trkpt lat="41.6628440" lon="1.6419370">
        <ele>620.2</ele>
        <time>2018-09-23T07:27:06Z</time>
      </trkpt>
      <trkpt lat="41.6629800" lon="1.6418640">
        <ele>621.6</ele>
        <time>2018-09-23T07:27:10Z</time>
      </trkpt>
      <trkpt lat="41.6630910" lon="1.6418620">
        <ele>623.0</ele>
        <time>2018-09-23T07:27:13Z</time>
      </trkpt>
      <trkpt lat="41.6632500" lon="1.6419730">
        <ele>624.0</ele>
        <time>2018-09-23T07:27:18Z</time>
      </trkpt>
      <trkpt lat="41.6634570" lon="1.6420220">
        <ele>625.4</ele>
        <time>2018-09-23T07:27:24Z</time>
      </trkpt>
      <trkpt lat="41.6635660" lon="1.6420010">
        <ele>626.4</ele>
        <time>2018-09-23T07:27:27Z</time>
      </trkpt>
      <trkpt lat="41.6636770" lon="1.6420280">
        <ele>627.6</ele>
        <time>2018-09-23T07:27:30Z</time>
      </trkpt>
      <trkpt lat="41.6638900" lon="1.6424460">
        <ele>628.6</ele>
        <time>2018-09-23T07:27:41Z</time>
      </trkpt>
      <trkpt lat="41.6639440" lon="1.6426140">
        <ele>630.0</ele>
        <time>2018-09-23T07:27:45Z</time>
      </trkpt>
      <trkpt lat="41.6639670" lon="1.6427530">
        <ele>631.0</ele>
        <time>2018-09-23T07:27:48Z</time>
      </trkpt>
      <trkpt lat="41.6639660" lon="1.6428930">
        <ele>631.8</ele>
        <time>2018-09-23T07:27:51Z</time>
      </trkpt>
      <trkpt lat="41.6639690" lon="1.6431600">
        <ele>633.0</ele>
        <time>2018-09-23T07:27:57Z</time>
      </trkpt>
      <trkpt lat="41.6640010" lon="1.6432520">
        <ele>634.4</ele>
        <time>2018-09-23T07:28:00Z</time>
      </trkpt>
      <trkpt lat="41.6640300" lon="1.6433460">
        <ele>635.6</ele>
        <time>2018-09-23T07:28:03Z</time>
      </trkpt>
      <trkpt lat="41.6640880" lon="1.6435390">
        <ele>636.6</ele>
        <time>2018-09-23T07:28:09Z</time>
      </trkpt>
      <trkpt lat="41.6641470" lon="1.6438160">
        <ele>637.6</ele>
        <time>2018-09-23T07:28:18Z</time>
      </trkpt>
      <trkpt lat="41.6641570" lon="1.6439440">
        <ele>638.8</ele>
        <time>2018-09-23T07:28:23Z</time>
      </trkpt>
      <trkpt lat="41.6641580" lon="1.6440740">
        <ele>639.8</ele>
        <time>2018-09-23T07:28:28Z</time>
      </trkpt>
      <trkpt lat="41.6641160" lon="1.6443200">
        <ele>641.2</ele>
        <time>2018-09-23T07:28:33Z</time>
      </trkpt>
      <trkpt lat="41.6640750" lon="1.6445850">
        <ele>642.2</ele>
        <time>2018-09-23T07:28:38Z</time>
      </trkpt>
      <trkpt lat="41.6640800" lon="1.6447340">
        <ele>643.2</ele>
        <time>2018-09-23T07:28:41Z</time>
      </trkpt>
      <trkpt lat="41.6640950" lon="1.6448660">
        <ele>644.4</ele>
        <time>2018-09-23T07:28:44Z</time>
      </trkpt>
      <trkpt lat="41.6641090" lon="1.6450010">
        <ele>645.4</ele>
        <time>2018-09-23T07:28:47Z</time>
      </trkpt>
      <trkpt lat="41.6641310" lon="1.6452170">
        <ele>646.6</ele>
        <time>2018-09-23T07:28:52Z</time>
      </trkpt>
      <trkpt lat="41.6641620" lon="1.6454830">
        <ele>647.8</ele>
        <time>2018-09-23T07:28:59Z</time>
      </trkpt>
      <trkpt lat="41.6642100" lon="1.6456790">
        <ele>649.0</ele>
        <time>2018-09-23T07:29:04Z</time>
      </trkpt>
      <trkpt lat="41.6642450" lon="1.6458340">
        <ele>650.2</ele>
        <time>2018-09-23T07:29:08Z</time>
      </trkpt>
      <trkpt lat="41.6643420" lon="1.6460330">
        <ele>651.4</ele>
        <time>2018-09-23T07:29:14Z</time>
      </trkpt>
      <trkpt lat="41.6644880" lon="1.6461730">
        <ele>652.4</ele>
        <time>2018-09-23T07:29:20Z</time>
      </trkpt>
      <trkpt lat="41.6647520" lon="1.6463560">
        <ele>653.4</ele>
        <time>2018-09-23T07:29:33Z</time>
      </trkpt>
      <trkpt lat="41.6647590" lon="1.6463690">
        <ele>654.0</ele>
        <time>2018-09-23T07:29:34Z</time>
      </trkpt>
      <trkpt lat="41.6647540" lon="1.6463980">
        <ele>654.6</ele>
        <time>2018-09-23T07:29:36Z</time>
      </trkpt>
      <trkpt lat="41.6647100" lon="1.6464260">
        <ele>655.2</ele>
        <time>2018-09-23T07:29:41Z</time>
      </trkpt>
      <trkpt lat="41.6646780" lon="1.6464460">
        <ele>655.6</ele>
        <time>2018-09-23T07:29:44Z</time>
      </trkpt>
      <trkpt lat="41.6646690" lon="1.6464570">
        <ele>655.8</ele>
        <time>2018-09-23T07:29:50Z</time>
      </trkpt>
      <trkpt lat="41.6647250" lon="1.6464270">
        <ele>656.0</ele>
        <time>2018-09-23T07:29:54Z</time>
      </trkpt>
      <trkpt lat="41.6647810" lon="1.6463790">
        <ele>656.0</ele>
        <time>2018-09-23T07:29:59Z</time>
      </trkpt>
      <trkpt lat="41.6647930" lon="1.6463760">
        <ele>655.8</ele>
        <time>2018-09-23T07:30:02Z</time>
      </trkpt>
      <trkpt lat="41.6647990" lon="1.6464030">
        <ele>655.0</ele>
        <time>2018-09-23T07:31:06Z</time>
      </trkpt>
      <trkpt lat="41.6648140" lon="1.6464160">
        <ele>655.0</ele>
        <time>2018-09-23T07:31:08Z</time>
      </trkpt>
      <trkpt lat="41.6648290" lon="1.6464030">
        <ele>655.0</ele>
        <time>2018-09-23T07:31:12Z</time>
      </trkpt>
      <trkpt lat="41.6648250" lon="1.6463840">
        <ele>655.2</ele>
        <time>2018-09-23T07:31:14Z</time>
      </trkpt>
      <trkpt lat="41.6648140" lon="1.6463240">
        <ele>655.2</ele>
        <time>2018-09-23T07:31:20Z</time>
      </trkpt>
      <trkpt lat="41.6648410" lon="1.6462810">
        <ele>654.4</ele>
        <time>2018-09-23T07:32:41Z</time>
      </trkpt>
      <trkpt lat="41.6651030" lon="1.6460850">
        <ele>654.2</ele>
        <time>2018-09-23T07:32:49Z</time>
      </trkpt>
      <trkpt lat="41.6652370" lon="1.6459390">
        <ele>653.8</ele>
        <time>2018-09-23T07:32:52Z</time>
      </trkpt>
      <trkpt lat="41.6653630" lon="1.6457160">
        <ele>653.2</ele>
        <time>2018-09-23T07:32:55Z</time>
      </trkpt>
      <trkpt lat="41.6654530" lon="1.6455540">
        <ele>652.8</ele>
        <time>2018-09-23T07:32:57Z</time>
      </trkpt>
      <trkpt lat="41.6655870" lon="1.6453400">
        <ele>651.6</ele>
        <time>2018-09-23T07:33:00Z</time>
      </trkpt>
      <trkpt lat="41.6656790" lon="1.6452330">
        <ele>650.8</ele>
        <time>2018-09-23T07:33:02Z</time>
      </trkpt>
      <trkpt lat="41.6657330" lon="1.6451940">
        <ele>650.4</ele>
        <time>2018-09-23T07:33:03Z</time>
      </trkpt>
      <trkpt lat="41.6658440" lon="1.6451180">
        <ele>649.2</ele>
        <time>2018-09-23T07:33:05Z</time>
      </trkpt>
      <trkpt lat="41.6659390" lon="1.6449890">
        <ele>648.0</ele>
        <time>2018-09-23T07:33:07Z</time>
      </trkpt>
      <trkpt lat="41.6659970" lon="1.6448050">
        <ele>647.0</ele>
        <time>2018-09-23T07:33:09Z</time>
      </trkpt>
      <trkpt lat="41.6660160" lon="1.6447040">
        <ele>646.6</ele>
        <time>2018-09-23T07:33:10Z</time>
      </trkpt>
      <trkpt lat="41.6660920" lon="1.6443960">
        <ele>645.8</ele>
        <time>2018-09-23T07:33:13Z</time>
      </trkpt>
      <trkpt lat="41.6662150" lon="1.6441190">
        <ele>644.8</ele>
        <time>2018-09-23T07:33:16Z</time>
      </trkpt>
      <trkpt lat="41.6662860" lon="1.6439200">
        <ele>643.8</ele>
        <time>2018-09-23T07:33:18Z</time>
      </trkpt>
      <trkpt lat="41.6663090" lon="1.6438150">
        <ele>643.4</ele>
        <time>2018-09-23T07:33:19Z</time>
      </trkpt>
      <trkpt lat="41.6663520" lon="1.6435080">
        <ele>642.2</ele>
        <time>2018-09-23T07:33:22Z</time>
      </trkpt>
      <trkpt lat="41.6665430" lon="1.6432210">
        <ele>640.8</ele>
        <time>2018-09-23T07:33:26Z</time>
      </trkpt>
      <trkpt lat="41.6667640" lon="1.6431610">
        <ele>639.6</ele>
        <time>2018-09-23T07:33:30Z</time>
      </trkpt>
      <trkpt lat="41.6668740" lon="1.6432190">
        <ele>639.6</ele>
        <time>2018-09-23T07:33:33Z</time>
      </trkpt>
      <trkpt lat="41.6673660" lon="1.6435090">
        <ele>640.6</ele>
        <time>2018-09-23T07:33:46Z</time>
      </trkpt>
      <trkpt lat="41.6674140" lon="1.6439560">
        <ele>640.6</ele>
        <time>2018-09-23T07:33:54Z</time>
      </trkpt>
      <trkpt lat="41.6674040" lon="1.6446940">
        <ele>640.4</ele>
        <time>2018-09-23T07:34:09Z</time>
      </trkpt>
      <trkpt lat="41.6677660" lon="1.6450510">
        <ele>640.2</ele>
        <time>2018-09-23T07:34:24Z</time>
      </trkpt>
      <trkpt lat="41.6679110" lon="1.6449190">
        <ele>640.2</ele>
        <time>2018-09-23T07:34:28Z</time>
      </trkpt>
      <trkpt lat="41.6680890" lon="1.6447380">
        <ele>640.2</ele>
        <time>2018-09-23T07:34:33Z</time>
      </trkpt>
      <trkpt lat="41.6682680" lon="1.6446700">
        <ele>640.0</ele>
        <time>2018-09-23T07:34:37Z</time>
      </trkpt>
      <trkpt lat="41.6685970" lon="1.6450520">
        <ele>639.0</ele>
        <time>2018-09-23T07:34:52Z</time>
      </trkpt>
      <trkpt lat="41.6684610" lon="1.6455260">
        <ele>640.4</ele>
        <time>2018-09-23T07:35:05Z</time>
      </trkpt>
      <trkpt lat="41.6683000" lon="1.6459010">
        <ele>641.4</ele>
        <time>2018-09-23T07:35:14Z</time>
      </trkpt>
      <trkpt lat="41.6679670" lon="1.6463960">
        <ele>641.4</ele>
        <time>2018-09-23T07:35:27Z</time>
      </trkpt>
      <trkpt lat="41.6678850" lon="1.6466340">
        <ele>641.2</ele>
        <time>2018-09-23T07:35:31Z</time>
      </trkpt>
      <trkpt lat="41.6677970" lon="1.6467860">
        <ele>641.2</ele>
        <time>2018-09-23T07:35:35Z</time>
      </trkpt>
      <trkpt lat="41.6677330" lon="1.6469290">
        <ele>640.2</ele>
        <time>2018-09-23T07:35:38Z</time>
      </trkpt>
      <trkpt lat="41.6677180" lon="1.6469880">
        <ele>640.0</ele>
        <time>2018-09-23T07:35:39Z</time>
      </trkpt>
      <trkpt lat="41.6677010" lon="1.6470470">
        <ele>639.8</ele>
        <time>2018-09-23T07:35:40Z</time>
      </trkpt>
      <trkpt lat="41.6675750" lon="1.6472360">
        <ele>638.6</ele>
        <time>2018-09-23T07:35:44Z</time>
      </trkpt>
      <trkpt lat="41.6675410" lon="1.6472640">
        <ele>638.2</ele>
        <time>2018-09-23T07:35:45Z</time>
      </trkpt>
      <trkpt lat="41.6674670" lon="1.6473170">
        <ele>637.4</ele>
        <time>2018-09-23T07:35:47Z</time>
      </trkpt>
      <trkpt lat="41.6673690" lon="1.6473540">
        <ele>636.2</ele>
        <time>2018-09-23T07:35:49Z</time>
      </trkpt>
      <trkpt lat="41.6672550" lon="1.6473990">
        <ele>635.2</ele>
        <time>2018-09-23T07:35:51Z</time>
      </trkpt>
      <trkpt lat="41.6671410" lon="1.6474810">
        <ele>634.2</ele>
        <time>2018-09-23T07:35:53Z</time>
      </trkpt>
      <trkpt lat="41.6670930" lon="1.6475210">
        <ele>633.8</ele>
        <time>2018-09-23T07:35:54Z</time>
      </trkpt>
      <trkpt lat="41.6669980" lon="1.6475940">
        <ele>632.4</ele>
        <time>2018-09-23T07:35:56Z</time>
      </trkpt>
      <trkpt lat="41.6669140" lon="1.6476650">
        <ele>630.6</ele>
        <time>2018-09-23T07:35:58Z</time>
      </trkpt>
      <trkpt lat="41.6668290" lon="1.6477570">
        <ele>629.4</ele>
        <time>2018-09-23T07:36:00Z</time>
      </trkpt>
      <trkpt lat="41.6667540" lon="1.6478610">
        <ele>628.2</ele>
        <time>2018-09-23T07:36:02Z</time>
      </trkpt>
      <trkpt lat="41.6667280" lon="1.6479100">
        <ele>627.8</ele>
        <time>2018-09-23T07:36:03Z</time>
      </trkpt>
      <trkpt lat="41.6667010" lon="1.6480230">
        <ele>626.4</ele>
        <time>2018-09-23T07:36:05Z</time>
      </trkpt>
      <trkpt lat="41.6666900" lon="1.6482550">
        <ele>625.2</ele>
        <time>2018-09-23T07:36:08Z</time>
      </trkpt>
      <trkpt lat="41.6666970" lon="1.6485250">
        <ele>623.6</ele>
        <time>2018-09-23T07:36:11Z</time>
      </trkpt>
      <trkpt lat="41.6667140" lon="1.6487010">
        <ele>623.0</ele>
        <time>2018-09-23T07:36:13Z</time>
      </trkpt>
      <trkpt lat="41.6667630" lon="1.6488730">
        <ele>622.2</ele>
        <time>2018-09-23T07:36:15Z</time>
      </trkpt>
      <trkpt lat="41.6668450" lon="1.6490350">
        <ele>620.8</ele>
        <time>2018-09-23T07:36:17Z</time>
      </trkpt>
      <trkpt lat="41.6668940" lon="1.6491180">
        <ele>620.4</ele>
        <time>2018-09-23T07:36:18Z</time>
      </trkpt>
      <trkpt lat="41.6669410" lon="1.6492130">
        <ele>620.0</ele>
        <time>2018-09-23T07:36:19Z</time>
      </trkpt>
      <trkpt lat="41.6669770" lon="1.6493170">
        <ele>619.6</ele>
        <time>2018-09-23T07:36:20Z</time>
      </trkpt>
      <trkpt lat="41.6670410" lon="1.6496430">
        <ele>618.6</ele>
        <time>2018-09-23T07:36:23Z</time>
      </trkpt>
      <trkpt lat="41.6670540" lon="1.6497440">
        <ele>618.2</ele>
        <time>2018-09-23T07:36:24Z</time>
      </trkpt>
      <trkpt lat="41.6670930" lon="1.6501100">
        <ele>616.6</ele>
        <time>2018-09-23T07:36:28Z</time>
      </trkpt>
      <trkpt lat="41.6670890" lon="1.6503600">
        <ele>615.6</ele>
        <time>2018-09-23T07:36:31Z</time>
      </trkpt>
      <trkpt lat="41.6670940" lon="1.6509850">
        <ele>614.4</ele>
        <time>2018-09-23T07:36:43Z</time>
      </trkpt>
      <trkpt lat="41.6671380" lon="1.6512500">
        <ele>613.2</ele>
        <time>2018-09-23T07:36:48Z</time>
      </trkpt>
      <trkpt lat="41.6671620" lon="1.6514320">
        <ele>612.4</ele>
        <time>2018-09-23T07:36:51Z</time>
      </trkpt>
      <trkpt lat="41.6671770" lon="1.6515060">
        <ele>612.2</ele>
        <time>2018-09-23T07:36:52Z</time>
      </trkpt>
      <trkpt lat="41.6672330" lon="1.6518040">
        <ele>611.6</ele>
        <time>2018-09-23T07:36:56Z</time>
      </trkpt>
      <trkpt lat="41.6672200" lon="1.6520260">
        <ele>611.0</ele>
        <time>2018-09-23T07:36:59Z</time>
      </trkpt>
      <trkpt lat="41.6672750" lon="1.6522360">
        <ele>609.8</ele>
        <time>2018-09-23T07:37:02Z</time>
      </trkpt>
      <trkpt lat="41.6674210" lon="1.6526220">
        <ele>608.4</ele>
        <time>2018-09-23T07:37:08Z</time>
      </trkpt>
      <trkpt lat="41.6674390" lon="1.6526870">
        <ele>607.6</ele>
        <time>2018-09-23T07:37:09Z</time>
      </trkpt>
      <trkpt lat="41.6674530" lon="1.6527550">
        <ele>607.2</ele>
        <time>2018-09-23T07:37:10Z</time>
      </trkpt>
      <trkpt lat="41.6676000" lon="1.6533680">
        <ele>606.4</ele>
        <time>2018-09-23T07:37:18Z</time>
      </trkpt>
      <trkpt lat="41.6676240" lon="1.6535180">
        <ele>606.2</ele>
        <time>2018-09-23T07:37:20Z</time>
      </trkpt>
      <trkpt lat="41.6676470" lon="1.6536670">
        <ele>605.0</ele>
        <time>2018-09-23T07:37:22Z</time>
      </trkpt>
      <trkpt lat="41.6677620" lon="1.6541980">
        <ele>604.8</ele>
        <time>2018-09-23T07:37:30Z</time>
      </trkpt>
      <trkpt lat="41.6679820" lon="1.6544570">
        <ele>605.0</ele>
        <time>2018-09-23T07:37:37Z</time>
      </trkpt>
      <trkpt lat="41.6683680" lon="1.6549910">
        <ele>605.2</ele>
        <time>2018-09-23T07:37:49Z</time>
      </trkpt>
      <trkpt lat="41.6685060" lon="1.6551890">
        <ele>605.4</ele>
        <time>2018-09-23T07:37:54Z</time>
      </trkpt>
      <trkpt lat="41.6687750" lon="1.6553990">
        <ele>605.8</ele>
        <time>2018-09-23T07:38:00Z</time>
      </trkpt>
      <trkpt lat="41.6691430" lon="1.6559010">
        <ele>605.0</ele>
        <time>2018-09-23T07:38:08Z</time>
      </trkpt>
      <trkpt lat="41.6692490" lon="1.6561480">
        <ele>603.6</ele>
        <time>2018-09-23T07:38:12Z</time>
      </trkpt>
      <trkpt lat="41.6693030" lon="1.6561700">
        <ele>602.4</ele>
        <time>2018-09-23T07:38:14Z</time>
      </trkpt>
      <trkpt lat="41.6693550" lon="1.6561850">
        <ele>601.0</ele>
        <time>2018-09-23T07:38:16Z</time>
      </trkpt>
      <trkpt lat="41.6693990" lon="1.6562010">
        <ele>600.0</ele>
        <time>2018-09-23T07:38:17Z</time>
      </trkpt>
      <trkpt lat="41.6694510" lon="1.6562290">
        <ele>599.2</ele>
        <time>2018-09-23T07:38:18Z</time>
      </trkpt>
      <trkpt lat="41.6695690" lon="1.6563300">
        <ele>597.4</ele>
        <time>2018-09-23T07:38:20Z</time>
      </trkpt>
      <trkpt lat="41.6697460" lon="1.6565240">
        <ele>596.2</ele>
        <time>2018-09-23T07:38:23Z</time>
      </trkpt>
      <trkpt lat="41.6697980" lon="1.6565910">
        <ele>596.0</ele>
        <time>2018-09-23T07:38:24Z</time>
      </trkpt>
      <trkpt lat="41.6698760" lon="1.6568290">
        <ele>594.8</ele>
        <time>2018-09-23T07:38:27Z</time>
      </trkpt>
      <trkpt lat="41.6698720" lon="1.6569860">
        <ele>593.0</ele>
        <time>2018-09-23T07:38:29Z</time>
      </trkpt>
      <trkpt lat="41.6698600" lon="1.6571410">
        <ele>591.6</ele>
        <time>2018-09-23T07:38:31Z</time>
      </trkpt>
      <trkpt lat="41.6698140" lon="1.6575350">
        <ele>590.6</ele>
        <time>2018-09-23T07:38:36Z</time>
      </trkpt>
      <trkpt lat="41.6698180" lon="1.6576160">
        <ele>590.4</ele>
        <time>2018-09-23T07:38:37Z</time>
      </trkpt>
      <trkpt lat="41.6700600" lon="1.6579170">
        <ele>589.4</ele>
        <time>2018-09-23T07:38:43Z</time>
      </trkpt>
      <trkpt lat="41.6702000" lon="1.6579390">
        <ele>589.2</ele>
        <time>2018-09-23T07:38:45Z</time>
      </trkpt>
      <trkpt lat="41.6703460" lon="1.6579700">
        <ele>588.4</ele>
        <time>2018-09-23T07:38:47Z</time>
      </trkpt>
      <trkpt lat="41.6705520" lon="1.6580130">
        <ele>587.2</ele>
        <time>2018-09-23T07:38:50Z</time>
      </trkpt>
      <trkpt lat="41.6706720" lon="1.6580750">
        <ele>585.2</ele>
        <time>2018-09-23T07:38:52Z</time>
      </trkpt>
      <trkpt lat="41.6707990" lon="1.6581660">
        <ele>583.4</ele>
        <time>2018-09-23T07:38:54Z</time>
      </trkpt>
      <trkpt lat="41.6710070" lon="1.6583030">
        <ele>582.2</ele>
        <time>2018-09-23T07:38:57Z</time>
      </trkpt>
      <trkpt lat="41.6712210" lon="1.6584010">
        <ele>580.8</ele>
        <time>2018-09-23T07:39:00Z</time>
      </trkpt>
      <trkpt lat="41.6713590" lon="1.6584650">
        <ele>579.6</ele>
        <time>2018-09-23T07:39:02Z</time>
      </trkpt>
      <trkpt lat="41.6714960" lon="1.6585090">
        <ele>579.0</ele>
        <time>2018-09-23T07:39:04Z</time>
      </trkpt>
      <trkpt lat="41.6716370" lon="1.6585170">
        <ele>578.2</ele>
        <time>2018-09-23T07:39:06Z</time>
      </trkpt>
      <trkpt lat="41.6717780" lon="1.6585040">
        <ele>577.2</ele>
        <time>2018-09-23T07:39:08Z</time>
      </trkpt>
      <trkpt lat="41.6718450" lon="1.6584880">
        <ele>577.0</ele>
        <time>2018-09-23T07:39:09Z</time>
      </trkpt>
      <trkpt lat="41.6720470" lon="1.6584690">
        <ele>576.4</ele>
        <time>2018-09-23T07:39:12Z</time>
      </trkpt>
      <trkpt lat="41.6721830" lon="1.6585290">
        <ele>575.6</ele>
        <time>2018-09-23T07:39:14Z</time>
      </trkpt>
      <trkpt lat="41.6722980" lon="1.6586320">
        <ele>575.6</ele>
        <time>2018-09-23T07:39:16Z</time>
      </trkpt>
      <trkpt lat="41.6724010" lon="1.6587510">
        <ele>575.4</ele>
        <time>2018-09-23T07:39:18Z</time>
      </trkpt>
      <trkpt lat="41.6725200" lon="1.6589710">
        <ele>574.6</ele>
        <time>2018-09-23T07:39:21Z</time>
      </trkpt>
      <trkpt lat="41.6725730" lon="1.6590630">
        <ele>573.4</ele>
        <time>2018-09-23T07:39:23Z</time>
      </trkpt>
      <trkpt lat="41.6726230" lon="1.6591280">
        <ele>572.0</ele>
        <time>2018-09-23T07:39:25Z</time>
      </trkpt>
      <trkpt lat="41.6726650" lon="1.6592090">
        <ele>570.8</ele>
        <time>2018-09-23T07:39:27Z</time>
      </trkpt>
      <trkpt lat="41.6726750" lon="1.6592580">
        <ele>570.6</ele>
        <time>2018-09-23T07:39:28Z</time>
      </trkpt>
      <trkpt lat="41.6726990" lon="1.6593950">
        <ele>569.4</ele>
        <time>2018-09-23T07:39:30Z</time>
      </trkpt>
      <trkpt lat="41.6727500" lon="1.6596120">
        <ele>568.2</ele>
        <time>2018-09-23T07:39:33Z</time>
      </trkpt>
      <trkpt lat="41.6727800" lon="1.6596860">
        <ele>568.0</ele>
        <time>2018-09-23T07:39:34Z</time>
      </trkpt>
      <trkpt lat="41.6728610" lon="1.6598340">
        <ele>567.8</ele>
        <time>2018-09-23T07:39:36Z</time>
      </trkpt>
      <trkpt lat="41.6730220" lon="1.6600400">
        <ele>567.6</ele>
        <time>2018-09-23T07:39:39Z</time>
      </trkpt>
      <trkpt lat="41.6731280" lon="1.6601580">
        <ele>567.4</ele>
        <time>2018-09-23T07:39:41Z</time>
      </trkpt>
      <trkpt lat="41.6732070" lon="1.6602720">
        <ele>566.4</ele>
        <time>2018-09-23T07:39:43Z</time>
      </trkpt>
      <trkpt lat="41.6732850" lon="1.6603320">
        <ele>565.4</ele>
        <time>2018-09-23T07:39:45Z</time>
      </trkpt>
      <trkpt lat="41.6733630" lon="1.6603360">
        <ele>563.8</ele>
        <time>2018-09-23T07:39:47Z</time>
      </trkpt>
      <trkpt lat="41.6734780" lon="1.6603180">
        <ele>563.4</ele>
        <time>2018-09-23T07:39:50Z</time>
      </trkpt>
      <trkpt lat="41.6739500" lon="1.6603890">
        <ele>564.6</ele>
        <time>2018-09-23T07:40:04Z</time>
      </trkpt>
      <trkpt lat="41.6740630" lon="1.6604070">
        <ele>565.4</ele>
        <time>2018-09-23T07:40:12Z</time>
      </trkpt>
      <trkpt lat="41.6740990" lon="1.6603780">
        <ele>565.4</ele>
        <time>2018-09-23T07:40:15Z</time>
      </trkpt>
      <trkpt lat="41.6741420" lon="1.6603220">
        <ele>565.4</ele>
        <time>2018-09-23T07:40:19Z</time>
      </trkpt>
      <trkpt lat="41.6742100" lon="1.6602520">
        <ele>565.2</ele>
        <time>2018-09-23T07:40:24Z</time>
      </trkpt>
      <trkpt lat="41.6744850" lon="1.6599770">
        <ele>564.8</ele>
        <time>2018-09-23T07:40:41Z</time>
      </trkpt>
      <trkpt lat="41.6749240" lon="1.6595450">
        <ele>564.0</ele>
        <time>2018-09-23T07:41:00Z</time>
      </trkpt>
      <trkpt lat="41.6753290" lon="1.6594110">
        <ele>563.2</ele>
        <time>2018-09-23T07:41:12Z</time>
      </trkpt>
      <trkpt lat="41.6757660" lon="1.6596410">
        <ele>563.2</ele>
        <time>2018-09-23T07:41:26Z</time>
      </trkpt>
      <trkpt lat="41.6759450" lon="1.6598140">
        <ele>563.2</ele>
        <time>2018-09-23T07:41:31Z</time>
      </trkpt>
      <trkpt lat="41.6761680" lon="1.6597770">
        <ele>562.8</ele>
        <time>2018-09-23T07:41:36Z</time>
      </trkpt>
      <trkpt lat="41.6762450" lon="1.6597150">
        <ele>562.2</ele>
        <time>2018-09-23T07:41:38Z</time>
      </trkpt>
      <trkpt lat="41.6763150" lon="1.6596390">
        <ele>561.8</ele>
        <time>2018-09-23T07:41:40Z</time>
      </trkpt>
      <trkpt lat="41.6764140" lon="1.6595080">
        <ele>561.6</ele>
        <time>2018-09-23T07:41:43Z</time>
      </trkpt>
      <trkpt lat="41.6764730" lon="1.6594020">
        <ele>561.4</ele>
        <time>2018-09-23T07:41:45Z</time>
      </trkpt>
      <trkpt lat="41.6765650" lon="1.6592550">
        <ele>561.2</ele>
        <time>2018-09-23T07:41:48Z</time>
      </trkpt>
      <trkpt lat="41.6766580" lon="1.6591230">
        <ele>560.8</ele>
        <time>2018-09-23T07:41:51Z</time>
      </trkpt>
      <trkpt lat="41.6766860" lon="1.6590790">
        <ele>560.6</ele>
        <time>2018-09-23T07:41:52Z</time>
      </trkpt>
      <trkpt lat="41.6767360" lon="1.6589890">
        <ele>560.2</ele>
        <time>2018-09-23T07:41:54Z</time>
      </trkpt>
      <trkpt lat="41.6768080" lon="1.6588150">
        <ele>559.8</ele>
        <time>2018-09-23T07:41:58Z</time>
      </trkpt>
      <trkpt lat="41.6769550" lon="1.6580780">
        <ele>558.8</ele>
        <time>2018-09-23T07:42:12Z</time>
      </trkpt>
      <trkpt lat="41.6770030" lon="1.6579540">
        <ele>558.6</ele>
        <time>2018-09-23T07:42:14Z</time>
      </trkpt>
      <trkpt lat="41.6770360" lon="1.6578970">
        <ele>558.4</ele>
        <time>2018-09-23T07:42:15Z</time>
      </trkpt>
      <trkpt lat="41.6772290" lon="1.6576210">
        <ele>557.4</ele>
        <time>2018-09-23T07:42:20Z</time>
      </trkpt>
      <trkpt lat="41.6774920" lon="1.6572990">
        <ele>556.2</ele>
        <time>2018-09-23T07:42:26Z</time>
      </trkpt>
      <trkpt lat="41.6775460" lon="1.6572540">
        <ele>556.0</ele>
        <time>2018-09-23T07:42:27Z</time>
      </trkpt>
      <trkpt lat="41.6777440" lon="1.6571870">
        <ele>555.0</ele>
        <time>2018-09-23T07:42:30Z</time>
      </trkpt>
      <trkpt lat="41.6778900" lon="1.6572030">
        <ele>554.4</ele>
        <time>2018-09-23T07:42:32Z</time>
      </trkpt>
      <trkpt lat="41.6780390" lon="1.6572340">
        <ele>553.8</ele>
        <time>2018-09-23T07:42:34Z</time>
      </trkpt>
      <trkpt lat="41.6781040" lon="1.6572360">
        <ele>553.4</ele>
        <time>2018-09-23T07:42:35Z</time>
      </trkpt>
      <trkpt lat="41.6781880" lon="1.6571750">
        <ele>552.6</ele>
        <time>2018-09-23T07:42:37Z</time>
      </trkpt>
      <trkpt lat="41.6782230" lon="1.6569940">
        <ele>551.6</ele>
        <time>2018-09-23T07:42:40Z</time>
      </trkpt>
      <trkpt lat="41.6782290" lon="1.6569280">
        <ele>551.2</ele>
        <time>2018-09-23T07:42:41Z</time>
      </trkpt>
      <trkpt lat="41.6782360" lon="1.6568620">
        <ele>550.2</ele>
        <time>2018-09-23T07:42:42Z</time>
      </trkpt>
      <trkpt lat="41.6782560" lon="1.6566690">
        <ele>549.2</ele>
        <time>2018-09-23T07:42:45Z</time>
      </trkpt>
      <trkpt lat="41.6782940" lon="1.6560100">
        <ele>550.4</ele>
        <time>2018-09-23T07:43:00Z</time>
      </trkpt>
      <trkpt lat="41.6782940" lon="1.6559660">
        <ele>550.6</ele>
        <time>2018-09-23T07:43:01Z</time>
      </trkpt>
      <trkpt lat="41.6783360" lon="1.6556000">
        <ele>551.4</ele>
        <time>2018-09-23T07:43:09Z</time>
      </trkpt>
      <trkpt lat="41.6787130" lon="1.6550640">
        <ele>551.6</ele>
        <time>2018-09-23T07:43:26Z</time>
      </trkpt>
      <trkpt lat="41.6790750" lon="1.6550340">
        <ele>552.4</ele>
        <time>2018-09-23T07:43:36Z</time>
      </trkpt>
      <trkpt lat="41.6794970" lon="1.6551270">
        <ele>553.0</ele>
        <time>2018-09-23T07:43:46Z</time>
      </trkpt>
      <trkpt lat="41.6796770" lon="1.6547090">
        <ele>551.4</ele>
        <time>2018-09-23T07:43:54Z</time>
      </trkpt>
      <trkpt lat="41.6796750" lon="1.6545650">
        <ele>550.6</ele>
        <time>2018-09-23T07:43:56Z</time>
      </trkpt>
      <trkpt lat="41.6796740" lon="1.6544970">
        <ele>550.2</ele>
        <time>2018-09-23T07:43:57Z</time>
      </trkpt>
      <trkpt lat="41.6796900" lon="1.6543130">
        <ele>549.0</ele>
        <time>2018-09-23T07:44:00Z</time>
      </trkpt>
      <trkpt lat="41.6797120" lon="1.6542630">
        <ele>548.8</ele>
        <time>2018-09-23T07:44:01Z</time>
      </trkpt>
      <trkpt lat="41.6797790" lon="1.6541760">
        <ele>548.4</ele>
        <time>2018-09-23T07:44:03Z</time>
      </trkpt>
      <trkpt lat="41.6799590" lon="1.6540330">
        <ele>547.8</ele>
        <time>2018-09-23T07:44:07Z</time>
      </trkpt>
      <trkpt lat="41.6800050" lon="1.6539870">
        <ele>547.6</ele>
        <time>2018-09-23T07:44:08Z</time>
      </trkpt>
      <trkpt lat="41.6802240" lon="1.6537330">
        <ele>546.8</ele>
        <time>2018-09-23T07:44:13Z</time>
      </trkpt>
      <trkpt lat="41.6803260" lon="1.6536750">
        <ele>546.8</ele>
        <time>2018-09-23T07:44:15Z</time>
      </trkpt>
      <trkpt lat="41.6804260" lon="1.6536490">
        <ele>546.4</ele>
        <time>2018-09-23T07:44:17Z</time>
      </trkpt>
      <trkpt lat="41.6807020" lon="1.6535960">
        <ele>546.0</ele>
        <time>2018-09-23T07:44:23Z</time>
      </trkpt>
      <trkpt lat="41.6807800" lon="1.6531080">
        <ele>546.2</ele>
        <time>2018-09-23T07:44:31Z</time>
      </trkpt>
      <trkpt lat="41.6807710" lon="1.6529630">
        <ele>546.2</ele>
        <time>2018-09-23T07:44:33Z</time>
      </trkpt>
      <trkpt lat="41.6808510" lon="1.6526280">
        <ele>546.4</ele>
        <time>2018-09-23T07:44:38Z</time>
      </trkpt>
      <trkpt lat="41.6809520" lon="1.6523980">
        <ele>546.4</ele>
        <time>2018-09-23T07:44:42Z</time>
      </trkpt>
      <trkpt lat="41.6811640" lon="1.6520460">
        <ele>547.2</ele>
        <time>2018-09-23T07:44:49Z</time>
      </trkpt>
      <trkpt lat="41.6812330" lon="1.6519590">
        <ele>547.8</ele>
        <time>2018-09-23T07:44:51Z</time>
      </trkpt>
      <trkpt lat="41.6813540" lon="1.6517690">
        <ele>549.0</ele>
        <time>2018-09-23T07:44:55Z</time>
      </trkpt>
      <trkpt lat="41.6814310" lon="1.6515690">
        <ele>550.2</ele>
        <time>2018-09-23T07:44:59Z</time>
      </trkpt>
      <trkpt lat="41.6814360" lon="1.6515140">
        <ele>550.4</ele>
        <time>2018-09-23T07:45:00Z</time>
      </trkpt>
      <trkpt lat="41.6814210" lon="1.6514010">
        <ele>551.4</ele>
        <time>2018-09-23T07:45:02Z</time>
      </trkpt>
      <trkpt lat="41.6813180" lon="1.6512060">
        <ele>552.4</ele>
        <time>2018-09-23T07:45:06Z</time>
      </trkpt>
      <trkpt lat="41.6812230" lon="1.6510680">
        <ele>552.8</ele>
        <time>2018-09-23T07:45:09Z</time>
      </trkpt>
      <trkpt lat="41.6814550" lon="1.6505370">
        <ele>553.0</ele>
        <time>2018-09-23T07:45:20Z</time>
      </trkpt>
      <trkpt lat="41.6815780" lon="1.6506130">
        <ele>552.8</ele>
        <time>2018-09-23T07:45:23Z</time>
      </trkpt>
      <trkpt lat="41.6818790" lon="1.6508650">
        <ele>552.6</ele>
        <time>2018-09-23T07:45:29Z</time>
      </trkpt>
      <trkpt lat="41.6821700" lon="1.6505980">
        <ele>551.2</ele>
        <time>2018-09-23T07:45:37Z</time>
      </trkpt>
      <trkpt lat="41.6821690" lon="1.6504990">
        <ele>550.2</ele>
        <time>2018-09-23T07:45:38Z</time>
      </trkpt>
      <trkpt lat="41.6821710" lon="1.6502840">
        <ele>549.6</ele>
        <time>2018-09-23T07:45:40Z</time>
      </trkpt>
      <trkpt lat="41.6822970" lon="1.6498470">
        <ele>549.0</ele>
        <time>2018-09-23T07:45:44Z</time>
      </trkpt>
      <trkpt lat="41.6824170" lon="1.6496840">
        <ele>547.8</ele>
        <time>2018-09-23T07:45:46Z</time>
      </trkpt>
      <trkpt lat="41.6824790" lon="1.6496080">
        <ele>547.2</ele>
        <time>2018-09-23T07:45:47Z</time>
      </trkpt>
      <trkpt lat="41.6825400" lon="1.6495340">
        <ele>546.4</ele>
        <time>2018-09-23T07:45:48Z</time>
      </trkpt>
      <trkpt lat="41.6826070" lon="1.6494630">
        <ele>545.8</ele>
        <time>2018-09-23T07:45:49Z</time>
      </trkpt>
      <trkpt lat="41.6826790" lon="1.6494000">
        <ele>545.2</ele>
        <time>2018-09-23T07:45:50Z</time>
      </trkpt>
      <trkpt lat="41.6828350" lon="1.6493070">
        <ele>544.2</ele>
        <time>2018-09-23T07:45:52Z</time>
      </trkpt>
      <trkpt lat="41.6829130" lon="1.6492770">
        <ele>543.8</ele>
        <time>2018-09-23T07:45:53Z</time>
      </trkpt>
      <trkpt lat="41.6830620" lon="1.6492330">
        <ele>543.2</ele>
        <time>2018-09-23T07:45:55Z</time>
      </trkpt>
      <trkpt lat="41.6832710" lon="1.6492340">
        <ele>542.2</ele>
        <time>2018-09-23T07:45:58Z</time>
      </trkpt>
      <trkpt lat="41.6833360" lon="1.6492450">
        <ele>541.8</ele>
        <time>2018-09-23T07:45:59Z</time>
      </trkpt>
      <trkpt lat="41.6835340" lon="1.6492540">
        <ele>541.6</ele>
        <time>2018-09-23T07:46:02Z</time>
      </trkpt>
      <trkpt lat="41.6837580" lon="1.6490480">
        <ele>541.4</ele>
        <time>2018-09-23T07:46:06Z</time>
      </trkpt>
      <trkpt lat="41.6839800" lon="1.6486140">
        <ele>541.2</ele>
        <time>2018-09-23T07:46:11Z</time>
      </trkpt>
      <trkpt lat="41.6840330" lon="1.6485260">
        <ele>541.0</ele>
        <time>2018-09-23T07:46:12Z</time>
      </trkpt>
      <trkpt lat="41.6842190" lon="1.6482610">
        <ele>539.8</ele>
        <time>2018-09-23T07:46:15Z</time>
      </trkpt>
      <trkpt lat="41.6844300" lon="1.6480150">
        <ele>538.8</ele>
        <time>2018-09-23T07:46:18Z</time>
      </trkpt>
      <trkpt lat="41.6845640" lon="1.6478850">
        <ele>538.0</ele>
        <time>2018-09-23T07:46:20Z</time>
      </trkpt>
      <trkpt lat="41.6846380" lon="1.6478500">
        <ele>537.4</ele>
        <time>2018-09-23T07:46:21Z</time>
      </trkpt>
      <trkpt lat="41.6847910" lon="1.6478720">
        <ele>536.4</ele>
        <time>2018-09-23T07:46:23Z</time>
      </trkpt>
      <trkpt lat="41.6848650" lon="1.6479050">
        <ele>536.0</ele>
        <time>2018-09-23T07:46:24Z</time>
      </trkpt>
      <trkpt lat="41.6849360" lon="1.6479340">
        <ele>535.4</ele>
        <time>2018-09-23T07:46:25Z</time>
      </trkpt>
      <trkpt lat="41.6850030" lon="1.6479530">
        <ele>534.8</ele>
        <time>2018-09-23T07:46:26Z</time>
      </trkpt>
      <trkpt lat="41.6850690" lon="1.6479660">
        <ele>534.2</ele>
        <time>2018-09-23T07:46:27Z</time>
      </trkpt>
      <trkpt lat="41.6851320" lon="1.6479810">
        <ele>533.6</ele>
        <time>2018-09-23T07:46:28Z</time>
      </trkpt>
      <trkpt lat="41.6851970" lon="1.6480010">
        <ele>533.2</ele>
        <time>2018-09-23T07:46:29Z</time>
      </trkpt>
      <trkpt lat="41.6857190" lon="1.6482700">
        <ele>532.6</ele>
        <time>2018-09-23T07:46:38Z</time>
      </trkpt>
      <trkpt lat="41.6859010" lon="1.6481360">
        <ele>533.2</ele>
        <time>2018-09-23T07:46:42Z</time>
      </trkpt>
      <trkpt lat="41.6861760" lon="1.6477900">
        <ele>533.4</ele>
        <time>2018-09-23T07:46:47Z</time>
      </trkpt>
      <trkpt lat="41.6866020" lon="1.6474960">
        <ele>532.6</ele>
        <time>2018-09-23T07:46:53Z</time>
      </trkpt>
      <trkpt lat="41.6868450" lon="1.6474560">
        <ele>531.8</ele>
        <time>2018-09-23T07:46:56Z</time>
      </trkpt>
      <trkpt lat="41.6871650" lon="1.6476250">
        <ele>530.8</ele>
        <time>2018-09-23T07:47:00Z</time>
      </trkpt>
      <trkpt lat="41.6873530" lon="1.6478540">
        <ele>529.6</ele>
        <time>2018-09-23T07:47:03Z</time>
      </trkpt>
      <trkpt lat="41.6874080" lon="1.6479350">
        <ele>529.0</ele>
        <time>2018-09-23T07:47:04Z</time>
      </trkpt>
      <trkpt lat="41.6875120" lon="1.6480910">
        <ele>528.2</ele>
        <time>2018-09-23T07:47:06Z</time>
      </trkpt>
      <trkpt lat="41.6878100" lon="1.6485200">
        <ele>527.0</ele>
        <time>2018-09-23T07:47:12Z</time>
      </trkpt>
      <trkpt lat="41.6881700" lon="1.6488300">
        <ele>526.2</ele>
        <time>2018-09-23T07:47:18Z</time>
      </trkpt>
      <trkpt lat="41.6883810" lon="1.6488220">
        <ele>525.8</ele>
        <time>2018-09-23T07:47:21Z</time>
      </trkpt>
      <trkpt lat="41.6886070" lon="1.6483640">
        <ele>525.0</ele>
        <time>2018-09-23T07:47:27Z</time>
      </trkpt>
      <trkpt lat="41.6886530" lon="1.6479170">
        <ele>524.8</ele>
        <time>2018-09-23T07:47:31Z</time>
      </trkpt>
      <trkpt lat="41.6886120" lon="1.6474900">
        <ele>524.2</ele>
        <time>2018-09-23T07:47:35Z</time>
      </trkpt>
      <trkpt lat="41.6885200" lon="1.6472100">
        <ele>522.8</ele>
        <time>2018-09-23T07:47:38Z</time>
      </trkpt>
      <trkpt lat="41.6884520" lon="1.6470180">
        <ele>522.0</ele>
        <time>2018-09-23T07:47:40Z</time>
      </trkpt>
      <trkpt lat="41.6884280" lon="1.6469130">
        <ele>521.8</ele>
        <time>2018-09-23T07:47:41Z</time>
      </trkpt>
      <trkpt lat="41.6882980" lon="1.6461270">
        <ele>520.6</ele>
        <time>2018-09-23T07:47:48Z</time>
      </trkpt>
      <trkpt lat="41.6883920" lon="1.6458840">
        <ele>519.6</ele>
        <time>2018-09-23T07:47:52Z</time>
      </trkpt>
      <trkpt lat="41.6885060" lon="1.6459660">
        <ele>518.2</ele>
        <time>2018-09-23T07:47:55Z</time>
      </trkpt>
      <trkpt lat="41.6885540" lon="1.6460550">
        <ele>517.0</ele>
        <time>2018-09-23T07:47:57Z</time>
      </trkpt>
      <trkpt lat="41.6886160" lon="1.6462090">
        <ele>515.8</ele>
        <time>2018-09-23T07:48:00Z</time>
      </trkpt>
      <trkpt lat="41.6888050" lon="1.6465360">
        <ele>515.4</ele>
        <time>2018-09-23T07:48:05Z</time>
      </trkpt>
      <trkpt lat="41.6889200" lon="1.6466580">
        <ele>515.2</ele>
        <time>2018-09-23T07:48:07Z</time>
      </trkpt>
      <trkpt lat="41.6892140" lon="1.6467360">
        <ele>514.6</ele>
        <time>2018-09-23T07:48:11Z</time>
      </trkpt>
      <trkpt lat="41.6892930" lon="1.6467240">
        <ele>514.2</ele>
        <time>2018-09-23T07:48:12Z</time>
      </trkpt>
      <trkpt lat="41.6894520" lon="1.6466730">
        <ele>513.2</ele>
        <time>2018-09-23T07:48:14Z</time>
      </trkpt>
      <trkpt lat="41.6896000" lon="1.6465770">
        <ele>512.0</ele>
        <time>2018-09-23T07:48:16Z</time>
      </trkpt>
      <trkpt lat="41.6896780" lon="1.6465340">
        <ele>511.6</ele>
        <time>2018-09-23T07:48:17Z</time>
      </trkpt>
      <trkpt lat="41.6899270" lon="1.6464910">
        <ele>510.6</ele>
        <time>2018-09-23T07:48:20Z</time>
      </trkpt>
      <trkpt lat="41.6901630" lon="1.6465800">
        <ele>509.8</ele>
        <time>2018-09-23T07:48:23Z</time>
      </trkpt>
      <trkpt lat="41.6902350" lon="1.6466200">
        <ele>509.4</ele>
        <time>2018-09-23T07:48:24Z</time>
      </trkpt>
      <trkpt lat="41.6904380" lon="1.6467430">
        <ele>508.0</ele>
        <time>2018-09-23T07:48:27Z</time>
      </trkpt>
      <trkpt lat="41.6909400" lon="1.6471070">
        <ele>507.0</ele>
        <time>2018-09-23T07:48:36Z</time>
      </trkpt>
      <trkpt lat="41.6914560" lon="1.6470080">
        <ele>507.8</ele>
        <time>2018-09-23T07:48:45Z</time>
      </trkpt>
      <trkpt lat="41.6915040" lon="1.6469490">
        <ele>507.8</ele>
        <time>2018-09-23T07:48:46Z</time>
      </trkpt>
      <trkpt lat="41.6915580" lon="1.6468920">
        <ele>507.8</ele>
        <time>2018-09-23T07:48:47Z</time>
      </trkpt>
      <trkpt lat="41.6920360" lon="1.6464950">
        <ele>508.0</ele>
        <time>2018-09-23T07:48:55Z</time>
      </trkpt>
      <trkpt lat="41.6925690" lon="1.6462070">
        <ele>508.0</ele>
        <time>2018-09-23T07:49:03Z</time>
      </trkpt>
      <trkpt lat="41.6929690" lon="1.6457610">
        <ele>506.8</ele>
        <time>2018-09-23T07:49:11Z</time>
      </trkpt>
      <trkpt lat="41.6932270" lon="1.6453590">
        <ele>505.6</ele>
        <time>2018-09-23T07:49:18Z</time>
      </trkpt>
      <trkpt lat="41.6934920" lon="1.6447020">
        <ele>504.4</ele>
        <time>2018-09-23T07:49:26Z</time>
      </trkpt>
      <trkpt lat="41.6936380" lon="1.6442120">
        <ele>502.8</ele>
        <time>2018-09-23T07:49:31Z</time>
      </trkpt>
      <trkpt lat="41.6937120" lon="1.6440390">
        <ele>501.8</ele>
        <time>2018-09-23T07:49:33Z</time>
      </trkpt>
      <trkpt lat="41.6937550" lon="1.6439620">
        <ele>501.2</ele>
        <time>2018-09-23T07:49:34Z</time>
      </trkpt>
      <trkpt lat="41.6938040" lon="1.6438970">
        <ele>500.8</ele>
        <time>2018-09-23T07:49:35Z</time>
      </trkpt>
      <trkpt lat="41.6939160" lon="1.6437840">
        <ele>499.4</ele>
        <time>2018-09-23T07:49:37Z</time>
      </trkpt>
      <trkpt lat="41.6940430" lon="1.6436760">
        <ele>498.2</ele>
        <time>2018-09-23T07:49:39Z</time>
      </trkpt>
      <trkpt lat="41.6942470" lon="1.6434820">
        <ele>496.6</ele>
        <time>2018-09-23T07:49:42Z</time>
      </trkpt>
      <trkpt lat="41.6944750" lon="1.6432540">
        <ele>495.0</ele>
        <time>2018-09-23T07:49:45Z</time>
      </trkpt>
      <trkpt lat="41.6946470" lon="1.6430960">
        <ele>493.6</ele>
        <time>2018-09-23T07:49:47Z</time>
      </trkpt>
      <trkpt lat="41.6948250" lon="1.6429230">
        <ele>492.2</ele>
        <time>2018-09-23T07:49:49Z</time>
      </trkpt>
      <trkpt lat="41.6949680" lon="1.6427780">
        <ele>490.8</ele>
        <time>2018-09-23T07:49:51Z</time>
      </trkpt>
      <trkpt lat="41.6951000" lon="1.6427280">
        <ele>489.0</ele>
        <time>2018-09-23T07:49:53Z</time>
      </trkpt>
      <trkpt lat="41.6952330" lon="1.6427580">
        <ele>487.2</ele>
        <time>2018-09-23T07:49:55Z</time>
      </trkpt>
      <trkpt lat="41.6953000" lon="1.6427690">
        <ele>486.6</ele>
        <time>2018-09-23T07:49:56Z</time>
      </trkpt>
      <trkpt lat="41.6953640" lon="1.6427600">
        <ele>485.8</ele>
        <time>2018-09-23T07:49:57Z</time>
      </trkpt>
      <trkpt lat="41.6954300" lon="1.6427420">
        <ele>484.6</ele>
        <time>2018-09-23T07:49:58Z</time>
      </trkpt>
      <trkpt lat="41.6955030" lon="1.6427290">
        <ele>483.4</ele>
        <time>2018-09-23T07:49:59Z</time>
      </trkpt>
      <trkpt lat="41.6956650" lon="1.6427540">
        <ele>482.4</ele>
        <time>2018-09-23T07:50:01Z</time>
      </trkpt>
      <trkpt lat="41.6958890" lon="1.6429290">
        <ele>481.4</ele>
        <time>2018-09-23T07:50:04Z</time>
      </trkpt>
      <trkpt lat="41.6959680" lon="1.6429920">
        <ele>481.0</ele>
        <time>2018-09-23T07:50:05Z</time>
      </trkpt>
      <trkpt lat="41.6963680" lon="1.6431990">
        <ele>479.8</ele>
        <time>2018-09-23T07:50:10Z</time>
      </trkpt>
      <trkpt lat="41.6964550" lon="1.6432280">
        <ele>479.6</ele>
        <time>2018-09-23T07:50:11Z</time>
      </trkpt>
      <trkpt lat="41.6967120" lon="1.6431910">
        <ele>478.6</ele>
        <time>2018-09-23T07:50:14Z</time>
      </trkpt>
      <trkpt lat="41.6969010" lon="1.6431370">
        <ele>478.0</ele>
        <time>2018-09-23T07:50:16Z</time>
      </trkpt>
      <trkpt lat="41.6970020" lon="1.6431200">
        <ele>477.4</ele>
        <time>2018-09-23T07:50:17Z</time>
      </trkpt>
      <trkpt lat="41.6972080" lon="1.6431050">
        <ele>476.0</ele>
        <time>2018-09-23T07:50:19Z</time>
      </trkpt>
      <trkpt lat="41.6974120" lon="1.6430940">
        <ele>474.2</ele>
        <time>2018-09-23T07:50:21Z</time>
      </trkpt>
      <trkpt lat="41.6975120" lon="1.6430890">
        <ele>473.0</ele>
        <time>2018-09-23T07:50:22Z</time>
      </trkpt>
      <trkpt lat="41.6978050" lon="1.6430790">
        <ele>472.0</ele>
        <time>2018-09-23T07:50:25Z</time>
      </trkpt>
      <trkpt lat="41.6980860" lon="1.6430990">
        <ele>470.8</ele>
        <time>2018-09-23T07:50:28Z</time>
      </trkpt>
      <trkpt lat="41.6983620" lon="1.6431440">
        <ele>469.8</ele>
        <time>2018-09-23T07:50:31Z</time>
      </trkpt>
      <trkpt lat="41.6984520" lon="1.6431790">
        <ele>469.6</ele>
        <time>2018-09-23T07:50:32Z</time>
      </trkpt>
      <trkpt lat="41.6987400" lon="1.6435610">
        <ele>469.0</ele>
        <time>2018-09-23T07:50:37Z</time>
      </trkpt>
      <trkpt lat="41.6989480" lon="1.6440310">
        <ele>469.0</ele>
        <time>2018-09-23T07:50:43Z</time>
      </trkpt>
      <trkpt lat="41.6993620" lon="1.6445120">
        <ele>470.8</ele>
        <time>2018-09-23T07:50:51Z</time>
      </trkpt>
      <trkpt lat="41.6994110" lon="1.6445700">
        <ele>470.8</ele>
        <time>2018-09-23T07:50:52Z</time>
      </trkpt>
      <trkpt lat="41.6996700" lon="1.6449200">
        <ele>471.4</ele>
        <time>2018-09-23T07:50:58Z</time>
      </trkpt>
      <trkpt lat="41.7001280" lon="1.6450960">
        <ele>471.6</ele>
        <time>2018-09-23T07:51:06Z</time>
      </trkpt>
      <trkpt lat="41.7007120" lon="1.6451590">
        <ele>471.2</ele>
        <time>2018-09-23T07:51:14Z</time>
      </trkpt>
      <trkpt lat="41.7012300" lon="1.6453920">
        <ele>470.2</ele>
        <time>2018-09-23T07:51:22Z</time>
      </trkpt>
      <trkpt lat="41.7016610" lon="1.6455520">
        <ele>470.4</ele>
        <time>2018-09-23T07:51:29Z</time>
      </trkpt>
      <trkpt lat="41.7022550" lon="1.6455330">
        <ele>471.0</ele>
        <time>2018-09-23T07:51:38Z</time>
      </trkpt>
      <trkpt lat="41.7026940" lon="1.6455870">
        <ele>471.0</ele>
        <time>2018-09-23T07:51:44Z</time>
      </trkpt>
      <trkpt lat="41.7032080" lon="1.6458700">
        <ele>470.2</ele>
        <time>2018-09-23T07:51:51Z</time>
      </trkpt>
      <trkpt lat="41.7034780" lon="1.6460270">
        <ele>470.0</ele>
        <time>2018-09-23T07:51:55Z</time>
      </trkpt>
      <trkpt lat="41.7036860" lon="1.6460690">
        <ele>469.6</ele>
        <time>2018-09-23T07:51:58Z</time>
      </trkpt>
      <trkpt lat="41.7039900" lon="1.6459760">
        <ele>468.6</ele>
        <time>2018-09-23T07:52:02Z</time>
      </trkpt>
      <trkpt lat="41.7042510" lon="1.6458650">
        <ele>468.4</ele>
        <time>2018-09-23T07:52:05Z</time>
      </trkpt>
      <trkpt lat="41.7048090" lon="1.6456380">
        <ele>467.6</ele>
        <time>2018-09-23T07:52:11Z</time>
      </trkpt>
      <trkpt lat="41.7049030" lon="1.6456050">
        <ele>467.2</ele>
        <time>2018-09-23T07:52:12Z</time>
      </trkpt>
      <trkpt lat="41.7050930" lon="1.6455390">
        <ele>466.2</ele>
        <time>2018-09-23T07:52:14Z</time>
      </trkpt>
      <trkpt lat="41.7052790" lon="1.6454460">
        <ele>465.0</ele>
        <time>2018-09-23T07:52:16Z</time>
      </trkpt>
      <trkpt lat="41.7054660" lon="1.6453450">
        <ele>464.0</ele>
        <time>2018-09-23T07:52:18Z</time>
      </trkpt>
      <trkpt lat="41.7057410" lon="1.6451930">
        <ele>462.6</ele>
        <time>2018-09-23T07:52:21Z</time>
      </trkpt>
      <trkpt lat="41.7059180" lon="1.6450930">
        <ele>461.6</ele>
        <time>2018-09-23T07:52:23Z</time>
      </trkpt>
      <trkpt lat="41.7060830" lon="1.6450140">
        <ele>460.4</ele>
        <time>2018-09-23T07:52:25Z</time>
      </trkpt>
      <trkpt lat="41.7061630" lon="1.6449980">
        <ele>460.0</ele>
        <time>2018-09-23T07:52:26Z</time>
      </trkpt>
      <trkpt lat="41.7063880" lon="1.6450150">
        <ele>458.4</ele>
        <time>2018-09-23T07:52:29Z</time>
      </trkpt>
      <trkpt lat="41.7066070" lon="1.6450370">
        <ele>457.0</ele>
        <time>2018-09-23T07:52:32Z</time>
      </trkpt>
      <trkpt lat="41.7070730" lon="1.6451630">
        <ele>456.0</ele>
        <time>2018-09-23T07:52:38Z</time>
      </trkpt>
      <trkpt lat="41.7073910" lon="1.6453090">
        <ele>455.6</ele>
        <time>2018-09-23T07:52:42Z</time>
      </trkpt>
      <trkpt lat="41.7077300" lon="1.6453110">
        <ele>455.4</ele>
        <time>2018-09-23T07:52:46Z</time>
      </trkpt>
      <trkpt lat="41.7083330" lon="1.6451500">
        <ele>455.6</ele>
        <time>2018-09-23T07:52:53Z</time>
      </trkpt>
      <trkpt lat="41.7088590" lon="1.6448420">
        <ele>456.0</ele>
        <time>2018-09-23T07:53:00Z</time>
      </trkpt>
      <trkpt lat="41.7089320" lon="1.6448050">
        <ele>456.2</ele>
        <time>2018-09-23T07:53:01Z</time>
      </trkpt>
      <trkpt lat="41.7093210" lon="1.6446830">
        <ele>456.8</ele>
        <time>2018-09-23T07:53:06Z</time>
      </trkpt>
      <trkpt lat="41.7095530" lon="1.6445630">
        <ele>457.0</ele>
        <time>2018-09-23T07:53:09Z</time>
      </trkpt>
      <trkpt lat="41.7101000" lon="1.6447600">
        <ele>456.6</ele>
        <time>2018-09-23T07:53:17Z</time>
      </trkpt>
      <trkpt lat="41.7103940" lon="1.6448860">
        <ele>456.4</ele>
        <time>2018-09-23T07:53:21Z</time>
      </trkpt>
      <trkpt lat="41.7104640" lon="1.6449220">
        <ele>456.4</ele>
        <time>2018-09-23T07:53:22Z</time>
      </trkpt>
      <trkpt lat="41.7110660" lon="1.6449810">
        <ele>457.0</ele>
        <time>2018-09-23T07:53:30Z</time>
      </trkpt>
      <trkpt lat="41.7111950" lon="1.6450130">
        <ele>457.4</ele>
        <time>2018-09-23T07:53:32Z</time>
      </trkpt>
      <trkpt lat="41.7113050" lon="1.6450620">
        <ele>458.2</ele>
        <time>2018-09-23T07:53:34Z</time>
      </trkpt>
      <trkpt lat="41.7115050" lon="1.6451490">
        <ele>459.2</ele>
        <time>2018-09-23T07:53:39Z</time>
      </trkpt>
      <trkpt lat="41.7117040" lon="1.6451490">
        <ele>460.4</ele>
        <time>2018-09-23T07:53:46Z</time>
      </trkpt>
      <trkpt lat="41.7120360" lon="1.6453220">
        <ele>461.2</ele>
        <time>2018-09-23T07:53:57Z</time>
      </trkpt>
      <trkpt lat="41.7121060" lon="1.6453890">
        <ele>461.2</ele>
        <time>2018-09-23T07:53:59Z</time>
      </trkpt>
      <trkpt lat="41.7123270" lon="1.6455260">
        <ele>461.0</ele>
        <time>2018-09-23T07:54:04Z</time>
      </trkpt>
      <trkpt lat="41.7129000" lon="1.6455990">
        <ele>459.6</ele>
        <time>2018-09-23T07:54:13Z</time>
      </trkpt>
      <trkpt lat="41.7130640" lon="1.6456020">
        <ele>459.6</ele>
        <time>2018-09-23T07:54:15Z</time>
      </trkpt>
      <trkpt lat="41.7134360" lon="1.6458210">
        <ele>459.6</ele>
        <time>2018-09-23T07:54:20Z</time>
      </trkpt>
      <trkpt lat="41.7139830" lon="1.6459920">
        <ele>460.6</ele>
        <time>2018-09-23T07:54:27Z</time>
      </trkpt>
      <trkpt lat="41.7143250" lon="1.6459810">
        <ele>461.4</ele>
        <time>2018-09-23T07:54:31Z</time>
      </trkpt>
      <trkpt lat="41.7146700" lon="1.6459480">
        <ele>461.4</ele>
        <time>2018-09-23T07:54:35Z</time>
      </trkpt>
      <trkpt lat="41.7151430" lon="1.6456630">
        <ele>460.0</ele>
        <time>2018-09-23T07:54:41Z</time>
      </trkpt>
      <trkpt lat="41.7153720" lon="1.6455190">
        <ele>458.8</ele>
        <time>2018-09-23T07:54:44Z</time>
      </trkpt>
      <trkpt lat="41.7157640" lon="1.6452330">
        <ele>457.6</ele>
        <time>2018-09-23T07:54:49Z</time>
      </trkpt>
      <trkpt lat="41.7159360" lon="1.6451440">
        <ele>457.0</ele>
        <time>2018-09-23T07:54:51Z</time>
      </trkpt>
      <trkpt lat="41.7161080" lon="1.6451050">
        <ele>456.4</ele>
        <time>2018-09-23T07:54:53Z</time>
      </trkpt>
      <trkpt lat="41.7162720" lon="1.6450940">
        <ele>456.0</ele>
        <time>2018-09-23T07:54:55Z</time>
      </trkpt>
      <trkpt lat="41.7163520" lon="1.6450750">
        <ele>455.6</ele>
        <time>2018-09-23T07:54:56Z</time>
      </trkpt>
      <trkpt lat="41.7164290" lon="1.6450230">
        <ele>455.2</ele>
        <time>2018-09-23T07:54:57Z</time>
      </trkpt>
      <trkpt lat="41.7166630" lon="1.6447730">
        <ele>454.0</ele>
        <time>2018-09-23T07:55:00Z</time>
      </trkpt>
      <trkpt lat="41.7169320" lon="1.6445230">
        <ele>452.4</ele>
        <time>2018-09-23T07:55:03Z</time>
      </trkpt>
      <trkpt lat="41.7171100" lon="1.6443540">
        <ele>451.2</ele>
        <time>2018-09-23T07:55:05Z</time>
      </trkpt>
      <trkpt lat="41.7172020" lon="1.6442690">
        <ele>450.0</ele>
        <time>2018-09-23T07:55:06Z</time>
      </trkpt>
      <trkpt lat="41.7173960" lon="1.6441160">
        <ele>448.4</ele>
        <time>2018-09-23T07:55:08Z</time>
      </trkpt>
      <trkpt lat="41.7175960" lon="1.6440040">
        <ele>446.8</ele>
        <time>2018-09-23T07:55:10Z</time>
      </trkpt>
      <trkpt lat="41.7178050" lon="1.6439510">
        <ele>445.2</ele>
        <time>2018-09-23T07:55:12Z</time>
      </trkpt>
      <trkpt lat="41.7179960" lon="1.6439560">
        <ele>443.4</ele>
        <time>2018-09-23T07:55:14Z</time>
      </trkpt>
      <trkpt lat="41.7181730" lon="1.6439500">
        <ele>442.0</ele>
        <time>2018-09-23T07:55:16Z</time>
      </trkpt>
      <trkpt lat="41.7183460" lon="1.6438560">
        <ele>441.0</ele>
        <time>2018-09-23T07:55:18Z</time>
      </trkpt>
      <trkpt lat="41.7184340" lon="1.6437940">
        <ele>440.6</ele>
        <time>2018-09-23T07:55:19Z</time>
      </trkpt>
      <trkpt lat="41.7186150" lon="1.6436730">
        <ele>440.0</ele>
        <time>2018-09-23T07:55:21Z</time>
      </trkpt>
      <trkpt lat="41.7187100" lon="1.6436380">
        <ele>439.8</ele>
        <time>2018-09-23T07:55:22Z</time>
      </trkpt>
      <trkpt lat="41.7189730" lon="1.6438560">
        <ele>438.6</ele>
        <time>2018-09-23T07:55:26Z</time>
      </trkpt>
      <trkpt lat="41.7189980" lon="1.6439650">
        <ele>438.0</ele>
        <time>2018-09-23T07:55:27Z</time>
      </trkpt>
      <trkpt lat="41.7190330" lon="1.6440760">
        <ele>437.4</ele>
        <time>2018-09-23T07:55:28Z</time>
      </trkpt>
      <trkpt lat="41.7191380" lon="1.6442880">
        <ele>436.2</ele>
        <time>2018-09-23T07:55:30Z</time>
      </trkpt>
      <trkpt lat="41.7192690" lon="1.6444860">
        <ele>435.0</ele>
        <time>2018-09-23T07:55:32Z</time>
      </trkpt>
      <trkpt lat="41.7194070" lon="1.6447030">
        <ele>433.6</ele>
        <time>2018-09-23T07:55:34Z</time>
      </trkpt>
      <trkpt lat="41.7194680" lon="1.6448230">
        <ele>433.4</ele>
        <time>2018-09-23T07:55:35Z</time>
      </trkpt>
      <trkpt lat="41.7195810" lon="1.6450700">
        <ele>432.4</ele>
        <time>2018-09-23T07:55:37Z</time>
      </trkpt>
      <trkpt lat="41.7196450" lon="1.6451830">
        <ele>431.8</ele>
        <time>2018-09-23T07:55:38Z</time>
      </trkpt>
      <trkpt lat="41.7198080" lon="1.6453540">
        <ele>431.0</ele>
        <time>2018-09-23T07:55:40Z</time>
      </trkpt>
      <trkpt lat="41.7198980" lon="1.6454240">
        <ele>429.6</ele>
        <time>2018-09-23T07:55:41Z</time>
      </trkpt>
      <trkpt lat="41.7200750" lon="1.6455730">
        <ele>428.0</ele>
        <time>2018-09-23T07:55:43Z</time>
      </trkpt>
      <trkpt lat="41.7201590" lon="1.6456580">
        <ele>427.2</ele>
        <time>2018-09-23T07:55:44Z</time>
      </trkpt>
      <trkpt lat="41.7202350" lon="1.6457580">
        <ele>426.4</ele>
        <time>2018-09-23T07:55:45Z</time>
      </trkpt>
      <trkpt lat="41.7203530" lon="1.6459900">
        <ele>425.0</ele>
        <time>2018-09-23T07:55:47Z</time>
      </trkpt>
      <trkpt lat="41.7204020" lon="1.6461150">
        <ele>424.4</ele>
        <time>2018-09-23T07:55:48Z</time>
      </trkpt>
      <trkpt lat="41.7204470" lon="1.6462420">
        <ele>423.8</ele>
        <time>2018-09-23T07:55:49Z</time>
      </trkpt>
      <trkpt lat="41.7205410" lon="1.6464920">
        <ele>422.4</ele>
        <time>2018-09-23T07:55:51Z</time>
      </trkpt>
      <trkpt lat="41.7206530" lon="1.6467140">
        <ele>421.2</ele>
        <time>2018-09-23T07:55:53Z</time>
      </trkpt>
      <trkpt lat="41.7207830" lon="1.6469010">
        <ele>420.2</ele>
        <time>2018-09-23T07:55:55Z</time>
      </trkpt>
      <trkpt lat="41.7209210" lon="1.6470620">
        <ele>419.2</ele>
        <time>2018-09-23T07:55:57Z</time>
      </trkpt>
      <trkpt lat="41.7211240" lon="1.6472860">
        <ele>418.0</ele>
        <time>2018-09-23T07:56:00Z</time>
      </trkpt>
      <trkpt lat="41.7214970" lon="1.6477510">
        <ele>417.6</ele>
        <time>2018-09-23T07:56:06Z</time>
      </trkpt>
      <trkpt lat="41.7219990" lon="1.6476760">
        <ele>417.6</ele>
        <time>2018-09-23T07:56:13Z</time>
      </trkpt>
      <trkpt lat="41.7222850" lon="1.6473890">
        <ele>417.6</ele>
        <time>2018-09-23T07:56:17Z</time>
      </trkpt>
      <trkpt lat="41.7225970" lon="1.6471750">
        <ele>416.8</ele>
        <time>2018-09-23T07:56:21Z</time>
      </trkpt>
      <trkpt lat="41.7230630" lon="1.6470780">
        <ele>415.8</ele>
        <time>2018-09-23T07:56:26Z</time>
      </trkpt>
      <trkpt lat="41.7231630" lon="1.6470970">
        <ele>415.6</ele>
        <time>2018-09-23T07:56:27Z</time>
      </trkpt>
      <trkpt lat="41.7235540" lon="1.6473880">
        <ele>414.0</ele>
        <time>2018-09-23T07:56:31Z</time>
      </trkpt>
      <trkpt lat="41.7236430" lon="1.6474910">
        <ele>413.4</ele>
        <time>2018-09-23T07:56:32Z</time>
      </trkpt>
      <trkpt lat="41.7237240" lon="1.6476020">
        <ele>412.8</ele>
        <time>2018-09-23T07:56:33Z</time>
      </trkpt>
      <trkpt lat="41.7238770" lon="1.6478330">
        <ele>411.4</ele>
        <time>2018-09-23T07:56:35Z</time>
      </trkpt>
      <trkpt lat="41.7240450" lon="1.6480560">
        <ele>410.0</ele>
        <time>2018-09-23T07:56:37Z</time>
      </trkpt>
      <trkpt lat="41.7242200" lon="1.6482690">
        <ele>408.2</ele>
        <time>2018-09-23T07:56:39Z</time>
      </trkpt>
      <trkpt lat="41.7243170" lon="1.6483580">
        <ele>407.2</ele>
        <time>2018-09-23T07:56:40Z</time>
      </trkpt>
      <trkpt lat="41.7245150" lon="1.6485180">
        <ele>405.4</ele>
        <time>2018-09-23T07:56:42Z</time>
      </trkpt>
      <trkpt lat="41.7246800" lon="1.6487260">
        <ele>403.6</ele>
        <time>2018-09-23T07:56:44Z</time>
      </trkpt>
      <trkpt lat="41.7248580" lon="1.6488980">
        <ele>401.6</ele>
        <time>2018-09-23T07:56:46Z</time>
      </trkpt>
      <trkpt lat="41.7249550" lon="1.6489730">
        <ele>400.6</ele>
        <time>2018-09-23T07:56:47Z</time>
      </trkpt>
      <trkpt lat="41.7250490" lon="1.6490560">
        <ele>399.8</ele>
        <time>2018-09-23T07:56:48Z</time>
      </trkpt>
      <trkpt lat="41.7252190" lon="1.6492620">
        <ele>398.4</ele>
        <time>2018-09-23T07:56:50Z</time>
      </trkpt>
      <trkpt lat="41.7253030" lon="1.6493740">
        <ele>397.0</ele>
        <time>2018-09-23T07:56:51Z</time>
      </trkpt>
      <trkpt lat="41.7254830" lon="1.6495840">
        <ele>395.6</ele>
        <time>2018-09-23T07:56:53Z</time>
      </trkpt>
      <trkpt lat="41.7256600" lon="1.6497740">
        <ele>394.2</ele>
        <time>2018-09-23T07:56:55Z</time>
      </trkpt>
      <trkpt lat="41.7257380" lon="1.6498690">
        <ele>393.2</ele>
        <time>2018-09-23T07:56:56Z</time>
      </trkpt>
      <trkpt lat="41.7258080" lon="1.6499660">
        <ele>392.6</ele>
        <time>2018-09-23T07:56:57Z</time>
      </trkpt>
      <trkpt lat="41.7259300" lon="1.6501650">
        <ele>391.0</ele>
        <time>2018-09-23T07:56:59Z</time>
      </trkpt>
      <trkpt lat="41.7260330" lon="1.6503710">
        <ele>389.2</ele>
        <time>2018-09-23T07:57:01Z</time>
      </trkpt>
      <trkpt lat="41.7261090" lon="1.6505860">
        <ele>388.6</ele>
        <time>2018-09-23T07:57:03Z</time>
      </trkpt>
      <trkpt lat="41.7261770" lon="1.6511250">
        <ele>388.4</ele>
        <time>2018-09-23T07:57:08Z</time>
      </trkpt>
      <trkpt lat="41.7263830" lon="1.6516990">
        <ele>388.6</ele>
        <time>2018-09-23T07:57:13Z</time>
      </trkpt>
      <trkpt lat="41.7267130" lon="1.6523430">
        <ele>388.6</ele>
        <time>2018-09-23T07:57:19Z</time>
      </trkpt>
      <trkpt lat="41.7267740" lon="1.6524470">
        <ele>388.6</ele>
        <time>2018-09-23T07:57:20Z</time>
      </trkpt>
      <trkpt lat="41.7269190" lon="1.6526300">
        <ele>388.2</ele>
        <time>2018-09-23T07:57:22Z</time>
      </trkpt>
      <trkpt lat="41.7272460" lon="1.6529910">
        <ele>387.2</ele>
        <time>2018-09-23T07:57:26Z</time>
      </trkpt>
      <trkpt lat="41.7274140" lon="1.6531480">
        <ele>385.8</ele>
        <time>2018-09-23T07:57:28Z</time>
      </trkpt>
      <trkpt lat="41.7274940" lon="1.6532310">
        <ele>385.6</ele>
        <time>2018-09-23T07:57:29Z</time>
      </trkpt>
      <trkpt lat="41.7276320" lon="1.6534270">
        <ele>384.6</ele>
        <time>2018-09-23T07:57:31Z</time>
      </trkpt>
      <trkpt lat="41.7277550" lon="1.6536550">
        <ele>383.2</ele>
        <time>2018-09-23T07:57:33Z</time>
      </trkpt>
      <trkpt lat="41.7278660" lon="1.6538920">
        <ele>381.2</ele>
        <time>2018-09-23T07:57:35Z</time>
      </trkpt>
      <trkpt lat="41.7279550" lon="1.6541240">
        <ele>379.6</ele>
        <time>2018-09-23T07:57:37Z</time>
      </trkpt>
      <trkpt lat="41.7279840" lon="1.6542270">
        <ele>378.6</ele>
        <time>2018-09-23T07:57:38Z</time>
      </trkpt>
      <trkpt lat="41.7280080" lon="1.6543170">
        <ele>377.8</ele>
        <time>2018-09-23T07:57:39Z</time>
      </trkpt>
      <trkpt lat="41.7280790" lon="1.6544410">
        <ele>376.2</ele>
        <time>2018-09-23T07:57:41Z</time>
      </trkpt>
      <trkpt lat="41.7281740" lon="1.6544720">
        <ele>374.6</ele>
        <time>2018-09-23T07:57:43Z</time>
      </trkpt>
      <trkpt lat="41.7282740" lon="1.6544610">
        <ele>373.2</ele>
        <time>2018-09-23T07:57:45Z</time>
      </trkpt>
      <trkpt lat="41.7284740" lon="1.6544420">
        <ele>372.4</ele>
        <time>2018-09-23T07:57:50Z</time>
      </trkpt>
      <trkpt lat="41.7288610" lon="1.6542300">
        <ele>373.4</ele>
        <time>2018-09-23T07:58:10Z</time>
      </trkpt>
      <trkpt lat="41.7292890" lon="1.6539290">
        <ele>374.2</ele>
        <time>2018-09-23T07:58:34Z</time>
      </trkpt>
      <trkpt lat="41.7293420" lon="1.6538850">
        <ele>374.8</ele>
        <time>2018-09-23T07:58:38Z</time>
      </trkpt>
      <trkpt lat="41.7293550" lon="1.6538760">
        <ele>375.2</ele>
        <time>2018-09-23T07:58:40Z</time>
      </trkpt>
      <trkpt lat="41.7293560" lon="1.6538730">
        <ele>375.4</ele>
        <time>2018-09-23T07:58:41Z</time>
      </trkpt>
      <trkpt lat="41.7293980" lon="1.6538220">
        <ele>377.6</ele>
        <time>2018-09-23T08:00:27Z</time>
      </trkpt>
      <trkpt lat="41.7294950" lon="1.6532940">
        <ele>377.6</ele>
        <time>2018-09-23T08:00:38Z</time>
      </trkpt>
      <trkpt lat="41.7297120" lon="1.6528710">
        <ele>377.6</ele>
        <time>2018-09-23T08:00:45Z</time>
      </trkpt>
      <trkpt lat="41.7298780" lon="1.6527200">
        <ele>378.8</ele>
        <time>2018-09-23T08:00:50Z</time>
      </trkpt>
      <trkpt lat="41.7299490" lon="1.6526760">
        <ele>379.2</ele>
        <time>2018-09-23T08:00:52Z</time>
      </trkpt>
      <trkpt lat="41.7300810" lon="1.6525940">
        <ele>379.8</ele>
        <time>2018-09-23T08:00:55Z</time>
      </trkpt>
      <trkpt lat="41.7303050" lon="1.6524380">
        <ele>380.8</ele>
        <time>2018-09-23T08:01:00Z</time>
      </trkpt>
      <trkpt lat="41.7305610" lon="1.6522530">
        <ele>382.0</ele>
        <time>2018-09-23T08:01:06Z</time>
      </trkpt>
      <trkpt lat="41.7307370" lon="1.6520660">
        <ele>382.8</ele>
        <time>2018-09-23T08:01:11Z</time>
      </trkpt>
      <trkpt lat="41.7308850" lon="1.6518030">
        <ele>383.8</ele>
        <time>2018-09-23T08:01:17Z</time>
      </trkpt>
      <trkpt lat="41.7311940" lon="1.6516460">
        <ele>384.8</ele>
        <time>2018-09-23T08:01:28Z</time>
      </trkpt>
      <trkpt lat="41.7316200" lon="1.6519640">
        <ele>385.2</ele>
        <time>2018-09-23T08:01:41Z</time>
      </trkpt>
      <trkpt lat="41.7318380" lon="1.6520150">
        <ele>385.6</ele>
        <time>2018-09-23T08:01:46Z</time>
      </trkpt>
      <trkpt lat="41.7323980" lon="1.6517580">
        <ele>385.2</ele>
        <time>2018-09-23T08:01:56Z</time>
      </trkpt>
      <trkpt lat="41.7325290" lon="1.6516430">
        <ele>384.8</ele>
        <time>2018-09-23T08:01:58Z</time>
      </trkpt>
      <trkpt lat="41.7327150" lon="1.6513230">
        <ele>383.6</ele>
        <time>2018-09-23T08:02:02Z</time>
      </trkpt>
      <trkpt lat="41.7327760" lon="1.6509930">
        <ele>383.0</ele>
        <time>2018-09-23T08:02:06Z</time>
      </trkpt>
      <trkpt lat="41.7327760" lon="1.6509220">
        <ele>383.0</ele>
        <time>2018-09-23T08:02:07Z</time>
      </trkpt>
      <trkpt lat="41.7327520" lon="1.6507060">
        <ele>382.8</ele>
        <time>2018-09-23T08:02:10Z</time>
      </trkpt>
      <trkpt lat="41.7326550" lon="1.6501370">
        <ele>384.8</ele>
        <time>2018-09-23T08:02:19Z</time>
      </trkpt>
      <trkpt lat="41.7326560" lon="1.6500730">
        <ele>385.8</ele>
        <time>2018-09-23T08:02:22Z</time>
      </trkpt>
      <trkpt lat="41.7326700" lon="1.6500410">
        <ele>387.0</ele>
        <time>2018-09-23T08:02:25Z</time>
      </trkpt>
      <trkpt lat="41.7327040" lon="1.6499850">
        <ele>388.2</ele>
        <time>2018-09-23T08:02:29Z</time>
      </trkpt>
      <trkpt lat="41.7327420" lon="1.6499090">
        <ele>388.4</ele>
        <time>2018-09-23T08:02:31Z</time>
      </trkpt>
      <trkpt lat="41.7329320" lon="1.6492100">
        <ele>387.6</ele>
        <time>2018-09-23T08:02:41Z</time>
      </trkpt>
      <trkpt lat="41.7329490" lon="1.6491400">
        <ele>386.6</ele>
        <time>2018-09-23T08:02:42Z</time>
      </trkpt>
      <trkpt lat="41.7330290" lon="1.6488600">
        <ele>385.6</ele>
        <time>2018-09-23T08:02:46Z</time>
      </trkpt>
      <trkpt lat="41.7330490" lon="1.6487920">
        <ele>385.4</ele>
        <time>2018-09-23T08:02:47Z</time>
      </trkpt>
      <trkpt lat="41.7331430" lon="1.6484070">
        <ele>384.8</ele>
        <time>2018-09-23T08:02:52Z</time>
      </trkpt>
      <trkpt lat="41.7331050" lon="1.6479290">
        <ele>384.2</ele>
        <time>2018-09-23T08:02:58Z</time>
      </trkpt>
      <trkpt lat="41.7330890" lon="1.6478530">
        <ele>384.0</ele>
        <time>2018-09-23T08:02:59Z</time>
      </trkpt>
      <trkpt lat="41.7329960" lon="1.6475850">
        <ele>383.2</ele>
        <time>2018-09-23T08:03:03Z</time>
      </trkpt>
      <trkpt lat="41.7329240" lon="1.6472770">
        <ele>382.8</ele>
        <time>2018-09-23T08:03:08Z</time>
      </trkpt>
      <trkpt lat="41.7326630" lon="1.6466190">
        <ele>384.0</ele>
        <time>2018-09-23T08:03:26Z</time>
      </trkpt>
      <trkpt lat="41.7326220" lon="1.6465430">
        <ele>384.4</ele>
        <time>2018-09-23T08:03:28Z</time>
      </trkpt>
      <trkpt lat="41.7323600" lon="1.6460500">
        <ele>385.4</ele>
        <time>2018-09-23T08:03:42Z</time>
      </trkpt>
      <trkpt lat="41.7323010" lon="1.6459170">
        <ele>386.4</ele>
        <time>2018-09-23T08:03:46Z</time>
      </trkpt>
      <trkpt lat="41.7322370" lon="1.6455120">
        <ele>387.8</ele>
        <time>2018-09-23T08:03:57Z</time>
      </trkpt>
      <trkpt lat="41.7322510" lon="1.6453270">
        <ele>389.0</ele>
        <time>2018-09-23T08:04:02Z</time>
      </trkpt>
      <trkpt lat="41.7322630" lon="1.6452140">
        <ele>390.0</ele>
        <time>2018-09-23T08:04:05Z</time>
      </trkpt>
      <trkpt lat="41.7322820" lon="1.6450720">
        <ele>391.4</ele>
        <time>2018-09-23T08:04:09Z</time>
      </trkpt>
      <trkpt lat="41.7323070" lon="1.6449720">
        <ele>392.4</ele>
        <time>2018-09-23T08:04:12Z</time>
      </trkpt>
      <trkpt lat="41.7323580" lon="1.6449130">
        <ele>393.2</ele>
        <time>2018-09-23T08:04:15Z</time>
      </trkpt>
      <trkpt lat="41.7323820" lon="1.6449160">
        <ele>393.4</ele>
        <time>2018-09-23T08:04:16Z</time>
      </trkpt>
      <trkpt lat="41.7324340" lon="1.6449890">
        <ele>394.4</ele>
        <time>2018-09-23T08:04:19Z</time>
      </trkpt>
      <trkpt lat="41.7324500" lon="1.6450540">
        <ele>395.0</ele>
        <time>2018-09-23T08:04:21Z</time>
      </trkpt>
      <trkpt lat="41.7324640" lon="1.6451170">
        <ele>395.6</ele>
        <time>2018-09-23T08:04:23Z</time>
      </trkpt>
      <trkpt lat="41.7324790" lon="1.6452150">
        <ele>396.6</ele>
        <time>2018-09-23T08:04:26Z</time>
      </trkpt>
      <trkpt lat="41.7324920" lon="1.6453810">
        <ele>397.8</ele>
        <time>2018-09-23T08:04:31Z</time>
      </trkpt>
      <trkpt lat="41.7324940" lon="1.6455520">
        <ele>398.8</ele>
        <time>2018-09-23T08:04:36Z</time>
      </trkpt>
      <trkpt lat="41.7325160" lon="1.6457410">
        <ele>400.0</ele>
        <time>2018-09-23T08:04:42Z</time>
      </trkpt>
      <trkpt lat="41.7325560" lon="1.6458500">
        <ele>401.2</ele>
        <time>2018-09-23T08:04:46Z</time>
      </trkpt>
      <trkpt lat="41.7326340" lon="1.6459300">
        <ele>402.2</ele>
        <time>2018-09-23T08:04:50Z</time>
      </trkpt>
      <trkpt lat="41.7328580" lon="1.6461200">
        <ele>403.2</ele>
        <time>2018-09-23T08:05:01Z</time>
      </trkpt>
      <trkpt lat="41.7330830" lon="1.6457530">
        <ele>403.8</ele>
        <time>2018-09-23T08:05:24Z</time>
      </trkpt>
      <trkpt lat="41.7330800" lon="1.6456000">
        <ele>404.4</ele>
        <time>2018-09-23T08:05:29Z</time>
      </trkpt>
      <trkpt lat="41.7330400" lon="1.6454260">
        <ele>405.4</ele>
        <time>2018-09-23T08:05:35Z</time>
      </trkpt>
      <trkpt lat="41.7329880" lon="1.6453620">
        <ele>406.6</ele>
        <time>2018-09-23T08:05:38Z</time>
      </trkpt>
      <trkpt lat="41.7328910" lon="1.6452150">
        <ele>407.8</ele>
        <time>2018-09-23T08:05:44Z</time>
      </trkpt>
      <trkpt lat="41.7328450" lon="1.6451380">
        <ele>408.8</ele>
        <time>2018-09-23T08:05:47Z</time>
      </trkpt>
      <trkpt lat="41.7328050" lon="1.6449600">
        <ele>410.0</ele>
        <time>2018-09-23T08:05:53Z</time>
      </trkpt>
      <trkpt lat="41.7328200" lon="1.6448330">
        <ele>411.0</ele>
        <time>2018-09-23T08:05:57Z</time>
      </trkpt>
      <trkpt lat="41.7328650" lon="1.6447120">
        <ele>412.2</ele>
        <time>2018-09-23T08:06:01Z</time>
      </trkpt>
      <trkpt lat="41.7329190" lon="1.6445960">
        <ele>413.2</ele>
        <time>2018-09-23T08:06:05Z</time>
      </trkpt>
      <trkpt lat="41.7330160" lon="1.6445010">
        <ele>414.2</ele>
        <time>2018-09-23T08:06:10Z</time>
      </trkpt>
      <trkpt lat="41.7331130" lon="1.6444810">
        <ele>415.2</ele>
        <time>2018-09-23T08:06:14Z</time>
      </trkpt>
      <trkpt lat="41.7331920" lon="1.6445060">
        <ele>416.4</ele>
        <time>2018-09-23T08:06:18Z</time>
      </trkpt>
      <trkpt lat="41.7332850" lon="1.6444980">
        <ele>417.6</ele>
        <time>2018-09-23T08:06:22Z</time>
      </trkpt>
      <trkpt lat="41.7332750" lon="1.6443390">
        <ele>418.6</ele>
        <time>2018-09-23T08:06:27Z</time>
      </trkpt>
      <trkpt lat="41.7332630" lon="1.6443090">
        <ele>418.8</ele>
        <time>2018-09-23T08:06:28Z</time>
      </trkpt>
      <trkpt lat="41.7332150" lon="1.6442180">
        <ele>419.8</ele>
        <time>2018-09-23T08:06:32Z</time>
      </trkpt>
      <trkpt lat="41.7331900" lon="1.6441310">
        <ele>421.0</ele>
        <time>2018-09-23T08:06:35Z</time>
      </trkpt>
      <trkpt lat="41.7331980" lon="1.6440800">
        <ele>421.8</ele>
        <time>2018-09-23T08:06:37Z</time>
      </trkpt>
      <trkpt lat="41.7332160" lon="1.6440710">
        <ele>422.0</ele>
        <time>2018-09-23T08:06:38Z</time>
      </trkpt>
      <trkpt lat="41.7332810" lon="1.6441260">
        <ele>422.8</ele>
        <time>2018-09-23T08:06:42Z</time>
      </trkpt>
      <trkpt lat="41.7332910" lon="1.6441490">
        <ele>422.8</ele>
        <time>2018-09-23T08:06:43Z</time>
      </trkpt>
      <trkpt lat="41.7333220" lon="1.6442260">
        <ele>423.4</ele>
        <time>2018-09-23T08:06:46Z</time>
      </trkpt>
      <trkpt lat="41.7333840" lon="1.6442650">
        <ele>424.4</ele>
        <time>2018-09-23T08:06:49Z</time>
      </trkpt>
      <trkpt lat="41.7334040" lon="1.6441340">
        <ele>425.4</ele>
        <time>2018-09-23T08:06:54Z</time>
      </trkpt>
      <trkpt lat="41.7333920" lon="1.6441090">
        <ele>425.6</ele>
        <time>2018-09-23T08:06:55Z</time>
      </trkpt>
      <trkpt lat="41.7333510" lon="1.6440400">
        <ele>426.6</ele>
        <time>2018-09-23T08:06:58Z</time>
      </trkpt>
      <trkpt lat="41.7333550" lon="1.6439320">
        <ele>427.4</ele>
        <time>2018-09-23T08:07:02Z</time>
      </trkpt>
      <trkpt lat="41.7333730" lon="1.6439200">
        <ele>427.6</ele>
        <time>2018-09-23T08:07:03Z</time>
      </trkpt>
      <trkpt lat="41.7334490" lon="1.6439700">
        <ele>428.8</ele>
        <time>2018-09-23T08:07:07Z</time>
      </trkpt>
      <trkpt lat="41.7334990" lon="1.6440200">
        <ele>429.4</ele>
        <time>2018-09-23T08:07:10Z</time>
      </trkpt>
      <trkpt lat="41.7335190" lon="1.6440330">
        <ele>429.8</ele>
        <time>2018-09-23T08:07:11Z</time>
      </trkpt>
      <trkpt lat="41.7335860" lon="1.6440530">
        <ele>431.2</ele>
        <time>2018-09-23T08:07:14Z</time>
      </trkpt>
      <trkpt lat="41.7336490" lon="1.6440590">
        <ele>432.2</ele>
        <time>2018-09-23T08:07:17Z</time>
      </trkpt>
      <trkpt lat="41.7337460" lon="1.6440490">
        <ele>433.4</ele>
        <time>2018-09-23T08:07:22Z</time>
      </trkpt>
      <trkpt lat="41.7338560" lon="1.6440460">
        <ele>434.4</ele>
        <time>2018-09-23T08:07:27Z</time>
      </trkpt>
      <trkpt lat="41.7340250" lon="1.6440580">
        <ele>435.8</ele>
        <time>2018-09-23T08:07:35Z</time>
      </trkpt>
      <trkpt lat="41.7341600" lon="1.6440880">
        <ele>436.8</ele>
        <time>2018-09-23T08:07:42Z</time>
      </trkpt>
      <trkpt lat="41.7342570" lon="1.6441460">
        <ele>438.2</ele>
        <time>2018-09-23T08:07:47Z</time>
      </trkpt>
      <trkpt lat="41.7343270" lon="1.6442210">
        <ele>439.2</ele>
        <time>2018-09-23T08:07:51Z</time>
      </trkpt>
      <trkpt lat="41.7344130" lon="1.6443030">
        <ele>440.0</ele>
        <time>2018-09-23T08:07:56Z</time>
      </trkpt>
      <trkpt lat="41.7344250" lon="1.6442890">
        <ele>440.6</ele>
        <time>2018-09-23T08:07:57Z</time>
      </trkpt>
      <trkpt lat="41.7344110" lon="1.6441820">
        <ele>441.6</ele>
        <time>2018-09-23T08:08:01Z</time>
      </trkpt>
      <trkpt lat="41.7343660" lon="1.6441170">
        <ele>443.0</ele>
        <time>2018-09-23T08:08:04Z</time>
      </trkpt>
      <trkpt lat="41.7342910" lon="1.6440460">
        <ele>444.0</ele>
        <time>2018-09-23T08:08:08Z</time>
      </trkpt>
      <trkpt lat="41.7342040" lon="1.6439500">
        <ele>445.2</ele>
        <time>2018-09-23T08:08:13Z</time>
      </trkpt>
      <trkpt lat="41.7341280" lon="1.6438620">
        <ele>446.4</ele>
        <time>2018-09-23T08:08:17Z</time>
      </trkpt>
      <trkpt lat="41.7339470" lon="1.6437410">
        <ele>447.4</ele>
        <time>2018-09-23T08:08:26Z</time>
      </trkpt>
      <trkpt lat="41.7338130" lon="1.6436720">
        <ele>448.8</ele>
        <time>2018-09-23T08:08:32Z</time>
      </trkpt>
      <trkpt lat="41.7336980" lon="1.6435750">
        <ele>450.0</ele>
        <time>2018-09-23T08:08:38Z</time>
      </trkpt>
      <trkpt lat="41.7336580" lon="1.6435010">
        <ele>450.6</ele>
        <time>2018-09-23T08:08:41Z</time>
      </trkpt>
      <trkpt lat="41.7336500" lon="1.6434710">
        <ele>451.0</ele>
        <time>2018-09-23T08:08:42Z</time>
      </trkpt>
      <trkpt lat="41.7336680" lon="1.6432990">
        <ele>452.0</ele>
        <time>2018-09-23T08:08:48Z</time>
      </trkpt>
      <trkpt lat="41.7337290" lon="1.6431640">
        <ele>453.2</ele>
        <time>2018-09-23T08:08:53Z</time>
      </trkpt>
      <trkpt lat="41.7337960" lon="1.6429950">
        <ele>454.4</ele>
        <time>2018-09-23T08:08:59Z</time>
      </trkpt>
      <trkpt lat="41.7338320" lon="1.6428840">
        <ele>455.4</ele>
        <time>2018-09-23T08:09:03Z</time>
      </trkpt>
      <trkpt lat="41.7339420" lon="1.6427030">
        <ele>456.4</ele>
        <time>2018-09-23T08:09:11Z</time>
      </trkpt>
      <trkpt lat="41.7341080" lon="1.6423340">
        <ele>457.4</ele>
        <time>2018-09-23T08:09:25Z</time>
      </trkpt>
      <trkpt lat="41.7342590" lon="1.6420640">
        <ele>458.6</ele>
        <time>2018-09-23T08:09:35Z</time>
      </trkpt>
      <trkpt lat="41.7343350" lon="1.6419270">
        <ele>459.6</ele>
        <time>2018-09-23T08:09:41Z</time>
      </trkpt>
      <trkpt lat="41.7348110" lon="1.6416020">
        <ele>460.4</ele>
        <time>2018-09-23T08:10:03Z</time>
      </trkpt>
      <trkpt lat="41.7348370" lon="1.6414270">
        <ele>460.8</ele>
        <time>2018-09-23T08:10:10Z</time>
      </trkpt>
      <trkpt lat="41.7347580" lon="1.6411050">
        <ele>462.0</ele>
        <time>2018-09-23T08:10:20Z</time>
      </trkpt>
      <trkpt lat="41.7347670" lon="1.6409120">
        <ele>463.0</ele>
        <time>2018-09-23T08:10:26Z</time>
      </trkpt>
      <trkpt lat="41.7347810" lon="1.6409020">
        <ele>463.0</ele>
        <time>2018-09-23T08:10:27Z</time>
      </trkpt>
      <trkpt lat="41.7348420" lon="1.6409290">
        <ele>463.2</ele>
        <time>2018-09-23T08:10:32Z</time>
      </trkpt>
      <trkpt lat="41.7348730" lon="1.6409980">
        <ele>463.8</ele>
        <time>2018-09-23T08:10:38Z</time>
      </trkpt>
      <trkpt lat="41.7348890" lon="1.6410560">
        <ele>465.0</ele>
        <time>2018-09-23T08:12:54Z</time>
      </trkpt>
      <trkpt lat="41.7350570" lon="1.6413250">
        <ele>466.2</ele>
        <time>2018-09-23T08:13:08Z</time>
      </trkpt>
      <trkpt lat="41.7351020" lon="1.6414730">
        <ele>467.0</ele>
        <time>2018-09-23T08:13:14Z</time>
      </trkpt>
      <trkpt lat="41.7351130" lon="1.6415580">
        <ele>467.4</ele>
        <time>2018-09-23T08:13:17Z</time>
      </trkpt>
      <trkpt lat="41.7351280" lon="1.6417160">
        <ele>468.6</ele>
        <time>2018-09-23T08:13:22Z</time>
      </trkpt>
      <trkpt lat="41.7351880" lon="1.6420310">
        <ele>469.8</ele>
        <time>2018-09-23T08:13:32Z</time>
      </trkpt>
      <trkpt lat="41.7352670" lon="1.6422390">
        <ele>470.4</ele>
        <time>2018-09-23T08:13:39Z</time>
      </trkpt>
      <trkpt lat="41.7353160" lon="1.6422280">
        <ele>470.8</ele>
        <time>2018-09-23T08:13:41Z</time>
      </trkpt>
      <trkpt lat="41.7353460" lon="1.6421760">
        <ele>471.2</ele>
        <time>2018-09-23T08:13:43Z</time>
      </trkpt>
      <trkpt lat="41.7353960" lon="1.6419330">
        <ele>472.2</ele>
        <time>2018-09-23T08:13:50Z</time>
      </trkpt>
      <trkpt lat="41.7354180" lon="1.6418290">
        <ele>473.2</ele>
        <time>2018-09-23T08:13:53Z</time>
      </trkpt>
      <trkpt lat="41.7354890" lon="1.6416820">
        <ele>474.4</ele>
        <time>2018-09-23T08:13:58Z</time>
      </trkpt>
      <trkpt lat="41.7355320" lon="1.6416350">
        <ele>475.0</ele>
        <time>2018-09-23T08:14:00Z</time>
      </trkpt>
      <trkpt lat="41.7355890" lon="1.6416200">
        <ele>475.8</ele>
        <time>2018-09-23T08:14:02Z</time>
      </trkpt>
      <trkpt lat="41.7357210" lon="1.6416570">
        <ele>477.2</ele>
        <time>2018-09-23T08:14:07Z</time>
      </trkpt>
      <trkpt lat="41.7357770" lon="1.6417140">
        <ele>478.0</ele>
        <time>2018-09-23T08:14:10Z</time>
      </trkpt>
      <trkpt lat="41.7357980" lon="1.6417410">
        <ele>478.2</ele>
        <time>2018-09-23T08:14:11Z</time>
      </trkpt>
      <trkpt lat="41.7358670" lon="1.6418230">
        <ele>479.4</ele>
        <time>2018-09-23T08:14:14Z</time>
      </trkpt>
      <trkpt lat="41.7358840" lon="1.6418430">
        <ele>480.2</ele>
        <time>2018-09-23T08:14:17Z</time>
      </trkpt>
      <trkpt lat="41.7359210" lon="1.6418910">
        <ele>481.4</ele>
        <time>2018-09-23T08:16:16Z</time>
      </trkpt>
      <trkpt lat="41.7364550" lon="1.6421510">
        <ele>481.6</ele>
        <time>2018-09-23T08:16:35Z</time>
      </trkpt>
      <trkpt lat="41.7366450" lon="1.6422310">
        <ele>481.6</ele>
        <time>2018-09-23T08:16:39Z</time>
      </trkpt>
      <trkpt lat="41.7368230" lon="1.6421900">
        <ele>481.2</ele>
        <time>2018-09-23T08:16:43Z</time>
      </trkpt>
      <trkpt lat="41.7372260" lon="1.6417120">
        <ele>481.6</ele>
        <time>2018-09-23T08:16:59Z</time>
      </trkpt>
      <trkpt lat="41.7373210" lon="1.6416040">
        <ele>482.6</ele>
        <time>2018-09-23T08:17:03Z</time>
      </trkpt>
      <trkpt lat="41.7376200" lon="1.6418280">
        <ele>483.6</ele>
        <time>2018-09-23T08:17:17Z</time>
      </trkpt>
      <trkpt lat="41.7377020" lon="1.6420190">
        <ele>484.8</ele>
        <time>2018-09-23T08:17:22Z</time>
      </trkpt>
      <trkpt lat="41.7376500" lon="1.6423160">
        <ele>486.0</ele>
        <time>2018-09-23T08:17:29Z</time>
      </trkpt>
      <trkpt lat="41.7375820" lon="1.6424180">
        <ele>487.2</ele>
        <time>2018-09-23T08:17:32Z</time>
      </trkpt>
      <trkpt lat="41.7375630" lon="1.6426590">
        <ele>488.4</ele>
        <time>2018-09-23T08:17:38Z</time>
      </trkpt>
      <trkpt lat="41.7375990" lon="1.6428510">
        <ele>489.4</ele>
        <time>2018-09-23T08:17:43Z</time>
      </trkpt>
      <trkpt lat="41.7376700" lon="1.6432590">
        <ele>490.4</ele>
        <time>2018-09-23T08:17:53Z</time>
      </trkpt>
      <trkpt lat="41.7376770" lon="1.6434770">
        <ele>491.6</ele>
        <time>2018-09-23T08:17:58Z</time>
      </trkpt>
      <trkpt lat="41.7377020" lon="1.6437620">
        <ele>492.8</ele>
        <time>2018-09-23T08:18:05Z</time>
      </trkpt>
      <trkpt lat="41.7377050" lon="1.6440120">
        <ele>494.0</ele>
        <time>2018-09-23T08:18:11Z</time>
      </trkpt>
      <trkpt lat="41.7377570" lon="1.6442480">
        <ele>495.2</ele>
        <time>2018-09-23T08:18:17Z</time>
      </trkpt>
      <trkpt lat="41.7378450" lon="1.6445050">
        <ele>496.4</ele>
        <time>2018-09-23T08:18:23Z</time>
      </trkpt>
      <trkpt lat="41.7379210" lon="1.6447050">
        <ele>496.4</ele>
        <time>2018-09-23T08:18:27Z</time>
      </trkpt>
      <trkpt lat="41.7382140" lon="1.6453530">
        <ele>496.4</ele>
        <time>2018-09-23T08:18:39Z</time>
      </trkpt>
      <trkpt lat="41.7383230" lon="1.6455660">
        <ele>496.4</ele>
        <time>2018-09-23T08:18:43Z</time>
      </trkpt>
      <trkpt lat="41.7384090" lon="1.6457890">
        <ele>496.4</ele>
        <time>2018-09-23T08:18:47Z</time>
      </trkpt>
      <trkpt lat="41.7387680" lon="1.6463460">
        <ele>497.4</ele>
        <time>2018-09-23T08:19:00Z</time>
      </trkpt>
      <trkpt lat="41.7387950" lon="1.6463860">
        <ele>497.6</ele>
        <time>2018-09-23T08:19:01Z</time>
      </trkpt>
      <trkpt lat="41.7389760" lon="1.6467100">
        <ele>498.6</ele>
        <time>2018-09-23T08:19:10Z</time>
      </trkpt>
      <trkpt lat="41.7390950" lon="1.6470270">
        <ele>499.6</ele>
        <time>2018-09-23T08:19:17Z</time>
      </trkpt>
      <trkpt lat="41.7392840" lon="1.6476900">
        <ele>500.8</ele>
        <time>2018-09-23T08:19:30Z</time>
      </trkpt>
      <trkpt lat="41.7393470" lon="1.6478740">
        <ele>500.8</ele>
        <time>2018-09-23T08:19:33Z</time>
      </trkpt>
      <trkpt lat="41.7395780" lon="1.6482780">
        <ele>499.4</ele>
        <time>2018-09-23T08:19:44Z</time>
      </trkpt>
      <trkpt lat="41.7396970" lon="1.6485140">
        <ele>498.4</ele>
        <time>2018-09-23T08:19:51Z</time>
      </trkpt>
      <trkpt lat="41.7397940" lon="1.6488380">
        <ele>497.8</ele>
        <time>2018-09-23T08:19:58Z</time>
      </trkpt>
      <trkpt lat="41.7398750" lon="1.6491200">
        <ele>497.6</ele>
        <time>2018-09-23T08:20:03Z</time>
      </trkpt>
      <trkpt lat="41.7400690" lon="1.6498080">
        <ele>498.6</ele>
        <time>2018-09-23T08:20:19Z</time>
      </trkpt>
      <trkpt lat="41.7402330" lon="1.6498870">
        <ele>499.6</ele>
        <time>2018-09-23T08:20:25Z</time>
      </trkpt>
      <trkpt lat="41.7404320" lon="1.6497610">
        <ele>500.8</ele>
        <time>2018-09-23T08:20:33Z</time>
      </trkpt>
      <trkpt lat="41.7406770" lon="1.6497210">
        <ele>501.8</ele>
        <time>2018-09-23T08:20:43Z</time>
      </trkpt>
      <trkpt lat="41.7409370" lon="1.6498040">
        <ele>502.8</ele>
        <time>2018-09-23T08:20:52Z</time>
      </trkpt>
      <trkpt lat="41.7412080" lon="1.6498930">
        <ele>503.6</ele>
        <time>2018-09-23T08:21:03Z</time>
      </trkpt>
      <trkpt lat="41.7412130" lon="1.6498970">
        <ele>503.8</ele>
        <time>2018-09-23T08:21:05Z</time>
      </trkpt>
      <trkpt lat="41.7412390" lon="1.6499060">
        <ele>504.6</ele>
        <time>2018-09-23T08:22:17Z</time>
      </trkpt>
      <trkpt lat="41.7417740" lon="1.6500690">
        <ele>505.6</ele>
        <time>2018-09-23T08:22:39Z</time>
      </trkpt>
      <trkpt lat="41.7418000" lon="1.6500730">
        <ele>505.8</ele>
        <time>2018-09-23T08:22:40Z</time>
      </trkpt>
      <trkpt lat="41.7420080" lon="1.6501140">
        <ele>507.0</ele>
        <time>2018-09-23T08:22:49Z</time>
      </trkpt>
      <trkpt lat="41.7420650" lon="1.6501580">
        <ele>508.2</ele>
        <time>2018-09-23T08:22:53Z</time>
      </trkpt>
      <trkpt lat="41.7421480" lon="1.6502310">
        <ele>509.4</ele>
        <time>2018-09-23T08:22:58Z</time>
      </trkpt>
      <trkpt lat="41.7422250" lon="1.6502880">
        <ele>510.4</ele>
        <time>2018-09-23T08:23:02Z</time>
      </trkpt>
      <trkpt lat="41.7423800" lon="1.6503930">
        <ele>511.6</ele>
        <time>2018-09-23T08:23:10Z</time>
      </trkpt>
      <trkpt lat="41.7425550" lon="1.6504580">
        <ele>513.0</ele>
        <time>2018-09-23T08:23:18Z</time>
      </trkpt>
      <trkpt lat="41.7427090" lon="1.6504240">
        <ele>514.0</ele>
        <time>2018-09-23T08:23:25Z</time>
      </trkpt>
      <trkpt lat="41.7428030" lon="1.6504470">
        <ele>514.8</ele>
        <time>2018-09-23T08:23:30Z</time>
      </trkpt>
      <trkpt lat="41.7428100" lon="1.6504700">
        <ele>515.0</ele>
        <time>2018-09-23T08:23:31Z</time>
      </trkpt>
      <trkpt lat="41.7427830" lon="1.6506390">
        <ele>516.0</ele>
        <time>2018-09-23T08:23:38Z</time>
      </trkpt>
      <trkpt lat="41.7427730" lon="1.6506600">
        <ele>516.4</ele>
        <time>2018-09-23T08:23:39Z</time>
      </trkpt>
      <trkpt lat="41.7427430" lon="1.6507870">
        <ele>517.4</ele>
        <time>2018-09-23T08:23:44Z</time>
      </trkpt>
      <trkpt lat="41.7427290" lon="1.6509690">
        <ele>518.6</ele>
        <time>2018-09-23T08:23:51Z</time>
      </trkpt>
      <trkpt lat="41.7427580" lon="1.6512100">
        <ele>519.6</ele>
        <time>2018-09-23T08:24:02Z</time>
      </trkpt>
      <trkpt lat="41.7428050" lon="1.6514080">
        <ele>520.8</ele>
        <time>2018-09-23T08:24:13Z</time>
      </trkpt>
      <trkpt lat="41.7428180" lon="1.6514940">
        <ele>521.2</ele>
        <time>2018-09-23T08:24:17Z</time>
      </trkpt>
      <trkpt lat="41.7428670" lon="1.6516460">
        <ele>521.8</ele>
        <time>2018-09-23T08:24:26Z</time>
      </trkpt>
      <trkpt lat="41.7429890" lon="1.6516570">
        <ele>523.0</ele>
        <time>2018-09-23T08:24:33Z</time>
      </trkpt>
      <trkpt lat="41.7431170" lon="1.6517000">
        <ele>524.2</ele>
        <time>2018-09-23T08:24:40Z</time>
      </trkpt>
      <trkpt lat="41.7431580" lon="1.6517640">
        <ele>525.4</ele>
        <time>2018-09-23T08:24:43Z</time>
      </trkpt>
      <trkpt lat="41.7432420" lon="1.6518730">
        <ele>526.4</ele>
        <time>2018-09-23T08:24:48Z</time>
      </trkpt>
      <trkpt lat="41.7432990" lon="1.6519550">
        <ele>527.6</ele>
        <time>2018-09-23T08:24:52Z</time>
      </trkpt>
      <trkpt lat="41.7433940" lon="1.6521260">
        <ele>528.8</ele>
        <time>2018-09-23T08:25:01Z</time>
      </trkpt>
      <trkpt lat="41.7434570" lon="1.6523250">
        <ele>530.0</ele>
        <time>2018-09-23T08:25:09Z</time>
      </trkpt>
      <trkpt lat="41.7435690" lon="1.6527920">
        <ele>531.0</ele>
        <time>2018-09-23T08:25:24Z</time>
      </trkpt>
      <trkpt lat="41.7436440" lon="1.6530780">
        <ele>532.0</ele>
        <time>2018-09-23T08:25:32Z</time>
      </trkpt>
      <trkpt lat="41.7437290" lon="1.6532830">
        <ele>533.2</ele>
        <time>2018-09-23T08:25:38Z</time>
      </trkpt>
      <trkpt lat="41.7438530" lon="1.6534620">
        <ele>534.4</ele>
        <time>2018-09-23T08:25:44Z</time>
      </trkpt>
      <trkpt lat="41.7443620" lon="1.6537240">
        <ele>535.2</ele>
        <time>2018-09-23T08:25:57Z</time>
      </trkpt>
      <trkpt lat="41.7446300" lon="1.6538460">
        <ele>534.4</ele>
        <time>2018-09-23T08:26:01Z</time>
      </trkpt>
      <trkpt lat="41.7448520" lon="1.6540510">
        <ele>533.0</ele>
        <time>2018-09-23T08:26:05Z</time>
      </trkpt>
      <trkpt lat="41.7448960" lon="1.6541090">
        <ele>532.6</ele>
        <time>2018-09-23T08:26:06Z</time>
      </trkpt>
      <trkpt lat="41.7449730" lon="1.6542350">
        <ele>532.0</ele>
        <time>2018-09-23T08:26:08Z</time>
      </trkpt>
      <trkpt lat="41.7451240" lon="1.6544670">
        <ele>531.0</ele>
        <time>2018-09-23T08:26:12Z</time>
      </trkpt>
      <trkpt lat="41.7454650" lon="1.6550580">
        <ele>531.0</ele>
        <time>2018-09-23T08:26:22Z</time>
      </trkpt>
      <trkpt lat="41.7455580" lon="1.6552280">
        <ele>531.2</ele>
        <time>2018-09-23T08:26:25Z</time>
      </trkpt>
      <trkpt lat="41.7456920" lon="1.6554070">
        <ele>531.6</ele>
        <time>2018-09-23T08:26:29Z</time>
      </trkpt>
      <trkpt lat="41.7457640" lon="1.6554690">
        <ele>532.0</ele>
        <time>2018-09-23T08:26:31Z</time>
      </trkpt>
      <trkpt lat="41.7459040" lon="1.6555790">
        <ele>533.2</ele>
        <time>2018-09-23T08:26:35Z</time>
      </trkpt>
      <trkpt lat="41.7464020" lon="1.6559810">
        <ele>533.6</ele>
        <time>2018-09-23T08:26:48Z</time>
      </trkpt>
      <trkpt lat="41.7466030" lon="1.6561500">
        <ele>531.8</ele>
        <time>2018-09-23T08:26:51Z</time>
      </trkpt>
      <trkpt lat="41.7468440" lon="1.6563700">
        <ele>530.8</ele>
        <time>2018-09-23T08:26:54Z</time>
      </trkpt>
      <trkpt lat="41.7470060" lon="1.6565370">
        <ele>528.6</ele>
        <time>2018-09-23T08:26:56Z</time>
      </trkpt>
      <trkpt lat="41.7471600" lon="1.6567100">
        <ele>527.0</ele>
        <time>2018-09-23T08:26:58Z</time>
      </trkpt>
      <trkpt lat="41.7473020" lon="1.6568820">
        <ele>525.8</ele>
        <time>2018-09-23T08:27:00Z</time>
      </trkpt>
      <trkpt lat="41.7474270" lon="1.6570480">
        <ele>524.0</ele>
        <time>2018-09-23T08:27:02Z</time>
      </trkpt>
      <trkpt lat="41.7475250" lon="1.6572090">
        <ele>522.0</ele>
        <time>2018-09-23T08:27:04Z</time>
      </trkpt>
      <trkpt lat="41.7476070" lon="1.6573540">
        <ele>521.0</ele>
        <time>2018-09-23T08:27:06Z</time>
      </trkpt>
      <trkpt lat="41.7479170" lon="1.6580290">
        <ele>520.6</ele>
        <time>2018-09-23T08:27:16Z</time>
      </trkpt>
      <trkpt lat="41.7481570" lon="1.6585850">
        <ele>522.2</ele>
        <time>2018-09-23T08:27:28Z</time>
      </trkpt>
      <trkpt lat="41.7482010" lon="1.6587010">
        <ele>523.4</ele>
        <time>2018-09-23T08:27:31Z</time>
      </trkpt>
      <trkpt lat="41.7482490" lon="1.6588060">
        <ele>524.6</ele>
        <time>2018-09-23T08:27:34Z</time>
      </trkpt>
      <trkpt lat="41.7482910" lon="1.6589160">
        <ele>525.8</ele>
        <time>2018-09-23T08:27:37Z</time>
      </trkpt>
      <trkpt lat="41.7483400" lon="1.6590250">
        <ele>527.0</ele>
        <time>2018-09-23T08:27:40Z</time>
      </trkpt>
      <trkpt lat="41.7484070" lon="1.6591930">
        <ele>528.2</ele>
        <time>2018-09-23T08:27:44Z</time>
      </trkpt>
      <trkpt lat="41.7487100" lon="1.6598550">
        <ele>528.4</ele>
        <time>2018-09-23T08:27:55Z</time>
      </trkpt>
      <trkpt lat="41.7488330" lon="1.6601290">
        <ele>527.2</ele>
        <time>2018-09-23T08:28:01Z</time>
      </trkpt>
      <trkpt lat="41.7489820" lon="1.6605040">
        <ele>528.6</ele>
        <time>2018-09-23T08:28:15Z</time>
      </trkpt>
      <trkpt lat="41.7490330" lon="1.6606050">
        <ele>530.4</ele>
        <time>2018-09-23T08:28:18Z</time>
      </trkpt>
      <trkpt lat="41.7491240" lon="1.6608360">
        <ele>531.4</ele>
        <time>2018-09-23T08:28:24Z</time>
      </trkpt>
      <trkpt lat="41.7492350" lon="1.6610960">
        <ele>532.6</ele>
        <time>2018-09-23T08:28:32Z</time>
      </trkpt>
      <trkpt lat="41.7493170" lon="1.6612920">
        <ele>533.6</ele>
        <time>2018-09-23T08:28:38Z</time>
      </trkpt>
      <trkpt lat="41.7494530" lon="1.6616130">
        <ele>534.8</ele>
        <time>2018-09-23T08:28:48Z</time>
      </trkpt>
      <trkpt lat="41.7495910" lon="1.6618530">
        <ele>535.8</ele>
        <time>2018-09-23T08:28:56Z</time>
      </trkpt>
      <trkpt lat="41.7498670" lon="1.6620510">
        <ele>536.8</ele>
        <time>2018-09-23T08:29:08Z</time>
      </trkpt>
      <trkpt lat="41.7500460" lon="1.6621590">
        <ele>538.0</ele>
        <time>2018-09-23T08:29:17Z</time>
      </trkpt>
      <trkpt lat="41.7501880" lon="1.6622720">
        <ele>538.4</ele>
        <time>2018-09-23T08:29:29Z</time>
      </trkpt>
      <trkpt lat="41.7502330" lon="1.6622780">
        <ele>538.6</ele>
        <time>2018-09-23T08:30:35Z</time>
      </trkpt>
      <trkpt lat="41.7504730" lon="1.6624430">
        <ele>538.6</ele>
        <time>2018-09-23T08:30:44Z</time>
      </trkpt>
      <trkpt lat="41.7507580" lon="1.6631140">
        <ele>537.4</ele>
        <time>2018-09-23T08:30:53Z</time>
      </trkpt>
      <trkpt lat="41.7507830" lon="1.6631850">
        <ele>536.6</ele>
        <time>2018-09-23T08:30:54Z</time>
      </trkpt>
      <trkpt lat="41.7508350" lon="1.6633170">
        <ele>535.6</ele>
        <time>2018-09-23T08:30:56Z</time>
      </trkpt>
      <trkpt lat="41.7511670" lon="1.6639530">
        <ele>534.8</ele>
        <time>2018-09-23T08:31:05Z</time>
      </trkpt>
      <trkpt lat="41.7512990" lon="1.6642140">
        <ele>534.6</ele>
        <time>2018-09-23T08:31:08Z</time>
      </trkpt>
      <trkpt lat="41.7515000" lon="1.6646940">
        <ele>533.0</ele>
        <time>2018-09-23T08:31:13Z</time>
      </trkpt>
      <trkpt lat="41.7515890" lon="1.6649700">
        <ele>531.4</ele>
        <time>2018-09-23T08:31:16Z</time>
      </trkpt>
      <trkpt lat="41.7516550" lon="1.6652120">
        <ele>530.4</ele>
        <time>2018-09-23T08:31:19Z</time>
      </trkpt>
      <trkpt lat="41.7518420" lon="1.6657810">
        <ele>530.4</ele>
        <time>2018-09-23T08:31:28Z</time>
      </trkpt>
      <trkpt lat="41.7522040" lon="1.6664100">
        <ele>530.4</ele>
        <time>2018-09-23T08:31:36Z</time>
      </trkpt>
      <trkpt lat="41.7525450" lon="1.6670610">
        <ele>529.0</ele>
        <time>2018-09-23T08:31:42Z</time>
      </trkpt>
      <trkpt lat="41.7526320" lon="1.6672830">
        <ele>527.8</ele>
        <time>2018-09-23T08:31:44Z</time>
      </trkpt>
      <trkpt lat="41.7527020" lon="1.6674970">
        <ele>526.2</ele>
        <time>2018-09-23T08:31:46Z</time>
      </trkpt>
      <trkpt lat="41.7527600" lon="1.6676940">
        <ele>524.0</ele>
        <time>2018-09-23T08:31:48Z</time>
      </trkpt>
      <trkpt lat="41.7529490" lon="1.6684360">
        <ele>523.4</ele>
        <time>2018-09-23T08:31:57Z</time>
      </trkpt>
      <trkpt lat="41.7530350" lon="1.6687190">
        <ele>523.4</ele>
        <time>2018-09-23T08:32:01Z</time>
      </trkpt>
      <trkpt lat="41.7534670" lon="1.6692070">
        <ele>523.8</ele>
        <time>2018-09-23T08:32:11Z</time>
      </trkpt>
      <trkpt lat="41.7537580" lon="1.6695010">
        <ele>523.2</ele>
        <time>2018-09-23T08:32:17Z</time>
      </trkpt>
      <trkpt lat="41.7539670" lon="1.6697170">
        <ele>523.0</ele>
        <time>2018-09-23T08:32:22Z</time>
      </trkpt>
      <trkpt lat="41.7544550" lon="1.6695860">
        <ele>522.2</ele>
        <time>2018-09-23T08:32:34Z</time>
      </trkpt>
      <trkpt lat="41.7544840" lon="1.6695330">
        <ele>522.0</ele>
        <time>2018-09-23T08:32:35Z</time>
      </trkpt>
      <trkpt lat="41.7546630" lon="1.6691880">
        <ele>521.0</ele>
        <time>2018-09-23T08:32:40Z</time>
      </trkpt>
      <trkpt lat="41.7549160" lon="1.6687270">
        <ele>519.8</ele>
        <time>2018-09-23T08:32:45Z</time>
      </trkpt>
      <trkpt lat="41.7550620" lon="1.6684140">
        <ele>518.4</ele>
        <time>2018-09-23T08:32:48Z</time>
      </trkpt>
      <trkpt lat="41.7551480" lon="1.6681950">
        <ele>517.4</ele>
        <time>2018-09-23T08:32:50Z</time>
      </trkpt>
      <trkpt lat="41.7552010" lon="1.6680870">
        <ele>516.8</ele>
        <time>2018-09-23T08:32:51Z</time>
      </trkpt>
      <trkpt lat="41.7552650" lon="1.6679870">
        <ele>516.0</ele>
        <time>2018-09-23T08:32:52Z</time>
      </trkpt>
      <trkpt lat="41.7554170" lon="1.6678210">
        <ele>514.6</ele>
        <time>2018-09-23T08:32:54Z</time>
      </trkpt>
      <trkpt lat="41.7556410" lon="1.6675790">
        <ele>513.6</ele>
        <time>2018-09-23T08:32:57Z</time>
      </trkpt>
      <trkpt lat="41.7557670" lon="1.6674260">
        <ele>512.0</ele>
        <time>2018-09-23T08:32:59Z</time>
      </trkpt>
      <trkpt lat="41.7558980" lon="1.6672550">
        <ele>510.6</ele>
        <time>2018-09-23T08:33:01Z</time>
      </trkpt>
      <trkpt lat="41.7560430" lon="1.6670500">
        <ele>509.4</ele>
        <time>2018-09-23T08:33:03Z</time>
      </trkpt>
      <trkpt lat="41.7562060" lon="1.6668310">
        <ele>508.4</ele>
        <time>2018-09-23T08:33:05Z</time>
      </trkpt>
      <trkpt lat="41.7565120" lon="1.6665930">
        <ele>506.8</ele>
        <time>2018-09-23T08:33:08Z</time>
      </trkpt>
      <trkpt lat="41.7566190" lon="1.6665490">
        <ele>506.0</ele>
        <time>2018-09-23T08:33:09Z</time>
      </trkpt>
      <trkpt lat="41.7567190" lon="1.6665050">
        <ele>505.2</ele>
        <time>2018-09-23T08:33:10Z</time>
      </trkpt>
      <trkpt lat="41.7568130" lon="1.6664540">
        <ele>504.0</ele>
        <time>2018-09-23T08:33:11Z</time>
      </trkpt>
      <trkpt lat="41.7568990" lon="1.6664010">
        <ele>503.0</ele>
        <time>2018-09-23T08:33:12Z</time>
      </trkpt>
      <trkpt lat="41.7569810" lon="1.6663470">
        <ele>501.8</ele>
        <time>2018-09-23T08:33:13Z</time>
      </trkpt>
      <trkpt lat="41.7570610" lon="1.6662930">
        <ele>500.8</ele>
        <time>2018-09-23T08:33:14Z</time>
      </trkpt>
      <trkpt lat="41.7571440" lon="1.6662400">
        <ele>499.6</ele>
        <time>2018-09-23T08:33:15Z</time>
      </trkpt>
      <trkpt lat="41.7573160" lon="1.6661450">
        <ele>498.4</ele>
        <time>2018-09-23T08:33:17Z</time>
      </trkpt>
      <trkpt lat="41.7578340" lon="1.6660140">
        <ele>497.2</ele>
        <time>2018-09-23T08:33:22Z</time>
      </trkpt>
      <trkpt lat="41.7580970" lon="1.6659590">
        <ele>496.0</ele>
        <time>2018-09-23T08:33:25Z</time>
      </trkpt>
      <trkpt lat="41.7583040" lon="1.6657590">
        <ele>494.2</ele>
        <time>2018-09-23T08:33:28Z</time>
      </trkpt>
      <trkpt lat="41.7583690" lon="1.6656690">
        <ele>493.4</ele>
        <time>2018-09-23T08:33:29Z</time>
      </trkpt>
      <trkpt lat="41.7584330" lon="1.6655760">
        <ele>492.4</ele>
        <time>2018-09-23T08:33:30Z</time>
      </trkpt>
      <trkpt lat="41.7585620" lon="1.6653890">
        <ele>491.2</ele>
        <time>2018-09-23T08:33:32Z</time>
      </trkpt>
      <trkpt lat="41.7586280" lon="1.6653020">
        <ele>490.8</ele>
        <time>2018-09-23T08:33:33Z</time>
      </trkpt>
      <trkpt lat="41.7587000" lon="1.6652300">
        <ele>490.2</ele>
        <time>2018-09-23T08:33:34Z</time>
      </trkpt>
      <trkpt lat="41.7588630" lon="1.6651450">
        <ele>489.2</ele>
        <time>2018-09-23T08:33:36Z</time>
      </trkpt>
      <trkpt lat="41.7590290" lon="1.6651460">
        <ele>487.8</ele>
        <time>2018-09-23T08:33:38Z</time>
      </trkpt>
      <trkpt lat="41.7591880" lon="1.6652120">
        <ele>486.4</ele>
        <time>2018-09-23T08:33:40Z</time>
      </trkpt>
      <trkpt lat="41.7593380" lon="1.6653090">
        <ele>485.8</ele>
        <time>2018-09-23T08:33:42Z</time>
      </trkpt>
      <trkpt lat="41.7595630" lon="1.6654480">
        <ele>485.6</ele>
        <time>2018-09-23T08:33:45Z</time>
      </trkpt>
      <trkpt lat="41.7597300" lon="1.6654330">
        <ele>485.4</ele>
        <time>2018-09-23T08:33:47Z</time>
      </trkpt>
      <trkpt lat="41.7601010" lon="1.6648690">
        <ele>485.2</ele>
        <time>2018-09-23T08:33:53Z</time>
      </trkpt>
      <trkpt lat="41.7600200" lon="1.6643060">
        <ele>484.2</ele>
        <time>2018-09-23T08:33:57Z</time>
      </trkpt>
      <trkpt lat="41.7599970" lon="1.6641630">
        <ele>483.6</ele>
        <time>2018-09-23T08:33:58Z</time>
      </trkpt>
      <trkpt lat="41.7599940" lon="1.6640240">
        <ele>482.6</ele>
        <time>2018-09-23T08:33:59Z</time>
      </trkpt>
      <trkpt lat="41.7600130" lon="1.6638950">
        <ele>481.6</ele>
        <time>2018-09-23T08:34:00Z</time>
      </trkpt>
      <trkpt lat="41.7600580" lon="1.6637930">
        <ele>480.6</ele>
        <time>2018-09-23T08:34:01Z</time>
      </trkpt>
      <trkpt lat="41.7602070" lon="1.6637050">
        <ele>478.8</ele>
        <time>2018-09-23T08:34:03Z</time>
      </trkpt>
      <trkpt lat="41.7603690" lon="1.6637680">
        <ele>476.6</ele>
        <time>2018-09-23T08:34:05Z</time>
      </trkpt>
      <trkpt lat="41.7604320" lon="1.6638340">
        <ele>475.0</ele>
        <time>2018-09-23T08:34:06Z</time>
      </trkpt>
      <trkpt lat="41.7604860" lon="1.6639130">
        <ele>473.8</ele>
        <time>2018-09-23T08:34:07Z</time>
      </trkpt>
      <trkpt lat="41.7605340" lon="1.6640000">
        <ele>472.4</ele>
        <time>2018-09-23T08:34:08Z</time>
      </trkpt>
      <trkpt lat="41.7605790" lon="1.6640890">
        <ele>470.4</ele>
        <time>2018-09-23T08:34:09Z</time>
      </trkpt>
      <trkpt lat="41.7608130" lon="1.6645130">
        <ele>469.8</ele>
        <time>2018-09-23T08:34:14Z</time>
      </trkpt>
      <trkpt lat="41.7609520" lon="1.6647530">
        <ele>469.8</ele>
        <time>2018-09-23T08:34:17Z</time>
      </trkpt>
      <trkpt lat="41.7612690" lon="1.6649860">
        <ele>469.8</ele>
        <time>2018-09-23T08:34:22Z</time>
      </trkpt>
      <trkpt lat="41.7614750" lon="1.6651020">
        <ele>470.0</ele>
        <time>2018-09-23T08:34:25Z</time>
      </trkpt>
      <trkpt lat="41.7616610" lon="1.6653870">
        <ele>470.2</ele>
        <time>2018-09-23T08:34:30Z</time>
      </trkpt>
      <trkpt lat="41.7616760" lon="1.6654470">
        <ele>470.4</ele>
        <time>2018-09-23T08:34:31Z</time>
      </trkpt>
      <trkpt lat="41.7617490" lon="1.6657330">
        <ele>470.8</ele>
        <time>2018-09-23T08:34:36Z</time>
      </trkpt>
      <trkpt lat="41.7617730" lon="1.6657870">
        <ele>471.0</ele>
        <time>2018-09-23T08:34:37Z</time>
      </trkpt>
      <trkpt lat="41.7618160" lon="1.6659000">
        <ele>472.0</ele>
        <time>2018-09-23T08:34:39Z</time>
      </trkpt>
      <trkpt lat="41.7618350" lon="1.6659610">
        <ele>472.6</ele>
        <time>2018-09-23T08:34:40Z</time>
      </trkpt>
      <trkpt lat="41.7618470" lon="1.6660270">
        <ele>473.4</ele>
        <time>2018-09-23T08:34:41Z</time>
      </trkpt>
      <trkpt lat="41.7618410" lon="1.6661600">
        <ele>475.6</ele>
        <time>2018-09-23T08:34:43Z</time>
      </trkpt>
      <trkpt lat="41.7618320" lon="1.6662250">
        <ele>476.2</ele>
        <time>2018-09-23T08:34:44Z</time>
      </trkpt>
      <trkpt lat="41.7618250" lon="1.6662870">
        <ele>476.8</ele>
        <time>2018-09-23T08:34:45Z</time>
      </trkpt>
      <trkpt lat="41.7618140" lon="1.6664120">
        <ele>477.8</ele>
        <time>2018-09-23T08:34:47Z</time>
      </trkpt>
      <trkpt lat="41.7618130" lon="1.6664730">
        <ele>478.4</ele>
        <time>2018-09-23T08:34:48Z</time>
      </trkpt>
      <trkpt lat="41.7618190" lon="1.6665340">
        <ele>479.0</ele>
        <time>2018-09-23T08:34:49Z</time>
      </trkpt>
      <trkpt lat="41.7618750" lon="1.6666950">
        <ele>480.2</ele>
        <time>2018-09-23T08:34:52Z</time>
      </trkpt>
      <trkpt lat="41.7619000" lon="1.6667390">
        <ele>480.6</ele>
        <time>2018-09-23T08:34:53Z</time>
      </trkpt>
      <trkpt lat="41.7619280" lon="1.6667790">
        <ele>481.2</ele>
        <time>2018-09-23T08:34:54Z</time>
      </trkpt>
      <trkpt lat="41.7620120" lon="1.6668840">
        <ele>482.4</ele>
        <time>2018-09-23T08:34:57Z</time>
      </trkpt>
      <trkpt lat="41.7621660" lon="1.6670970">
        <ele>483.4</ele>
        <time>2018-09-23T08:35:05Z</time>
      </trkpt>
      <trkpt lat="41.7622970" lon="1.6673190">
        <ele>484.4</ele>
        <time>2018-09-23T08:35:16Z</time>
      </trkpt>
      <trkpt lat="41.7623010" lon="1.6673820">
        <ele>484.6</ele>
        <time>2018-09-23T08:35:18Z</time>
      </trkpt>
      <trkpt lat="41.7622910" lon="1.6675030">
        <ele>485.0</ele>
        <time>2018-09-23T08:35:21Z</time>
      </trkpt>
      <trkpt lat="41.7621680" lon="1.6682530">
        <ele>485.0</ele>
        <time>2018-09-23T08:35:34Z</time>
      </trkpt>
      <trkpt lat="41.7621370" lon="1.6684330">
        <ele>484.8</ele>
        <time>2018-09-23T08:35:37Z</time>
      </trkpt>
      <trkpt lat="41.7623770" lon="1.6687470">
        <ele>484.6</ele>
        <time>2018-09-23T08:35:47Z</time>
      </trkpt>
      <trkpt lat="41.7624740" lon="1.6688070">
        <ele>484.8</ele>
        <time>2018-09-23T08:35:50Z</time>
      </trkpt>
      <trkpt lat="41.7625910" lon="1.6688680">
        <ele>485.8</ele>
        <time>2018-09-23T08:35:53Z</time>
      </trkpt>
      <trkpt lat="41.7627140" lon="1.6689210">
        <ele>487.0</ele>
        <time>2018-09-23T08:35:56Z</time>
      </trkpt>
      <trkpt lat="41.7628180" lon="1.6689700">
        <ele>488.0</ele>
        <time>2018-09-23T08:35:59Z</time>
      </trkpt>
      <trkpt lat="41.7629060" lon="1.6690100">
        <ele>489.6</ele>
        <time>2018-09-23T08:36:02Z</time>
      </trkpt>
      <trkpt lat="41.7629630" lon="1.6690140">
        <ele>490.8</ele>
        <time>2018-09-23T08:36:04Z</time>
      </trkpt>
      <trkpt lat="41.7630220" lon="1.6689940">
        <ele>491.8</ele>
        <time>2018-09-23T08:36:06Z</time>
      </trkpt>
      <trkpt lat="41.7631160" lon="1.6689490">
        <ele>493.0</ele>
        <time>2018-09-23T08:36:09Z</time>
      </trkpt>
      <trkpt lat="41.7634210" lon="1.6688270">
        <ele>494.2</ele>
        <time>2018-09-23T08:36:20Z</time>
      </trkpt>
      <trkpt lat="41.7635030" lon="1.6688440">
        <ele>495.2</ele>
        <time>2018-09-23T08:36:25Z</time>
      </trkpt>
      <trkpt lat="41.7635110" lon="1.6688490">
        <ele>496.2</ele>
        <time>2018-09-23T08:36:30Z</time>
      </trkpt>
    </trkseg>
  </trk>
</gpx>
